<?xml version="1.0" encoding="utf-8"?>
<gpx xmlns:xsi="http://www.w3.org/2001/XMLSchema-instance" xmlns:xsd="http://www.w3.org/2001/XMLSchema" version="1.1" creator="Shapelink.com" xmlns="http://www.topografix.com/GPX/1/1" xmlns:gpxtpx="http://www.garmin.com/xmlschemas/TrackPointExtension/v1">
  <metadata>
    <name>Löpning 8.79 km, 2018-03-19</name>
    <desc></desc>
    <author><name>Bengt-Åke Forslund</name></author> 
    <time>2018-03-19T10:17:12Z</time>
  </metadata>
  <trk>
    <name>Löpning 8.79 km, 2018-03-19</name>
    <trkseg>
      <trkpt lat="62.635871974917" lon="17.967761447675">
        <ele>53</ele>
        <time>2018-03-19T10:17:12Z</time>
      </trkpt>
      <trkpt lat="62.635941879963" lon="17.968048443931">
        <ele>52.2</ele>
        <time>2018-03-19T10:17:19Z</time>
      </trkpt>
      <trkpt lat="62.635955207184" lon="17.968096975132">
        <ele>52.4</ele>
        <time>2018-03-19T10:17:20Z</time>
      </trkpt>
      <trkpt lat="62.635970462242" lon="17.968150451654">
        <ele>52.2</ele>
        <time>2018-03-19T10:17:21Z</time>
      </trkpt>
      <trkpt lat="62.635983035092" lon="17.968181213227">
        <ele>52.2</ele>
        <time>2018-03-19T10:17:22Z</time>
      </trkpt>
      <trkpt lat="62.636000637082" lon="17.968229325333">
        <ele>52.4</ele>
        <time>2018-03-19T10:17:23Z</time>
      </trkpt>
      <trkpt lat="62.636018155253" lon="17.968272156842">
        <ele>52.6</ele>
        <time>2018-03-19T10:17:24Z</time>
      </trkpt>
      <trkpt lat="62.636031231017" lon="17.968309875392">
        <ele>52.6</ele>
        <time>2018-03-19T10:17:25Z</time>
      </trkpt>
      <trkpt lat="62.636046569894" lon="17.968356897851">
        <ele>52.6</ele>
        <time>2018-03-19T10:17:26Z</time>
      </trkpt>
      <trkpt lat="62.636058220735" lon="17.968385647768">
        <ele>52.8</ele>
        <time>2018-03-19T10:17:27Z</time>
      </trkpt>
      <trkpt lat="62.636075655087" lon="17.968433089322">
        <ele>52.8</ele>
        <time>2018-03-19T10:17:28Z</time>
      </trkpt>
      <trkpt lat="62.636092754163" lon="17.968463599438">
        <ele>52.6</ele>
        <time>2018-03-19T10:17:29Z</time>
      </trkpt>
      <trkpt lat="62.636112116352" lon="17.968487571672">
        <ele>52.8</ele>
        <time>2018-03-19T10:17:30Z</time>
      </trkpt>
      <trkpt lat="62.636129802161" lon="17.96849779759">
        <ele>52.8</ele>
        <time>2018-03-19T10:17:31Z</time>
      </trkpt>
      <trkpt lat="62.636150337816" lon="17.968503748739">
        <ele>52.8</ele>
        <time>2018-03-19T10:17:32Z</time>
      </trkpt>
      <trkpt lat="62.636177578991" lon="17.968511627725">
        <ele>52.8</ele>
        <time>2018-03-19T10:17:33Z</time>
      </trkpt>
      <trkpt lat="62.63620113213" lon="17.968524032937">
        <ele>53</ele>
        <time>2018-03-19T10:17:34Z</time>
      </trkpt>
      <trkpt lat="62.636228876219" lon="17.96853300157">
        <ele>53.2</ele>
        <time>2018-03-19T10:17:35Z</time>
      </trkpt>
      <trkpt lat="62.636257709955" lon="17.96854222166">
        <ele>53</ele>
        <time>2018-03-19T10:17:36Z</time>
      </trkpt>
      <trkpt lat="62.636285202587" lon="17.968562924953">
        <ele>53</ele>
        <time>2018-03-19T10:17:37Z</time>
      </trkpt>
      <trkpt lat="62.636317389083" lon="17.968587986834">
        <ele>53.2</ele>
        <time>2018-03-19T10:17:38Z</time>
      </trkpt>
      <trkpt lat="62.63634362443" lon="17.968621682072">
        <ele>53.2</ele>
        <time>2018-03-19T10:17:39Z</time>
      </trkpt>
      <trkpt lat="62.636363573352" lon="17.96865705369">
        <ele>53</ele>
        <time>2018-03-19T10:17:40Z</time>
      </trkpt>
      <trkpt lat="62.636384109007" lon="17.968703573235">
        <ele>53</ele>
        <time>2018-03-19T10:17:41Z</time>
      </trkpt>
      <trkpt lat="62.636403806472" lon="17.968736849378">
        <ele>53</ele>
        <time>2018-03-19T10:17:42Z</time>
      </trkpt>
      <trkpt lat="62.636423671575" lon="17.968784626208">
        <ele>53.2</ele>
        <time>2018-03-19T10:17:43Z</time>
      </trkpt>
      <trkpt lat="62.636441860298" lon="17.968829888468">
        <ele>53.2</ele>
        <time>2018-03-19T10:17:44Z</time>
      </trkpt>
      <trkpt lat="62.636457199175" lon="17.968862158783">
        <ele>53.2</ele>
        <time>2018-03-19T10:17:45Z</time>
      </trkpt>
      <trkpt lat="62.636476309907" lon="17.968912617821">
        <ele>53.2</ele>
        <time>2018-03-19T10:17:46Z</time>
      </trkpt>
      <trkpt lat="62.636495839734" lon="17.968953605312">
        <ele>53.2</ele>
        <time>2018-03-19T10:17:47Z</time>
      </trkpt>
      <trkpt lat="62.63651796795" lon="17.96900993168">
        <ele>53.2</ele>
        <time>2018-03-19T10:17:48Z</time>
      </trkpt>
      <trkpt lat="62.6365389227" lon="17.969059217252">
        <ele>53.2</ele>
        <time>2018-03-19T10:17:49Z</time>
      </trkpt>
      <trkpt lat="62.636559374536" lon="17.969101713485">
        <ele>53.2</ele>
        <time>2018-03-19T10:17:50Z</time>
      </trkpt>
      <trkpt lat="62.636583179132" lon="17.96916834959">
        <ele>53.2</ele>
        <time>2018-03-19T10:17:51Z</time>
      </trkpt>
      <trkpt lat="62.636600613484" lon="17.969219395361">
        <ele>53.4</ele>
        <time>2018-03-19T10:17:52Z</time>
      </trkpt>
      <trkpt lat="62.636618383112" lon="17.969283349258">
        <ele>53.2</ele>
        <time>2018-03-19T10:17:53Z</time>
      </trkpt>
      <trkpt lat="62.636632716161" lon="17.969342860748">
        <ele>53.4</ele>
        <time>2018-03-19T10:17:54Z</time>
      </trkpt>
      <trkpt lat="62.636649144685" lon="17.969395415261">
        <ele>53.4</ele>
        <time>2018-03-19T10:17:55Z</time>
      </trkpt>
      <trkpt lat="62.636662220449" lon="17.96947177437">
        <ele>53.6</ele>
        <time>2018-03-19T10:17:56Z</time>
      </trkpt>
      <trkpt lat="62.636676553498" lon="17.969519048286">
        <ele>53.4</ele>
        <time>2018-03-19T10:17:57Z</time>
      </trkpt>
      <trkpt lat="62.636688791072" lon="17.969576631939">
        <ele>53.6</ele>
        <time>2018-03-19T10:17:58Z</time>
      </trkpt>
      <trkpt lat="62.636698765533" lon="17.969636646343">
        <ele>53.6</ele>
        <time>2018-03-19T10:17:59Z</time>
      </trkpt>
      <trkpt lat="62.636710667831" lon="17.969679896947">
        <ele>53.6</ele>
        <time>2018-03-19T10:18:00Z</time>
      </trkpt>
      <trkpt lat="62.63672583907" lon="17.969735888039">
        <ele>53.6</ele>
        <time>2018-03-19T10:18:01Z</time>
      </trkpt>
      <trkpt lat="62.636738914834" lon="17.96978190467">
        <ele>53.8</ele>
        <time>2018-03-19T10:18:02Z</time>
      </trkpt>
      <trkpt lat="62.636751403865" lon="17.969840075056">
        <ele>54</ele>
        <time>2018-03-19T10:18:03Z</time>
      </trkpt>
      <trkpt lat="62.636769257312" lon="17.969886175506">
        <ele>54</ele>
        <time>2018-03-19T10:18:04Z</time>
      </trkpt>
      <trkpt lat="62.636784428551" lon="17.969923391142">
        <ele>54.2</ele>
        <time>2018-03-19T10:18:05Z</time>
      </trkpt>
      <trkpt lat="62.636804042197" lon="17.969970916515">
        <ele>54.2</ele>
        <time>2018-03-19T10:18:06Z</time>
      </trkpt>
      <trkpt lat="62.636822901472" lon="17.970015592042">
        <ele>54.2</ele>
        <time>2018-03-19T10:18:07Z</time>
      </trkpt>
      <trkpt lat="62.636845616421" lon="17.970043839045">
        <ele>54.2</ele>
        <time>2018-03-19T10:18:08Z</time>
      </trkpt>
      <trkpt lat="62.636872857596" lon="17.970092370246">
        <ele>54.2</ele>
        <time>2018-03-19T10:18:09Z</time>
      </trkpt>
      <trkpt lat="62.636895740183" lon="17.970122545086">
        <ele>54.2</ele>
        <time>2018-03-19T10:18:10Z</time>
      </trkpt>
      <trkpt lat="62.636926669394" lon="17.970157329971">
        <ele>54.2</ele>
        <time>2018-03-19T10:18:11Z</time>
      </trkpt>
      <trkpt lat="62.636954497302" lon="17.970172752667">
        <ele>54.2</ele>
        <time>2018-03-19T10:18:12Z</time>
      </trkpt>
      <trkpt lat="62.636981738477" lon="17.970180631653">
        <ele>54.2</ele>
        <time>2018-03-19T10:18:13Z</time>
      </trkpt>
      <trkpt lat="62.637016271905" lon="17.970187504811">
        <ele>54.4</ele>
        <time>2018-03-19T10:18:14Z</time>
      </trkpt>
      <trkpt lat="62.637056505025" lon="17.970193539779">
        <ele>54.2</ele>
        <time>2018-03-19T10:18:15Z</time>
      </trkpt>
      <trkpt lat="62.63708877534" lon="17.970188343001">
        <ele>54.4</ele>
        <time>2018-03-19T10:18:16Z</time>
      </trkpt>
      <trkpt lat="62.637124398415" lon="17.970167136794">
        <ele>54.4</ele>
        <time>2018-03-19T10:18:17Z</time>
      </trkpt>
      <trkpt lat="62.637165302087" lon="17.970151797917">
        <ele>54.4</ele>
        <time>2018-03-19T10:18:18Z</time>
      </trkpt>
      <trkpt lat="62.637205367569" lon="17.970132771004">
        <ele>54.2</ele>
        <time>2018-03-19T10:18:19Z</time>
      </trkpt>
      <trkpt lat="62.637244930137" lon="17.970108295856">
        <ele>54</ele>
        <time>2018-03-19T10:18:20Z</time>
      </trkpt>
      <trkpt lat="62.637289270388" lon="17.970086586735">
        <ele>53.8</ele>
        <time>2018-03-19T10:18:21Z</time>
      </trkpt>
      <trkpt lat="62.637325564015" lon="17.970067643641">
        <ele>53.4</ele>
        <time>2018-03-19T10:18:22Z</time>
      </trkpt>
      <trkpt lat="62.637365042764" lon="17.970048868185">
        <ele>53.2</ele>
        <time>2018-03-19T10:18:23Z</time>
      </trkpt>
      <trkpt lat="62.637414747431" lon="17.970026823788">
        <ele>53</ele>
        <time>2018-03-19T10:18:24Z</time>
      </trkpt>
      <trkpt lat="62.637456070198" lon="17.970019866811">
        <ele>53</ele>
        <time>2018-03-19T10:18:25Z</time>
      </trkpt>
      <trkpt lat="62.637491609454" lon="17.970020202087">
        <ele>52.4</ele>
        <time>2018-03-19T10:18:26Z</time>
      </trkpt>
      <trkpt lat="62.637530082375" lon="17.970037887896">
        <ele>52.2</ele>
        <time>2018-03-19T10:18:27Z</time>
      </trkpt>
      <trkpt lat="62.637556317722" lon="17.970066973089">
        <ele>52</ele>
        <time>2018-03-19T10:18:28Z</time>
      </trkpt>
      <trkpt lat="62.63758246925" lon="17.970117013032">
        <ele>51.8</ele>
        <time>2018-03-19T10:18:29Z</time>
      </trkpt>
      <trkpt lat="62.637604010733" lon="17.9701649575">
        <ele>51.6</ele>
        <time>2018-03-19T10:18:30Z</time>
      </trkpt>
      <trkpt lat="62.637630581356" lon="17.97022698356">
        <ele>51.4</ele>
        <time>2018-03-19T10:18:31Z</time>
      </trkpt>
      <trkpt lat="62.637655978513" lon="17.97027643677">
        <ele>51.2</ele>
        <time>2018-03-19T10:18:32Z</time>
      </trkpt>
      <trkpt lat="62.637682549136" lon="17.97032505179">
        <ele>51.4</ele>
        <time>2018-03-19T10:18:33Z</time>
      </trkpt>
      <trkpt lat="62.637694535253" lon="17.970414067568">
        <ele>51.2</ele>
        <time>2018-03-19T10:18:34Z</time>
      </trkpt>
      <trkpt lat="62.637713645985" lon="17.970472657049">
        <ele>51.2</ele>
        <time>2018-03-19T10:18:35Z</time>
      </trkpt>
      <trkpt lat="62.637732756717" lon="17.970553374746">
        <ele>51.4</ele>
        <time>2018-03-19T10:18:36Z</time>
      </trkpt>
      <trkpt lat="62.637750777802" lon="17.970624117982">
        <ele>51.4</ele>
        <time>2018-03-19T10:18:37Z</time>
      </trkpt>
      <trkpt lat="62.637757986236" lon="17.970675918124">
        <ele>51.4</ele>
        <time>2018-03-19T10:18:38Z</time>
      </trkpt>
      <trkpt lat="62.637771648733" lon="17.970744314428">
        <ele>51.4</ele>
        <time>2018-03-19T10:18:39Z</time>
      </trkpt>
      <trkpt lat="62.637784221583" lon="17.970790163421">
        <ele>51.6</ele>
        <time>2018-03-19T10:18:40Z</time>
      </trkpt>
      <trkpt lat="62.637798889908" lon="17.970833414025">
        <ele>51.8</ele>
        <time>2018-03-19T10:18:41Z</time>
      </trkpt>
      <trkpt lat="62.637810876025" lon="17.970917316844">
        <ele>52</ele>
        <time>2018-03-19T10:18:42Z</time>
      </trkpt>
      <trkpt lat="62.637822526866" lon="17.970974313764">
        <ele>52.2</ele>
        <time>2018-03-19T10:18:43Z</time>
      </trkpt>
      <trkpt lat="62.637835854087" lon="17.971040698412">
        <ele>52.2</ele>
        <time>2018-03-19T10:18:44Z</time>
      </trkpt>
      <trkpt lat="62.637849516584" lon="17.971088559061">
        <ele>52.2</ele>
        <time>2018-03-19T10:18:45Z</time>
      </trkpt>
      <trkpt lat="62.637860329235" lon="17.971158967021">
        <ele>52.2</ele>
        <time>2018-03-19T10:18:46Z</time>
      </trkpt>
      <trkpt lat="62.637872818266" lon="17.971218813787">
        <ele>52.2</ele>
        <time>2018-03-19T10:18:47Z</time>
      </trkpt>
      <trkpt lat="62.637886229306" lon="17.971275810707">
        <ele>52.4</ele>
        <time>2018-03-19T10:18:48Z</time>
      </trkpt>
      <trkpt lat="62.637895281758" lon="17.971329454867">
        <ele>52.2</ele>
        <time>2018-03-19T10:18:49Z</time>
      </trkpt>
      <trkpt lat="62.637904585667" lon="17.97137027472">
        <ele>52.2</ele>
        <time>2018-03-19T10:18:50Z</time>
      </trkpt>
      <trkpt lat="62.63791690706" lon="17.971430708219">
        <ele>52.2</ele>
        <time>2018-03-19T10:18:51Z</time>
      </trkpt>
      <trkpt lat="62.637924283132" lon="17.971478652687">
        <ele>52.2</ele>
        <time>2018-03-19T10:18:52Z</time>
      </trkpt>
      <trkpt lat="62.637932581213" lon="17.971525088413">
        <ele>52.2</ele>
        <time>2018-03-19T10:18:53Z</time>
      </trkpt>
      <trkpt lat="62.637943226226" lon="17.971590131957">
        <ele>52.2</ele>
        <time>2018-03-19T10:18:54Z</time>
      </trkpt>
      <trkpt lat="62.63795462561" lon="17.971652493293">
        <ele>52.4</ele>
        <time>2018-03-19T10:18:55Z</time>
      </trkpt>
      <trkpt lat="62.637959822388" lon="17.971703119969">
        <ele>52.4</ele>
        <time>2018-03-19T10:18:56Z</time>
      </trkpt>
      <trkpt lat="62.637966024994" lon="17.971762799097">
        <ele>52.6</ele>
        <time>2018-03-19T10:18:57Z</time>
      </trkpt>
      <trkpt lat="62.637970718858" lon="17.971818035818">
        <ele>52.6</ele>
        <time>2018-03-19T10:18:58Z</time>
      </trkpt>
      <trkpt lat="62.637968455745" lon="17.971886935036">
        <ele>52.6</ele>
        <time>2018-03-19T10:18:59Z</time>
      </trkpt>
      <trkpt lat="62.637971054134" lon="17.971930520916">
        <ele>52.6</ele>
        <time>2018-03-19T10:19:00Z</time>
      </trkpt>
      <trkpt lat="62.637970215944" lon="17.971997743754">
        <ele>52.6</ele>
        <time>2018-03-19T10:19:01Z</time>
      </trkpt>
      <trkpt lat="62.637971473229" lon="17.97205507595">
        <ele>52.6</ele>
        <time>2018-03-19T10:19:02Z</time>
      </trkpt>
      <trkpt lat="62.637972395238" lon="17.972111486137">
        <ele>52.8</ele>
        <time>2018-03-19T10:19:03Z</time>
      </trkpt>
      <trkpt lat="62.637983626984" lon="17.972171165265">
        <ele>53</ele>
        <time>2018-03-19T10:19:04Z</time>
      </trkpt>
      <trkpt lat="62.637987901753" lon="17.972235957352">
        <ele>53</ele>
        <time>2018-03-19T10:19:05Z</time>
      </trkpt>
      <trkpt lat="62.637991003056" lon="17.972296977584">
        <ele>52.8</ele>
        <time>2018-03-19T10:19:06Z</time>
      </trkpt>
      <trkpt lat="62.637995110187" lon="17.972345173509">
        <ele>53</ele>
        <time>2018-03-19T10:19:07Z</time>
      </trkpt>
      <trkpt lat="62.637996870386" lon="17.972401416058">
        <ele>53</ele>
        <time>2018-03-19T10:19:08Z</time>
      </trkpt>
      <trkpt lat="62.638001396612" lon="17.972445756309">
        <ele>53.2</ele>
        <time>2018-03-19T10:19:09Z</time>
      </trkpt>
      <trkpt lat="62.638002234802" lon="17.972500741573">
        <ele>53.2</ele>
        <time>2018-03-19T10:19:10Z</time>
      </trkpt>
      <trkpt lat="62.638008018313" lon="17.972551116792">
        <ele>53.4</ele>
        <time>2018-03-19T10:19:11Z</time>
      </trkpt>
      <trkpt lat="62.638008185951" lon="17.97260241402">
        <ele>53.4</ele>
        <time>2018-03-19T10:19:12Z</time>
      </trkpt>
      <trkpt lat="62.638019333878" lon="17.972655471447">
        <ele>53.8</ele>
        <time>2018-03-19T10:19:13Z</time>
      </trkpt>
      <trkpt lat="62.638018663326" lon="17.972712803643">
        <ele>53.8</ele>
        <time>2018-03-19T10:19:14Z</time>
      </trkpt>
      <trkpt lat="62.638027045226" lon="17.972757143894">
        <ele>53.8</ele>
        <time>2018-03-19T10:19:15Z</time>
      </trkpt>
      <trkpt lat="62.638023608647" lon="17.972812296796">
        <ele>54</ele>
        <time>2018-03-19T10:19:16Z</time>
      </trkpt>
      <trkpt lat="62.638028134873" lon="17.972854373934">
        <ele>54</ele>
        <time>2018-03-19T10:19:17Z</time>
      </trkpt>
      <trkpt lat="62.638024949751" lon="17.972913214872">
        <ele>54</ele>
        <time>2018-03-19T10:19:18Z</time>
      </trkpt>
      <trkpt lat="62.63803006271" lon="17.972962751901">
        <ele>54.2</ele>
        <time>2018-03-19T10:19:19Z</time>
      </trkpt>
      <trkpt lat="62.638029475977" lon="17.973022933943">
        <ele>54.4</ele>
        <time>2018-03-19T10:19:20Z</time>
      </trkpt>
      <trkpt lat="62.638033080194" lon="17.973084624727">
        <ele>54.6</ele>
        <time>2018-03-19T10:19:21Z</time>
      </trkpt>
      <trkpt lat="62.638032828737" lon="17.973132401557">
        <ele>54.8</ele>
        <time>2018-03-19T10:19:22Z</time>
      </trkpt>
      <trkpt lat="62.638032074366" lon="17.97319417616">
        <ele>54.8</ele>
        <time>2018-03-19T10:19:23Z</time>
      </trkpt>
      <trkpt lat="62.638034086022" lon="17.97323692385">
        <ele>55</ele>
        <time>2018-03-19T10:19:24Z</time>
      </trkpt>
      <trkpt lat="62.638031487633" lon="17.973293836951">
        <ele>55</ele>
        <time>2018-03-19T10:19:25Z</time>
      </trkpt>
      <trkpt lat="62.63803676823" lon="17.973337422831">
        <ele>55</ele>
        <time>2018-03-19T10:19:26Z</time>
      </trkpt>
      <trkpt lat="62.638031655271" lon="17.973390731715">
        <ele>55.2</ele>
        <time>2018-03-19T10:19:27Z</time>
      </trkpt>
      <trkpt lat="62.638027799597" lon="17.97344814773">
        <ele>55.4</ele>
        <time>2018-03-19T10:19:28Z</time>
      </trkpt>
      <trkpt lat="62.638024446837" lon="17.973500618424">
        <ele>55.6</ele>
        <time>2018-03-19T10:19:29Z</time>
      </trkpt>
      <trkpt lat="62.638021010258" lon="17.973561722475">
        <ele>55.8</ele>
        <time>2018-03-19T10:19:30Z</time>
      </trkpt>
      <trkpt lat="62.638026374674" lon="17.973608744934">
        <ele>55.8</ele>
        <time>2018-03-19T10:19:31Z</time>
      </trkpt>
      <trkpt lat="62.638025704122" lon="17.973669513709">
        <ele>56</ele>
        <time>2018-03-19T10:19:32Z</time>
      </trkpt>
      <trkpt lat="62.638028721606" lon="17.973726678267">
        <ele>56</ele>
        <time>2018-03-19T10:19:33Z</time>
      </trkpt>
      <trkpt lat="62.638028973063" lon="17.97378426192">
        <ele>56</ele>
        <time>2018-03-19T10:19:34Z</time>
      </trkpt>
      <trkpt lat="62.638033080194" lon="17.973832290207">
        <ele>56</ele>
        <time>2018-03-19T10:19:35Z</time>
      </trkpt>
      <trkpt lat="62.638035259488" lon="17.973894232448">
        <ele>56.2</ele>
        <time>2018-03-19T10:19:36Z</time>
      </trkpt>
      <trkpt lat="62.638039701895" lon="17.973940332898">
        <ele>56.2</ele>
        <time>2018-03-19T10:19:37Z</time>
      </trkpt>
      <trkpt lat="62.638043222293" lon="17.97401141141">
        <ele>56.4</ele>
        <time>2018-03-19T10:19:38Z</time>
      </trkpt>
      <trkpt lat="62.638048921985" lon="17.974077963696">
        <ele>56.2</ele>
        <time>2018-03-19T10:19:39Z</time>
      </trkpt>
      <trkpt lat="62.638051771831" lon="17.974134709159">
        <ele>56.2</ele>
        <time>2018-03-19T10:19:40Z</time>
      </trkpt>
      <trkpt lat="62.638053112935" lon="17.974196567581">
        <ele>56</ele>
        <time>2018-03-19T10:19:41Z</time>
      </trkpt>
      <trkpt lat="62.638055627505" lon="17.974246439886">
        <ele>56.2</ele>
        <time>2018-03-19T10:19:42Z</time>
      </trkpt>
      <trkpt lat="62.638060405188" lon="17.974301844245">
        <ele>56.2</ele>
        <time>2018-03-19T10:19:43Z</time>
      </trkpt>
      <trkpt lat="62.63806191393" lon="17.974382813399">
        <ele>56.2</ele>
        <time>2018-03-19T10:19:44Z</time>
      </trkpt>
      <trkpt lat="62.638057303885" lon="17.974460848888">
        <ele>56.2</ele>
        <time>2018-03-19T10:19:45Z</time>
      </trkpt>
      <trkpt lat="62.638057974437" lon="17.974515750333">
        <ele>56.2</ele>
        <time>2018-03-19T10:19:46Z</time>
      </trkpt>
      <trkpt lat="62.638048754347" lon="17.974586828845">
        <ele>56.2</ele>
        <time>2018-03-19T10:19:47Z</time>
      </trkpt>
      <trkpt lat="62.638043892845" lon="17.974656230977">
        <ele>56.2</ele>
        <time>2018-03-19T10:19:48Z</time>
      </trkpt>
      <trkpt lat="62.638032996375" lon="17.97471130006">
        <ele>56</ele>
        <time>2018-03-19T10:19:49Z</time>
      </trkpt>
      <trkpt lat="62.638017992774" lon="17.974763770754">
        <ele>56.2</ele>
        <time>2018-03-19T10:19:50Z</time>
      </trkpt>
      <trkpt lat="62.638010616702" lon="17.974802746589">
        <ele>56</ele>
        <time>2018-03-19T10:19:51Z</time>
      </trkpt>
      <trkpt lat="62.637996451291" lon="17.974841470967">
        <ele>56.2</ele>
        <time>2018-03-19T10:19:52Z</time>
      </trkpt>
      <trkpt lat="62.637987985572" lon="17.974891678548">
        <ele>56.2</ele>
        <time>2018-03-19T10:19:53Z</time>
      </trkpt>
      <trkpt lat="62.637975161265" lon="17.97492000937">
        <ele>56.2</ele>
        <time>2018-03-19T10:19:54Z</time>
      </trkpt>
      <trkpt lat="62.637959319474" lon="17.974975497548">
        <ele>56.2</ele>
        <time>2018-03-19T10:19:55Z</time>
      </trkpt>
      <trkpt lat="62.637941130751" lon="17.975004498922">
        <ele>56.6</ele>
        <time>2018-03-19T10:19:56Z</time>
      </trkpt>
      <trkpt lat="62.637926546245" lon="17.975040960187">
        <ele>56.6</ele>
        <time>2018-03-19T10:19:57Z</time>
      </trkpt>
      <trkpt lat="62.63791020154" lon="17.97507591271">
        <ele>56.8</ele>
        <time>2018-03-19T10:19:58Z</time>
      </trkpt>
      <trkpt lat="62.637889582066" lon="17.975106758102">
        <ele>57</ele>
        <time>2018-03-19T10:19:59Z</time>
      </trkpt>
      <trkpt lat="62.637877428311" lon="17.975138944598">
        <ele>57.2</ele>
        <time>2018-03-19T10:20:00Z</time>
      </trkpt>
      <trkpt lat="62.63785404281" lon="17.975172472198">
        <ele>57.4</ele>
        <time>2018-03-19T10:20:01Z</time>
      </trkpt>
      <trkpt lat="62.637840128856" lon="17.975207173264">
        <ele>57.4</ele>
        <time>2018-03-19T10:20:02Z</time>
      </trkpt>
      <trkpt lat="62.637819006468" lon="17.975245897642">
        <ele>57.6</ele>
        <time>2018-03-19T10:20:03Z</time>
      </trkpt>
      <trkpt lat="62.637803080858" lon="17.975282861821">
        <ele>57.8</ele>
        <time>2018-03-19T10:20:04Z</time>
      </trkpt>
      <trkpt lat="62.637784808316" lon="17.975313036661">
        <ele>57.8</ele>
        <time>2018-03-19T10:20:05Z</time>
      </trkpt>
      <trkpt lat="62.637767793059" lon="17.975340026379">
        <ele>57.8</ele>
        <time>2018-03-19T10:20:06Z</time>
      </trkpt>
      <trkpt lat="62.63775178363" lon="17.975365674993">
        <ele>58</ele>
        <time>2018-03-19T10:20:07Z</time>
      </trkpt>
      <trkpt lat="62.637740300427" lon="17.975384785725">
        <ele>58.2</ele>
        <time>2018-03-19T10:20:08Z</time>
      </trkpt>
      <trkpt lat="62.637722614618" lon="17.975406662484">
        <ele>58.4</ele>
        <time>2018-03-19T10:20:09Z</time>
      </trkpt>
      <trkpt lat="62.637709706492" lon="17.975423593922">
        <ele>58.6</ele>
        <time>2018-03-19T10:20:10Z</time>
      </trkpt>
      <trkpt lat="62.637689506113" lon="17.975437675514">
        <ele>59</ele>
        <time>2018-03-19T10:20:11Z</time>
      </trkpt>
      <trkpt lat="62.637675927435" lon="17.975461899205">
        <ele>59.2</ele>
        <time>2018-03-19T10:20:12Z</time>
      </trkpt>
      <trkpt lat="62.63765203902" lon="17.975472711856">
        <ele>59.4</ele>
        <time>2018-03-19T10:20:13Z</time>
      </trkpt>
      <trkpt lat="62.637638292704" lon="17.975490732941">
        <ele>59.6</ele>
        <time>2018-03-19T10:20:14Z</time>
      </trkpt>
      <trkpt lat="62.637613733737" lon="17.975503641067">
        <ele>60</ele>
        <time>2018-03-19T10:20:15Z</time>
      </trkpt>
      <trkpt lat="62.637597724308" lon="17.975523589989">
        <ele>60</ele>
        <time>2018-03-19T10:20:16Z</time>
      </trkpt>
      <trkpt lat="62.637578110662" lon="17.975533145355">
        <ele>60.2</ele>
        <time>2018-03-19T10:20:17Z</time>
      </trkpt>
      <trkpt lat="62.637558748473" lon="17.975555608847">
        <ele>60.2</ele>
        <time>2018-03-19T10:20:18Z</time>
      </trkpt>
      <trkpt lat="62.637539470103" lon="17.975566505317">
        <ele>60.2</ele>
        <time>2018-03-19T10:20:19Z</time>
      </trkpt>
      <trkpt lat="62.637519856457" lon="17.975577904701">
        <ele>60.4</ele>
        <time>2018-03-19T10:20:20Z</time>
      </trkpt>
      <trkpt lat="62.637502422105" lon="17.975589806999">
        <ele>60.6</ele>
        <time>2018-03-19T10:20:21Z</time>
      </trkpt>
      <trkpt lat="62.637482808459" lon="17.97560564879">
        <ele>60.6</ele>
        <time>2018-03-19T10:20:22Z</time>
      </trkpt>
      <trkpt lat="62.637466966668" lon="17.975630123938">
        <ele>60.8</ele>
        <time>2018-03-19T10:20:23Z</time>
      </trkpt>
      <trkpt lat="62.637445592823" lon="17.975638422019">
        <ele>61</ele>
        <time>2018-03-19T10:20:24Z</time>
      </trkpt>
      <trkpt lat="62.637432097964" lon="17.975669518868">
        <ele>61</ele>
        <time>2018-03-19T10:20:25Z</time>
      </trkpt>
      <trkpt lat="62.637408796282" lon="17.975682091718">
        <ele>61.2</ele>
        <time>2018-03-19T10:20:26Z</time>
      </trkpt>
      <trkpt lat="62.637391278111" lon="17.975705561038">
        <ele>61.4</ele>
        <time>2018-03-19T10:20:27Z</time>
      </trkpt>
      <trkpt lat="62.637370742456" lon="17.975720229363">
        <ele>61.4</ele>
        <time>2018-03-19T10:20:28Z</time>
      </trkpt>
      <trkpt lat="62.63734945243" lon="17.975743279588">
        <ele>61.8</ele>
        <time>2018-03-19T10:20:29Z</time>
      </trkpt>
      <trkpt lat="62.637326402205" lon="17.975772783876">
        <ele>62</ele>
        <time>2018-03-19T10:20:30Z</time>
      </trkpt>
      <trkpt lat="62.637313996993" lon="17.975795750282">
        <ele>62</ele>
        <time>2018-03-19T10:20:31Z</time>
      </trkpt>
      <trkpt lat="62.637299496306" lon="17.975817040308">
        <ele>62</ele>
        <time>2018-03-19T10:20:32Z</time>
      </trkpt>
      <trkpt lat="62.637282648687" lon="17.97583866561">
        <ele>62.2</ele>
        <time>2018-03-19T10:20:33Z</time>
      </trkpt>
      <trkpt lat="62.63727317714" lon="17.975872109391">
        <ele>62.4</ele>
        <time>2018-03-19T10:20:34Z</time>
      </trkpt>
      <trkpt lat="62.63725641334" lon="17.975898763833">
        <ele>62.6</ele>
        <time>2018-03-19T10:20:35Z</time>
      </trkpt>
      <trkpt lat="62.637241661196" lon="17.97593254289">
        <ele>62.6</ele>
        <time>2018-03-19T10:20:36Z</time>
      </trkpt>
      <trkpt lat="62.637233949848" lon="17.975962633911">
        <ele>63</ele>
        <time>2018-03-19T10:20:37Z</time>
      </trkpt>
      <trkpt lat="62.637220538808" lon="17.976000855375">
        <ele>63.2</ele>
        <time>2018-03-19T10:20:38Z</time>
      </trkpt>
      <trkpt lat="62.637215844944" lon="17.976043519246">
        <ele>63.6</ele>
        <time>2018-03-19T10:20:39Z</time>
      </trkpt>
      <trkpt lat="62.637205870483" lon="17.976081321615">
        <ele>63.8</ele>
        <time>2018-03-19T10:20:40Z</time>
      </trkpt>
      <trkpt lat="62.637194219642" lon="17.976128930807">
        <ele>64</ele>
        <time>2018-03-19T10:20:41Z</time>
      </trkpt>
      <trkpt lat="62.637191621253" lon="17.976169080108">
        <ele>64.2</ele>
        <time>2018-03-19T10:20:42Z</time>
      </trkpt>
      <trkpt lat="62.637179467498" lon="17.976223478639">
        <ele>64.2</ele>
        <time>2018-03-19T10:20:43Z</time>
      </trkpt>
      <trkpt lat="62.637175695643" lon="17.976274272953">
        <ele>64.2</ele>
        <time>2018-03-19T10:20:44Z</time>
      </trkpt>
      <trkpt lat="62.637155327626" lon="17.976316014815">
        <ele>64.4</ele>
        <time>2018-03-19T10:20:45Z</time>
      </trkpt>
      <trkpt lat="62.637147197183" lon="17.976369072242">
        <ele>64.4</ele>
        <time>2018-03-19T10:20:46Z</time>
      </trkpt>
      <trkpt lat="62.637137306541" lon="17.976410059733">
        <ele>64.4</ele>
        <time>2018-03-19T10:20:47Z</time>
      </trkpt>
      <trkpt lat="62.637122973492" lon="17.976459429124">
        <ele>64.6</ele>
        <time>2018-03-19T10:20:48Z</time>
      </trkpt>
      <trkpt lat="62.637124398415" lon="17.976495303656">
        <ele>64.6</ele>
        <time>2018-03-19T10:20:49Z</time>
      </trkpt>
      <trkpt lat="62.637119201637" lon="17.976547103798">
        <ele>64.8</ele>
        <time>2018-03-19T10:20:50Z</time>
      </trkpt>
      <trkpt lat="62.637118698723" lon="17.976584989986">
        <ele>64.8</ele>
        <time>2018-03-19T10:20:51Z</time>
      </trkpt>
      <trkpt lat="62.637111657927" lon="17.976634694653">
        <ele>65</ele>
        <time>2018-03-19T10:20:52Z</time>
      </trkpt>
      <trkpt lat="62.637112328479" lon="17.976696804532">
        <ele>65.2</ele>
        <time>2018-03-19T10:20:53Z</time>
      </trkpt>
      <trkpt lat="62.637111322651" lon="17.976745251914">
        <ele>65.2</ele>
        <time>2018-03-19T10:20:54Z</time>
      </trkpt>
      <trkpt lat="62.637109478633" lon="17.976800572454">
        <ele>65.4</ele>
        <time>2018-03-19T10:20:55Z</time>
      </trkpt>
      <trkpt lat="62.637109813909" lon="17.97684281723">
        <ele>65.4</ele>
        <time>2018-03-19T10:20:56Z</time>
      </trkpt>
      <trkpt lat="62.637110484461" lon="17.976888498585">
        <ele>65.6</ele>
        <time>2018-03-19T10:20:57Z</time>
      </trkpt>
      <trkpt lat="62.637115932696" lon="17.976933257931">
        <ele>65.6</ele>
        <time>2018-03-19T10:20:58Z</time>
      </trkpt>
      <trkpt lat="62.63711475923" lon="17.977001318959">
        <ele>65.8</ele>
        <time>2018-03-19T10:20:59Z</time>
      </trkpt>
      <trkpt lat="62.637120207465" lon="17.977045910667">
        <ele>65.8</ele>
        <time>2018-03-19T10:21:00Z</time>
      </trkpt>
      <trkpt lat="62.637118614904" lon="17.977100728293">
        <ele>65.8</ele>
        <time>2018-03-19T10:21:01Z</time>
      </trkpt>
      <trkpt lat="62.637116351791" lon="17.977150097684">
        <ele>65.6</ele>
        <time>2018-03-19T10:21:02Z</time>
      </trkpt>
      <trkpt lat="62.637113837221" lon="17.977201478731">
        <ele>65.6</ele>
        <time>2018-03-19T10:21:03Z</time>
      </trkpt>
      <trkpt lat="62.637106712606" lon="17.977263923886">
        <ele>65.4</ele>
        <time>2018-03-19T10:21:04Z</time>
      </trkpt>
      <trkpt lat="62.637101934923" lon="17.977317316589">
        <ele>65.4</ele>
        <time>2018-03-19T10:21:05Z</time>
      </trkpt>
      <trkpt lat="62.63708458439" lon="17.977381186667">
        <ele>65.4</ele>
        <time>2018-03-19T10:21:06Z</time>
      </trkpt>
      <trkpt lat="62.637074442291" lon="17.977428041488">
        <ele>65.4</ele>
        <time>2018-03-19T10:21:07Z</time>
      </trkpt>
      <trkpt lat="62.6370586005" lon="17.977479171078">
        <ele>65.4</ele>
        <time>2018-03-19T10:21:08Z</time>
      </trkpt>
      <trkpt lat="62.637045273279" lon="17.977534994532">
        <ele>65.6</ele>
        <time>2018-03-19T10:21:09Z</time>
      </trkpt>
      <trkpt lat="62.637033538619" lon="17.977575814385">
        <ele>65.4</ele>
        <time>2018-03-19T10:21:10Z</time>
      </trkpt>
      <trkpt lat="62.637019373208" lon="17.977631470201">
        <ele>65.6</ele>
        <time>2018-03-19T10:21:11Z</time>
      </trkpt>
      <trkpt lat="62.637014260249" lon="17.977666925638">
        <ele>65.4</ele>
        <time>2018-03-19T10:21:12Z</time>
      </trkpt>
      <trkpt lat="62.637000178657" lon="17.977729538431">
        <ele>65.4</ele>
        <time>2018-03-19T10:21:13Z</time>
      </trkpt>
      <trkpt lat="62.636994227508" lon="17.977769100999">
        <ele>65.4</ele>
        <time>2018-03-19T10:21:14Z</time>
      </trkpt>
      <trkpt lat="62.636983666314" lon="17.977833473991">
        <ele>65.4</ele>
        <time>2018-03-19T10:21:15Z</time>
      </trkpt>
      <trkpt lat="62.636980481192" lon="17.977875970224">
        <ele>65.4</ele>
        <time>2018-03-19T10:21:16Z</time>
      </trkpt>
      <trkpt lat="62.636970339093" lon="17.977934727343">
        <ele>65.4</ele>
        <time>2018-03-19T10:21:17Z</time>
      </trkpt>
      <trkpt lat="62.636963130659" lon="17.977997340136">
        <ele>65.4</ele>
        <time>2018-03-19T10:21:18Z</time>
      </trkpt>
      <trkpt lat="62.636955419311" lon="17.978048805002">
        <ele>65.4</ele>
        <time>2018-03-19T10:21:19Z</time>
      </trkpt>
      <trkpt lat="62.636943517013" lon="17.97810429318">
        <ele>65.4</ele>
        <time>2018-03-19T10:21:20Z</time>
      </trkpt>
      <trkpt lat="62.636936979131" lon="17.978146537956">
        <ele>65.6</ele>
        <time>2018-03-19T10:21:21Z</time>
      </trkpt>
      <trkpt lat="62.63692365191" lon="17.978200014478">
        <ele>65.4</ele>
        <time>2018-03-19T10:21:22Z</time>
      </trkpt>
      <trkpt lat="62.636912671621" lon="17.978247958946">
        <ele>65.6</ele>
        <time>2018-03-19T10:21:23Z</time>
      </trkpt>
      <trkpt lat="62.636897081287" lon="17.978309901187">
        <ele>65.6</ele>
        <time>2018-03-19T10:21:24Z</time>
      </trkpt>
      <trkpt lat="62.636888364111" lon="17.978359186759">
        <ele>65.6</ele>
        <time>2018-03-19T10:21:25Z</time>
      </trkpt>
      <trkpt lat="62.636872773777" lon="17.978408472331">
        <ele>65.6</ele>
        <time>2018-03-19T10:21:26Z</time>
      </trkpt>
      <trkpt lat="62.636859278918" lon="17.978446190881">
        <ele>65.6</ele>
        <time>2018-03-19T10:21:27Z</time>
      </trkpt>
      <trkpt lat="62.636843520946" lon="17.978491788417">
        <ele>65.6</ele>
        <time>2018-03-19T10:21:28Z</time>
      </trkpt>
      <trkpt lat="62.636821308911" lon="17.978540738713">
        <ele>65.8</ele>
        <time>2018-03-19T10:21:29Z</time>
      </trkpt>
      <trkpt lat="62.636808736061" lon="17.978575020684">
        <ele>65.8</ele>
        <time>2018-03-19T10:21:30Z</time>
      </trkpt>
      <trkpt lat="62.636789038596" lon="17.978610811397">
        <ele>66</ele>
        <time>2018-03-19T10:21:31Z</time>
      </trkpt>
      <trkpt lat="62.636772526253" lon="17.978647859395">
        <ele>66</ele>
        <time>2018-03-19T10:21:32Z</time>
      </trkpt>
      <trkpt lat="62.636752242055" lon="17.978674597656">
        <ele>66</ele>
        <time>2018-03-19T10:21:33Z</time>
      </trkpt>
      <trkpt lat="62.636729778563" lon="17.978693876026">
        <ele>66.2</ele>
        <time>2018-03-19T10:21:34Z</time>
      </trkpt>
      <trkpt lat="62.636705890148" lon="17.97871533369">
        <ele>66.4</ele>
        <time>2018-03-19T10:21:35Z</time>
      </trkpt>
      <trkpt lat="62.636678313697" lon="17.978736036983">
        <ele>66.4</ele>
        <time>2018-03-19T10:21:36Z</time>
      </trkpt>
      <trkpt lat="62.636654928196" lon="17.978748526014">
        <ele>66.8</ele>
        <time>2018-03-19T10:21:37Z</time>
      </trkpt>
      <trkpt lat="62.636625423908" lon="17.978749280385">
        <ele>67</ele>
        <time>2018-03-19T10:21:38Z</time>
      </trkpt>
      <trkpt lat="62.636603128054" lon="17.97875137586">
        <ele>67</ele>
        <time>2018-03-19T10:21:39Z</time>
      </trkpt>
      <trkpt lat="62.636578569087" lon="17.978745257073">
        <ele>67.2</ele>
        <time>2018-03-19T10:21:40Z</time>
      </trkpt>
      <trkpt lat="62.636553255749" lon="17.978747604005">
        <ele>67.4</ele>
        <time>2018-03-19T10:21:41Z</time>
      </trkpt>
      <trkpt lat="62.636530708438" lon="17.978745843806">
        <ele>67.4</ele>
        <time>2018-03-19T10:21:42Z</time>
      </trkpt>
      <trkpt lat="62.636499779227" lon="17.978745089435">
        <ele>67.6</ele>
        <time>2018-03-19T10:21:43Z</time>
      </trkpt>
      <trkpt lat="62.636475974631" lon="17.978749783299">
        <ele>67.8</ele>
        <time>2018-03-19T10:21:44Z</time>
      </trkpt>
      <trkpt lat="62.636451080388" lon="17.97875053767">
        <ele>67.8</ele>
        <time>2018-03-19T10:21:45Z</time>
      </trkpt>
      <trkpt lat="62.636429538905" lon="17.978761517959">
        <ele>67.8</ele>
        <time>2018-03-19T10:21:46Z</time>
      </trkpt>
      <trkpt lat="62.636407745965" lon="17.978760512131">
        <ele>68</ele>
        <time>2018-03-19T10:21:47Z</time>
      </trkpt>
      <trkpt lat="62.636386623577" lon="17.978766630918">
        <ele>68.2</ele>
        <time>2018-03-19T10:21:48Z</time>
      </trkpt>
      <trkpt lat="62.636370865605" lon="17.978778784673">
        <ele>68.2</ele>
        <time>2018-03-19T10:21:49Z</time>
      </trkpt>
      <trkpt lat="62.636352760701" lon="17.97878406527">
        <ele>68.4</ele>
        <time>2018-03-19T10:21:50Z</time>
      </trkpt>
      <trkpt lat="62.636336248358" lon="17.978800242337">
        <ele>68.4</ele>
        <time>2018-03-19T10:21:51Z</time>
      </trkpt>
      <trkpt lat="62.63632266968" lon="17.978809965341">
        <ele>68.6</ele>
        <time>2018-03-19T10:21:52Z</time>
      </trkpt>
      <trkpt lat="62.636301966387" lon="17.978819101612">
        <ele>68.8</ele>
        <time>2018-03-19T10:21:53Z</time>
      </trkpt>
      <trkpt lat="62.636285202587" lon="17.978841481285">
        <ele>68.8</ele>
        <time>2018-03-19T10:21:54Z</time>
      </trkpt>
      <trkpt lat="62.636259553973" lon="17.978854976144">
        <ele>69</ele>
        <time>2018-03-19T10:21:55Z</time>
      </trkpt>
      <trkpt lat="62.636243209268" lon="17.978887414097">
        <ele>69.2</ele>
        <time>2018-03-19T10:21:56Z</time>
      </trkpt>
      <trkpt lat="62.636222757432" lon="17.978904010259">
        <ele>69.2</ele>
        <time>2018-03-19T10:21:57Z</time>
      </trkpt>
      <trkpt lat="62.636203311424" lon="17.978932592538">
        <ele>69.6</ele>
        <time>2018-03-19T10:21:58Z</time>
      </trkpt>
      <trkpt lat="62.636191995859" lon="17.97895589422">
        <ele>69.8</ele>
        <time>2018-03-19T10:21:59Z</time>
      </trkpt>
      <trkpt lat="62.636177411353" lon="17.978964611396">
        <ele>70</ele>
        <time>2018-03-19T10:22:00Z</time>
      </trkpt>
      <trkpt lat="62.636162240114" lon="17.978979279721">
        <ele>70.4</ele>
        <time>2018-03-19T10:22:01Z</time>
      </trkpt>
      <trkpt lat="62.636149834902" lon="17.979003000498">
        <ele>71</ele>
        <time>2018-03-19T10:22:02Z</time>
      </trkpt>
      <trkpt lat="62.636138184061" lon="17.979033426795">
        <ele>71.6</ele>
        <time>2018-03-19T10:22:03Z</time>
      </trkpt>
      <trkpt lat="62.636124270107" lon="17.979057147572">
        <ele>72</ele>
        <time>2018-03-19T10:22:04Z</time>
      </trkpt>
      <trkpt lat="62.636109350325" lon="17.979086148946">
        <ele>72.6</ele>
        <time>2018-03-19T10:22:05Z</time>
      </trkpt>
      <trkpt lat="62.636098286217" lon="17.979112468112">
        <ele>73.2</ele>
        <time>2018-03-19T10:22:06Z</time>
      </trkpt>
      <trkpt lat="62.636084791358" lon="17.979136859441">
        <ele>73.6</ele>
        <time>2018-03-19T10:22:07Z</time>
      </trkpt>
      <trkpt lat="62.636072637603" lon="17.979163597702">
        <ele>73.8</ele>
        <time>2018-03-19T10:22:08Z</time>
      </trkpt>
      <trkpt lat="62.636055706165" lon="17.979195868017">
        <ele>74</ele>
        <time>2018-03-19T10:22:09Z</time>
      </trkpt>
      <trkpt lat="62.636047827179" lon="17.979234089481">
        <ele>74.2</ele>
        <time>2018-03-19T10:22:10Z</time>
      </trkpt>
      <trkpt lat="62.636039110003" lon="17.979258061715">
        <ele>74.2</ele>
        <time>2018-03-19T10:22:11Z</time>
      </trkpt>
      <trkpt lat="62.636021005099" lon="17.979312544065">
        <ele>74.4</ele>
        <time>2018-03-19T10:22:12Z</time>
      </trkpt>
      <trkpt lat="62.636011365914" lon="17.979360991447">
        <ele>74.4</ele>
        <time>2018-03-19T10:22:13Z</time>
      </trkpt>
      <trkpt lat="62.636003067833" lon="17.979415389978">
        <ele>74.6</ele>
        <time>2018-03-19T10:22:14Z</time>
      </trkpt>
      <trkpt lat="62.636005666222" lon="17.97947389564">
        <ele>74.8</ele>
        <time>2018-03-19T10:22:15Z</time>
      </trkpt>
      <trkpt lat="62.635999798892" lon="17.979549248921">
        <ele>74.8</ele>
        <time>2018-03-19T10:22:16Z</time>
      </trkpt>
      <trkpt lat="62.635997284322" lon="17.979640863088">
        <ele>74.8</ele>
        <time>2018-03-19T10:22:17Z</time>
      </trkpt>
      <trkpt lat="62.635996446132" lon="17.979774219117">
        <ele>74.4</ele>
        <time>2018-03-19T10:22:18Z</time>
      </trkpt>
      <trkpt lat="62.635992003725" lon="17.979904306205">
        <ele>73.8</ele>
        <time>2018-03-19T10:22:19Z</time>
      </trkpt>
      <trkpt lat="62.635994266838" lon="17.980037746053">
        <ele>72.8</ele>
        <time>2018-03-19T10:22:20Z</time>
      </trkpt>
      <trkpt lat="62.636001391453" lon="17.980167246408">
        <ele>71.8</ele>
        <time>2018-03-19T10:22:21Z</time>
      </trkpt>
      <trkpt lat="62.636010863" lon="17.980278893316">
        <ele>70.8</ele>
        <time>2018-03-19T10:22:22Z</time>
      </trkpt>
      <trkpt lat="62.636026369515" lon="17.98041350663">
        <ele>70.2</ele>
        <time>2018-03-19T10:22:23Z</time>
      </trkpt>
      <trkpt lat="62.636043217134" lon="17.980534792723">
        <ele>69.4</ele>
        <time>2018-03-19T10:22:24Z</time>
      </trkpt>
      <trkpt lat="62.636059980934" lon="17.980641829586">
        <ele>68.8</ele>
        <time>2018-03-19T10:22:25Z</time>
      </trkpt>
      <trkpt lat="62.636079426942" lon="17.980746351879">
        <ele>68.6</ele>
        <time>2018-03-19T10:22:26Z</time>
      </trkpt>
      <trkpt lat="62.636097615665" lon="17.980842073177">
        <ele>68.2</ele>
        <time>2018-03-19T10:22:27Z</time>
      </trkpt>
      <trkpt lat="62.636116810216" lon="17.980945924918">
        <ele>68</ele>
        <time>2018-03-19T10:22:28Z</time>
      </trkpt>
      <trkpt lat="62.636137764966" lon="17.981041730035">
        <ele>67.8</ele>
        <time>2018-03-19T10:22:29Z</time>
      </trkpt>
      <trkpt lat="62.636156959517" lon="17.981143821577">
        <ele>67.8</ele>
        <time>2018-03-19T10:22:30Z</time>
      </trkpt>
      <trkpt lat="62.636170789652" lon="17.981237363581">
        <ele>67.6</ele>
        <time>2018-03-19T10:22:31Z</time>
      </trkpt>
      <trkpt lat="62.636179087733" lon="17.981317997459">
        <ele>67.4</ele>
        <time>2018-03-19T10:22:32Z</time>
      </trkpt>
      <trkpt lat="62.636194761886" lon="17.981418077345">
        <ele>67.4</ele>
        <time>2018-03-19T10:22:33Z</time>
      </trkpt>
      <trkpt lat="62.636203311424" lon="17.981482869432">
        <ele>67.2</ele>
        <time>2018-03-19T10:22:34Z</time>
      </trkpt>
      <trkpt lat="62.636206328908" lon="17.981575321789">
        <ele>67</ele>
        <time>2018-03-19T10:22:35Z</time>
      </trkpt>
      <trkpt lat="62.636214459351" lon="17.981648328138">
        <ele>67.2</ele>
        <time>2018-03-19T10:22:36Z</time>
      </trkpt>
      <trkpt lat="62.636219991405" lon="17.981707085257">
        <ele>67.2</ele>
        <time>2018-03-19T10:22:37Z</time>
      </trkpt>
      <trkpt lat="62.636223511803" lon="17.981774894828">
        <ele>67.2</ele>
        <time>2018-03-19T10:22:38Z</time>
      </trkpt>
      <trkpt lat="62.636230133504" lon="17.981827952255">
        <ele>67.6</ele>
        <time>2018-03-19T10:22:39Z</time>
      </trkpt>
      <trkpt lat="62.636241532888" lon="17.981897857301">
        <ele>67.8</ele>
        <time>2018-03-19T10:22:40Z</time>
      </trkpt>
      <trkpt lat="62.636249328055" lon="17.981967259433">
        <ele>68</ele>
        <time>2018-03-19T10:22:41Z</time>
      </trkpt>
      <trkpt lat="62.636258715783" lon="17.982041187791">
        <ele>68</ele>
        <time>2018-03-19T10:22:42Z</time>
      </trkpt>
      <trkpt lat="62.636267013864" lon="17.982114529416">
        <ele>67.8</ele>
        <time>2018-03-19T10:22:43Z</time>
      </trkpt>
      <trkpt lat="62.636271456271" lon="17.982179992055">
        <ele>67.8</ele>
        <time>2018-03-19T10:22:44Z</time>
      </trkpt>
      <trkpt lat="62.636273384108" lon="17.98224662816">
        <ele>67.6</ele>
        <time>2018-03-19T10:22:45Z</time>
      </trkpt>
      <trkpt lat="62.636286040777" lon="17.982296835741">
        <ele>67.6</ele>
        <time>2018-03-19T10:22:46Z</time>
      </trkpt>
      <trkpt lat="62.63628327475" lon="17.982367746615">
        <ele>67.6</ele>
        <time>2018-03-19T10:22:47Z</time>
      </trkpt>
      <trkpt lat="62.636284364397" lon="17.98243270634">
        <ele>67.4</ele>
        <time>2018-03-19T10:22:48Z</time>
      </trkpt>
      <trkpt lat="62.636288555347" lon="17.98249137964">
        <ele>67.4</ele>
        <time>2018-03-19T10:22:49Z</time>
      </trkpt>
      <trkpt lat="62.636283945302" lon="17.982557931926">
        <ele>67.4</ele>
        <time>2018-03-19T10:22:50Z</time>
      </trkpt>
      <trkpt lat="62.636280843999" lon="17.98260621167">
        <ele>67.4</ele>
        <time>2018-03-19T10:22:51Z</time>
      </trkpt>
      <trkpt lat="62.636270031348" lon="17.982669997929">
        <ele>67.4</ele>
        <time>2018-03-19T10:22:52Z</time>
      </trkpt>
      <trkpt lat="62.636254860109" lon="17.982739400061">
        <ele>67.4</ele>
        <time>2018-03-19T10:22:53Z</time>
      </trkpt>
      <trkpt lat="62.63624220344" lon="17.982800504112">
        <ele>67.4</ele>
        <time>2018-03-19T10:22:54Z</time>
      </trkpt>
      <trkpt lat="62.636251842625" lon="17.982852220435">
        <ele>67.4</ele>
        <time>2018-03-19T10:22:55Z</time>
      </trkpt>
      <trkpt lat="62.636251004435" lon="17.982904104396">
        <ele>67.4</ele>
        <time>2018-03-19T10:22:56Z</time>
      </trkpt>
      <trkpt lat="62.63624807077" lon="17.982960514583">
        <ele>67.6</ele>
        <time>2018-03-19T10:22:57Z</time>
      </trkpt>
      <trkpt lat="62.636254441014" lon="17.983009129603">
        <ele>67.6</ele>
        <time>2018-03-19T10:22:58Z</time>
      </trkpt>
      <trkpt lat="62.636253016091" lon="17.983073586414">
        <ele>67.6</ele>
        <time>2018-03-19T10:22:59Z</time>
      </trkpt>
      <trkpt lat="62.636257626136" lon="17.983135696293">
        <ele>67.8</ele>
        <time>2018-03-19T10:23:00Z</time>
      </trkpt>
      <trkpt lat="62.636260475982" lon="17.983192777032">
        <ele>67.8</ele>
        <time>2018-03-19T10:23:01Z</time>
      </trkpt>
      <trkpt lat="62.636247735494" lon="17.983245583002">
        <ele>67.8</ele>
        <time>2018-03-19T10:23:02Z</time>
      </trkpt>
      <trkpt lat="62.636255698299" lon="17.983301154999">
        <ele>68</ele>
        <time>2018-03-19T10:23:03Z</time>
      </trkpt>
      <trkpt lat="62.636252764634" lon="17.983359576842">
        <ele>68</ele>
        <time>2018-03-19T10:23:04Z</time>
      </trkpt>
      <trkpt lat="62.63624890896" lon="17.983409365328">
        <ele>68</ele>
        <time>2018-03-19T10:23:05Z</time>
      </trkpt>
      <trkpt lat="62.636248573684" lon="17.983454795226">
        <ele>68.2</ele>
        <time>2018-03-19T10:23:06Z</time>
      </trkpt>
      <trkpt lat="62.636246142933" lon="17.983495363622">
        <ele>68.4</ele>
        <time>2018-03-19T10:23:07Z</time>
      </trkpt>
      <trkpt lat="62.636237593395" lon="17.98353911714">
        <ele>68.4</ele>
        <time>2018-03-19T10:23:08Z</time>
      </trkpt>
      <trkpt lat="62.636236000834" lon="17.983581278097">
        <ele>68.6</ele>
        <time>2018-03-19T10:23:09Z</time>
      </trkpt>
      <trkpt lat="62.636229798228" lon="17.98363131804">
        <ele>68.8</ele>
        <time>2018-03-19T10:23:10Z</time>
      </trkpt>
      <trkpt lat="62.636231223151" lon="17.983676077386">
        <ele>68.8</ele>
        <time>2018-03-19T10:23:11Z</time>
      </trkpt>
      <trkpt lat="62.636230971694" lon="17.983720920551">
        <ele>69</ele>
        <time>2018-03-19T10:23:12Z</time>
      </trkpt>
      <trkpt lat="62.63622543964" lon="17.983776660186">
        <ele>68.8</ele>
        <time>2018-03-19T10:23:13Z</time>
      </trkpt>
      <trkpt lat="62.636220578138" lon="17.983828711785">
        <ele>69</ele>
        <time>2018-03-19T10:23:14Z</time>
      </trkpt>
      <trkpt lat="62.636210016944" lon="17.983883529411">
        <ele>69.2</ele>
        <time>2018-03-19T10:23:15Z</time>
      </trkpt>
      <trkpt lat="62.636210519858" lon="17.983944633462">
        <ele>69</ele>
        <time>2018-03-19T10:23:16Z</time>
      </trkpt>
      <trkpt lat="62.636200964492" lon="17.983997271794">
        <ele>69</ele>
        <time>2018-03-19T10:23:17Z</time>
      </trkpt>
      <trkpt lat="62.636204317252" lon="17.984064746089">
        <ele>69.2</ele>
        <time>2018-03-19T10:23:18Z</time>
      </trkpt>
      <trkpt lat="62.636196019171" lon="17.984115708041">
        <ele>69</ele>
        <time>2018-03-19T10:23:19Z</time>
      </trkpt>
      <trkpt lat="62.636191325307" lon="17.984170190391">
        <ele>69.2</ele>
        <time>2018-03-19T10:23:20Z</time>
      </trkpt>
      <trkpt lat="62.636179423009" lon="17.984223750732">
        <ele>69.2</ele>
        <time>2018-03-19T10:23:21Z</time>
      </trkpt>
      <trkpt lat="62.636174561507" lon="17.984274712684">
        <ele>69.2</ele>
        <time>2018-03-19T10:23:22Z</time>
      </trkpt>
      <trkpt lat="62.636168945634" lon="17.984334894726">
        <ele>69.6</ele>
        <time>2018-03-19T10:23:23Z</time>
      </trkpt>
      <trkpt lat="62.636165425236" lon="17.984394573854">
        <ele>69.6</ele>
        <time>2018-03-19T10:23:24Z</time>
      </trkpt>
      <trkpt lat="62.636159809363" lon="17.984456432276">
        <ele>69.8</ele>
        <time>2018-03-19T10:23:25Z</time>
      </trkpt>
      <trkpt lat="62.636154864042" lon="17.984512171911">
        <ele>70</ele>
        <time>2018-03-19T10:23:26Z</time>
      </trkpt>
      <trkpt lat="62.636147655608" lon="17.984566318985">
        <ele>70</ele>
        <time>2018-03-19T10:23:27Z</time>
      </trkpt>
      <trkpt lat="62.636145141038" lon="17.984629099416">
        <ele>70</ele>
        <time>2018-03-19T10:23:28Z</time>
      </trkpt>
      <trkpt lat="62.636133741654" lon="17.984689281458">
        <ele>70</ele>
        <time>2018-03-19T10:23:29Z</time>
      </trkpt>
      <trkpt lat="62.636129634523" lon="17.984748792948">
        <ele>70.2</ele>
        <time>2018-03-19T10:23:30Z</time>
      </trkpt>
      <trkpt lat="62.636119911519" lon="17.984799587262">
        <ele>70.4</ele>
        <time>2018-03-19T10:23:31Z</time>
      </trkpt>
      <trkpt lat="62.636119911519" lon="17.984839904201">
        <ele>70.4</ele>
        <time>2018-03-19T10:23:32Z</time>
      </trkpt>
      <trkpt lat="62.636116223483" lon="17.98489027942">
        <ele>70.6</ele>
        <time>2018-03-19T10:23:33Z</time>
      </trkpt>
      <trkpt lat="62.636113457456" lon="17.984937134241">
        <ele>70.8</ele>
        <time>2018-03-19T10:23:34Z</time>
      </trkpt>
      <trkpt lat="62.636110188515" lon="17.984992203324">
        <ele>71</ele>
        <time>2018-03-19T10:23:35Z</time>
      </trkpt>
      <trkpt lat="62.636108009221" lon="17.985037968498">
        <ele>71</ele>
        <time>2018-03-19T10:23:36Z</time>
      </trkpt>
      <trkpt lat="62.636105410832" lon="17.985092367029">
        <ele>71</ele>
        <time>2018-03-19T10:23:37Z</time>
      </trkpt>
      <trkpt lat="62.63610054933" lon="17.985148609578">
        <ele>71.2</ele>
        <time>2018-03-19T10:23:38Z</time>
      </trkpt>
      <trkpt lat="62.636094514362" lon="17.98519705696">
        <ele>71.4</ele>
        <time>2018-03-19T10:23:39Z</time>
      </trkpt>
      <trkpt lat="62.636090071955" lon="17.985244498514">
        <ele>71.6</ele>
        <time>2018-03-19T10:23:40Z</time>
      </trkpt>
      <trkpt lat="62.636085881005" lon="17.985296885389">
        <ele>71.8</ele>
        <time>2018-03-19T10:23:41Z</time>
      </trkpt>
      <trkpt lat="62.636081354779" lon="17.98534374021">
        <ele>71.8</ele>
        <time>2018-03-19T10:23:42Z</time>
      </trkpt>
      <trkpt lat="62.636072218508" lon="17.985398054922">
        <ele>72</ele>
        <time>2018-03-19T10:23:43Z</time>
      </trkpt>
      <trkpt lat="62.636072637603" lon="17.985452369634">
        <ele>72</ele>
        <time>2018-03-19T10:23:44Z</time>
      </trkpt>
      <trkpt lat="62.636062495504" lon="17.985499811188">
        <ele>71.8</ele>
        <time>2018-03-19T10:23:45Z</time>
      </trkpt>
      <trkpt lat="62.636055789984" lon="17.985537697376">
        <ele>71.8</ele>
        <time>2018-03-19T10:23:46Z</time>
      </trkpt>
      <trkpt lat="62.636045899342" lon="17.98558513893">
        <ele>72</ele>
        <time>2018-03-19T10:23:47Z</time>
      </trkpt>
      <trkpt lat="62.636036176338" lon="17.985638447814">
        <ele>71.8</ele>
        <time>2018-03-19T10:23:48Z</time>
      </trkpt>
      <trkpt lat="62.6360276268" lon="17.985682285151">
        <ele>72</ele>
        <time>2018-03-19T10:23:49Z</time>
      </trkpt>
      <trkpt lat="62.636015389226" lon="17.985720171339">
        <ele>72</ele>
        <time>2018-03-19T10:23:50Z</time>
      </trkpt>
      <trkpt lat="62.636002062005" lon="17.985760488278">
        <ele>72</ele>
        <time>2018-03-19T10:23:51Z</time>
      </trkpt>
      <trkpt lat="62.635989992069" lon="17.985795273163">
        <ele>72</ele>
        <time>2018-03-19T10:23:52Z</time>
      </trkpt>
      <trkpt lat="62.635975491382" lon="17.985835087188">
        <ele>72</ele>
        <time>2018-03-19T10:23:53Z</time>
      </trkpt>
      <trkpt lat="62.635956715926" lon="17.985861490173">
        <ele>72</ele>
        <time>2018-03-19T10:23:54Z</time>
      </trkpt>
      <trkpt lat="62.635940119764" lon="17.985899124904">
        <ele>72</ele>
        <time>2018-03-19T10:23:55Z</time>
      </trkpt>
      <trkpt lat="62.635917907729" lon="17.985920498749">
        <ele>72.2</ele>
        <time>2018-03-19T10:23:56Z</time>
      </trkpt>
      <trkpt lat="62.63589603097" lon="17.985945644449">
        <ele>72.2</ele>
        <time>2018-03-19T10:23:57Z</time>
      </trkpt>
      <trkpt lat="62.63587507622" lon="17.985969700502">
        <ele>72.4</ele>
        <time>2018-03-19T10:23:58Z</time>
      </trkpt>
      <trkpt lat="62.635850014339" lon="17.985992331632">
        <ele>72.4</ele>
        <time>2018-03-19T10:23:59Z</time>
      </trkpt>
      <trkpt lat="62.635831071245" lon="17.986013789296">
        <ele>72.4</ele>
        <time>2018-03-19T10:24:00Z</time>
      </trkpt>
      <trkpt lat="62.635803410975" lon="17.986030972191">
        <ele>72.6</ele>
        <time>2018-03-19T10:24:01Z</time>
      </trkpt>
      <trkpt lat="62.635783042958" lon="17.986047233077">
        <ele>72.8</ele>
        <time>2018-03-19T10:24:02Z</time>
      </trkpt>
      <trkpt lat="62.635754544498" lon="17.986069361293">
        <ele>73</ele>
        <time>2018-03-19T10:24:03Z</time>
      </trkpt>
      <trkpt lat="62.63573258392" lon="17.986099368495">
        <ele>73.2</ele>
        <time>2018-03-19T10:24:04Z</time>
      </trkpt>
      <trkpt lat="62.635709785152" lon="17.986130716801">
        <ele>73.2</ele>
        <time>2018-03-19T10:24:05Z</time>
      </trkpt>
      <trkpt lat="62.635697128483" lon="17.986158209433">
        <ele>73.6</ele>
        <time>2018-03-19T10:24:06Z</time>
      </trkpt>
      <trkpt lat="62.63568145433" lon="17.98619869401">
        <ele>73.6</ele>
        <time>2018-03-19T10:24:07Z</time>
      </trkpt>
      <trkpt lat="62.635667540376" lon="17.986240687329">
        <ele>73.8</ele>
        <time>2018-03-19T10:24:08Z</time>
      </trkpt>
      <trkpt lat="62.635649938386" lon="17.986262312631">
        <ele>74</ele>
        <time>2018-03-19T10:24:09Z</time>
      </trkpt>
      <trkpt lat="62.635636611165" lon="17.98629257129">
        <ele>74.2</ele>
        <time>2018-03-19T10:24:10Z</time>
      </trkpt>
      <trkpt lat="62.635620350279" lon="17.986316124429">
        <ele>74.4</ele>
        <time>2018-03-19T10:24:11Z</time>
      </trkpt>
      <trkpt lat="62.635603754117" lon="17.986352418056">
        <ele>74.6</ele>
        <time>2018-03-19T10:24:12Z</time>
      </trkpt>
      <trkpt lat="62.635592103276" lon="17.986384185457">
        <ele>74.6</ele>
        <time>2018-03-19T10:24:13Z</time>
      </trkpt>
      <trkpt lat="62.635582212634" lon="17.986424837672">
        <ele>74.8</ele>
        <time>2018-03-19T10:24:14Z</time>
      </trkpt>
      <trkpt lat="62.635570729431" lon="17.986454593417">
        <ele>74.8</ele>
        <time>2018-03-19T10:24:15Z</time>
      </trkpt>
      <trkpt lat="62.635558072762" lon="17.986493904528">
        <ele>74.6</ele>
        <time>2018-03-19T10:24:16Z</time>
      </trkpt>
      <trkpt lat="62.635545583731" lon="17.986527180671">
        <ele>74.8</ele>
        <time>2018-03-19T10:24:17Z</time>
      </trkpt>
      <trkpt lat="62.635531166863" lon="17.986575376596">
        <ele>74.8</ele>
        <time>2018-03-19T10:24:18Z</time>
      </trkpt>
      <trkpt lat="62.635520773307" lon="17.986609742386">
        <ele>74.8</ele>
        <time>2018-03-19T10:24:19Z</time>
      </trkpt>
      <trkpt lat="62.635504931516" lon="17.986643353805">
        <ele>74.8</ele>
        <time>2018-03-19T10:24:20Z</time>
      </trkpt>
      <trkpt lat="62.635498812729" lon="17.986660033786">
        <ele>74.8</ele>
        <time>2018-03-19T10:24:21Z</time>
      </trkpt>
      <trkpt lat="62.635483976766" lon="17.986686185314">
        <ele>75</ele>
        <time>2018-03-19T10:24:22Z</time>
      </trkpt>
      <trkpt lat="62.635471655373" lon="17.98672256276">
        <ele>75</ele>
        <time>2018-03-19T10:24:23Z</time>
      </trkpt>
      <trkpt lat="62.635461094179" lon="17.986756425636">
        <ele>74.8</ele>
        <time>2018-03-19T10:24:24Z</time>
      </trkpt>
      <trkpt lat="62.635443995103" lon="17.986802023172">
        <ele>74.8</ele>
        <time>2018-03-19T10:24:25Z</time>
      </trkpt>
      <trkpt lat="62.63542748276" lon="17.986844351767">
        <ele>75</ele>
        <time>2018-03-19T10:24:26Z</time>
      </trkpt>
      <trkpt lat="62.635410886598" lon="17.98688349524">
        <ele>75.2</ele>
        <time>2018-03-19T10:24:27Z</time>
      </trkpt>
      <trkpt lat="62.635393284608" lon="17.986933283726">
        <ele>75</ele>
        <time>2018-03-19T10:24:28Z</time>
      </trkpt>
      <trkpt lat="62.635369731469" lon="17.986966978964">
        <ele>75.2</ele>
        <time>2018-03-19T10:24:29Z</time>
      </trkpt>
      <trkpt lat="62.635362690673" lon="17.98699832727">
        <ele>75.2</ele>
        <time>2018-03-19T10:24:30Z</time>
      </trkpt>
      <trkpt lat="62.635347435615" lon="17.987029843214">
        <ele>75.4</ele>
        <time>2018-03-19T10:24:31Z</time>
      </trkpt>
      <trkpt lat="62.635332348195" lon="17.987056078561">
        <ele>75.6</ele>
        <time>2018-03-19T10:24:32Z</time>
      </trkpt>
      <trkpt lat="62.63532019444" lon="17.987092372188">
        <ele>75.8</ele>
        <time>2018-03-19T10:24:33Z</time>
      </trkpt>
      <trkpt lat="62.635303849735" lon="17.987108633074">
        <ele>76</ele>
        <time>2018-03-19T10:24:34Z</time>
      </trkpt>
      <trkpt lat="62.635287588849" lon="17.987147441271">
        <ele>76.2</ele>
        <time>2018-03-19T10:24:35Z</time>
      </trkpt>
      <trkpt lat="62.635267807565" lon="17.987179543948">
        <ele>76.2</ele>
        <time>2018-03-19T10:24:36Z</time>
      </trkpt>
      <trkpt lat="62.635252720145" lon="17.98721038934">
        <ele>76.4</ele>
        <time>2018-03-19T10:24:37Z</time>
      </trkpt>
      <trkpt lat="62.635237465087" lon="17.987255232505">
        <ele>76.4</ele>
        <time>2018-03-19T10:24:38Z</time>
      </trkpt>
      <trkpt lat="62.635220198373" lon="17.987292112865">
        <ele>76.4</ele>
        <time>2018-03-19T10:24:39Z</time>
      </trkpt>
      <trkpt lat="62.635203266935" lon="17.987333435632">
        <ele>76.4</ele>
        <time>2018-03-19T10:24:40Z</time>
      </trkpt>
      <trkpt lat="62.635183066556" lon="17.987366460318">
        <ele>76.4</ele>
        <time>2018-03-19T10:24:41Z</time>
      </trkpt>
      <trkpt lat="62.635167979136" lon="17.987404514144">
        <ele>76.4</ele>
        <time>2018-03-19T10:24:42Z</time>
      </trkpt>
      <trkpt lat="62.635152640259" lon="17.987446256006">
        <ele>76.4</ele>
        <time>2018-03-19T10:24:43Z</time>
      </trkpt>
      <trkpt lat="62.635145096549" lon="17.987500905994">
        <ele>76.4</ele>
        <time>2018-03-19T10:24:44Z</time>
      </trkpt>
      <trkpt lat="62.635137636658" lon="17.987547006444">
        <ele>76.4</ele>
        <time>2018-03-19T10:24:45Z</time>
      </trkpt>
      <trkpt lat="62.635127326921" lon="17.987593525989">
        <ele>76.6</ele>
        <time>2018-03-19T10:24:46Z</time>
      </trkpt>
      <trkpt lat="62.635125482903" lon="17.987635686946">
        <ele>76.8</ele>
        <time>2018-03-19T10:24:47Z</time>
      </trkpt>
      <trkpt lat="62.635113664424" lon="17.987691929495">
        <ele>77</ele>
        <time>2018-03-19T10:24:48Z</time>
      </trkpt>
      <trkpt lat="62.635111317492" lon="17.987731827339">
        <ele>77.2</ele>
        <time>2018-03-19T10:24:49Z</time>
      </trkpt>
      <trkpt lat="62.635101343031" lon="17.98778538768">
        <ele>77.4</ele>
        <time>2018-03-19T10:24:50Z</time>
      </trkpt>
      <trkpt lat="62.635097068262" lon="17.987833667424">
        <ele>77.6</ele>
        <time>2018-03-19T10:24:51Z</time>
      </trkpt>
      <trkpt lat="62.635090614199" lon="17.987877169485">
        <ele>77.8</ele>
        <time>2018-03-19T10:24:52Z</time>
      </trkpt>
      <trkpt lat="62.635081813204" lon="17.987933914948">
        <ele>77.8</ele>
        <time>2018-03-19T10:24:53Z</time>
      </trkpt>
      <trkpt lat="62.635068653621" lon="17.987985966547">
        <ele>77.8</ele>
        <time>2018-03-19T10:24:54Z</time>
      </trkpt>
      <trkpt lat="62.635046273948" lon="17.988039945983">
        <ele>78</ele>
        <time>2018-03-19T10:24:55Z</time>
      </trkpt>
      <trkpt lat="62.635038394962" lon="17.988090656478">
        <ele>78</ele>
        <time>2018-03-19T10:24:56Z</time>
      </trkpt>
      <trkpt lat="62.63501844604" lon="17.988133990901">
        <ele>78</ele>
        <time>2018-03-19T10:24:57Z</time>
      </trkpt>
      <trkpt lat="62.634996401643" lon="17.988178247333">
        <ele>78</ele>
        <time>2018-03-19T10:24:58Z</time>
      </trkpt>
      <trkpt lat="62.634980978947" lon="17.98821202639">
        <ele>77.8</ele>
        <time>2018-03-19T10:24:59Z</time>
      </trkpt>
      <trkpt lat="62.634963293138" lon="17.988247900922">
        <ele>78</ele>
        <time>2018-03-19T10:25:00Z</time>
      </trkpt>
      <trkpt lat="62.634946864614" lon="17.988283859273">
        <ele>78</ele>
        <time>2018-03-19T10:25:01Z</time>
      </trkpt>
      <trkpt lat="62.634923143837" lon="17.988302299453">
        <ele>78</ele>
        <time>2018-03-19T10:25:02Z</time>
      </trkpt>
      <trkpt lat="62.634901350897" lon="17.988323840936">
        <ele>78.4</ele>
        <time>2018-03-19T10:25:03Z</time>
      </trkpt>
      <trkpt lat="62.634878887405" lon="17.988336832881">
        <ele>78.6</ele>
        <time>2018-03-19T10:25:04Z</time>
      </trkpt>
      <trkpt lat="62.634862039786" lon="17.988358290545">
        <ele>78.8</ele>
        <time>2018-03-19T10:25:05Z</time>
      </trkpt>
      <trkpt lat="62.63484745528" lon="17.988380334942">
        <ele>79</ele>
        <time>2018-03-19T10:25:06Z</time>
      </trkpt>
      <trkpt lat="62.63482314777" lon="17.988404055719">
        <ele>79.2</ele>
        <time>2018-03-19T10:25:07Z</time>
      </trkpt>
      <trkpt lat="62.634805797237" lon="17.988417885854">
        <ele>79.4</ele>
        <time>2018-03-19T10:25:08Z</time>
      </trkpt>
      <trkpt lat="62.63478207646" lon="17.988426016297">
        <ele>79.6</ele>
        <time>2018-03-19T10:25:09Z</time>
      </trkpt>
      <trkpt lat="62.634755589656" lon="17.988452838377">
        <ele>79.6</ele>
        <time>2018-03-19T10:25:10Z</time>
      </trkpt>
      <trkpt lat="62.634733880535" lon="17.988464908313">
        <ele>79.6</ele>
        <time>2018-03-19T10:25:11Z</time>
      </trkpt>
      <trkpt lat="62.634714015432" lon="17.988488377633">
        <ele>79.6</ele>
        <time>2018-03-19T10:25:12Z</time>
      </trkpt>
      <trkpt lat="62.634687193352" lon="17.988501704854">
        <ele>79.8</ele>
        <time>2018-03-19T10:25:13Z</time>
      </trkpt>
      <trkpt lat="62.634659868358" lon="17.988523162518">
        <ele>79.8</ele>
        <time>2018-03-19T10:25:14Z</time>
      </trkpt>
      <trkpt lat="62.634641092902" lon="17.988537747024">
        <ele>80</ele>
        <time>2018-03-19T10:25:15Z</time>
      </trkpt>
      <trkpt lat="62.634617120668" lon="17.988553085901">
        <ele>80</ele>
        <time>2018-03-19T10:25:16Z</time>
      </trkpt>
      <trkpt lat="62.634595579185" lon="17.988570352615">
        <ele>80.2</ele>
        <time>2018-03-19T10:25:17Z</time>
      </trkpt>
      <trkpt lat="62.634578899204" lon="17.98858585913">
        <ele>80.2</ele>
        <time>2018-03-19T10:25:18Z</time>
      </trkpt>
      <trkpt lat="62.634561548671" lon="17.988605808052">
        <ele>80.4</ele>
        <time>2018-03-19T10:25:19Z</time>
      </trkpt>
      <trkpt lat="62.634543024672" lon="17.98862022492">
        <ele>80.6</ele>
        <time>2018-03-19T10:25:20Z</time>
      </trkpt>
      <trkpt lat="62.634527434338" lon="17.988644364792">
        <ele>80.6</ele>
        <time>2018-03-19T10:25:21Z</time>
      </trkpt>
      <trkpt lat="62.63451217928" lon="17.988661212411">
        <ele>80.8</ele>
        <time>2018-03-19T10:25:22Z</time>
      </trkpt>
      <trkpt lat="62.634486530666" lon="17.988717790236">
        <ele>80.8</ele>
        <time>2018-03-19T10:25:23Z</time>
      </trkpt>
      <trkpt lat="62.634455936731" lon="17.988752575121">
        <ele>81</ele>
        <time>2018-03-19T10:25:24Z</time>
      </trkpt>
      <trkpt lat="62.634437412732" lon="17.988788114377">
        <ele>81.2</ele>
        <time>2018-03-19T10:25:25Z</time>
      </trkpt>
      <trkpt lat="62.634421319484" lon="17.988813260077">
        <ele>81.4</ele>
        <time>2018-03-19T10:25:26Z</time>
      </trkpt>
      <trkpt lat="62.634407824625" lon="17.988824910918">
        <ele>81.4</ele>
        <time>2018-03-19T10:25:27Z</time>
      </trkpt>
      <trkpt lat="62.634391312282" lon="17.988866233685">
        <ele>81.6</ele>
        <time>2018-03-19T10:25:28Z</time>
      </trkpt>
      <trkpt lat="62.634370189894" lon="17.988904790425">
        <ele>81.6</ele>
        <time>2018-03-19T10:25:29Z</time>
      </trkpt>
      <trkpt lat="62.634358539053" lon="17.988952651074">
        <ele>81.8</ele>
        <time>2018-03-19T10:25:30Z</time>
      </trkpt>
      <trkpt lat="62.634339847416" lon="17.988990034348">
        <ele>81.8</ele>
        <time>2018-03-19T10:25:31Z</time>
      </trkpt>
      <trkpt lat="62.634326184919" lon="17.989032362943">
        <ele>82</ele>
        <time>2018-03-19T10:25:32Z</time>
      </trkpt>
      <trkpt lat="62.634311432775" lon="17.989067650742">
        <ele>82</ele>
        <time>2018-03-19T10:25:33Z</time>
      </trkpt>
      <trkpt lat="62.634282934315" lon="17.989107548586">
        <ele>82.2</ele>
        <time>2018-03-19T10:25:34Z</time>
      </trkpt>
      <trkpt lat="62.634270110008" lon="17.989150044819">
        <ele>82.2</ele>
        <time>2018-03-19T10:25:35Z</time>
      </trkpt>
      <trkpt lat="62.634239935168" lon="17.989180387297">
        <ele>82.4</ele>
        <time>2018-03-19T10:25:36Z</time>
      </trkpt>
      <trkpt lat="62.634228284327" lon="17.989210059223">
        <ele>82.4</ele>
        <time>2018-03-19T10:25:37Z</time>
      </trkpt>
      <trkpt lat="62.634199618229" lon="17.98923545638">
        <ele>82.4</ele>
        <time>2018-03-19T10:25:38Z</time>
      </trkpt>
      <trkpt lat="62.634182183877" lon="17.98927317493">
        <ele>82.4</ele>
        <time>2018-03-19T10:25:39Z</time>
      </trkpt>
      <trkpt lat="62.634159636566" lon="17.989295051689">
        <ele>82.6</ele>
        <time>2018-03-19T10:25:40Z</time>
      </trkpt>
      <trkpt lat="62.634139436187" lon="17.989319443018">
        <ele>82.6</ele>
        <time>2018-03-19T10:25:41Z</time>
      </trkpt>
      <trkpt lat="62.63412409731" lon="17.989359089405">
        <ele>82.6</ele>
        <time>2018-03-19T10:25:42Z</time>
      </trkpt>
      <trkpt lat="62.634098700153" lon="17.989378954508">
        <ele>82.6</ele>
        <time>2018-03-19T10:25:43Z</time>
      </trkpt>
      <trkpt lat="62.63407883505" lon="17.989413739393">
        <ele>82.6</ele>
        <time>2018-03-19T10:25:44Z</time>
      </trkpt>
      <trkpt lat="62.634051258599" lon="17.989443243681">
        <ele>82.8</ele>
        <time>2018-03-19T10:25:45Z</time>
      </trkpt>
      <trkpt lat="62.634038266654" lon="17.989477860928">
        <ele>82.8</ele>
        <time>2018-03-19T10:25:46Z</time>
      </trkpt>
      <trkpt lat="62.634017060447" lon="17.989497726031">
        <ele>83</ele>
        <time>2018-03-19T10:25:47Z</time>
      </trkpt>
      <trkpt lat="62.633988981082" lon="17.98952379374">
        <ele>83.2</ele>
        <time>2018-03-19T10:25:48Z</time>
      </trkpt>
      <trkpt lat="62.633974480395" lon="17.989545167585">
        <ele>83.2</ele>
        <time>2018-03-19T10:25:49Z</time>
      </trkpt>
      <trkpt lat="62.633950759618" lon="17.989556566969">
        <ele>83.4</ele>
        <time>2018-03-19T10:25:50Z</time>
      </trkpt>
      <trkpt lat="62.633936510388" lon="17.989577102624">
        <ele>83.6</ele>
        <time>2018-03-19T10:25:51Z</time>
      </trkpt>
      <trkpt lat="62.633907760471" lon="17.989596129537">
        <ele>83.6</ele>
        <time>2018-03-19T10:25:52Z</time>
      </trkpt>
      <trkpt lat="62.633890409938" lon="17.989625130911">
        <ele>83.8</ele>
        <time>2018-03-19T10:25:53Z</time>
      </trkpt>
      <trkpt lat="62.633870461016" lon="17.989649186964">
        <ele>83.8</ele>
        <time>2018-03-19T10:25:54Z</time>
      </trkpt>
      <trkpt lat="62.63385587651" lon="17.989683217478">
        <ele>84</ele>
        <time>2018-03-19T10:25:55Z</time>
      </trkpt>
      <trkpt lat="62.633833161561" lon="17.98970903373">
        <ele>84</ele>
        <time>2018-03-19T10:25:56Z</time>
      </trkpt>
      <trkpt lat="62.633812458268" lon="17.989761588243">
        <ele>84.2</ele>
        <time>2018-03-19T10:25:57Z</time>
      </trkpt>
      <trkpt lat="62.633793179898" lon="17.989801066992">
        <ele>84.4</ele>
        <time>2018-03-19T10:25:58Z</time>
      </trkpt>
      <trkpt lat="62.633775494089" lon="17.989834510773">
        <ele>84.4</ele>
        <time>2018-03-19T10:25:59Z</time>
      </trkpt>
      <trkpt lat="62.633761915411" lon="17.989889831313">
        <ele>84.4</ele>
        <time>2018-03-19T10:26:00Z</time>
      </trkpt>
      <trkpt lat="62.633744648697" lon="17.989934423021">
        <ele>84.4</ele>
        <time>2018-03-19T10:26:01Z</time>
      </trkpt>
      <trkpt lat="62.633724699775" lon="17.9899713872">
        <ele>84.6</ele>
        <time>2018-03-19T10:26:02Z</time>
      </trkpt>
      <trkpt lat="62.633706511052" lon="17.99002419317">
        <ele>84.4</ele>
        <time>2018-03-19T10:26:03Z</time>
      </trkpt>
      <trkpt lat="62.633678683144" lon="17.990061157349">
        <ele>84.6</ele>
        <time>2018-03-19T10:26:04Z</time>
      </trkpt>
      <trkpt lat="62.633660410602" lon="17.990114130957">
        <ele>84.6</ele>
        <time>2018-03-19T10:26:05Z</time>
      </trkpt>
      <trkpt lat="62.63363459435" lon="17.990155202267">
        <ele>84.8</ele>
        <time>2018-03-19T10:26:06Z</time>
      </trkpt>
      <trkpt lat="62.633616908541" lon="17.990175737922">
        <ele>84.8</ele>
        <time>2018-03-19T10:26:07Z</time>
      </trkpt>
      <trkpt lat="62.633602575492" lon="17.990210187531">
        <ele>85</ele>
        <time>2018-03-19T10:26:08Z</time>
      </trkpt>
      <trkpt lat="62.633578184163" lon="17.990231142281">
        <ele>85.2</ele>
        <time>2018-03-19T10:26:09Z</time>
      </trkpt>
      <trkpt lat="62.633559743983" lon="17.990250085375">
        <ele>85.2</ele>
        <time>2018-03-19T10:26:10Z</time>
      </trkpt>
      <trkpt lat="62.633540214156" lon="17.990270118116">
        <ele>85.2</ele>
        <time>2018-03-19T10:26:11Z</time>
      </trkpt>
      <trkpt lat="62.633512721524" lon="17.990288390658">
        <ele>85.2</ele>
        <time>2018-03-19T10:26:12Z</time>
      </trkpt>
      <trkpt lat="62.633479613019" lon="17.990321163887">
        <ele>85.2</ele>
        <time>2018-03-19T10:26:13Z</time>
      </trkpt>
      <trkpt lat="62.633467207807" lon="17.990340693714">
        <ele>85.4</ele>
        <time>2018-03-19T10:26:14Z</time>
      </trkpt>
      <trkpt lat="62.633443151754" lon="17.990337340954">
        <ele>85.4</ele>
        <time>2018-03-19T10:26:15Z</time>
      </trkpt>
      <trkpt lat="62.633417000226" lon="17.990370784735">
        <ele>85.4</ele>
        <time>2018-03-19T10:26:16Z</time>
      </trkpt>
      <trkpt lat="62.633384897549" lon="17.990371874382">
        <ele>85.6</ele>
        <time>2018-03-19T10:26:17Z</time>
      </trkpt>
      <trkpt lat="62.633351537587" lon="17.990380675377">
        <ele>85.6</ele>
        <time>2018-03-19T10:26:18Z</time>
      </trkpt>
      <trkpt lat="62.633328906457" lon="17.99040556962">
        <ele>85.6</ele>
        <time>2018-03-19T10:26:19Z</time>
      </trkpt>
      <trkpt lat="62.633305018042" lon="17.990419483574">
        <ele>85.6</ele>
        <time>2018-03-19T10:26:20Z</time>
      </trkpt>
      <trkpt lat="62.633284566206" lon="17.990457118305">
        <ele>85.4</ele>
        <time>2018-03-19T10:26:21Z</time>
      </trkpt>
      <trkpt lat="62.633251960615" lon="17.990517132709">
        <ele>85.4</ele>
        <time>2018-03-19T10:26:22Z</time>
      </trkpt>
      <trkpt lat="62.633230251494" lon="17.990566418281">
        <ele>85.2</ele>
        <time>2018-03-19T10:26:23Z</time>
      </trkpt>
      <trkpt lat="62.633207452726" lon="17.990617296414">
        <ele>85.2</ele>
        <time>2018-03-19T10:26:24Z</time>
      </trkpt>
      <trkpt lat="62.633184151044" lon="17.990663061588">
        <ele>85.2</ele>
        <time>2018-03-19T10:26:25Z</time>
      </trkpt>
      <trkpt lat="62.633177110248" lon="17.990699858129">
        <ele>85</ele>
        <time>2018-03-19T10:26:26Z</time>
      </trkpt>
      <trkpt lat="62.63316185519" lon="17.990756268316">
        <ele>85</ele>
        <time>2018-03-19T10:26:27Z</time>
      </trkpt>
      <trkpt lat="62.633152048367" lon="17.990814019607">
        <ele>85</ele>
        <time>2018-03-19T10:26:28Z</time>
      </trkpt>
      <trkpt lat="62.633124723373" lon="17.99086154498">
        <ele>85</ele>
        <time>2018-03-19T10:26:29Z</time>
      </trkpt>
      <trkpt lat="62.633108043392" lon="17.990909740905">
        <ele>85</ele>
        <time>2018-03-19T10:26:30Z</time>
      </trkpt>
      <trkpt lat="62.633094548533" lon="17.990957014821">
        <ele>85</ele>
        <time>2018-03-19T10:26:31Z</time>
      </trkpt>
      <trkpt lat="62.633075940715" lon="17.991016777768">
        <ele>85</ele>
        <time>2018-03-19T10:26:32Z</time>
      </trkpt>
      <trkpt lat="62.63306211058" lon="17.991059190182">
        <ele>85</ele>
        <time>2018-03-19T10:26:33Z</time>
      </trkpt>
      <trkpt lat="62.633042245477" lon="17.991107721383">
        <ele>85</ele>
        <time>2018-03-19T10:26:34Z</time>
      </trkpt>
      <trkpt lat="62.633019111433" lon="17.99116077881">
        <ele>84.8</ele>
        <time>2018-03-19T10:26:35Z</time>
      </trkpt>
      <trkpt lat="62.633007376773" lon="17.991204699966">
        <ele>84.8</ele>
        <time>2018-03-19T10:26:36Z</time>
      </trkpt>
      <trkpt lat="62.632992205534" lon="17.99126052342">
        <ele>84.8</ele>
        <time>2018-03-19T10:26:37Z</time>
      </trkpt>
      <trkpt lat="62.632983404539" lon="17.991273850641">
        <ele>84.8</ele>
        <time>2018-03-19T10:26:38Z</time>
      </trkpt>
      <trkpt lat="62.632966305463" lon="17.991320537824">
        <ele>84.8</ele>
        <time>2018-03-19T10:26:39Z</time>
      </trkpt>
      <trkpt lat="62.632937807003" lon="17.991372170328">
        <ele>84.8</ele>
        <time>2018-03-19T10:26:40Z</time>
      </trkpt>
      <trkpt lat="62.632919366823" lon="17.991433106741">
        <ele>84.8</ele>
        <time>2018-03-19T10:26:41Z</time>
      </trkpt>
      <trkpt lat="62.632893466752" lon="17.991484236331">
        <ele>84.8</ele>
        <time>2018-03-19T10:26:42Z</time>
      </trkpt>
      <trkpt lat="62.632874439839" lon="17.991542574355">
        <ele>84.8</ele>
        <time>2018-03-19T10:26:43Z</time>
      </trkpt>
      <trkpt lat="62.632847031026" lon="17.991581382552">
        <ele>84.8</ele>
        <time>2018-03-19T10:26:44Z</time>
      </trkpt>
      <trkpt lat="62.632827585018" lon="17.991623627328">
        <ele>85</ele>
        <time>2018-03-19T10:26:45Z</time>
      </trkpt>
      <trkpt lat="62.632809563933" lon="17.991663860448">
        <ele>84.8</ele>
        <time>2018-03-19T10:26:46Z</time>
      </trkpt>
      <trkpt lat="62.6327922134" lon="17.991707613966">
        <ele>84.8</ele>
        <time>2018-03-19T10:26:47Z</time>
      </trkpt>
      <trkpt lat="62.632773354125" lon="17.991747847086">
        <ele>84.8</ele>
        <time>2018-03-19T10:26:48Z</time>
      </trkpt>
      <trkpt lat="62.632767654433" lon="17.991795707735">
        <ele>84.8</ele>
        <time>2018-03-19T10:26:49Z</time>
      </trkpt>
      <trkpt lat="62.632757763791" lon="17.991868043532">
        <ele>85</ele>
        <time>2018-03-19T10:26:50Z</time>
      </trkpt>
      <trkpt lat="62.63277042046" lon="17.991930488687">
        <ele>85</ele>
        <time>2018-03-19T10:26:51Z</time>
      </trkpt>
      <trkpt lat="62.632779556731" lon="17.991972649644">
        <ele>85.2</ele>
        <time>2018-03-19T10:26:52Z</time>
      </trkpt>
      <trkpt lat="62.632801768766" lon="17.992003495036">
        <ele>85.2</ele>
        <time>2018-03-19T10:26:53Z</time>
      </trkpt>
      <trkpt lat="62.632821382412" lon="17.992022773406">
        <ele>85.2</ele>
        <time>2018-03-19T10:26:54Z</time>
      </trkpt>
      <trkpt lat="62.632843426809" lon="17.99203165822">
        <ele>85.4</ele>
        <time>2018-03-19T10:26:55Z</time>
      </trkpt>
      <trkpt lat="62.632859855333" lon="17.992048170563">
        <ele>85.2</ele>
        <time>2018-03-19T10:26:56Z</time>
      </trkpt>
      <trkpt lat="62.632877289685" lon="17.992046410364">
        <ele>85.2</ele>
        <time>2018-03-19T10:26:57Z</time>
      </trkpt>
      <trkpt lat="62.63289531077" lon="17.992046075088">
        <ele>85.4</ele>
        <time>2018-03-19T10:26:58Z</time>
      </trkpt>
      <trkpt lat="62.63292297104" lon="17.992059905223">
        <ele>85.4</ele>
        <time>2018-03-19T10:26:59Z</time>
      </trkpt>
      <trkpt lat="62.63294560217" lon="17.992071388426">
        <ele>85.4</ele>
        <time>2018-03-19T10:27:00Z</time>
      </trkpt>
      <trkpt lat="62.632966305463" lon="17.992072226616">
        <ele>85.4</ele>
        <time>2018-03-19T10:27:01Z</time>
      </trkpt>
      <trkpt lat="62.63299086443" lon="17.992082955448">
        <ele>85.6</ele>
        <time>2018-03-19T10:27:02Z</time>
      </trkpt>
      <trkpt lat="62.633018105605" lon="17.992098294325">
        <ele>85.4</ele>
        <time>2018-03-19T10:27:03Z</time>
      </trkpt>
      <trkpt lat="62.6330436704" lon="17.992108017329">
        <ele>85.4</ele>
        <time>2018-03-19T10:27:04Z</time>
      </trkpt>
      <trkpt lat="62.633069235195" lon="17.992125367862">
        <ele>85.4</ele>
        <time>2018-03-19T10:27:05Z</time>
      </trkpt>
      <trkpt lat="62.633092955972" lon="17.99214900482">
        <ele>85.2</ele>
        <time>2018-03-19T10:27:06Z</time>
      </trkpt>
      <trkpt lat="62.633119778052" lon="17.992167528819">
        <ele>85</ele>
        <time>2018-03-19T10:27:07Z</time>
      </trkpt>
      <trkpt lat="62.633141654811" lon="17.992180604583">
        <ele>85</ele>
        <time>2018-03-19T10:27:08Z</time>
      </trkpt>
      <trkpt lat="62.633172248746" lon="17.992196194917">
        <ele>84.8</ele>
        <time>2018-03-19T10:27:09Z</time>
      </trkpt>
      <trkpt lat="62.633208039459" lon="17.992200218229">
        <ele>84.6</ele>
        <time>2018-03-19T10:27:10Z</time>
      </trkpt>
      <trkpt lat="62.633225138535" lon="17.992203738627">
        <ele>84.8</ele>
        <time>2018-03-19T10:27:11Z</time>
      </trkpt>
      <trkpt lat="62.633250116597" lon="17.992216143839">
        <ele>84.8</ele>
        <time>2018-03-19T10:27:12Z</time>
      </trkpt>
      <trkpt lat="62.633275681392" lon="17.99221354545">
        <ele>84.8</ele>
        <time>2018-03-19T10:27:13Z</time>
      </trkpt>
      <trkpt lat="62.633295881771" lon="17.992219748056">
        <ele>85.2</ele>
        <time>2018-03-19T10:27:14Z</time>
      </trkpt>
      <trkpt lat="62.633332929769" lon="17.99223785296">
        <ele>85.2</ele>
        <time>2018-03-19T10:27:15Z</time>
      </trkpt>
      <trkpt lat="62.6333621826" lon="17.992232656182">
        <ele>85.2</ele>
        <time>2018-03-19T10:27:16Z</time>
      </trkpt>
      <trkpt lat="62.633394117639" lon="17.992259059167">
        <ele>85.2</ele>
        <time>2018-03-19T10:27:17Z</time>
      </trkpt>
      <trkpt lat="62.633434434578" lon="17.992285462152">
        <ele>85.2</ele>
        <time>2018-03-19T10:27:18Z</time>
      </trkpt>
      <trkpt lat="62.633469135644" lon="17.992312619508">
        <ele>85</ele>
        <time>2018-03-19T10:27:19Z</time>
      </trkpt>
      <trkpt lat="62.633500986864" lon="17.992342542891">
        <ele>84.8</ele>
        <time>2018-03-19T10:27:20Z</time>
      </trkpt>
      <trkpt lat="62.633532586627" lon="17.992375148482">
        <ele>84.2</ele>
        <time>2018-03-19T10:27:21Z</time>
      </trkpt>
      <trkpt lat="62.633557313232" lon="17.992417812353">
        <ele>83.8</ele>
        <time>2018-03-19T10:27:22Z</time>
      </trkpt>
      <trkpt lat="62.633571646281" lon="17.992470366866">
        <ele>83.8</ele>
        <time>2018-03-19T10:27:23Z</time>
      </trkpt>
      <trkpt lat="62.633598300723" lon="17.99252116118">
        <ele>83.4</ele>
        <time>2018-03-19T10:27:24Z</time>
      </trkpt>
      <trkpt lat="62.633628475563" lon="17.992564327965">
        <ele>83.2</ele>
        <time>2018-03-19T10:27:25Z</time>
      </trkpt>
      <trkpt lat="62.633651861064" lon="17.992600705411">
        <ele>83.2</ele>
        <time>2018-03-19T10:27:26Z</time>
      </trkpt>
      <trkpt lat="62.633673318728" lon="17.992642363454">
        <ele>83</ele>
        <time>2018-03-19T10:27:27Z</time>
      </trkpt>
      <trkpt lat="62.633696704229" lon="17.992678908538">
        <ele>83</ele>
        <time>2018-03-19T10:27:28Z</time>
      </trkpt>
      <trkpt lat="62.633721598472" lon="17.992740431684">
        <ele>83</ele>
        <time>2018-03-19T10:27:29Z</time>
      </trkpt>
      <trkpt lat="62.633740960661" lon="17.992805726685">
        <ele>83</ele>
        <time>2018-03-19T10:27:30Z</time>
      </trkpt>
      <trkpt lat="62.633765603447" lon="17.992862723605">
        <ele>82.6</ele>
        <time>2018-03-19T10:27:31Z</time>
      </trkpt>
      <trkpt lat="62.633788234577" lon="17.992918547059">
        <ele>82.6</ele>
        <time>2018-03-19T10:27:32Z</time>
      </trkpt>
      <trkpt lat="62.633817822684" lon="17.992968503183">
        <ele>82.4</ele>
        <time>2018-03-19T10:27:33Z</time>
      </trkpt>
      <trkpt lat="62.633844309488" lon="17.992983339146">
        <ele>82.2</ele>
        <time>2018-03-19T10:27:34Z</time>
      </trkpt>
      <trkpt lat="62.63387599307" lon="17.993029439596">
        <ele>82.2</ele>
        <time>2018-03-19T10:27:35Z</time>
      </trkpt>
      <trkpt lat="62.633903150426" lon="17.993069421259">
        <ele>82.4</ele>
        <time>2018-03-19T10:27:36Z</time>
      </trkpt>
      <trkpt lat="62.633933157628" lon="17.993106636895">
        <ele>82.2</ele>
        <time>2018-03-19T10:27:37Z</time>
      </trkpt>
      <trkpt lat="62.633978336069" lon="17.993164304367">
        <ele>82.2</ele>
        <time>2018-03-19T10:27:38Z</time>
      </trkpt>
      <trkpt lat="62.634011276936" lon="17.993210069541">
        <ele>82</ele>
        <time>2018-03-19T10:27:39Z</time>
      </trkpt>
      <trkpt lat="62.634040026853" lon="17.993250218842">
        <ele>81.4</ele>
        <time>2018-03-19T10:27:40Z</time>
      </trkpt>
      <trkpt lat="62.634077829222" lon="17.993292379799">
        <ele>81.2</ele>
        <time>2018-03-19T10:27:41Z</time>
      </trkpt>
      <trkpt lat="62.634118900532" lon="17.993329763073">
        <ele>80.8</ele>
        <time>2018-03-19T10:27:42Z</time>
      </trkpt>
      <trkpt lat="62.634164749525" lon="17.993354657316">
        <ele>80.4</ele>
        <time>2018-03-19T10:27:43Z</time>
      </trkpt>
      <trkpt lat="62.634205653197" lon="17.993378461912">
        <ele>80.2</ele>
        <time>2018-03-19T10:27:44Z</time>
      </trkpt>
      <trkpt lat="62.634243790842" lon="17.993410313132">
        <ele>79.4</ele>
        <time>2018-03-19T10:27:45Z</time>
      </trkpt>
      <trkpt lat="62.634287376722" lon="17.993449121329">
        <ele>78.8</ele>
        <time>2018-03-19T10:27:46Z</time>
      </trkpt>
      <trkpt lat="62.63433867395" lon="17.993469489346">
        <ele>78</ele>
        <time>2018-03-19T10:27:47Z</time>
      </trkpt>
      <trkpt lat="62.634391396101" lon="17.993486588422">
        <ele>77.2</ele>
        <time>2018-03-19T10:27:48Z</time>
      </trkpt>
      <trkpt lat="62.634436406904" lon="17.99350938719">
        <ele>76.2</ele>
        <time>2018-03-19T10:27:49Z</time>
      </trkpt>
      <trkpt lat="62.634483177906" lon="17.99353704746">
        <ele>75.6</ele>
        <time>2018-03-19T10:27:50Z</time>
      </trkpt>
      <trkpt lat="62.634539168998" lon="17.99355213488">
        <ele>75</ele>
        <time>2018-03-19T10:27:51Z</time>
      </trkpt>
      <trkpt lat="62.634580994679" lon="17.993564288635">
        <ele>74.6</ele>
        <time>2018-03-19T10:27:52Z</time>
      </trkpt>
      <trkpt lat="62.634643020739" lon="17.993575352743">
        <ele>74</ele>
        <time>2018-03-19T10:27:53Z</time>
      </trkpt>
      <trkpt lat="62.634692222492" lon="17.993593290009">
        <ele>73.6</ele>
        <time>2018-03-19T10:27:54Z</time>
      </trkpt>
      <trkpt lat="62.634750392878" lon="17.993601420452">
        <ele>73</ele>
        <time>2018-03-19T10:27:55Z</time>
      </trkpt>
      <trkpt lat="62.634797750613" lon="17.993609802352">
        <ele>72.8</ele>
        <time>2018-03-19T10:27:56Z</time>
      </trkpt>
      <trkpt lat="62.634843012873" lon="17.993620279727">
        <ele>72.4</ele>
        <time>2018-03-19T10:27:57Z</time>
      </trkpt>
      <trkpt lat="62.634894058644" lon="17.993623045754">
        <ele>72.2</ele>
        <time>2018-03-19T10:27:58Z</time>
      </trkpt>
      <trkpt lat="62.634937393067" lon="17.993638384631">
        <ele>72</ele>
        <time>2018-03-19T10:27:59Z</time>
      </trkpt>
      <trkpt lat="62.634987097734" lon="17.993658249734">
        <ele>71.8</ele>
        <time>2018-03-19T10:28:00Z</time>
      </trkpt>
      <trkpt lat="62.635030096881" lon="17.993664284702">
        <ele>71.8</ele>
        <time>2018-03-19T10:28:01Z</time>
      </trkpt>
      <trkpt lat="62.635077789892" lon="17.993675181172">
        <ele>71.8</ele>
        <time>2018-03-19T10:28:02Z</time>
      </trkpt>
      <trkpt lat="62.635131014957" lon="17.99369211261">
        <ele>71.8</ele>
        <time>2018-03-19T10:28:03Z</time>
      </trkpt>
      <trkpt lat="62.635166638032" lon="17.993698566673">
        <ele>71.4</ele>
        <time>2018-03-19T10:28:04Z</time>
      </trkpt>
      <trkpt lat="62.635200417089" lon="17.993707451487">
        <ele>71.4</ele>
        <time>2018-03-19T10:28:05Z</time>
      </trkpt>
      <trkpt lat="62.635252049593" lon="17.993721868355">
        <ele>71</ele>
        <time>2018-03-19T10:28:06Z</time>
      </trkpt>
      <trkpt lat="62.635288762315" lon="17.993714576102">
        <ele>70.6</ele>
        <time>2018-03-19T10:28:07Z</time>
      </trkpt>
      <trkpt lat="62.635315416757" lon="17.993704936917">
        <ele>70.2</ele>
        <time>2018-03-19T10:28:08Z</time>
      </trkpt>
      <trkpt lat="62.635357493895" lon="17.993709044048">
        <ele>70.4</ele>
        <time>2018-03-19T10:28:09Z</time>
      </trkpt>
      <trkpt lat="62.635397559377" lon="17.993719269966">
        <ele>70</ele>
        <time>2018-03-19T10:28:10Z</time>
      </trkpt>
      <trkpt lat="62.635440139429" lon="17.993734105929">
        <ele>70</ele>
        <time>2018-03-19T10:28:11Z</time>
      </trkpt>
      <trkpt lat="62.635489592639" lon="17.99373988944">
        <ele>69.8</ele>
        <time>2018-03-19T10:28:12Z</time>
      </trkpt>
      <trkpt lat="62.635540386953" lon="17.993756401783">
        <ele>69.4</ele>
        <time>2018-03-19T10:28:13Z</time>
      </trkpt>
      <trkpt lat="62.635586319765" lon="17.993755563593">
        <ele>69</ele>
        <time>2018-03-19T10:28:14Z</time>
      </trkpt>
      <trkpt lat="62.635632755491" lon="17.993753384299">
        <ele>68.8</ele>
        <time>2018-03-19T10:28:15Z</time>
      </trkpt>
      <trkpt lat="62.635673659163" lon="17.993764280769">
        <ele>68.2</ele>
        <time>2018-03-19T10:28:16Z</time>
      </trkpt>
      <trkpt lat="62.635714730473" lon="17.993780374017">
        <ele>68.2</ele>
        <time>2018-03-19T10:28:17Z</time>
      </trkpt>
      <trkpt lat="62.635752784299" lon="17.99379520998">
        <ele>68</ele>
        <time>2018-03-19T10:28:18Z</time>
      </trkpt>
      <trkpt lat="62.635791760134" lon="17.993807615192">
        <ele>67.8</ele>
        <time>2018-03-19T10:28:19Z</time>
      </trkpt>
      <trkpt lat="62.635836603299" lon="17.993803508061">
        <ele>67.8</ele>
        <time>2018-03-19T10:28:20Z</time>
      </trkpt>
      <trkpt lat="62.635882787568" lon="17.993788001546">
        <ele>67.4</ele>
        <time>2018-03-19T10:28:21Z</time>
      </trkpt>
      <trkpt lat="62.63590944201" lon="17.99375749143">
        <ele>67.6</ele>
        <time>2018-03-19T10:28:22Z</time>
      </trkpt>
      <trkpt lat="62.635964091998" lon="17.993749025711">
        <ele>67.6</ele>
        <time>2018-03-19T10:28:23Z</time>
      </trkpt>
      <trkpt lat="62.636015808321" lon="17.993721281622">
        <ele>67.4</ele>
        <time>2018-03-19T10:28:24Z</time>
      </trkpt>
      <trkpt lat="62.636062411685" lon="17.993700913605">
        <ele>67</ele>
        <time>2018-03-19T10:28:25Z</time>
      </trkpt>
      <trkpt lat="62.636105327013" lon="17.993670906403">
        <ele>66.2</ele>
        <time>2018-03-19T10:28:26Z</time>
      </trkpt>
      <trkpt lat="62.636142626468" lon="17.993632852577">
        <ele>65.8</ele>
        <time>2018-03-19T10:28:27Z</time>
      </trkpt>
      <trkpt lat="62.636165257598" lon="17.993591865086">
        <ele>65</ele>
        <time>2018-03-19T10:28:28Z</time>
      </trkpt>
      <trkpt lat="62.636216135731" lon="17.9935420766">
        <ele>64.6</ele>
        <time>2018-03-19T10:28:29Z</time>
      </trkpt>
      <trkpt lat="62.636246981123" lon="17.993494132132">
        <ele>64.4</ele>
        <time>2018-03-19T10:28:30Z</time>
      </trkpt>
      <trkpt lat="62.636272545918" lon="17.99345741941">
        <ele>64.4</ele>
        <time>2018-03-19T10:28:31Z</time>
      </trkpt>
      <trkpt lat="62.636308839545" lon="17.993419449403">
        <ele>64.4</ele>
        <time>2018-03-19T10:28:32Z</time>
      </trkpt>
      <trkpt lat="62.636340942222" lon="17.993371840211">
        <ele>64.4</ele>
        <time>2018-03-19T10:28:33Z</time>
      </trkpt>
      <trkpt lat="62.636366423198" lon="17.993331942367">
        <ele>64</ele>
        <time>2018-03-19T10:28:34Z</time>
      </trkpt>
      <trkpt lat="62.636409254707" lon="17.993263210787">
        <ele>63.8</ele>
        <time>2018-03-19T10:28:35Z</time>
      </trkpt>
      <trkpt lat="62.636458288822" lon="17.99321015336">
        <ele>63.6</ele>
        <time>2018-03-19T10:28:36Z</time>
      </trkpt>
      <trkpt lat="62.636507155299" lon="17.993170255516">
        <ele>63</ele>
        <time>2018-03-19T10:28:37Z</time>
      </trkpt>
      <trkpt lat="62.636564822771" lon="17.993116108442">
        <ele>62.2</ele>
        <time>2018-03-19T10:28:38Z</time>
      </trkpt>
      <trkpt lat="62.636607151366" lon="17.99305005907">
        <ele>61.2</ele>
        <time>2018-03-19T10:28:39Z</time>
      </trkpt>
      <trkpt lat="62.636648138857" lon="17.993006221733">
        <ele>60.4</ele>
        <time>2018-03-19T10:28:40Z</time>
      </trkpt>
      <trkpt lat="62.636679654801" lon="17.992936316687">
        <ele>59.8</ele>
        <time>2018-03-19T10:28:41Z</time>
      </trkpt>
      <trkpt lat="62.63669398785" lon="17.992873117161">
        <ele>59.2</ele>
        <time>2018-03-19T10:28:42Z</time>
      </trkpt>
      <trkpt lat="62.636712930944" lon="17.992798099156">
        <ele>59</ele>
        <time>2018-03-19T10:28:43Z</time>
      </trkpt>
      <trkpt lat="62.636730700572" lon="17.992740096408">
        <ele>59</ele>
        <time>2018-03-19T10:28:44Z</time>
      </trkpt>
      <trkpt lat="62.636741513223" lon="17.992682764212">
        <ele>58.8</ele>
        <time>2018-03-19T10:28:45Z</time>
      </trkpt>
      <trkpt lat="62.636752828788" lon="17.992619899962">
        <ele>59.2</ele>
        <time>2018-03-19T10:28:46Z</time>
      </trkpt>
      <trkpt lat="62.63676104305" lon="17.992576397901">
        <ele>59.6</ele>
        <time>2018-03-19T10:28:47Z</time>
      </trkpt>
      <trkpt lat="62.636763892896" lon="17.992538008799">
        <ele>59.8</ele>
        <time>2018-03-19T10:28:48Z</time>
      </trkpt>
      <trkpt lat="62.636775124642" lon="17.992474809273">
        <ele>60</ele>
        <time>2018-03-19T10:28:49Z</time>
      </trkpt>
      <trkpt lat="62.636784428551" lon="17.992428289728">
        <ele>60.4</ele>
        <time>2018-03-19T10:28:50Z</time>
      </trkpt>
      <trkpt lat="62.636780237601" lon="17.992366347487">
        <ele>60.6</ele>
        <time>2018-03-19T10:28:51Z</time>
      </trkpt>
      <trkpt lat="62.636789457691" lon="17.992322174874">
        <ele>60.6</ele>
        <time>2018-03-19T10:28:52Z</time>
      </trkpt>
      <trkpt lat="62.636795995573" lon="17.992256628416">
        <ele>60.6</ele>
        <time>2018-03-19T10:28:53Z</time>
      </trkpt>
      <trkpt lat="62.636800773256" lon="17.992192339243">
        <ele>60.6</ele>
        <time>2018-03-19T10:28:54Z</time>
      </trkpt>
      <trkpt lat="62.636799180695" lon="17.992136767246">
        <ele>60.6</ele>
        <time>2018-03-19T10:28:55Z</time>
      </trkpt>
      <trkpt lat="62.63681133445" lon="17.992094773927">
        <ele>60.4</ele>
        <time>2018-03-19T10:28:56Z</time>
      </trkpt>
      <trkpt lat="62.636822733834" lon="17.99205931849">
        <ele>60.6</ele>
        <time>2018-03-19T10:28:57Z</time>
      </trkpt>
      <trkpt lat="62.6368322892" lon="17.991990838367">
        <ele>60.6</ele>
        <time>2018-03-19T10:28:58Z</time>
      </trkpt>
      <trkpt lat="62.63684234748" lon="17.991948174496">
        <ele>60.8</ele>
        <time>2018-03-19T10:28:59Z</time>
      </trkpt>
      <trkpt lat="62.636858105452" lon="17.991905594444">
        <ele>60.8</ele>
        <time>2018-03-19T10:29:00Z</time>
      </trkpt>
      <trkpt lat="62.636876545632" lon="17.991844658031">
        <ele>61</ele>
        <time>2018-03-19T10:29:01Z</time>
      </trkpt>
      <trkpt lat="62.636892052147" lon="17.991797384115">
        <ele>61</ele>
        <time>2018-03-19T10:29:02Z</time>
      </trkpt>
      <trkpt lat="62.636911665793" lon="17.991749942561">
        <ele>61</ele>
        <time>2018-03-19T10:29:03Z</time>
      </trkpt>
      <trkpt lat="62.636929938335" lon="17.991701495179">
        <ele>61</ele>
        <time>2018-03-19T10:29:04Z</time>
      </trkpt>
      <trkpt lat="62.636944187565" lon="17.991658160756">
        <ele>61</ele>
        <time>2018-03-19T10:29:05Z</time>
      </trkpt>
      <trkpt lat="62.636960616089" lon="17.991612814677">
        <ele>60.8</ele>
        <time>2018-03-19T10:29:06Z</time>
      </trkpt>
      <trkpt lat="62.636963968849" lon="17.991602002026">
        <ele>61</ele>
        <time>2018-03-19T10:29:07Z</time>
      </trkpt>
      <trkpt lat="62.636991629119" lon="17.991535701197">
        <ele>61</ele>
        <time>2018-03-19T10:29:08Z</time>
      </trkpt>
      <trkpt lat="62.637012416231" lon="17.991486499444">
        <ele>61.2</ele>
        <time>2018-03-19T10:29:09Z</time>
      </trkpt>
      <trkpt lat="62.637029682945" lon="17.991443751754">
        <ele>61.2</ele>
        <time>2018-03-19T10:29:10Z</time>
      </trkpt>
      <trkpt lat="62.637050302419" lon="17.991371835052">
        <ele>61.4</ele>
        <time>2018-03-19T10:29:12Z</time>
      </trkpt>
      <trkpt lat="62.637065389839" lon="17.991336128158">
        <ele>61.6</ele>
        <time>2018-03-19T10:29:13Z</time>
      </trkpt>
      <trkpt lat="62.637083913838" lon="17.991284747111">
        <ele>61.4</ele>
        <time>2018-03-19T10:29:14Z</time>
      </trkpt>
      <trkpt lat="62.637099168896" lon="17.99124040686">
        <ele>61.2</ele>
        <time>2018-03-19T10:29:15Z</time>
      </trkpt>
      <trkpt lat="62.637110484461" lon="17.991197072437">
        <ele>61.4</ele>
        <time>2018-03-19T10:29:16Z</time>
      </trkpt>
      <trkpt lat="62.637135462523" lon="17.991128005581">
        <ele>61.4</ele>
        <time>2018-03-19T10:29:17Z</time>
      </trkpt>
      <trkpt lat="62.637154070341" lon="17.991062040028">
        <ele>61.2</ele>
        <time>2018-03-19T10:29:18Z</time>
      </trkpt>
      <trkpt lat="62.637169157761" lon="17.991008647325">
        <ele>61</ele>
        <time>2018-03-19T10:29:19Z</time>
      </trkpt>
      <trkpt lat="62.637185502466" lon="17.990958691201">
        <ele>61</ele>
        <time>2018-03-19T10:29:20Z</time>
      </trkpt>
      <trkpt lat="62.637196147479" lon="17.99090680724">
        <ele>60.8</ele>
        <time>2018-03-19T10:29:21Z</time>
      </trkpt>
      <trkpt lat="62.637206876311" lon="17.990874536925">
        <ele>60.8</ele>
        <time>2018-03-19T10:29:22Z</time>
      </trkpt>
      <trkpt lat="62.637219281523" lon="17.990826173362">
        <ele>60.8</ele>
        <time>2018-03-19T10:29:23Z</time>
      </trkpt>
      <trkpt lat="62.637223556292" lon="17.990783844767">
        <ele>61</ele>
        <time>2018-03-19T10:29:24Z</time>
      </trkpt>
      <trkpt lat="62.637233949848" lon="17.990736067937">
        <ele>61</ele>
        <time>2018-03-19T10:29:25Z</time>
      </trkpt>
      <trkpt lat="62.637235877685" lon="17.990673119868">
        <ele>61.2</ele>
        <time>2018-03-19T10:29:26Z</time>
      </trkpt>
      <trkpt lat="62.637239817178" lon="17.99061427893">
        <ele>61.2</ele>
        <time>2018-03-19T10:29:27Z</time>
      </trkpt>
      <trkpt lat="62.637254904598" lon="17.990515540148">
        <ele>61.4</ele>
        <time>2018-03-19T10:29:28Z</time>
      </trkpt>
      <trkpt lat="62.637274434425" lon="17.990445216007">
        <ele>61.6</ele>
        <time>2018-03-19T10:29:29Z</time>
      </trkpt>
      <trkpt lat="62.637276948995" lon="17.990375227142">
        <ele>61.8</ele>
        <time>2018-03-19T10:29:30Z</time>
      </trkpt>
      <trkpt lat="62.637289018931" lon="17.990297862205">
        <ele>61.4</ele>
        <time>2018-03-19T10:29:31Z</time>
      </trkpt>
      <trkpt lat="62.637297819926" lon="17.990234411222">
        <ele>61.4</ele>
        <time>2018-03-19T10:29:32Z</time>
      </trkpt>
      <trkpt lat="62.637303016704" lon="17.990182694899">
        <ele>60.8</ele>
        <time>2018-03-19T10:29:33Z</time>
      </trkpt>
      <trkpt lat="62.637314499907" lon="17.990136845906">
        <ele>60.6</ele>
        <time>2018-03-19T10:29:34Z</time>
      </trkpt>
      <trkpt lat="62.637325396377" lon="17.990083956117">
        <ele>60.4</ele>
        <time>2018-03-19T10:29:35Z</time>
      </trkpt>
      <trkpt lat="62.637335538476" lon="17.990016817098">
        <ele>60.6</ele>
        <time>2018-03-19T10:29:36Z</time>
      </trkpt>
      <trkpt lat="62.637344842385" lon="17.989970213734">
        <ele>60.4</ele>
        <time>2018-03-19T10:29:37Z</time>
      </trkpt>
      <trkpt lat="62.637367641153" lon="17.989907936217">
        <ele>60.8</ele>
        <time>2018-03-19T10:29:38Z</time>
      </trkpt>
      <trkpt lat="62.637378453804" lon="17.989851693668">
        <ele>60.8</ele>
        <time>2018-03-19T10:29:39Z</time>
      </trkpt>
      <trkpt lat="62.637398235088" lon="17.989812801652">
        <ele>60.8</ele>
        <time>2018-03-19T10:29:40Z</time>
      </trkpt>
      <trkpt lat="62.637409047739" lon="17.989773406722">
        <ele>60.8</ele>
        <time>2018-03-19T10:29:41Z</time>
      </trkpt>
      <trkpt lat="62.637428158471" lon="17.989725043159">
        <ele>60.8</ele>
        <time>2018-03-19T10:29:42Z</time>
      </trkpt>
      <trkpt lat="62.637445760461" lon="17.989664358203">
        <ele>60.8</ele>
        <time>2018-03-19T10:29:43Z</time>
      </trkpt>
      <trkpt lat="62.637462775718" lon="17.98962605292">
        <ele>60.8</ele>
        <time>2018-03-19T10:29:44Z</time>
      </trkpt>
      <trkpt lat="62.637490352169" lon="17.989561009376">
        <ele>61</ele>
        <time>2018-03-19T10:29:45Z</time>
      </trkpt>
      <trkpt lat="62.63750954672" lon="17.989511891442">
        <ele>61</ele>
        <time>2018-03-19T10:29:46Z</time>
      </trkpt>
      <trkpt lat="62.637526729615" lon="17.989454894522">
        <ele>61</ele>
        <time>2018-03-19T10:29:47Z</time>
      </trkpt>
      <trkpt lat="62.637556401541" lon="17.989396137403">
        <ele>61</ele>
        <time>2018-03-19T10:29:48Z</time>
      </trkpt>
      <trkpt lat="62.637575009359" lon="17.989341738872">
        <ele>61</ele>
        <time>2018-03-19T10:29:49Z</time>
      </trkpt>
      <trkpt lat="62.637600490335" lon="17.98928574778">
        <ele>61</ele>
        <time>2018-03-19T10:29:50Z</time>
      </trkpt>
      <trkpt lat="62.63762437875" lon="17.989213244345">
        <ele>60.8</ele>
        <time>2018-03-19T10:29:51Z</time>
      </trkpt>
      <trkpt lat="62.637646758423" lon="17.989139986539">
        <ele>60.6</ele>
        <time>2018-03-19T10:29:52Z</time>
      </trkpt>
      <trkpt lat="62.637675843616" lon="17.989045606345">
        <ele>60.2</ele>
        <time>2018-03-19T10:29:53Z</time>
      </trkpt>
      <trkpt lat="62.637689673751" lon="17.988968157589">
        <ele>60</ele>
        <time>2018-03-19T10:29:54Z</time>
      </trkpt>
      <trkpt lat="62.637715657641" lon="17.988893391041">
        <ele>59.4</ele>
        <time>2018-03-19T10:29:55Z</time>
      </trkpt>
      <trkpt lat="62.637730996518" lon="17.98882893423">
        <ele>59</ele>
        <time>2018-03-19T10:29:56Z</time>
      </trkpt>
      <trkpt lat="62.637742731178" lon="17.988763723048">
        <ele>58.8</ele>
        <time>2018-03-19T10:29:57Z</time>
      </trkpt>
      <trkpt lat="62.637751280716" lon="17.98870320573">
        <ele>58.6</ele>
        <time>2018-03-19T10:29:58Z</time>
      </trkpt>
      <trkpt lat="62.637767290145" lon="17.988639168014">
        <ele>58.6</ele>
        <time>2018-03-19T10:29:59Z</time>
      </trkpt>
      <trkpt lat="62.637779527719" lon="17.98856071343">
        <ele>58.8</ele>
        <time>2018-03-19T10:30:00Z</time>
      </trkpt>
      <trkpt lat="62.63778614942" lon="17.988501285759">
        <ele>58.8</ele>
        <time>2018-03-19T10:30:01Z</time>
      </trkpt>
      <trkpt lat="62.637804086686" lon="17.98840900104">
        <ele>58.6</ele>
        <time>2018-03-19T10:30:02Z</time>
      </trkpt>
      <trkpt lat="62.637809115826" lon="17.988340856193">
        <ele>58.4</ele>
        <time>2018-03-19T10:30:03Z</time>
      </trkpt>
      <trkpt lat="62.637823197418" lon="17.988265922007">
        <ele>58.4</ele>
        <time>2018-03-19T10:30:04Z</time>
      </trkpt>
      <trkpt lat="62.637835015897" lon="17.988194005305">
        <ele>58.2</ele>
        <time>2018-03-19T10:30:05Z</time>
      </trkpt>
      <trkpt lat="62.637849265127" lon="17.988116891825">
        <ele>58</ele>
        <time>2018-03-19T10:30:06Z</time>
      </trkpt>
      <trkpt lat="62.637848259299" lon="17.988051010091">
        <ele>58</ele>
        <time>2018-03-19T10:30:07Z</time>
      </trkpt>
      <trkpt lat="62.637873404999" lon="17.987961156123">
        <ele>58</ele>
        <time>2018-03-19T10:30:08Z</time>
      </trkpt>
      <trkpt lat="62.637890671713" lon="17.98783987003">
        <ele>57.8</ele>
        <time>2018-03-19T10:30:09Z</time>
      </trkpt>
      <trkpt lat="62.637907016418" lon="17.987745573655">
        <ele>57.2</ele>
        <time>2018-03-19T10:30:10Z</time>
      </trkpt>
      <trkpt lat="62.637908944255" lon="17.987674830419">
        <ele>56.6</ele>
        <time>2018-03-19T10:30:11Z</time>
      </trkpt>
      <trkpt lat="62.637918164345" lon="17.98760936778">
        <ele>56</ele>
        <time>2018-03-19T10:30:12Z</time>
      </trkpt>
      <trkpt lat="62.637939286733" lon="17.987529655911">
        <ele>55.4</ele>
        <time>2018-03-19T10:30:13Z</time>
      </trkpt>
      <trkpt lat="62.637953703601" lon="17.987464863824">
        <ele>55</ele>
        <time>2018-03-19T10:30:14Z</time>
      </trkpt>
      <trkpt lat="62.637966444089" lon="17.987410213836">
        <ele>55</ele>
        <time>2018-03-19T10:30:15Z</time>
      </trkpt>
      <trkpt lat="62.63798396226" lon="17.987333184175">
        <ele>55.4</ele>
        <time>2018-03-19T10:30:16Z</time>
      </trkpt>
      <trkpt lat="62.637989410495" lon="17.987277528359">
        <ele>55.4</ele>
        <time>2018-03-19T10:30:17Z</time>
      </trkpt>
      <trkpt lat="62.638013131272" lon="17.987193793178">
        <ele>55.6</ele>
        <time>2018-03-19T10:30:18Z</time>
      </trkpt>
      <trkpt lat="62.638034756574" lon="17.987113746033">
        <ele>55.4</ele>
        <time>2018-03-19T10:30:19Z</time>
      </trkpt>
      <trkpt lat="62.638054286401" lon="17.987040655865">
        <ele>55.4</ele>
        <time>2018-03-19T10:30:20Z</time>
      </trkpt>
      <trkpt lat="62.638068535631" lon="17.986961614548">
        <ele>55.2</ele>
        <time>2018-03-19T10:30:21Z</time>
      </trkpt>
      <trkpt lat="62.638073229495" lon="17.986906629284">
        <ele>55</ele>
        <time>2018-03-19T10:30:22Z</time>
      </trkpt>
      <trkpt lat="62.638076833712" lon="17.986807136131">
        <ele>54.8</ele>
        <time>2018-03-19T10:30:23Z</time>
      </trkpt>
      <trkpt lat="62.638075827884" lon="17.98673345923">
        <ele>54.6</ele>
        <time>2018-03-19T10:30:24Z</time>
      </trkpt>
      <trkpt lat="62.638074905875" lon="17.986680485622">
        <ele>54.4</ele>
        <time>2018-03-19T10:30:25Z</time>
      </trkpt>
      <trkpt lat="62.638070631106" lon="17.986611251128">
        <ele>54.2</ele>
        <time>2018-03-19T10:30:26Z</time>
      </trkpt>
      <trkpt lat="62.638069206183" lon="17.986554002751">
        <ele>54.2</ele>
        <time>2018-03-19T10:30:27Z</time>
      </trkpt>
      <trkpt lat="62.638065937242" lon="17.98650211879">
        <ele>54</ele>
        <time>2018-03-19T10:30:28Z</time>
      </trkpt>
      <trkpt lat="62.638067194527" lon="17.986423496568">
        <ele>54</ele>
        <time>2018-03-19T10:30:29Z</time>
      </trkpt>
      <trkpt lat="62.638081611395" lon="17.986371947883">
        <ele>54</ele>
        <time>2018-03-19T10:30:30Z</time>
      </trkpt>
      <trkpt lat="62.638081862852" lon="17.986314280411">
        <ele>54.2</ele>
        <time>2018-03-19T10:30:31Z</time>
      </trkpt>
      <trkpt lat="62.638088065458" lon="17.986241860795">
        <ele>54.4</ele>
        <time>2018-03-19T10:30:32Z</time>
      </trkpt>
      <trkpt lat="62.638095609168" lon="17.986180086192">
        <ele>54.4</ele>
        <time>2018-03-19T10:30:33Z</time>
      </trkpt>
      <trkpt lat="62.638097537005" lon="17.986135494484">
        <ele>54.4</ele>
        <time>2018-03-19T10:30:34Z</time>
      </trkpt>
      <trkpt lat="62.638109523122" lon="17.986066343809">
        <ele>54.6</ele>
        <time>2018-03-19T10:30:35Z</time>
      </trkpt>
      <trkpt lat="62.63812142542" lon="17.986007921966">
        <ele>54.6</ele>
        <time>2018-03-19T10:30:36Z</time>
      </trkpt>
      <trkpt lat="62.638131399881" lon="17.98596651538">
        <ele>54.4</ele>
        <time>2018-03-19T10:30:37Z</time>
      </trkpt>
      <trkpt lat="62.638149169509" lon="17.98589359285">
        <ele>54.4</ele>
        <time>2018-03-19T10:30:38Z</time>
      </trkpt>
      <trkpt lat="62.638162915825" lon="17.985849084961">
        <ele>54.2</ele>
        <time>2018-03-19T10:30:39Z</time>
      </trkpt>
      <trkpt lat="62.638179847263" lon="17.985799547932">
        <ele>53.8</ele>
        <time>2018-03-19T10:30:40Z</time>
      </trkpt>
      <trkpt lat="62.63819183338" lon="17.985752441654">
        <ele>53.8</ele>
        <time>2018-03-19T10:30:41Z</time>
      </trkpt>
      <trkpt lat="62.6382069208" lon="17.985723859375">
        <ele>53.6</ele>
        <time>2018-03-19T10:30:42Z</time>
      </trkpt>
      <trkpt lat="62.638217230537" lon="17.985675831088">
        <ele>53.8</ele>
        <time>2018-03-19T10:30:43Z</time>
      </trkpt>
      <trkpt lat="62.638228797559" lon="17.985631742294">
        <ele>53.8</ele>
        <time>2018-03-19T10:30:44Z</time>
      </trkpt>
      <trkpt lat="62.63824128659" lon="17.985599220522">
        <ele>54</ele>
        <time>2018-03-19T10:30:45Z</time>
      </trkpt>
      <trkpt lat="62.638256793105" lon="17.985569297139">
        <ele>54</ele>
        <time>2018-03-19T10:30:46Z</time>
      </trkpt>
      <trkpt lat="62.638270204145" lon="17.985538367928">
        <ele>54.2</ele>
        <time>2018-03-19T10:30:47Z</time>
      </trkpt>
      <trkpt lat="62.638286884126" lon="17.985507354898">
        <ele>54.2</ele>
        <time>2018-03-19T10:30:48Z</time>
      </trkpt>
      <trkpt lat="62.638298115872" lon="17.985490339641">
        <ele>54</ele>
        <time>2018-03-19T10:30:49Z</time>
      </trkpt>
      <trkpt lat="62.638311107817" lon="17.985455554756">
        <ele>53.6</ele>
        <time>2018-03-19T10:30:50Z</time>
      </trkpt>
      <trkpt lat="62.638328961264" lon="17.985419764043">
        <ele>53.4</ele>
        <time>2018-03-19T10:30:51Z</time>
      </trkpt>
      <trkpt lat="62.638348994005" lon="17.985389505384">
        <ele>53.2</ele>
        <time>2018-03-19T10:30:52Z</time>
      </trkpt>
      <trkpt lat="62.638368356194" lon="17.985355307232">
        <ele>53.2</ele>
        <time>2018-03-19T10:30:53Z</time>
      </trkpt>
      <trkpt lat="62.638396100283" lon="17.985294873733">
        <ele>53</ele>
        <time>2018-03-19T10:30:54Z</time>
      </trkpt>
      <trkpt lat="62.638415462472" lon="17.985241145754">
        <ele>53</ele>
        <time>2018-03-19T10:30:55Z</time>
      </trkpt>
      <trkpt lat="62.638440189077" lon="17.985183562101">
        <ele>53.4</ele>
        <time>2018-03-19T10:30:56Z</time>
      </trkpt>
      <trkpt lat="62.6384667597" lon="17.985125391715">
        <ele>53.4</ele>
        <time>2018-03-19T10:30:57Z</time>
      </trkpt>
      <trkpt lat="62.638490312839" lon="17.985064203845">
        <ele>53.4</ele>
        <time>2018-03-19T10:30:58Z</time>
      </trkpt>
      <trkpt lat="62.638523337525" lon="17.984980049569">
        <ele>53.4</ele>
        <time>2018-03-19T10:30:59Z</time>
      </trkpt>
      <trkpt lat="62.638553680003" lon="17.984902768451">
        <ele>53</ele>
        <time>2018-03-19T10:31:00Z</time>
      </trkpt>
      <trkpt lat="62.638580082988" lon="17.984842167314">
        <ele>52.8</ele>
        <time>2018-03-19T10:31:01Z</time>
      </trkpt>
      <trkpt lat="62.638613275312" lon="17.984793133199">
        <ele>52.6</ele>
        <time>2018-03-19T10:31:02Z</time>
      </trkpt>
      <trkpt lat="62.638640348849" lon="17.984740075772">
        <ele>52.6</ele>
        <time>2018-03-19T10:31:03Z</time>
      </trkpt>
      <trkpt lat="62.638665578368" lon="17.984681067196">
        <ele>52.4</ele>
        <time>2018-03-19T10:31:04Z</time>
      </trkpt>
      <trkpt lat="62.638693238638" lon="17.984594901264">
        <ele>52.2</ele>
        <time>2018-03-19T10:31:05Z</time>
      </trkpt>
      <trkpt lat="62.638702794004" lon="17.984511920454">
        <ele>52.2</ele>
        <time>2018-03-19T10:31:06Z</time>
      </trkpt>
      <trkpt lat="62.638724754582" lon="17.98442927492">
        <ele>52</ele>
        <time>2018-03-19T10:31:07Z</time>
      </trkpt>
      <trkpt lat="62.638735231957" lon="17.984315532537">
        <ele>52</ele>
        <time>2018-03-19T10:31:08Z</time>
      </trkpt>
      <trkpt lat="62.638742859486" lon="17.984224840379">
        <ele>51.8</ele>
        <time>2018-03-19T10:31:09Z</time>
      </trkpt>
      <trkpt lat="62.63874168602" lon="17.984134483497">
        <ele>51.6</ele>
        <time>2018-03-19T10:31:10Z</time>
      </trkpt>
      <trkpt lat="62.638743781495" lon="17.98406298589">
        <ele>51.2</ele>
        <time>2018-03-19T10:31:11Z</time>
      </trkpt>
      <trkpt lat="62.638736405423" lon="17.983967599868">
        <ele>51</ele>
        <time>2018-03-19T10:31:12Z</time>
      </trkpt>
      <trkpt lat="62.638733387939" lon="17.983894928795">
        <ele>51</ele>
        <time>2018-03-19T10:31:13Z</time>
      </trkpt>
      <trkpt lat="62.638731879197" lon="17.983840278807">
        <ele>50.8</ele>
        <time>2018-03-19T10:31:14Z</time>
      </trkpt>
      <trkpt lat="62.638728358799" lon="17.983764674069">
        <ele>50.6</ele>
        <time>2018-03-19T10:31:15Z</time>
      </trkpt>
      <trkpt lat="62.638722826745" lon="17.983713544479">
        <ele>50</ele>
        <time>2018-03-19T10:31:16Z</time>
      </trkpt>
      <trkpt lat="62.638722994383" lon="17.983640705768">
        <ele>50</ele>
        <time>2018-03-19T10:31:17Z</time>
      </trkpt>
      <trkpt lat="62.63871234937" lon="17.983581781011">
        <ele>49.8</ele>
        <time>2018-03-19T10:31:18Z</time>
      </trkpt>
      <trkpt lat="62.638718719614" lon="17.983517743295">
        <ele>49.8</ele>
        <time>2018-03-19T10:31:19Z</time>
      </trkpt>
      <trkpt lat="62.638716624139" lon="17.98345948909">
        <ele>49.8</ele>
        <time>2018-03-19T10:31:20Z</time>
      </trkpt>
      <trkpt lat="62.638715366854" lon="17.98340081579">
        <ele>50</ele>
        <time>2018-03-19T10:31:21Z</time>
      </trkpt>
      <trkpt lat="62.638723078202" lon="17.983343986508">
        <ele>50.2</ele>
        <time>2018-03-19T10:31:22Z</time>
      </trkpt>
      <trkpt lat="62.638723329659" lon="17.983273662367">
        <ele>50.4</ele>
        <time>2018-03-19T10:31:23Z</time>
      </trkpt>
      <trkpt lat="62.638731124826" lon="17.983217335999">
        <ele>50.6</ele>
        <time>2018-03-19T10:31:24Z</time>
      </trkpt>
      <trkpt lat="62.638730621912" lon="17.983150951351">
        <ele>50.6</ele>
        <time>2018-03-19T10:31:25Z</time>
      </trkpt>
      <trkpt lat="62.638738165622" lon="17.983106946376">
        <ele>50.6</ele>
        <time>2018-03-19T10:31:26Z</time>
      </trkpt>
      <trkpt lat="62.638742021296" lon="17.983048356895">
        <ele>50.4</ele>
        <time>2018-03-19T10:31:27Z</time>
      </trkpt>
      <trkpt lat="62.638748978273" lon="17.982993203993">
        <ele>50.4</ele>
        <time>2018-03-19T10:31:28Z</time>
      </trkpt>
      <trkpt lat="62.638747218074" lon="17.98291885654">
        <ele>50</ele>
        <time>2018-03-19T10:31:29Z</time>
      </trkpt>
      <trkpt lat="62.638755516155" lon="17.982870492977">
        <ele>50.2</ele>
        <time>2018-03-19T10:31:30Z</time>
      </trkpt>
      <trkpt lat="62.638765071521" lon="17.982792373669">
        <ele>50.2</ele>
        <time>2018-03-19T10:31:31Z</time>
      </trkpt>
      <trkpt lat="62.638759036553" lon="17.982743255735">
        <ele>50.2</ele>
        <time>2018-03-19T10:31:32Z</time>
      </trkpt>
      <trkpt lat="62.638768172824" lon="17.982677290182">
        <ele>50.4</ele>
        <time>2018-03-19T10:31:33Z</time>
      </trkpt>
      <trkpt lat="62.63877353724" lon="17.982620377081">
        <ele>50.4</ele>
        <time>2018-03-19T10:31:34Z</time>
      </trkpt>
      <trkpt lat="62.638779488389" lon="17.982563631618">
        <ele>50.6</ele>
        <time>2018-03-19T10:31:35Z</time>
      </trkpt>
      <trkpt lat="62.638787283556" lon="17.982489619441">
        <ele>50.8</ele>
        <time>2018-03-19T10:31:36Z</time>
      </trkpt>
      <trkpt lat="62.638790384859" lon="17.982444357181">
        <ele>50.6</ele>
        <time>2018-03-19T10:31:37Z</time>
      </trkpt>
      <trkpt lat="62.638805220822" lon="17.982379984189">
        <ele>50.8</ele>
        <time>2018-03-19T10:31:38Z</time>
      </trkpt>
      <trkpt lat="62.638814357093" lon="17.982299098854">
        <ele>50.4</ele>
        <time>2018-03-19T10:31:39Z</time>
      </trkpt>
      <trkpt lat="62.638837742594" lon="17.98225417187">
        <ele>50.2</ele>
        <time>2018-03-19T10:31:40Z</time>
      </trkpt>
      <trkpt lat="62.638856685688" lon="17.982198432235">
        <ele>50.2</ele>
        <time>2018-03-19T10:31:41Z</time>
      </trkpt>
      <trkpt lat="62.638877724257" lon="17.982141435315">
        <ele>50</ele>
        <time>2018-03-19T10:31:42Z</time>
      </trkpt>
      <trkpt lat="62.638895242428" lon="17.982087791155">
        <ele>50.2</ele>
        <time>2018-03-19T10:31:43Z</time>
      </trkpt>
      <trkpt lat="62.63891602954" lon="17.982021741783">
        <ele>50.2</ele>
        <time>2018-03-19T10:31:44Z</time>
      </trkpt>
      <trkpt lat="62.638924159983" lon="17.98197170184">
        <ele>50.2</ele>
        <time>2018-03-19T10:31:45Z</time>
      </trkpt>
      <trkpt lat="62.638948216036" lon="17.981902802622">
        <ele>50.2</ele>
        <time>2018-03-19T10:31:46Z</time>
      </trkpt>
      <trkpt lat="62.638964476922" lon="17.981838681087">
        <ele>50</ele>
        <time>2018-03-19T10:31:47Z</time>
      </trkpt>
      <trkpt lat="62.638978223238" lon="17.981777660855">
        <ele>49.6</ele>
        <time>2018-03-19T10:31:48Z</time>
      </trkpt>
      <trkpt lat="62.639001273463" lon="17.981692249294">
        <ele>49.6</ele>
        <time>2018-03-19T10:31:49Z</time>
      </trkpt>
      <trkpt lat="62.639012169933" lon="17.981622511886">
        <ele>49.4</ele>
        <time>2018-03-19T10:31:50Z</time>
      </trkpt>
      <trkpt lat="62.639027592629" lon="17.981574986513">
        <ele>49.2</ele>
        <time>2018-03-19T10:31:51Z</time>
      </trkpt>
      <trkpt lat="62.639046954818" lon="17.981505165286">
        <ele>49.2</ele>
        <time>2018-03-19T10:31:52Z</time>
      </trkpt>
      <trkpt lat="62.639061623143" lon="17.981434589688">
        <ele>49.2</ele>
        <time>2018-03-19T10:31:53Z</time>
      </trkpt>
      <trkpt lat="62.639089031956" lon="17.981366444841">
        <ele>49</ele>
        <time>2018-03-19T10:31:54Z</time>
      </trkpt>
      <trkpt lat="62.639110908715" lon="17.981299557279">
        <ele>49</ele>
        <time>2018-03-19T10:31:55Z</time>
      </trkpt>
      <trkpt lat="62.639132701655" lon="17.98123828559">
        <ele>49</ele>
        <time>2018-03-19T10:31:56Z</time>
      </trkpt>
      <trkpt lat="62.639154159319" lon="17.981187156">
        <ele>49</ele>
        <time>2018-03-19T10:31:57Z</time>
      </trkpt>
      <trkpt lat="62.639174024422" lon="17.981114652565">
        <ele>48.8</ele>
        <time>2018-03-19T10:31:58Z</time>
      </trkpt>
      <trkpt lat="62.639209731316" lon="17.98104382551">
        <ele>48.6</ele>
        <time>2018-03-19T10:31:59Z</time>
      </trkpt>
      <trkpt lat="62.639229931695" lon="17.980974674835">
        <ele>48.6</ele>
        <time>2018-03-19T10:32:00Z</time>
      </trkpt>
      <trkpt lat="62.639256502318" lon="17.980922539417">
        <ele>48.4</ele>
        <time>2018-03-19T10:32:01Z</time>
      </trkpt>
      <trkpt lat="62.63928986228" lon="17.980862608832">
        <ele>48.4</ele>
        <time>2018-03-19T10:32:02Z</time>
      </trkpt>
      <trkpt lat="62.639308386279" lon="17.980811730699">
        <ele>48.2</ele>
        <time>2018-03-19T10:32:03Z</time>
      </trkpt>
      <trkpt lat="62.639343003526" lon="17.980745094594">
        <ele>47.8</ele>
        <time>2018-03-19T10:32:04Z</time>
      </trkpt>
      <trkpt lat="62.639365634656" lon="17.980666723829">
        <ele>47.6</ele>
        <time>2018-03-19T10:32:05Z</time>
      </trkpt>
      <trkpt lat="62.639376782583" lon="17.980592124919">
        <ele>47.4</ele>
        <time>2018-03-19T10:32:06Z</time>
      </trkpt>
      <trkpt lat="62.639398575523" lon="17.980506880996">
        <ele>47.2</ele>
        <time>2018-03-19T10:32:07Z</time>
      </trkpt>
      <trkpt lat="62.639410896916" lon="17.980418703408">
        <ele>46.8</ele>
        <time>2018-03-19T10:32:08Z</time>
      </trkpt>
      <trkpt lat="62.639427493078" lon="17.980342009023">
        <ele>46.8</ele>
        <time>2018-03-19T10:32:09Z</time>
      </trkpt>
      <trkpt lat="62.639449034561" lon="17.980259698765">
        <ele>46.6</ele>
        <time>2018-03-19T10:32:10Z</time>
      </trkpt>
      <trkpt lat="62.639463702886" lon="17.980181998552">
        <ele>46.4</ele>
        <time>2018-03-19T10:32:11Z</time>
      </trkpt>
      <trkpt lat="62.639479712315" lon="17.980108321651">
        <ele>46.2</ele>
        <time>2018-03-19T10:32:12Z</time>
      </trkpt>
      <trkpt lat="62.639493207174" lon="17.980023161547">
        <ele>46</ele>
        <time>2018-03-19T10:32:13Z</time>
      </trkpt>
      <trkpt lat="62.639503516911" lon="17.979969768844">
        <ele>46</ele>
        <time>2018-03-19T10:32:14Z</time>
      </trkpt>
      <trkpt lat="62.639516341218" lon="17.97990975444">
        <ele>45.8</ele>
        <time>2018-03-19T10:32:15Z</time>
      </trkpt>
      <trkpt lat="62.63951952634" lon="17.979862229067">
        <ele>45.6</ele>
        <time>2018-03-19T10:32:16Z</time>
      </trkpt>
      <trkpt lat="62.639530255172" lon="17.979795676781">
        <ele>45.6</ele>
        <time>2018-03-19T10:32:17Z</time>
      </trkpt>
      <trkpt lat="62.639546096963" lon="17.979722335156">
        <ele>45.4</ele>
        <time>2018-03-19T10:32:18Z</time>
      </trkpt>
      <trkpt lat="62.63955221575" lon="17.979658381259">
        <ele>45.4</ele>
        <time>2018-03-19T10:32:19Z</time>
      </trkpt>
      <trkpt lat="62.6395647886" lon="17.979614376284">
        <ele>45.4</ele>
        <time>2018-03-19T10:32:20Z</time>
      </trkpt>
      <trkpt lat="62.63958909611" lon="17.979559474839">
        <ele>45.4</ele>
        <time>2018-03-19T10:32:21Z</time>
      </trkpt>
      <trkpt lat="62.639597561829" lon="17.979515888959">
        <ele>45.4</ele>
        <time>2018-03-19T10:32:22Z</time>
      </trkpt>
      <trkpt lat="62.639621282606" lon="17.979448833759">
        <ele>45.6</ele>
        <time>2018-03-19T10:32:23Z</time>
      </trkpt>
      <trkpt lat="62.639643243184" lon="17.979398709997">
        <ele>45.6</ele>
        <time>2018-03-19T10:32:24Z</time>
      </trkpt>
      <trkpt lat="62.639654558749" lon="17.979356381402">
        <ele>45.6</ele>
        <time>2018-03-19T10:32:25Z</time>
      </trkpt>
      <trkpt lat="62.639685655598" lon="17.979294355342">
        <ele>45.4</ele>
        <time>2018-03-19T10:32:26Z</time>
      </trkpt>
      <trkpt lat="62.639703592864" lon="17.979243477209">
        <ele>45.4</ele>
        <time>2018-03-19T10:32:27Z</time>
      </trkpt>
      <trkpt lat="62.639726391632" lon="17.979180277683">
        <ele>45</ele>
        <time>2018-03-19T10:32:28Z</time>
      </trkpt>
      <trkpt lat="62.639757153205" lon="17.979105511135">
        <ele>44.8</ele>
        <time>2018-03-19T10:32:29Z</time>
      </trkpt>
      <trkpt lat="62.639778778507" lon="17.979062511988">
        <ele>44.6</ele>
        <time>2018-03-19T10:32:30Z</time>
      </trkpt>
      <trkpt lat="62.639802080189" lon="17.97902043485">
        <ele>44.6</ele>
        <time>2018-03-19T10:32:31Z</time>
      </trkpt>
      <trkpt lat="62.639825717147" lon="17.978981961929">
        <ele>44.4</ele>
        <time>2018-03-19T10:32:32Z</time>
      </trkpt>
      <trkpt lat="62.639839295825" lon="17.978924210638">
        <ele>44.4</ele>
        <time>2018-03-19T10:32:33Z</time>
      </trkpt>
      <trkpt lat="62.639862597507" lon="17.97887710436">
        <ele>44.4</ele>
        <time>2018-03-19T10:32:34Z</time>
      </trkpt>
      <trkpt lat="62.639889000492" lon="17.978832512652">
        <ele>44.2</ele>
        <time>2018-03-19T10:32:35Z</time>
      </trkpt>
      <trkpt lat="62.639915738753" lon="17.978806528762">
        <ele>44.2</ele>
        <time>2018-03-19T10:32:36Z</time>
      </trkpt>
      <trkpt lat="62.639945913593" lon="17.978766630918">
        <ele>44</ele>
        <time>2018-03-19T10:32:37Z</time>
      </trkpt>
      <trkpt lat="62.639978435365" lon="17.978698737528">
        <ele>44</ele>
        <time>2018-03-19T10:32:38Z</time>
      </trkpt>
      <trkpt lat="62.640001234133" lon="17.978657666218">
        <ele>44</ele>
        <time>2018-03-19T10:32:39Z</time>
      </trkpt>
      <trkpt lat="62.640029229679" lon="17.978632604337">
        <ele>44</ele>
        <time>2018-03-19T10:32:40Z</time>
      </trkpt>
      <trkpt lat="62.640069462799" lon="17.978582815851">
        <ele>44</ele>
        <time>2018-03-19T10:32:41Z</time>
      </trkpt>
      <trkpt lat="62.640113048679" lon="17.978527998225">
        <ele>44</ele>
        <time>2018-03-19T10:32:42Z</time>
      </trkpt>
      <trkpt lat="62.640145067537" lon="17.978481730137">
        <ele>43.8</ele>
        <time>2018-03-19T10:32:43Z</time>
      </trkpt>
      <trkpt lat="62.640181109707" lon="17.978441161741">
        <ele>43.6</ele>
        <time>2018-03-19T10:32:44Z</time>
      </trkpt>
      <trkpt lat="62.640214134393" lon="17.978389948332">
        <ele>43.4</ele>
        <time>2018-03-19T10:32:45Z</time>
      </trkpt>
      <trkpt lat="62.640237519894" lon="17.97833982457">
        <ele>43</ele>
        <time>2018-03-19T10:32:46Z</time>
      </trkpt>
      <trkpt lat="62.640276244272" lon="17.978294227034">
        <ele>42.6</ele>
        <time>2018-03-19T10:32:47Z</time>
      </trkpt>
      <trkpt lat="62.640296444651" lon="17.978235302277">
        <ele>42.2</ele>
        <time>2018-03-19T10:32:48Z</time>
      </trkpt>
      <trkpt lat="62.640331145717" lon="17.978182077212">
        <ele>41.8</ele>
        <time>2018-03-19T10:32:49Z</time>
      </trkpt>
      <trkpt lat="62.640367439344" lon="17.978139832436">
        <ele>41.6</ele>
        <time>2018-03-19T10:32:50Z</time>
      </trkpt>
      <trkpt lat="62.640391914492" lon="17.978098593488">
        <ele>41.2</ele>
        <time>2018-03-19T10:32:51Z</time>
      </trkpt>
      <trkpt lat="62.640422759884" lon="17.978071268494">
        <ele>41</ele>
        <time>2018-03-19T10:32:52Z</time>
      </trkpt>
      <trkpt lat="62.640458047683" lon="17.97802550332">
        <ele>40.8</ele>
        <time>2018-03-19T10:32:53Z</time>
      </trkpt>
      <trkpt lat="62.640483696297" lon="17.97799029934">
        <ele>41</ele>
        <time>2018-03-19T10:32:54Z</time>
      </trkpt>
      <trkpt lat="62.640522504494" lon="17.977964986002">
        <ele>40.8</ele>
        <time>2018-03-19T10:32:55Z</time>
      </trkpt>
      <trkpt lat="62.640559217216" lon="17.977914107869">
        <ele>40.6</ele>
        <time>2018-03-19T10:32:56Z</time>
      </trkpt>
      <trkpt lat="62.640575059007" lon="17.977829618317">
        <ele>40.2</ele>
        <time>2018-03-19T10:32:57Z</time>
      </trkpt>
      <trkpt lat="62.640589140599" lon="17.97776901718">
        <ele>40</ele>
        <time>2018-03-19T10:32:58Z</time>
      </trkpt>
      <trkpt lat="62.640621997647" lon="17.977701291428">
        <ele>39.6</ele>
        <time>2018-03-19T10:32:59Z</time>
      </trkpt>
      <trkpt lat="62.64065192103" lon="17.97765418515">
        <ele>39.6</ele>
        <time>2018-03-19T10:33:00Z</time>
      </trkpt>
      <trkpt lat="62.640687795562" lon="17.977598948429">
        <ele>39.4</ele>
        <time>2018-03-19T10:33:01Z</time>
      </trkpt>
      <trkpt lat="62.640716629298" lon="17.977533653428">
        <ele>39.4</ele>
        <time>2018-03-19T10:33:02Z</time>
      </trkpt>
      <trkpt lat="62.640730459433" lon="17.977469867169">
        <ele>39.2</ele>
        <time>2018-03-19T10:33:03Z</time>
      </trkpt>
      <trkpt lat="62.640765328137" lon="17.977398369562">
        <ele>39</ele>
        <time>2018-03-19T10:33:04Z</time>
      </trkpt>
      <trkpt lat="62.640791312027" lon="17.977346150325">
        <ele>38.6</ele>
        <time>2018-03-19T10:33:05Z</time>
      </trkpt>
      <trkpt lat="62.64083129369" lon="17.977300049875">
        <ele>38</ele>
        <time>2018-03-19T10:33:06Z</time>
      </trkpt>
      <trkpt lat="62.640862139082" lon="17.977244477878">
        <ele>37.6</ele>
        <time>2018-03-19T10:33:07Z</time>
      </trkpt>
      <trkpt lat="62.64089583432" lon="17.977185972216">
        <ele>37.2</ele>
        <time>2018-03-19T10:33:08Z</time>
      </trkpt>
      <trkpt lat="62.640929026644" lon="17.977131657504">
        <ele>36.8</ele>
        <time>2018-03-19T10:33:09Z</time>
      </trkpt>
      <trkpt lat="62.640957776561" lon="17.977065859589">
        <ele>36.4</ele>
        <time>2018-03-19T10:33:10Z</time>
      </trkpt>
      <trkpt lat="62.640984431003" lon="17.977003917348">
        <ele>36.4</ele>
        <time>2018-03-19T10:33:11Z</time>
      </trkpt>
      <trkpt lat="62.641015779309" lon="17.976948848265">
        <ele>36</ele>
        <time>2018-03-19T10:33:12Z</time>
      </trkpt>
      <trkpt lat="62.641050815651" lon="17.976903837462">
        <ele>35.8</ele>
        <time>2018-03-19T10:33:13Z</time>
      </trkpt>
      <trkpt lat="62.641081241948" lon="17.976857737012">
        <ele>35.6</ele>
        <time>2018-03-19T10:33:14Z</time>
      </trkpt>
      <trkpt lat="62.641114769548" lon="17.976819934643">
        <ele>35.2</ele>
        <time>2018-03-19T10:33:15Z</time>
      </trkpt>
      <trkpt lat="62.641148045691" lon="17.976786323224">
        <ele>35.2</ele>
        <time>2018-03-19T10:33:16Z</time>
      </trkpt>
      <trkpt lat="62.641180651282" lon="17.976748353217">
        <ele>35.4</ele>
        <time>2018-03-19T10:33:17Z</time>
      </trkpt>
      <trkpt lat="62.641225578266" lon="17.976762099533">
        <ele>35.2</ele>
        <time>2018-03-19T10:33:18Z</time>
      </trkpt>
      <trkpt lat="62.64128475448" lon="17.976738797851">
        <ele>34.8</ele>
        <time>2018-03-19T10:33:19Z</time>
      </trkpt>
      <trkpt lat="62.641330771111" lon="17.976729829218">
        <ele>34.6</ele>
        <time>2018-03-19T10:33:20Z</time>
      </trkpt>
      <trkpt lat="62.641373770258" lon="17.976704934975">
        <ele>34</ele>
        <time>2018-03-19T10:33:21Z</time>
      </trkpt>
      <trkpt lat="62.641409058057" lon="17.976677442343">
        <ele>33.6</ele>
        <time>2018-03-19T10:33:22Z</time>
      </trkpt>
      <trkpt lat="62.641455158507" lon="17.97663494611">
        <ele>33.2</ele>
        <time>2018-03-19T10:33:23Z</time>
      </trkpt>
      <trkpt lat="62.641506707192" lon="17.97660477127">
        <ele>32.8</ele>
        <time>2018-03-19T10:33:24Z</time>
      </trkpt>
      <trkpt lat="62.641551969452" lon="17.976563783779">
        <ele>32.6</ele>
        <time>2018-03-19T10:33:25Z</time>
      </trkpt>
      <trkpt lat="62.641594968599" lon="17.976521287546">
        <ele>32.2</ele>
        <time>2018-03-19T10:33:26Z</time>
      </trkpt>
      <trkpt lat="62.641637381013" lon="17.976482646987">
        <ele>31.6</ele>
        <time>2018-03-19T10:33:27Z</time>
      </trkpt>
      <trkpt lat="62.641678368504" lon="17.976435289252">
        <ele>31</ele>
        <time>2018-03-19T10:33:28Z</time>
      </trkpt>
      <trkpt lat="62.641716506149" lon="17.976386758051">
        <ele>30.6</ele>
        <time>2018-03-19T10:33:29Z</time>
      </trkpt>
      <trkpt lat="62.641757074545" lon="17.976338813583">
        <ele>30.2</ele>
        <time>2018-03-19T10:33:30Z</time>
      </trkpt>
      <trkpt lat="62.641801498615" lon="17.976287851631">
        <ele>29.8</ele>
        <time>2018-03-19T10:33:31Z</time>
      </trkpt>
      <trkpt lat="62.641845755047" lon="17.976230267978">
        <ele>29.4</ele>
        <time>2018-03-19T10:33:32Z</time>
      </trkpt>
      <trkpt lat="62.641886239624" lon="17.97616555971">
        <ele>29</ele>
        <time>2018-03-19T10:33:33Z</time>
      </trkpt>
      <trkpt lat="62.641917755568" lon="17.976107556962">
        <ele>28.6</ele>
        <time>2018-03-19T10:33:34Z</time>
      </trkpt>
      <trkpt lat="62.64195446829" lon="17.976042597237">
        <ele>28.2</ele>
        <time>2018-03-19T10:33:35Z</time>
      </trkpt>
      <trkpt lat="62.641992019202" lon="17.97598031972">
        <ele>27.6</ele>
        <time>2018-03-19T10:33:36Z</time>
      </trkpt>
      <trkpt lat="62.642038957842" lon="17.975911420502">
        <ele>27.4</ele>
        <time>2018-03-19T10:33:37Z</time>
      </trkpt>
      <trkpt lat="62.642070892881" lon="17.975838162696">
        <ele>27.2</ele>
        <time>2018-03-19T10:33:38Z</time>
      </trkpt>
      <trkpt lat="62.642109114345" lon="17.975795834101">
        <ele>26.6</ele>
        <time>2018-03-19T10:33:39Z</time>
      </trkpt>
      <trkpt lat="62.642145072696" lon="17.975744117778">
        <ele>26.2</ele>
        <time>2018-03-19T10:33:40Z</time>
      </trkpt>
      <trkpt lat="62.642188071843" lon="17.975693994016">
        <ele>25.8</ele>
        <time>2018-03-19T10:33:41Z</time>
      </trkpt>
      <trkpt lat="62.642231238628" lon="17.975636745639">
        <ele>25.4</ele>
        <time>2018-03-19T10:33:42Z</time>
      </trkpt>
      <trkpt lat="62.642286810625" lon="17.975570360991">
        <ele>25</ele>
        <time>2018-03-19T10:33:43Z</time>
      </trkpt>
      <trkpt lat="62.642312207782" lon="17.975473382408">
        <ele>24.6</ele>
        <time>2018-03-19T10:33:44Z</time>
      </trkpt>
      <trkpt lat="62.642336850568" lon="17.975398364403">
        <ele>24.2</ele>
        <time>2018-03-19T10:33:45Z</time>
      </trkpt>
      <trkpt lat="62.642361660992" lon="17.975323597855">
        <ele>23.8</ele>
        <time>2018-03-19T10:33:46Z</time>
      </trkpt>
      <trkpt lat="62.642398038438" lon="17.975273977007">
        <ele>23.8</ele>
        <time>2018-03-19T10:33:47Z</time>
      </trkpt>
      <trkpt lat="62.642419915197" lon="17.975188062532">
        <ele>23.4</ele>
        <time>2018-03-19T10:33:48Z</time>
      </trkpt>
      <trkpt lat="62.642442546327" lon="17.975094436709">
        <ele>23</ele>
        <time>2018-03-19T10:33:49Z</time>
      </trkpt>
      <trkpt lat="62.642461321783" lon="17.975026878595">
        <ele>22.6</ele>
        <time>2018-03-19T10:33:50Z</time>
      </trkpt>
      <trkpt lat="62.642487138035" lon="17.97492922946">
        <ele>21.8</ele>
        <time>2018-03-19T10:33:51Z</time>
      </trkpt>
      <trkpt lat="62.642509685346" lon="17.974863934459">
        <ele>21.2</ele>
        <time>2018-03-19T10:33:52Z</time>
      </trkpt>
      <trkpt lat="62.642523264024" lon="17.974788748816">
        <ele>20.8</ele>
        <time>2018-03-19T10:33:53Z</time>
      </trkpt>
      <trkpt lat="62.642553690321" lon="17.974692608423">
        <ele>20.8</ele>
        <time>2018-03-19T10:33:54Z</time>
      </trkpt>
      <trkpt lat="62.642570370302" lon="17.974601413351">
        <ele>20.6</ele>
        <time>2018-03-19T10:33:55Z</time>
      </trkpt>
      <trkpt lat="62.642583446066" lon="17.974526814441">
        <ele>20.6</ele>
        <time>2018-03-19T10:33:56Z</time>
      </trkpt>
      <trkpt lat="62.642591157414" lon="17.974452969902">
        <ele>20.6</ele>
        <time>2018-03-19T10:33:57Z</time>
      </trkpt>
      <trkpt lat="62.642604568454" lon="17.974383148675">
        <ele>20.6</ele>
        <time>2018-03-19T10:33:58Z</time>
      </trkpt>
      <trkpt lat="62.642620410245" lon="17.974309723231">
        <ele>20.4</ele>
        <time>2018-03-19T10:33:59Z</time>
      </trkpt>
      <trkpt lat="62.642641364995" lon="17.974232777389">
        <ele>20.2</ele>
        <time>2018-03-19T10:34:00Z</time>
      </trkpt>
      <trkpt lat="62.642656787691" lon="17.974158597574">
        <ele>20.4</ele>
        <time>2018-03-19T10:34:01Z</time>
      </trkpt>
      <trkpt lat="62.64267279712" lon="17.974088608709">
        <ele>20.2</ele>
        <time>2018-03-19T10:34:02Z</time>
      </trkpt>
      <trkpt lat="62.64268117902" lon="17.973996407809">
        <ele>20.2</ele>
        <time>2018-03-19T10:34:03Z</time>
      </trkpt>
      <trkpt lat="62.642695512069" lon="17.973920635433">
        <ele>20</ele>
        <time>2018-03-19T10:34:04Z</time>
      </trkpt>
      <trkpt lat="62.642706240901" lon="17.973833128397">
        <ele>19.8</ele>
        <time>2018-03-19T10:34:05Z</time>
      </trkpt>
      <trkpt lat="62.642722669425" lon="17.973757691297">
        <ele>19.6</ele>
        <time>2018-03-19T10:34:06Z</time>
      </trkpt>
      <trkpt lat="62.642726860375" lon="17.973689043536">
        <ele>19.4</ele>
        <time>2018-03-19T10:34:07Z</time>
      </trkpt>
      <trkpt lat="62.6427331468" lon="17.973599692482">
        <ele>19</ele>
        <time>2018-03-19T10:34:08Z</time>
      </trkpt>
      <trkpt lat="62.642738846492" lon="17.973531715273">
        <ele>18.8</ele>
        <time>2018-03-19T10:34:09Z</time>
      </trkpt>
      <trkpt lat="62.642735074637" lon="17.973484022262">
        <ele>18.6</ele>
        <time>2018-03-19T10:34:10Z</time>
      </trkpt>
      <trkpt lat="62.642737253931" lon="17.973394168294">
        <ele>18.6</ele>
        <time>2018-03-19T10:34:11Z</time>
      </trkpt>
      <trkpt lat="62.642726776556" lon="17.973335243537">
        <ele>18.6</ele>
        <time>2018-03-19T10:34:12Z</time>
      </trkpt>
      <trkpt lat="62.642731386601" lon="17.973283527214">
        <ele>18.6</ele>
        <time>2018-03-19T10:34:13Z</time>
      </trkpt>
      <trkpt lat="62.642729626402" lon="17.97321764548">
        <ele>18.6</ele>
        <time>2018-03-19T10:34:14Z</time>
      </trkpt>
      <trkpt lat="62.642724429624" lon="17.973175652161">
        <ele>18.6</ele>
        <time>2018-03-19T10:34:15Z</time>
      </trkpt>
      <trkpt lat="62.642722585606" lon="17.973130725177">
        <ele>18.4</ele>
        <time>2018-03-19T10:34:16Z</time>
      </trkpt>
      <trkpt lat="62.642706240901" lon="17.973077164836">
        <ele>18.6</ele>
        <time>2018-03-19T10:34:17Z</time>
      </trkpt>
      <trkpt lat="62.642698026639" lon="17.973021089925">
        <ele>18.6</ele>
        <time>2018-03-19T10:34:18Z</time>
      </trkpt>
      <trkpt lat="62.642688303635" lon="17.972983203737">
        <ele>18.6</ele>
        <time>2018-03-19T10:34:19Z</time>
      </trkpt>
      <trkpt lat="62.642680005554" lon="17.972929727215">
        <ele>18.6</ele>
        <time>2018-03-19T10:34:20Z</time>
      </trkpt>
      <trkpt lat="62.642674557319" lon="17.972880106367">
        <ele>18.6</ele>
        <time>2018-03-19T10:34:21Z</time>
      </trkpt>
      <trkpt lat="62.642661816831" lon="17.9728387836">
        <ele>18.8</ele>
        <time>2018-03-19T10:34:22Z</time>
      </trkpt>
      <trkpt lat="62.642655278949" lon="17.972789246571">
        <ele>18.8</ele>
        <time>2018-03-19T10:34:23Z</time>
      </trkpt>
      <trkpt lat="62.642645220669" lon="17.972749600184">
        <ele>19.2</ele>
        <time>2018-03-19T10:34:24Z</time>
      </trkpt>
      <trkpt lat="62.642636587312" lon="17.972690591608">
        <ele>19.2</ele>
        <time>2018-03-19T10:34:25Z</time>
      </trkpt>
      <trkpt lat="62.642620410245" lon="17.972642563321">
        <ele>19.4</ele>
        <time>2018-03-19T10:34:26Z</time>
      </trkpt>
      <trkpt lat="62.642613369449" lon="17.972593948301">
        <ele>19.8</ele>
        <time>2018-03-19T10:34:27Z</time>
      </trkpt>
      <trkpt lat="62.642606831567" lon="17.972533347164">
        <ele>19.8</ele>
        <time>2018-03-19T10:34:28Z</time>
      </trkpt>
      <trkpt lat="62.642595096907" lon="17.972480122099">
        <ele>20</ele>
        <time>2018-03-19T10:34:29Z</time>
      </trkpt>
      <trkpt lat="62.642592833794" lon="17.972419269505">
        <ele>20.2</ele>
        <time>2018-03-19T10:34:30Z</time>
      </trkpt>
      <trkpt lat="62.642586715007" lon="17.972372247046">
        <ele>20.2</ele>
        <time>2018-03-19T10:34:31Z</time>
      </trkpt>
      <trkpt lat="62.642575650899" lon="17.972326146596">
        <ele>20.2</ele>
        <time>2018-03-19T10:34:32Z</time>
      </trkpt>
      <trkpt lat="62.642573387786" lon="17.972265042545">
        <ele>20.2</ele>
        <time>2018-03-19T10:34:33Z</time>
      </trkpt>
      <trkpt lat="62.642560144384" lon="17.97221768481">
        <ele>20.4</ele>
        <time>2018-03-19T10:34:34Z</time>
      </trkpt>
      <trkpt lat="62.64255628871" lon="17.97215482056">
        <ele>20.6</ele>
        <time>2018-03-19T10:34:35Z</time>
      </trkpt>
      <trkpt lat="62.642537513254" lon="17.972105870264">
        <ele>20.8</ele>
        <time>2018-03-19T10:34:36Z</time>
      </trkpt>
      <trkpt lat="62.642534411951" lon="17.972038982702">
        <ele>20.8</ele>
        <time>2018-03-19T10:34:37Z</time>
      </trkpt>
      <trkpt lat="62.642521671463" lon="17.971980225583">
        <ele>21</ele>
        <time>2018-03-19T10:34:38Z</time>
      </trkpt>
      <trkpt lat="62.642516223228" lon="17.971923144844">
        <ele>20.8</ele>
        <time>2018-03-19T10:34:39Z</time>
      </trkpt>
      <trkpt lat="62.642522258196" lon="17.971862124612">
        <ele>20.6</ele>
        <time>2018-03-19T10:34:40Z</time>
      </trkpt>
      <trkpt lat="62.642536675064" lon="17.971814599239">
        <ele>20.4</ele>
        <time>2018-03-19T10:34:41Z</time>
      </trkpt>
      <trkpt lat="62.642565927895" lon="17.971792638661">
        <ele>20.2</ele>
        <time>2018-03-19T10:34:42Z</time>
      </trkpt>
      <trkpt lat="62.642594426355" lon="17.971806468796">
        <ele>20</ele>
        <time>2018-03-19T10:34:43Z</time>
      </trkpt>
      <trkpt lat="62.642624098281" lon="17.971853994169">
        <ele>20.2</ele>
        <time>2018-03-19T10:34:44Z</time>
      </trkpt>
      <trkpt lat="62.642643125194" lon="17.971912164555">
        <ele>20.2</ele>
        <time>2018-03-19T10:34:45Z</time>
      </trkpt>
      <trkpt lat="62.642668857627" lon="17.97196538962">
        <ele>20</ele>
        <time>2018-03-19T10:34:46Z</time>
      </trkpt>
      <trkpt lat="62.642690818205" lon="17.972028756784">
        <ele>20.2</ele>
        <time>2018-03-19T10:34:47Z</time>
      </trkpt>
      <trkpt lat="62.642716718276" lon="17.972097153088">
        <ele>20</ele>
        <time>2018-03-19T10:34:48Z</time>
      </trkpt>
      <trkpt lat="62.642742953623" lon="17.972150964886">
        <ele>20</ele>
        <time>2018-03-19T10:34:49Z</time>
      </trkpt>
      <trkpt lat="62.642758543957" lon="17.972224809425">
        <ele>19.8</ele>
        <time>2018-03-19T10:34:50Z</time>
      </trkpt>
      <trkpt lat="62.64277673268" lon="17.972287925132">
        <ele>19.4</ele>
        <time>2018-03-19T10:34:51Z</time>
      </trkpt>
      <trkpt lat="62.642792909747" lon="17.9723526334">
        <ele>19.2</ele>
        <time>2018-03-19T10:34:52Z</time>
      </trkpt>
      <trkpt lat="62.642809505909" lon="17.972394794357">
        <ele>19</ele>
        <time>2018-03-19T10:34:53Z</time>
      </trkpt>
      <trkpt lat="62.642830293021" lon="17.97246327448">
        <ele>18.8</ele>
        <time>2018-03-19T10:34:54Z</time>
      </trkpt>
      <trkpt lat="62.642844206975" lon="17.972538376304">
        <ele>18.8</ele>
        <time>2018-03-19T10:34:55Z</time>
      </trkpt>
      <trkpt lat="62.642869268856" lon="17.972607191703">
        <ele>18.6</ele>
        <time>2018-03-19T10:34:56Z</time>
      </trkpt>
      <trkpt lat="62.642881087335" lon="17.972672738161">
        <ele>18.6</ele>
        <time>2018-03-19T10:34:57Z</time>
      </trkpt>
      <trkpt lat="62.642889972149" lon="17.972728226339">
        <ele>18.4</ele>
        <time>2018-03-19T10:34:58Z</time>
      </trkpt>
      <trkpt lat="62.642912854736" lon="17.972800645955">
        <ele>18.4</ele>
        <time>2018-03-19T10:34:59Z</time>
      </trkpt>
      <trkpt lat="62.642925595224" lon="17.972896031977">
        <ele>18.2</ele>
        <time>2018-03-19T10:35:00Z</time>
      </trkpt>
      <trkpt lat="62.64293934154" lon="17.972964009186">
        <ele>18</ele>
        <time>2018-03-19T10:35:01Z</time>
      </trkpt>
      <trkpt lat="62.642950908562" lon="17.973037853725">
        <ele>18</ele>
        <time>2018-03-19T10:35:02Z</time>
      </trkpt>
      <trkpt lat="62.64296616362" lon="17.973107591133">
        <ele>18</ele>
        <time>2018-03-19T10:35:03Z</time>
      </trkpt>
      <trkpt lat="62.642977395366" lon="17.973168946641">
        <ele>17.8</ele>
        <time>2018-03-19T10:35:04Z</time>
      </trkpt>
      <trkpt lat="62.642978568832" lon="17.973255783125">
        <ele>17.8</ele>
        <time>2018-03-19T10:35:05Z</time>
      </trkpt>
      <trkpt lat="62.642988962388" lon="17.973327364551">
        <ele>17.8</ele>
        <time>2018-03-19T10:35:06Z</time>
      </trkpt>
      <trkpt lat="62.642994326804" lon="17.973380170521">
        <ele>17.8</ele>
        <time>2018-03-19T10:35:07Z</time>
      </trkpt>
      <trkpt lat="62.642996757555" lon="17.973469605394">
        <ele>17.8</ele>
        <time>2018-03-19T10:35:08Z</time>
      </trkpt>
      <trkpt lat="62.643002121971" lon="17.973541522096">
        <ele>17.8</ele>
        <time>2018-03-19T10:35:09Z</time>
      </trkpt>
      <trkpt lat="62.643012012613" lon="17.973585024157">
        <ele>17.6</ele>
        <time>2018-03-19T10:35:10Z</time>
      </trkpt>
      <trkpt lat="62.643017460848" lon="17.97365350428">
        <ele>17.8</ele>
        <time>2018-03-19T10:35:11Z</time>
      </trkpt>
      <trkpt lat="62.643035649571" lon="17.973698431264">
        <ele>17.8</ele>
        <time>2018-03-19T10:35:12Z</time>
      </trkpt>
      <trkpt lat="62.643038834693" lon="17.973774538916">
        <ele>17.8</ele>
        <time>2018-03-19T10:35:13Z</time>
      </trkpt>
      <trkpt lat="62.64304998262" lon="17.973836816433">
        <ele>17.6</ele>
        <time>2018-03-19T10:35:14Z</time>
      </trkpt>
      <trkpt lat="62.643055766131" lon="17.973885012358">
        <ele>17.6</ele>
        <time>2018-03-19T10:35:15Z</time>
      </trkpt>
      <trkpt lat="62.643051491362" lon="17.973962461114">
        <ele>17.4</ele>
        <time>2018-03-19T10:35:16Z</time>
      </trkpt>
      <trkpt lat="62.643053251561" lon="17.974003951519">
        <ele>17.4</ele>
        <time>2018-03-19T10:35:17Z</time>
      </trkpt>
      <trkpt lat="62.643050066439" lon="17.974074694755">
        <ele>17.4</ele>
        <time>2018-03-19T10:35:18Z</time>
      </trkpt>
      <trkpt lat="62.643045372575" lon="17.974148958389">
        <ele>17.4</ele>
        <time>2018-03-19T10:35:19Z</time>
      </trkpt>
      <trkpt lat="62.643050569353" lon="17.974206122947">
        <ele>17.4</ele>
        <time>2018-03-19T10:35:20Z</time>
      </trkpt>
      <trkpt lat="62.643042606548" lon="17.974289271395">
        <ele>17.2</ele>
        <time>2018-03-19T10:35:21Z</time>
      </trkpt>
      <trkpt lat="62.643040175797" lon="17.974335036569">
        <ele>17.2</ele>
        <time>2018-03-19T10:35:22Z</time>
      </trkpt>
      <trkpt lat="62.643042774186" lon="17.974382561942">
        <ele>17</ele>
        <time>2018-03-19T10:35:23Z</time>
      </trkpt>
      <trkpt lat="62.64303573339" lon="17.974451125884">
        <ele>17</ele>
        <time>2018-03-19T10:35:24Z</time>
      </trkpt>
      <trkpt lat="62.643033637915" lon="17.974499405628">
        <ele>16.8</ele>
        <time>2018-03-19T10:35:25Z</time>
      </trkpt>
      <trkpt lat="62.643045540213" lon="17.974554390892">
        <ele>16.8</ele>
        <time>2018-03-19T10:35:26Z</time>
      </trkpt>
      <trkpt lat="62.643037158313" lon="17.974603760283">
        <ele>16.8</ele>
        <time>2018-03-19T10:35:27Z</time>
      </trkpt>
      <trkpt lat="62.643033051182" lon="17.974665283429">
        <ele>16.8</ele>
        <time>2018-03-19T10:35:28Z</time>
      </trkpt>
      <trkpt lat="62.643018885771" lon="17.974731584258">
        <ele>17</ele>
        <time>2018-03-19T10:35:29Z</time>
      </trkpt>
      <trkpt lat="62.643023076721" lon="17.974792855947">
        <ele>17</ele>
        <time>2018-03-19T10:35:30Z</time>
      </trkpt>
      <trkpt lat="62.643019053409" lon="17.974847589754">
        <ele>17</ele>
        <time>2018-03-19T10:35:31Z</time>
      </trkpt>
      <trkpt lat="62.643021148884" lon="17.974905927778">
        <ele>17</ele>
        <time>2018-03-19T10:35:32Z</time>
      </trkpt>
      <trkpt lat="62.643013688993" lon="17.974975413729">
        <ele>17.2</ele>
        <time>2018-03-19T10:35:33Z</time>
      </trkpt>
      <trkpt lat="62.643015449192" lon="17.975040038178">
        <ele>17.6</ele>
        <time>2018-03-19T10:35:34Z</time>
      </trkpt>
      <trkpt lat="62.64300807312" lon="17.975097286555">
        <ele>17.6</ele>
        <time>2018-03-19T10:35:35Z</time>
      </trkpt>
      <trkpt lat="62.643013018441" lon="17.975159480253">
        <ele>17.6</ele>
        <time>2018-03-19T10:35:36Z</time>
      </trkpt>
      <trkpt lat="62.642998098659" lon="17.975223015055">
        <ele>17.6</ele>
        <time>2018-03-19T10:35:37Z</time>
      </trkpt>
      <trkpt lat="62.642983681791" lon="17.975287052771">
        <ele>17.4</ele>
        <time>2018-03-19T10:35:38Z</time>
      </trkpt>
      <trkpt lat="62.64297203095" lon="17.975335248696">
        <ele>17</ele>
        <time>2018-03-19T10:35:39Z</time>
      </trkpt>
      <trkpt lat="62.64295442896" lon="17.975386126829">
        <ele>17</ele>
        <time>2018-03-19T10:35:40Z</time>
      </trkpt>
      <trkpt lat="62.642948393992" lon="17.975440190084">
        <ele>17</ele>
        <time>2018-03-19T10:35:41Z</time>
      </trkpt>
      <trkpt lat="62.642930624364" lon="17.975491487312">
        <ele>17.2</ele>
        <time>2018-03-19T10:35:42Z</time>
      </trkpt>
      <trkpt lat="62.642926265776" lon="17.975545969662">
        <ele>17.4</ele>
        <time>2018-03-19T10:35:43Z</time>
      </trkpt>
      <trkpt lat="62.642920566084" lon="17.975589639361">
        <ele>17.6</ele>
        <time>2018-03-19T10:35:44Z</time>
      </trkpt>
      <trkpt lat="62.642905143388" lon="17.975633476698">
        <ele>17.6</ele>
        <time>2018-03-19T10:35:45Z</time>
      </trkpt>
      <trkpt lat="62.642908747605" lon="17.975679996243">
        <ele>17.8</ele>
        <time>2018-03-19T10:35:46Z</time>
      </trkpt>
      <trkpt lat="62.642897515859" lon="17.975735316783">
        <ele>17.8</ele>
        <time>2018-03-19T10:35:47Z</time>
      </trkpt>
      <trkpt lat="62.642896174755" lon="17.97580010887">
        <ele>17.8</ele>
        <time>2018-03-19T10:35:48Z</time>
      </trkpt>
      <trkpt lat="62.642891397072" lon="17.975855010315">
        <ele>17.8</ele>
        <time>2018-03-19T10:35:49Z</time>
      </trkpt>
      <trkpt lat="62.642889804511" lon="17.975901194584">
        <ele>17.8</ele>
        <time>2018-03-19T10:35:50Z</time>
      </trkpt>
      <trkpt lat="62.64288150643" lon="17.975979146254">
        <ele>17.8</ele>
        <time>2018-03-19T10:35:51Z</time>
      </trkpt>
      <trkpt lat="62.64287899186" lon="17.9760155237">
        <ele>17.8</ele>
        <time>2018-03-19T10:35:52Z</time>
      </trkpt>
      <trkpt lat="62.642873040711" lon="17.976084925832">
        <ele>17.8</ele>
        <time>2018-03-19T10:35:53Z</time>
      </trkpt>
      <trkpt lat="62.642871196693" lon="17.97612867935">
        <ele>17.8</ele>
        <time>2018-03-19T10:35:54Z</time>
      </trkpt>
      <trkpt lat="62.642865329363" lon="17.976194728722">
        <ele>17.8</ele>
        <time>2018-03-19T10:35:55Z</time>
      </trkpt>
      <trkpt lat="62.642867173381" lon="17.976238063145">
        <ele>17.8</ele>
        <time>2018-03-19T10:35:56Z</time>
      </trkpt>
      <trkpt lat="62.642859462033" lon="17.976300592119">
        <ele>17.8</ele>
        <time>2018-03-19T10:35:57Z</time>
      </trkpt>
      <trkpt lat="62.642868263028" lon="17.976352140804">
        <ele>17.8</ele>
        <time>2018-03-19T10:35:58Z</time>
      </trkpt>
      <trkpt lat="62.642861557508" lon="17.976415005054">
        <ele>18</ele>
        <time>2018-03-19T10:35:59Z</time>
      </trkpt>
      <trkpt lat="62.642874465634" lon="17.976469487404">
        <ele>18</ele>
        <time>2018-03-19T10:36:00Z</time>
      </trkpt>
      <trkpt lat="62.642866167553" lon="17.976542242296">
        <ele>18</ele>
        <time>2018-03-19T10:36:01Z</time>
      </trkpt>
      <trkpt lat="62.642874968548" lon="17.976589264755">
        <ele>17.8</ele>
        <time>2018-03-19T10:36:02Z</time>
      </trkpt>
      <trkpt lat="62.64285803711" lon="17.97666679733">
        <ele>17.8</ele>
        <time>2018-03-19T10:36:03Z</time>
      </trkpt>
      <trkpt lat="62.642866335191" lon="17.976728069019">
        <ele>17.8</ele>
        <time>2018-03-19T10:36:04Z</time>
      </trkpt>
      <trkpt lat="62.642844374613" lon="17.976782886645">
        <ele>17.8</ele>
        <time>2018-03-19T10:36:05Z</time>
      </trkpt>
      <trkpt lat="62.642828616641" lon="17.976846756723">
        <ele>17.6</ele>
        <time>2018-03-19T10:36:06Z</time>
      </trkpt>
      <trkpt lat="62.642823336044" lon="17.976898724503">
        <ele>17.8</ele>
        <time>2018-03-19T10:36:07Z</time>
      </trkpt>
      <trkpt lat="62.642808164805" lon="17.976951362835">
        <ele>17.8</ele>
        <time>2018-03-19T10:36:08Z</time>
      </trkpt>
      <trkpt lat="62.642803806217" lon="17.977003498253">
        <ele>17.8</ele>
        <time>2018-03-19T10:36:09Z</time>
      </trkpt>
      <trkpt lat="62.642799196172" lon="17.977048089961">
        <ele>17.8</ele>
        <time>2018-03-19T10:36:10Z</time>
      </trkpt>
      <trkpt lat="62.642788383521" lon="17.977115145161">
        <ele>18</ele>
        <time>2018-03-19T10:36:11Z</time>
      </trkpt>
      <trkpt lat="62.642796262507" lon="17.977175997755">
        <ele>18</ele>
        <time>2018-03-19T10:36:12Z</time>
      </trkpt>
      <trkpt lat="62.642783270562" lon="17.97723760472">
        <ele>18</ele>
        <time>2018-03-19T10:36:13Z</time>
      </trkpt>
      <trkpt lat="62.642787293874" lon="17.977292589984">
        <ele>18.2</ele>
        <time>2018-03-19T10:36:14Z</time>
      </trkpt>
      <trkpt lat="62.642771284445" lon="17.97734656942">
        <ele>18.2</ele>
        <time>2018-03-19T10:36:15Z</time>
      </trkpt>
      <trkpt lat="62.642778325241" lon="17.977399123933">
        <ele>18.2</ele>
        <time>2018-03-19T10:36:16Z</time>
      </trkpt>
      <trkpt lat="62.642760387975" lon="17.977440195243">
        <ele>18.2</ele>
        <time>2018-03-19T10:36:17Z</time>
      </trkpt>
      <trkpt lat="62.642743288899" lon="17.977496773068">
        <ele>18.2</ele>
        <time>2018-03-19T10:36:18Z</time>
      </trkpt>
      <trkpt lat="62.642728872031" lon="17.977536335636">
        <ele>18.2</ele>
        <time>2018-03-19T10:36:19Z</time>
      </trkpt>
      <trkpt lat="62.64270883929" lon="17.977574808557">
        <ele>18.4</ele>
        <time>2018-03-19T10:36:20Z</time>
      </trkpt>
      <trkpt lat="62.642696434078" lon="17.977615460772">
        <ele>18.4</ele>
        <time>2018-03-19T10:36:21Z</time>
      </trkpt>
      <trkpt lat="62.64267698807" lon="17.977639433006">
        <ele>18.8</ele>
        <time>2018-03-19T10:36:22Z</time>
      </trkpt>
      <trkpt lat="62.642661816831" lon="17.977662818507">
        <ele>19</ele>
        <time>2018-03-19T10:36:23Z</time>
      </trkpt>
      <trkpt lat="62.642645053031" lon="17.977693160985">
        <ele>19.2</ele>
        <time>2018-03-19T10:36:24Z</time>
      </trkpt>
      <trkpt lat="62.642627702498" lon="17.977718641961">
        <ele>19.4</ele>
        <time>2018-03-19T10:36:25Z</time>
      </trkpt>
      <trkpt lat="62.642619404417" lon="17.977739009978">
        <ele>19.6</ele>
        <time>2018-03-19T10:36:26Z</time>
      </trkpt>
      <trkpt lat="62.642600796599" lon="17.977755857597">
        <ele>19.6</ele>
        <time>2018-03-19T10:36:27Z</time>
      </trkpt>
      <trkpt lat="62.642591576509" lon="17.977782092944">
        <ele>20</ele>
        <time>2018-03-19T10:36:28Z</time>
      </trkpt>
      <trkpt lat="62.642566849904" lon="17.977797348002">
        <ele>20</ele>
        <time>2018-03-19T10:36:29Z</time>
      </trkpt>
      <trkpt lat="62.642549499371" lon="17.977826936109">
        <ele>20.2</ele>
        <time>2018-03-19T10:36:30Z</time>
      </trkpt>
      <trkpt lat="62.64252527568" lon="17.977847387945">
        <ele>20.4</ele>
        <time>2018-03-19T10:36:31Z</time>
      </trkpt>
      <trkpt lat="62.642506332586" lon="17.977871695455">
        <ele>20.6</ele>
        <time>2018-03-19T10:36:32Z</time>
      </trkpt>
      <trkpt lat="62.642484539646" lon="17.977904049589">
        <ele>20.6</ele>
        <time>2018-03-19T10:36:33Z</time>
      </trkpt>
      <trkpt lat="62.642463836353" lon="17.977933470058">
        <ele>20.6</ele>
        <time>2018-03-19T10:36:34Z</time>
      </trkpt>
      <trkpt lat="62.64245151496" lon="17.977963393441">
        <ele>20.6</ele>
        <time>2018-03-19T10:36:35Z</time>
      </trkpt>
      <trkpt lat="62.642430811667" lon="17.978002453095">
        <ele>20.8</ele>
        <time>2018-03-19T10:36:36Z</time>
      </trkpt>
      <trkpt lat="62.642421843034" lon="17.978045955156">
        <ele>20.8</ele>
        <time>2018-03-19T10:36:37Z</time>
      </trkpt>
      <trkpt lat="62.642398289895" lon="17.978090211588">
        <ele>20.8</ele>
        <time>2018-03-19T10:36:38Z</time>
      </trkpt>
      <trkpt lat="62.642382867199" lon="17.978141341178">
        <ele>21</ele>
        <time>2018-03-19T10:36:39Z</time>
      </trkpt>
      <trkpt lat="62.642373311833" lon="17.978176042244">
        <ele>21.4</ele>
        <time>2018-03-19T10:36:40Z</time>
      </trkpt>
      <trkpt lat="62.642351602712" lon="17.978220717771">
        <ele>21.6</ele>
        <time>2018-03-19T10:36:41Z</time>
      </trkpt>
      <trkpt lat="62.642343220812" lon="17.978255921751">
        <ele>21.8</ele>
        <time>2018-03-19T10:36:42Z</time>
      </trkpt>
      <trkpt lat="62.642320924958" lon="17.978308979178">
        <ele>22</ele>
        <time>2018-03-19T10:36:43Z</time>
      </trkpt>
      <trkpt lat="62.642303658244" lon="17.978342087683">
        <ele>22.2</ele>
        <time>2018-03-19T10:36:44Z</time>
      </trkpt>
      <trkpt lat="62.642278931639" lon="17.978394055463">
        <ele>22.2</ele>
        <time>2018-03-19T10:36:45Z</time>
      </trkpt>
      <trkpt lat="62.642267280798" lon="17.978435210592">
        <ele>22.4</ele>
        <time>2018-03-19T10:36:46Z</time>
      </trkpt>
      <trkpt lat="62.642252947749" lon="17.978469324925">
        <ele>22.4</ele>
        <time>2018-03-19T10:36:47Z</time>
      </trkpt>
      <trkpt lat="62.642238447062" lon="17.978521795619">
        <ele>22.6</ele>
        <time>2018-03-19T10:36:48Z</time>
      </trkpt>
      <trkpt lat="62.642222521452" lon="17.978550629355">
        <ele>22.8</ele>
        <time>2018-03-19T10:36:49Z</time>
      </trkpt>
      <trkpt lat="62.642213217543" lon="17.978578373444">
        <ele>22.8</ele>
        <time>2018-03-19T10:36:50Z</time>
      </trkpt>
      <trkpt lat="62.642200393236" lon="17.978606620447">
        <ele>23</ele>
        <time>2018-03-19T10:36:51Z</time>
      </trkpt>
      <trkpt lat="62.642185976368" lon="17.978613409786">
        <ele>23.2</ele>
        <time>2018-03-19T10:36:52Z</time>
      </trkpt>
      <trkpt lat="62.642176169545" lon="17.978625060627">
        <ele>23.4</ele>
        <time>2018-03-19T10:36:53Z</time>
      </trkpt>
      <trkpt lat="62.642159321926" lon="17.978654648734">
        <ele>23.4</ele>
        <time>2018-03-19T10:36:54Z</time>
      </trkpt>
      <trkpt lat="62.642137780443" lon="17.978670322887">
        <ele>23.6</ele>
        <time>2018-03-19T10:36:55Z</time>
      </trkpt>
      <trkpt lat="62.642117412426" lon="17.97868599704">
        <ele>23.8</ele>
        <time>2018-03-19T10:36:56Z</time>
      </trkpt>
      <trkpt lat="62.642093775468" lon="17.978697815519">
        <ele>24</ele>
        <time>2018-03-19T10:36:57Z</time>
      </trkpt>
      <trkpt lat="62.642080532066" lon="17.978712567663">
        <ele>24</ele>
        <time>2018-03-19T10:36:58Z</time>
      </trkpt>
      <trkpt lat="62.642060583144" lon="17.978733438594">
        <ele>24.2</ele>
        <time>2018-03-19T10:36:59Z</time>
      </trkpt>
      <trkpt lat="62.642046417733" lon="17.978743413055">
        <ele>24.4</ele>
        <time>2018-03-19T10:37:00Z</time>
      </trkpt>
      <trkpt lat="62.642024540974" lon="17.97874550853">
        <ele>24.6</ele>
        <time>2018-03-19T10:37:01Z</time>
      </trkpt>
      <trkpt lat="62.642008783002" lon="17.978766295642">
        <ele>25</ele>
        <time>2018-03-19T10:37:02Z</time>
      </trkpt>
      <trkpt lat="62.64198380494" lon="17.978773252619">
        <ele>25.2</ele>
        <time>2018-03-19T10:37:03Z</time>
      </trkpt>
      <trkpt lat="62.641963353104" lon="17.978780377234">
        <ele>25.4</ele>
        <time>2018-03-19T10:37:04Z</time>
      </trkpt>
      <trkpt lat="62.641948936236" lon="17.978789178229">
        <ele>25.6</ele>
        <time>2018-03-19T10:37:05Z</time>
      </trkpt>
      <trkpt lat="62.641929490228" lon="17.978800409975">
        <ele>25.6</ele>
        <time>2018-03-19T10:37:06Z</time>
      </trkpt>
      <trkpt lat="62.641909541306" lon="17.978815665033">
        <ele>25.8</ele>
        <time>2018-03-19T10:37:07Z</time>
      </trkpt>
      <trkpt lat="62.641895208257" lon="17.978829746625">
        <ele>25.8</ele>
        <time>2018-03-19T10:37:08Z</time>
      </trkpt>
      <trkpt lat="62.641875594611" lon="17.978831171548">
        <ele>26</ele>
        <time>2018-03-19T10:37:09Z</time>
      </trkpt>
      <trkpt lat="62.641866290702" lon="17.978847180977">
        <ele>26.2</ele>
        <time>2018-03-19T10:37:10Z</time>
      </trkpt>
      <trkpt lat="62.641847850522" lon="17.978851455746">
        <ele>26.4</ele>
        <time>2018-03-19T10:37:11Z</time>
      </trkpt>
      <trkpt lat="62.641839049527" lon="17.978858328904">
        <ele>26.4</ele>
        <time>2018-03-19T10:37:12Z</time>
      </trkpt>
      <trkpt lat="62.641816250759" lon="17.978878194007">
        <ele>26.6</ele>
        <time>2018-03-19T10:37:13Z</time>
      </trkpt>
      <trkpt lat="62.641802504443" lon="17.978897640015">
        <ele>26.8</ele>
        <time>2018-03-19T10:37:14Z</time>
      </trkpt>
      <trkpt lat="62.641786327376" lon="17.978902752974">
        <ele>27</ele>
        <time>2018-03-19T10:37:15Z</time>
      </trkpt>
      <trkpt lat="62.641774425078" lon="17.97890979377">
        <ele>27</ele>
        <time>2018-03-19T10:37:16Z</time>
      </trkpt>
      <trkpt lat="62.641762438961" lon="17.978908368847">
        <ele>27.2</ele>
        <time>2018-03-19T10:37:17Z</time>
      </trkpt>
      <trkpt lat="62.641740981297" lon="17.978914990548">
        <ele>27.4</ele>
        <time>2018-03-19T10:37:18Z</time>
      </trkpt>
      <trkpt lat="62.641721367651" lon="17.978934185099">
        <ele>27.6</ele>
        <time>2018-03-19T10:37:19Z</time>
      </trkpt>
      <trkpt lat="62.641700245263" lon="17.978940052429">
        <ele>27.8</ele>
        <time>2018-03-19T10:37:20Z</time>
      </trkpt>
      <trkpt lat="62.641687504775" lon="17.978929826511">
        <ele>28.4</ele>
        <time>2018-03-19T10:37:21Z</time>
      </trkpt>
      <trkpt lat="62.641668729319" lon="17.978944411017">
        <ele>28.8</ele>
        <time>2018-03-19T10:37:22Z</time>
      </trkpt>
      <trkpt lat="62.641642410153" lon="17.978949021062">
        <ele>29.2</ele>
        <time>2018-03-19T10:37:23Z</time>
      </trkpt>
      <trkpt lat="62.641623131783" lon="17.978945500664">
        <ele>29.6</ele>
        <time>2018-03-19T10:37:24Z</time>
      </trkpt>
      <trkpt lat="62.641604188689" lon="17.978955307487">
        <ele>30</ele>
        <time>2018-03-19T10:37:25Z</time>
      </trkpt>
      <trkpt lat="62.641577366609" lon="17.978934855651">
        <ele>30.2</ele>
        <time>2018-03-19T10:37:26Z</time>
      </trkpt>
      <trkpt lat="62.641558507334" lon="17.978934017461">
        <ele>30.4</ele>
        <time>2018-03-19T10:37:27Z</time>
      </trkpt>
      <trkpt lat="62.641537971679" lon="17.978929575054">
        <ele>30.6</ele>
        <time>2018-03-19T10:37:28Z</time>
      </trkpt>
      <trkpt lat="62.641510143771" lon="17.978913565625">
        <ele>30.8</ele>
        <time>2018-03-19T10:37:29Z</time>
      </trkpt>
      <trkpt lat="62.641490446306" lon="17.978910212865">
        <ele>31</ele>
        <time>2018-03-19T10:37:30Z</time>
      </trkpt>
      <trkpt lat="62.64146664171" lon="17.978904932268">
        <ele>31.4</ele>
        <time>2018-03-19T10:37:31Z</time>
      </trkpt>
      <trkpt lat="62.641443842942" lon="17.978901914784">
        <ele>31.6</ele>
        <time>2018-03-19T10:37:32Z</time>
      </trkpt>
      <trkpt lat="62.641421547088" lon="17.978907865933">
        <ele>31.8</ele>
        <time>2018-03-19T10:37:33Z</time>
      </trkpt>
      <trkpt lat="62.64140126289" lon="17.978901830965">
        <ele>32</ele>
        <time>2018-03-19T10:37:34Z</time>
      </trkpt>
      <trkpt lat="62.641388606221" lon="17.978898981119">
        <ele>32.2</ele>
        <time>2018-03-19T10:37:35Z</time>
      </trkpt>
      <trkpt lat="62.641366226548" lon="17.978899232576">
        <ele>32.4</ele>
        <time>2018-03-19T10:37:36Z</time>
      </trkpt>
      <trkpt lat="62.641347786368" lon="17.978895376902">
        <ele>32.4</ele>
        <time>2018-03-19T10:37:37Z</time>
      </trkpt>
      <trkpt lat="62.641330519654" lon="17.978910296684">
        <ele>32.6</ele>
        <time>2018-03-19T10:37:38Z</time>
      </trkpt>
      <trkpt lat="62.641312498569" lon="17.978892778513">
        <ele>32.6</ele>
        <time>2018-03-19T10:37:39Z</time>
      </trkpt>
      <trkpt lat="62.641297578787" lon="17.978911637788">
        <ele>32.8</ele>
        <time>2018-03-19T10:37:40Z</time>
      </trkpt>
      <trkpt lat="62.641275618209" lon="17.978922115163">
        <ele>32.8</ele>
        <time>2018-03-19T10:37:41Z</time>
      </trkpt>
      <trkpt lat="62.641245694826" lon="17.978927144303">
        <ele>32.8</ele>
        <time>2018-03-19T10:37:42Z</time>
      </trkpt>
      <trkpt lat="62.641230355949" lon="17.978924965009">
        <ele>33</ele>
        <time>2018-03-19T10:37:43Z</time>
      </trkpt>
      <trkpt lat="62.641205629344" lon="17.978922953353">
        <ele>33.2</ele>
        <time>2018-03-19T10:37:44Z</time>
      </trkpt>
      <trkpt lat="62.641191799209" lon="17.978937537859">
        <ele>33.6</ele>
        <time>2018-03-19T10:37:45Z</time>
      </trkpt>
      <trkpt lat="62.641169000441" lon="17.978928485407">
        <ele>33.8</ele>
        <time>2018-03-19T10:37:46Z</time>
      </trkpt>
      <trkpt lat="62.641146034035" lon="17.978929742692">
        <ele>34</ele>
        <time>2018-03-19T10:37:47Z</time>
      </trkpt>
      <trkpt lat="62.641122480896" lon="17.978946171216">
        <ele>34.2</ele>
        <time>2018-03-19T10:37:48Z</time>
      </trkpt>
      <trkpt lat="62.641088953296" lon="17.978949523976">
        <ele>34.2</ele>
        <time>2018-03-19T10:37:49Z</time>
      </trkpt>
      <trkpt lat="62.641071686582" lon="17.978953714926">
        <ele>34.2</ele>
        <time>2018-03-19T10:37:50Z</time>
      </trkpt>
      <trkpt lat="62.64104503214" lon="17.978959749894">
        <ele>34.4</ele>
        <time>2018-03-19T10:37:51Z</time>
      </trkpt>
      <trkpt lat="62.641032878385" lon="17.978962348283">
        <ele>34.6</ele>
        <time>2018-03-19T10:37:52Z</time>
      </trkpt>
      <trkpt lat="62.641019467345" lon="17.978981710472">
        <ele>34.8</ele>
        <time>2018-03-19T10:37:53Z</time>
      </trkpt>
      <trkpt lat="62.641001781536" lon="17.979009286923">
        <ele>35</ele>
        <time>2018-03-19T10:37:54Z</time>
      </trkpt>
      <trkpt lat="62.640991052704" lon="17.97903552227">
        <ele>35.2</ele>
        <time>2018-03-19T10:37:55Z</time>
      </trkpt>
      <trkpt lat="62.64099138798" lon="17.979106097868">
        <ele>35.4</ele>
        <time>2018-03-19T10:37:56Z</time>
      </trkpt>
      <trkpt lat="62.6409813297" lon="17.97914113421">
        <ele>35.6</ele>
        <time>2018-03-19T10:37:57Z</time>
      </trkpt>
      <trkpt lat="62.640973115438" lon="17.979181702606">
        <ele>35.8</ele>
        <time>2018-03-19T10:37:58Z</time>
      </trkpt>
      <trkpt lat="62.640972444886" lon="17.979214392016">
        <ele>36</ele>
        <time>2018-03-19T10:37:59Z</time>
      </trkpt>
      <trkpt lat="62.640964314443" lon="17.979274238782">
        <ele>36.2</ele>
        <time>2018-03-19T10:38:00Z</time>
      </trkpt>
      <trkpt lat="62.640949981394" lon="17.979299300663">
        <ele>36.4</ele>
        <time>2018-03-19T10:38:01Z</time>
      </trkpt>
      <trkpt lat="62.640942102408" lon="17.979346742217">
        <ele>36.4</ele>
        <time>2018-03-19T10:38:02Z</time>
      </trkpt>
      <trkpt lat="62.640945455168" lon="17.979399129092">
        <ele>36.4</ele>
        <time>2018-03-19T10:38:03Z</time>
      </trkpt>
      <trkpt lat="62.640945203711" lon="17.979446822103">
        <ele>36.2</ele>
        <time>2018-03-19T10:38:04Z</time>
      </trkpt>
      <trkpt lat="62.640949059385" lon="17.979489737431">
        <ele>36.2</ele>
        <time>2018-03-19T10:38:05Z</time>
      </trkpt>
      <trkpt lat="62.640937576182" lon="17.979538268632">
        <ele>36.2</ele>
        <time>2018-03-19T10:38:06Z</time>
      </trkpt>
      <trkpt lat="62.640935396888" lon="17.979581686874">
        <ele>36</ele>
        <time>2018-03-19T10:38:07Z</time>
      </trkpt>
      <trkpt lat="62.640928775187" lon="17.979628709333">
        <ele>36.2</ele>
        <time>2018-03-19T10:38:08Z</time>
      </trkpt>
      <trkpt lat="62.640922153486" lon="17.979674390688">
        <ele>36.4</ele>
        <time>2018-03-19T10:38:09Z</time>
      </trkpt>
      <trkpt lat="62.640922321124" lon="17.979720239681">
        <ele>36.6</ele>
        <time>2018-03-19T10:38:10Z</time>
      </trkpt>
      <trkpt lat="62.640908323351" lon="17.979778745343">
        <ele>36.6</ele>
        <time>2018-03-19T10:38:11Z</time>
      </trkpt>
      <trkpt lat="62.640916034699" lon="17.979828114734">
        <ele>36.8</ele>
        <time>2018-03-19T10:38:12Z</time>
      </trkpt>
      <trkpt lat="62.640904635315" lon="17.979884357283">
        <ele>37</ele>
        <time>2018-03-19T10:38:13Z</time>
      </trkpt>
      <trkpt lat="62.640903964763" lon="17.979936911796">
        <ele>37</ele>
        <time>2018-03-19T10:38:14Z</time>
      </trkpt>
      <trkpt lat="62.640898851804" lon="17.979985107721">
        <ele>37.2</ele>
        <time>2018-03-19T10:38:15Z</time>
      </trkpt>
      <trkpt lat="62.640893571207" lon="17.98004470303">
        <ele>37.2</ele>
        <time>2018-03-19T10:38:16Z</time>
      </trkpt>
      <trkpt lat="62.640913184853" lon="17.98008242158">
        <ele>37.4</ele>
        <time>2018-03-19T10:38:17Z</time>
      </trkpt>
      <trkpt lat="62.640922907857" lon="17.980136820111">
        <ele>37.4</ele>
        <time>2018-03-19T10:38:18Z</time>
      </trkpt>
      <trkpt lat="62.640923913685" lon="17.980192475927">
        <ele>37.4</ele>
        <time>2018-03-19T10:38:19Z</time>
      </trkpt>
      <trkpt lat="62.640925590065" lon="17.980248131743">
        <ele>37.2</ele>
        <time>2018-03-19T10:38:20Z</time>
      </trkpt>
      <trkpt lat="62.64092517097" lon="17.980317785332">
        <ele>37.4</ele>
        <time>2018-03-19T10:38:21Z</time>
      </trkpt>
      <trkpt lat="62.64093355287" lon="17.980367825275">
        <ele>37.2</ele>
        <time>2018-03-19T10:38:22Z</time>
      </trkpt>
      <trkpt lat="62.64094277296" lon="17.980437311226">
        <ele>37.2</ele>
        <time>2018-03-19T10:38:23Z</time>
      </trkpt>
      <trkpt lat="62.640945874263" lon="17.980523560977">
        <ele>37.2</ele>
        <time>2018-03-19T10:38:24Z</time>
      </trkpt>
      <trkpt lat="62.64095953676" lon="17.980578713879">
        <ele>37.2</ele>
        <time>2018-03-19T10:38:25Z</time>
      </trkpt>
      <trkpt lat="62.640964984995" lon="17.980640739939">
        <ele>37</ele>
        <time>2018-03-19T10:38:26Z</time>
      </trkpt>
      <trkpt lat="62.640974037447" lon="17.98070854951">
        <ele>37</ele>
        <time>2018-03-19T10:38:27Z</time>
      </trkpt>
      <trkpt lat="62.640984431003" lon="17.980755236693">
        <ele>36.8</ele>
        <time>2018-03-19T10:38:28Z</time>
      </trkpt>
      <trkpt lat="62.640992309989" lon="17.980830673793">
        <ele>36.6</ele>
        <time>2018-03-19T10:38:29Z</time>
      </trkpt>
      <trkpt lat="62.641006643038" lon="17.980906529988">
        <ele>36.4</ele>
        <time>2018-03-19T10:38:30Z</time>
      </trkpt>
      <trkpt lat="62.641020389354" lon="17.980982889097">
        <ele>36</ele>
        <time>2018-03-19T10:38:31Z</time>
      </trkpt>
      <trkpt lat="62.641037069335" lon="17.981045920985">
        <ele>35.4</ele>
        <time>2018-03-19T10:38:32Z</time>
      </trkpt>
      <trkpt lat="62.64105341404" lon="17.981126471044">
        <ele>34.8</ele>
        <time>2018-03-19T10:38:33Z</time>
      </trkpt>
      <trkpt lat="62.641071267487" lon="17.981204171257">
        <ele>34.4</ele>
        <time>2018-03-19T10:38:34Z</time>
      </trkpt>
      <trkpt lat="62.641083085966" lon="17.981297713261">
        <ele>33.8</ele>
        <time>2018-03-19T10:38:35Z</time>
      </trkpt>
      <trkpt lat="62.641082331595" lon="17.981384046831">
        <ele>33.4</ele>
        <time>2018-03-19T10:38:36Z</time>
      </trkpt>
      <trkpt lat="62.641073949695" lon="17.981458394284">
        <ele>33</ele>
        <time>2018-03-19T10:38:37Z</time>
      </trkpt>
      <trkpt lat="62.641063304682" lon="17.981531987366">
        <ele>32.8</ele>
        <time>2018-03-19T10:38:38Z</time>
      </trkpt>
      <trkpt lat="62.641055593334" lon="17.981602982059">
        <ele>32.8</ele>
        <time>2018-03-19T10:38:39Z</time>
      </trkpt>
      <trkpt lat="62.641050648013" lon="17.981680598453">
        <ele>33</ele>
        <time>2018-03-19T10:38:40Z</time>
      </trkpt>
      <trkpt lat="62.64105425223" lon="17.981756370829">
        <ele>33.2</ele>
        <time>2018-03-19T10:38:41Z</time>
      </trkpt>
      <trkpt lat="62.641061041569" lon="17.981827449341">
        <ele>33.4</ele>
        <time>2018-03-19T10:38:42Z</time>
      </trkpt>
      <trkpt lat="62.641057940266" lon="17.981908250857">
        <ele>33.6</ele>
        <time>2018-03-19T10:38:43Z</time>
      </trkpt>
      <trkpt lat="62.641054168411" lon="17.981986202527">
        <ele>33.8</ele>
        <time>2018-03-19T10:38:44Z</time>
      </trkpt>
      <trkpt lat="62.641059532827" lon="17.982054263555">
        <ele>33.8</ele>
        <time>2018-03-19T10:38:45Z</time>
      </trkpt>
      <trkpt lat="62.641061041569" lon="17.982133975424">
        <ele>33.8</ele>
        <time>2018-03-19T10:38:46Z</time>
      </trkpt>
      <trkpt lat="62.641078727378" lon="17.982188541593">
        <ele>33.6</ele>
        <time>2018-03-19T10:38:47Z</time>
      </trkpt>
      <trkpt lat="62.641085181441" lon="17.982258949553">
        <ele>33.4</ele>
        <time>2018-03-19T10:38:48Z</time>
      </trkpt>
      <trkpt lat="62.641103286345" lon="17.982341175992">
        <ele>33.2</ele>
        <time>2018-03-19T10:38:49Z</time>
      </trkpt>
      <trkpt lat="62.641119295774" lon="17.982394484876">
        <ele>33</ele>
        <time>2018-03-19T10:38:50Z</time>
      </trkpt>
      <trkpt lat="62.641123905819" lon="17.98245952842">
        <ele>33</ele>
        <time>2018-03-19T10:38:51Z</time>
      </trkpt>
      <trkpt lat="62.641137065402" lon="17.982504539223">
        <ele>33</ele>
        <time>2018-03-19T10:38:52Z</time>
      </trkpt>
      <trkpt lat="62.641158103971" lon="17.982572851708">
        <ele>33</ele>
        <time>2018-03-19T10:38:53Z</time>
      </trkpt>
      <trkpt lat="62.641171934106" lon="17.982664130599">
        <ele>33</ele>
        <time>2018-03-19T10:38:54Z</time>
      </trkpt>
      <trkpt lat="62.641195235788" lon="17.982744093925">
        <ele>33</ele>
        <time>2018-03-19T10:38:55Z</time>
      </trkpt>
      <trkpt lat="62.641206551353" lon="17.982820117758">
        <ele>33</ele>
        <time>2018-03-19T10:38:56Z</time>
      </trkpt>
      <trkpt lat="62.641212167226" lon="17.98290209274">
        <ele>32.8</ele>
        <time>2018-03-19T10:38:57Z</time>
      </trkpt>
      <trkpt lat="62.641213759787" lon="17.982974009442">
        <ele>32.6</ele>
        <time>2018-03-19T10:38:58Z</time>
      </trkpt>
      <trkpt lat="62.641210071751" lon="17.983068221998">
        <ele>32.2</ele>
        <time>2018-03-19T10:38:59Z</time>
      </trkpt>
      <trkpt lat="62.641208814466" lon="17.983142988546">
        <ele>31.8</ele>
        <time>2018-03-19T10:39:00Z</time>
      </trkpt>
      <trkpt lat="62.64121267014" lon="17.983202080941">
        <ele>31.6</ele>
        <time>2018-03-19T10:39:01Z</time>
      </trkpt>
      <trkpt lat="62.641208060095" lon="17.9832491034">
        <ele>31.4</ele>
        <time>2018-03-19T10:39:02Z</time>
      </trkpt>
      <trkpt lat="62.641222644601" lon="17.983315655686">
        <ele>31.2</ele>
        <time>2018-03-19T10:39:03Z</time>
      </trkpt>
      <trkpt lat="62.641235636546" lon="17.9834251233">
        <ele>31.2</ele>
        <time>2018-03-19T10:39:04Z</time>
      </trkpt>
      <trkpt lat="62.641245946283" lon="17.983501901504">
        <ele>31</ele>
        <time>2018-03-19T10:39:05Z</time>
      </trkpt>
      <trkpt lat="62.641256926572" lon="17.983591420196">
        <ele>30.8</ele>
        <time>2018-03-19T10:39:06Z</time>
      </trkpt>
      <trkpt lat="62.64125960878" lon="17.983683788734">
        <ele>30.8</ele>
        <time>2018-03-19T10:39:07Z</time>
      </trkpt>
      <trkpt lat="62.6412663143" lon="17.983776911643">
        <ele>30.4</ele>
        <time>2018-03-19T10:39:08Z</time>
      </trkpt>
      <trkpt lat="62.641270589069" lon="17.983859640996">
        <ele>29.8</ele>
        <time>2018-03-19T10:39:09Z</time>
      </trkpt>
      <trkpt lat="62.641267823042" lon="17.983966929316">
        <ele>29.4</ele>
        <time>2018-03-19T10:39:10Z</time>
      </trkpt>
      <trkpt lat="62.641260530789" lon="17.984068350306">
        <ele>29</ele>
        <time>2018-03-19T10:39:11Z</time>
      </trkpt>
      <trkpt lat="62.641259524961" lon="17.984141105198">
        <ele>28.6</ele>
        <time>2018-03-19T10:39:12Z</time>
      </trkpt>
      <trkpt lat="62.641262458626" lon="17.984224840379">
        <ele>28.4</ele>
        <time>2018-03-19T10:39:13Z</time>
      </trkpt>
      <trkpt lat="62.641261201341" lon="17.984311593044">
        <ele>28.2</ele>
        <time>2018-03-19T10:39:14Z</time>
      </trkpt>
      <trkpt lat="62.641253489993" lon="17.984400860279">
        <ele>27.8</ele>
        <time>2018-03-19T10:39:15Z</time>
      </trkpt>
      <trkpt lat="62.641237732021" lon="17.984493647912">
        <ele>27.6</ele>
        <time>2018-03-19T10:39:16Z</time>
      </trkpt>
      <trkpt lat="62.641225326809" lon="17.984574617066">
        <ele>27.4</ele>
        <time>2018-03-19T10:39:17Z</time>
      </trkpt>
      <trkpt lat="62.641210742303" lon="17.984697411901">
        <ele>27.6</ele>
        <time>2018-03-19T10:39:18Z</time>
      </trkpt>
      <trkpt lat="62.64121350833" lon="17.984809645542">
        <ele>27.6</ele>
        <time>2018-03-19T10:39:19Z</time>
      </trkpt>
      <trkpt lat="62.641202192765" lon="17.984895057103">
        <ele>27.8</ele>
        <time>2018-03-19T10:39:20Z</time>
      </trkpt>
      <trkpt lat="62.641189955191" lon="17.984994382618">
        <ele>27.8</ele>
        <time>2018-03-19T10:39:21Z</time>
      </trkpt>
      <trkpt lat="62.641190709562" lon="17.985052133909">
        <ele>27.6</ele>
        <time>2018-03-19T10:39:22Z</time>
      </trkpt>
      <trkpt lat="62.641186434793" lon="17.985154728365">
        <ele>27.6</ele>
        <time>2018-03-19T10:39:23Z</time>
      </trkpt>
      <trkpt lat="62.641195822521" lon="17.985235529881">
        <ele>27.4</ele>
        <time>2018-03-19T10:39:24Z</time>
      </trkpt>
      <trkpt lat="62.641190122829" lon="17.985319013605">
        <ele>27.4</ele>
        <time>2018-03-19T10:39:25Z</time>
      </trkpt>
      <trkpt lat="62.641200264928" lon="17.985396881456">
        <ele>27.4</ele>
        <time>2018-03-19T10:39:26Z</time>
      </trkpt>
      <trkpt lat="62.641194984331" lon="17.985475168402">
        <ele>27.4</ele>
        <time>2018-03-19T10:39:27Z</time>
      </trkpt>
      <trkpt lat="62.641178723445" lon="17.985567872216">
        <ele>27.2</ele>
        <time>2018-03-19T10:39:28Z</time>
      </trkpt>
      <trkpt lat="62.64117662797" lon="17.985648086999">
        <ele>27.2</ele>
        <time>2018-03-19T10:39:29Z</time>
      </trkpt>
      <trkpt lat="62.641168665165" lon="17.985712292353">
        <ele>27</ele>
        <time>2018-03-19T10:39:30Z</time>
      </trkpt>
      <trkpt lat="62.641157768695" lon="17.985785717797">
        <ele>27</ele>
        <time>2018-03-19T10:39:31Z</time>
      </trkpt>
      <trkpt lat="62.641139915248" lon="17.985848162952">
        <ele>26.8</ele>
        <time>2018-03-19T10:39:32Z</time>
      </trkpt>
      <trkpt lat="62.64112298381" lon="17.985928880649">
        <ele>26.8</ele>
        <time>2018-03-19T10:39:33Z</time>
      </trkpt>
      <trkpt lat="62.641111584426" lon="17.985988056863">
        <ele>26.8</ele>
        <time>2018-03-19T10:39:34Z</time>
      </trkpt>
      <trkpt lat="62.641107812571" lon="17.986035666055">
        <ele>26.6</ele>
        <time>2018-03-19T10:39:35Z</time>
      </trkpt>
      <trkpt lat="62.641092725151" lon="17.986102134522">
        <ele>26.6</ele>
        <time>2018-03-19T10:39:36Z</time>
      </trkpt>
      <trkpt lat="62.6410986763" lon="17.986158544709">
        <ele>26.4</ele>
        <time>2018-03-19T10:39:37Z</time>
      </trkpt>
      <trkpt lat="62.641093228065" lon="17.986211853593">
        <ele>26.4</ele>
        <time>2018-03-19T10:39:38Z</time>
      </trkpt>
      <trkpt lat="62.641080487577" lon="17.986283770295">
        <ele>26.4</ele>
        <time>2018-03-19T10:39:39Z</time>
      </trkpt>
      <trkpt lat="62.641093144246" lon="17.986320818293">
        <ele>26.6</ele>
        <time>2018-03-19T10:39:40Z</time>
      </trkpt>
      <trkpt lat="62.64107101603" lon="17.986404218198">
        <ele>26.6</ele>
        <time>2018-03-19T10:39:41Z</time>
      </trkpt>
      <trkpt lat="62.641060538655" lon="17.986462556222">
        <ele>26.6</ele>
        <time>2018-03-19T10:39:42Z</time>
      </trkpt>
      <trkpt lat="62.641044529226" lon="17.986531623078">
        <ele>26.6</ele>
        <time>2018-03-19T10:39:43Z</time>
      </trkpt>
      <trkpt lat="62.641036817878" lon="17.986578813175">
        <ele>26.6</ele>
        <time>2018-03-19T10:39:44Z</time>
      </trkpt>
      <trkpt lat="62.641022568648" lon="17.986625751815">
        <ele>26.4</ele>
        <time>2018-03-19T10:39:45Z</time>
      </trkpt>
      <trkpt lat="62.641003541735" lon="17.986709319358">
        <ele>26.4</ele>
        <time>2018-03-19T10:39:46Z</time>
      </trkpt>
      <trkpt lat="62.641008906151" lon="17.986753156695">
        <ele>26.4</ele>
        <time>2018-03-19T10:39:47Z</time>
      </trkpt>
      <trkpt lat="62.640983341356" lon="17.98682649832">
        <ele>26.4</ele>
        <time>2018-03-19T10:39:48Z</time>
      </trkpt>
      <trkpt lat="62.640981245881" lon="17.986872682589">
        <ele>26.4</ele>
        <time>2018-03-19T10:39:49Z</time>
      </trkpt>
      <trkpt lat="62.640979318044" lon="17.986921381428">
        <ele>26.4</ele>
        <time>2018-03-19T10:39:50Z</time>
      </trkpt>
      <trkpt lat="62.640973702171" lon="17.986979384176">
        <ele>26.4</ele>
        <time>2018-03-19T10:39:51Z</time>
      </trkpt>
      <trkpt lat="62.640977054931" lon="17.987027077187">
        <ele>26.4</ele>
        <time>2018-03-19T10:39:52Z</time>
      </trkpt>
      <trkpt lat="62.640964146805" lon="17.987100251174">
        <ele>26.4</ele>
        <time>2018-03-19T10:39:53Z</time>
      </trkpt>
      <trkpt lat="62.64096205133" lon="17.987153140963">
        <ele>26.6</ele>
        <time>2018-03-19T10:39:54Z</time>
      </trkpt>
      <trkpt lat="62.640961883692" lon="17.987202091259">
        <ele>26.6</ele>
        <time>2018-03-19T10:39:55Z</time>
      </trkpt>
      <trkpt lat="62.640952328326" lon="17.987259088179">
        <ele>26.6</ele>
        <time>2018-03-19T10:39:56Z</time>
      </trkpt>
      <trkpt lat="62.640958950027" lon="17.987298902204">
        <ele>26.6</ele>
        <time>2018-03-19T10:39:57Z</time>
      </trkpt>
      <trkpt lat="62.640939839295" lon="17.987368136698">
        <ele>26.6</ele>
        <time>2018-03-19T10:39:58Z</time>
      </trkpt>
      <trkpt lat="62.640937911458" lon="17.98741155494">
        <ele>26.6</ele>
        <time>2018-03-19T10:39:59Z</time>
      </trkpt>
      <trkpt lat="62.640927853178" lon="17.987479364511">
        <ele>26.6</ele>
        <time>2018-03-19T10:40:00Z</time>
      </trkpt>
      <trkpt lat="62.64091595088" lon="17.987540552381">
        <ele>26.6</ele>
        <time>2018-03-19T10:40:01Z</time>
      </trkpt>
      <trkpt lat="62.640915699423" lon="17.987582294243">
        <ele>26.6</ele>
        <time>2018-03-19T10:40:02Z</time>
      </trkpt>
      <trkpt lat="62.640900444365" lon="17.987664353044">
        <ele>26.4</ele>
        <time>2018-03-19T10:40:03Z</time>
      </trkpt>
      <trkpt lat="62.640883429108" lon="17.987719841222">
        <ele>26.4</ele>
        <time>2018-03-19T10:40:04Z</time>
      </trkpt>
      <trkpt lat="62.640875214846" lon="17.987765774034">
        <ele>26.2</ele>
        <time>2018-03-19T10:40:05Z</time>
      </trkpt>
      <trkpt lat="62.640874544294" lon="17.987855460364">
        <ele>26.2</ele>
        <time>2018-03-19T10:40:06Z</time>
      </trkpt>
      <trkpt lat="62.640866581489" lon="17.987914301302">
        <ele>26.2</ele>
        <time>2018-03-19T10:40:07Z</time>
      </trkpt>
      <trkpt lat="62.640852583716" lon="17.987968196919">
        <ele>26.2</ele>
        <time>2018-03-19T10:40:08Z</time>
      </trkpt>
      <trkpt lat="62.640842944531" lon="17.988027540771">
        <ele>26</ele>
        <time>2018-03-19T10:40:09Z</time>
      </trkpt>
      <trkpt lat="62.640846213472" lon="17.988081687845">
        <ele>26.2</ele>
        <time>2018-03-19T10:40:10Z</time>
      </trkpt>
      <trkpt lat="62.640843447445" lon="17.988133152711">
        <ele>26.2</ele>
        <time>2018-03-19T10:40:11Z</time>
      </trkpt>
      <trkpt lat="62.640826851283" lon="17.988214624779">
        <ele>26.2</ele>
        <time>2018-03-19T10:40:12Z</time>
      </trkpt>
      <trkpt lat="62.640803465782" lon="17.988277740486">
        <ele>26.2</ele>
        <time>2018-03-19T10:40:13Z</time>
      </trkpt>
      <trkpt lat="62.640768261802" lon="17.988321158728">
        <ele>26.2</ele>
        <time>2018-03-19T10:40:14Z</time>
      </trkpt>
      <trkpt lat="62.640745965948" lon="17.988369187015">
        <ele>26.2</ele>
        <time>2018-03-19T10:40:15Z</time>
      </trkpt>
      <trkpt lat="62.640728615415" lon="17.988420651881">
        <ele>26.2</ele>
        <time>2018-03-19T10:40:16Z</time>
      </trkpt>
      <trkpt lat="62.640710175235" lon="17.988458286612">
        <ele>26.2</ele>
        <time>2018-03-19T10:40:17Z</time>
      </trkpt>
      <trkpt lat="62.640688969028" lon="17.98850120194">
        <ele>26.2</ele>
        <time>2018-03-19T10:40:18Z</time>
      </trkpt>
      <trkpt lat="62.640671115581" lon="17.988536657377">
        <ele>26.2</ele>
        <time>2018-03-19T10:40:19Z</time>
      </trkpt>
      <trkpt lat="62.640655022333" lon="17.988561719258">
        <ele>26.2</ele>
        <time>2018-03-19T10:40:20Z</time>
      </trkpt>
      <trkpt lat="62.640633732307" lon="17.988607316794">
        <ele>26.4</ele>
        <time>2018-03-19T10:40:21Z</time>
      </trkpt>
      <trkpt lat="62.640618896344" lon="17.988638162186">
        <ele>26.4</ele>
        <time>2018-03-19T10:40:22Z</time>
      </trkpt>
      <trkpt lat="62.640597522499" lon="17.988665570999">
        <ele>26.6</ele>
        <time>2018-03-19T10:40:23Z</time>
      </trkpt>
      <trkpt lat="62.640589392056" lon="17.988697757495">
        <ele>26.6</ele>
        <time>2018-03-19T10:40:24Z</time>
      </trkpt>
      <trkpt lat="62.640569694591" lon="17.988728183792">
        <ele>26.8</ele>
        <time>2018-03-19T10:40:25Z</time>
      </trkpt>
      <trkpt lat="62.640548153108" lon="17.98875768808">
        <ele>26.8</ele>
        <time>2018-03-19T10:40:26Z</time>
      </trkpt>
      <trkpt lat="62.64053876538" lon="17.988790126033">
        <ele>26.8</ele>
        <time>2018-03-19T10:40:27Z</time>
      </trkpt>
      <trkpt lat="62.640519570829" lon="17.988830191515">
        <ele>27</ele>
        <time>2018-03-19T10:40:28Z</time>
      </trkpt>
      <trkpt lat="62.640508339083" lon="17.988861120726">
        <ele>27</ele>
        <time>2018-03-19T10:40:29Z</time>
      </trkpt>
      <trkpt lat="62.640492581111" lon="17.988893977774">
        <ele>27.2</ele>
        <time>2018-03-19T10:40:30Z</time>
      </trkpt>
      <trkpt lat="62.640473638017" lon="17.98892532608">
        <ele>27.4</ele>
        <time>2018-03-19T10:40:31Z</time>
      </trkpt>
      <trkpt lat="62.640464837022" lon="17.988957344938">
        <ele>27.4</ele>
        <time>2018-03-19T10:40:32Z</time>
      </trkpt>
      <trkpt lat="62.64044237353" lon="17.989005121768">
        <ele>27.6</ele>
        <time>2018-03-19T10:40:33Z</time>
      </trkpt>
      <trkpt lat="62.640430303594" lon="17.989044600517">
        <ele>27.6</ele>
        <time>2018-03-19T10:40:34Z</time>
      </trkpt>
      <trkpt lat="62.640404571161" lon="17.9890912877">
        <ele>27.8</ele>
        <time>2018-03-19T10:40:35Z</time>
      </trkpt>
      <trkpt lat="62.640377916719" lon="17.989131688458">
        <ele>27.8</ele>
        <time>2018-03-19T10:40:36Z</time>
      </trkpt>
      <trkpt lat="62.640361152919" lon="17.989167982085">
        <ele>27.8</ele>
        <time>2018-03-19T10:40:37Z</time>
      </trkpt>
      <trkpt lat="62.64033676159" lon="17.989213914897">
        <ele>27.8</ele>
        <time>2018-03-19T10:40:38Z</time>
      </trkpt>
      <trkpt lat="62.640331397174" lon="17.989257165501">
        <ele>27.8</ele>
        <time>2018-03-19T10:40:39Z</time>
      </trkpt>
      <trkpt lat="62.6403023958" lon="17.989283149391">
        <ele>28</ele>
        <time>2018-03-19T10:40:40Z</time>
      </trkpt>
      <trkpt lat="62.640279932308" lon="17.989315419706">
        <ele>28</ele>
        <time>2018-03-19T10:40:41Z</time>
      </trkpt>
      <trkpt lat="62.640261156852" lon="17.989354227903">
        <ele>28.2</ele>
        <time>2018-03-19T10:40:42Z</time>
      </trkpt>
      <trkpt lat="62.640239950645" lon="17.989401166543">
        <ele>28.4</ele>
        <time>2018-03-19T10:40:43Z</time>
      </trkpt>
      <trkpt lat="62.640232909849" lon="17.989443998052">
        <ele>28.4</ele>
        <time>2018-03-19T10:40:44Z</time>
      </trkpt>
      <trkpt lat="62.640209859624" lon="17.989492864529">
        <ele>28.4</ele>
        <time>2018-03-19T10:40:45Z</time>
      </trkpt>
      <trkpt lat="62.640200890991" lon="17.989539803169">
        <ele>28.6</ele>
        <time>2018-03-19T10:40:46Z</time>
      </trkpt>
      <trkpt lat="62.640184797743" lon="17.989577689357">
        <ele>28.6</ele>
        <time>2018-03-19T10:40:47Z</time>
      </trkpt>
      <trkpt lat="62.640157053654" lon="17.989625130911">
        <ele>28.8</ele>
        <time>2018-03-19T10:40:48Z</time>
      </trkpt>
      <trkpt lat="62.640149174668" lon="17.989661340719">
        <ele>28.8</ele>
        <time>2018-03-19T10:40:49Z</time>
      </trkpt>
      <trkpt lat="62.640134506343" lon="17.989712889404">
        <ele>29</ele>
        <time>2018-03-19T10:40:50Z</time>
      </trkpt>
      <trkpt lat="62.640126711176" lon="17.989752032877">
        <ele>29</ele>
        <time>2018-03-19T10:40:51Z</time>
      </trkpt>
      <trkpt lat="62.640113048679" lon="17.989797295137">
        <ele>29.2</ele>
        <time>2018-03-19T10:40:52Z</time>
      </trkpt>
      <trkpt lat="62.64010542115" lon="17.98985655517">
        <ele>29.4</ele>
        <time>2018-03-19T10:40:53Z</time>
      </trkpt>
      <trkpt lat="62.640089076445" lon="17.989903326172">
        <ele>29.6</ele>
        <time>2018-03-19T10:40:54Z</time>
      </trkpt>
      <trkpt lat="62.640083712029" lon="17.98995713797">
        <ele>29.6</ele>
        <time>2018-03-19T10:40:55Z</time>
      </trkpt>
      <trkpt lat="62.640070720084" lon="17.990009189569">
        <ele>29.8</ele>
        <time>2018-03-19T10:40:56Z</time>
      </trkpt>
      <trkpt lat="62.640060577985" lon="17.990054535648">
        <ele>30</ele>
        <time>2018-03-19T10:40:57Z</time>
      </trkpt>
      <trkpt lat="62.640057560501" lon="17.990102228659">
        <ele>30</ele>
        <time>2018-03-19T10:40:58Z</time>
      </trkpt>
      <trkpt lat="62.64004590966" lon="17.990135504802">
        <ele>30.2</ele>
        <time>2018-03-19T10:40:59Z</time>
      </trkpt>
      <trkpt lat="62.640034091181" lon="17.990196189758">
        <ele>30.2</ele>
        <time>2018-03-19T10:41:00Z</time>
      </trkpt>
      <trkpt lat="62.640018752304" lon="17.990236925792">
        <ele>30.4</ele>
        <time>2018-03-19T10:41:01Z</time>
      </trkpt>
      <trkpt lat="62.640005592721" lon="17.990271040125">
        <ele>30.6</ele>
        <time>2018-03-19T10:41:02Z</time>
      </trkpt>
      <trkpt lat="62.63999142731" lon="17.990320577154">
        <ele>30.8</ele>
        <time>2018-03-19T10:41:03Z</time>
      </trkpt>
      <trkpt lat="62.639976842804" lon="17.990363911577">
        <ele>30.8</ele>
        <time>2018-03-19T10:41:04Z</time>
      </trkpt>
      <trkpt lat="62.639961420108" lon="17.990404060878">
        <ele>31</ele>
        <time>2018-03-19T10:41:05Z</time>
      </trkpt>
      <trkpt lat="62.639945075403" lon="17.990453849364">
        <ele>31</ele>
        <time>2018-03-19T10:41:06Z</time>
      </trkpt>
      <trkpt lat="62.639934765666" lon="17.990494166303">
        <ele>31.2</ele>
        <time>2018-03-19T10:41:07Z</time>
      </trkpt>
      <trkpt lat="62.639912721269" lon="17.990538758011">
        <ele>31.2</ele>
        <time>2018-03-19T10:41:08Z</time>
      </trkpt>
      <trkpt lat="62.639906099568" lon="17.990574381086">
        <ele>31.2</ele>
        <time>2018-03-19T10:41:09Z</time>
      </trkpt>
      <trkpt lat="62.639883384619" lon="17.990608914514">
        <ele>31.2</ele>
        <time>2018-03-19T10:41:10Z</time>
      </trkpt>
      <trkpt lat="62.639873326339" lon="17.990649399091">
        <ele>31.2</ele>
        <time>2018-03-19T10:41:11Z</time>
      </trkpt>
      <trkpt lat="62.639850024657" lon="17.99069390698">
        <ele>31.2</ele>
        <time>2018-03-19T10:41:12Z</time>
      </trkpt>
      <trkpt lat="62.639827393527" lon="17.990739336878">
        <ele>31.2</ele>
        <time>2018-03-19T10:41:13Z</time>
      </trkpt>
      <trkpt lat="62.639816329419" lon="17.990784347681">
        <ele>31.2</ele>
        <time>2018-03-19T10:41:14Z</time>
      </trkpt>
      <trkpt lat="62.639797637782" lon="17.99081376815">
        <ele>31.4</ele>
        <time>2018-03-19T10:41:15Z</time>
      </trkpt>
      <trkpt lat="62.639783388552" lon="17.990849391225">
        <ele>31.4</ele>
        <time>2018-03-19T10:41:16Z</time>
      </trkpt>
      <trkpt lat="62.639771486254" lon="17.990883002644">
        <ele>31.6</ele>
        <time>2018-03-19T10:41:17Z</time>
      </trkpt>
      <trkpt lat="62.639751453513" lon="17.990925834153">
        <ele>31.8</ele>
        <time>2018-03-19T10:41:18Z</time>
      </trkpt>
      <trkpt lat="62.639738629206" lon="17.990966402549">
        <ele>31.8</ele>
        <time>2018-03-19T10:41:19Z</time>
      </trkpt>
      <trkpt lat="62.639726978365" lon="17.991011245714">
        <ele>32</ele>
        <time>2018-03-19T10:41:20Z</time>
      </trkpt>
      <trkpt lat="62.639712729135" lon="17.991055418327">
        <ele>32.2</ele>
        <time>2018-03-19T10:41:21Z</time>
      </trkpt>
      <trkpt lat="62.639710717479" lon="17.991105206813">
        <ele>32.2</ele>
        <time>2018-03-19T10:41:22Z</time>
      </trkpt>
      <trkpt lat="62.639695965335" lon="17.991161700819">
        <ele>32.2</ele>
        <time>2018-03-19T10:41:23Z</time>
      </trkpt>
      <trkpt lat="62.639692780213" lon="17.991216769902">
        <ele>32.2</ele>
        <time>2018-03-19T10:41:24Z</time>
      </trkpt>
      <trkpt lat="62.63968800253" lon="17.991268989139">
        <ele>32.2</ele>
        <time>2018-03-19T10:41:25Z</time>
      </trkpt>
      <trkpt lat="62.639678195707" lon="17.99132422586">
        <ele>32.4</ele>
        <time>2018-03-19T10:41:26Z</time>
      </trkpt>
      <trkpt lat="62.639675513499" lon="17.991363872247">
        <ele>32.4</ele>
        <time>2018-03-19T10:41:27Z</time>
      </trkpt>
      <trkpt lat="62.639661012812" lon="17.991420366253">
        <ele>32.4</ele>
        <time>2018-03-19T10:41:28Z</time>
      </trkpt>
      <trkpt lat="62.639659587889" lon="17.991459761183">
        <ele>32.6</ele>
        <time>2018-03-19T10:41:29Z</time>
      </trkpt>
      <trkpt lat="62.639648104686" lon="17.991509046755">
        <ele>32.6</ele>
        <time>2018-03-19T10:41:30Z</time>
      </trkpt>
      <trkpt lat="62.639646260668" lon="17.991552716454">
        <ele>32.6</ele>
        <time>2018-03-19T10:41:31Z</time>
      </trkpt>
      <trkpt lat="62.639642153537" lon="17.991593871583">
        <ele>32.8</ele>
        <time>2018-03-19T10:41:32Z</time>
      </trkpt>
      <trkpt lat="62.639633268723" lon="17.991651539055">
        <ele>32.8</ele>
        <time>2018-03-19T10:41:33Z</time>
      </trkpt>
      <trkpt lat="62.639628239583" lon="17.991689844338">
        <ele>33</ele>
        <time>2018-03-19T10:41:34Z</time>
      </trkpt>
      <trkpt lat="62.639617762208" lon="17.991740303376">
        <ele>33</ele>
        <time>2018-03-19T10:41:35Z</time>
      </trkpt>
      <trkpt lat="62.639621282606" lon="17.99178271579">
        <ele>33.2</ele>
        <time>2018-03-19T10:41:36Z</time>
      </trkpt>
      <trkpt lat="62.639614074172" lon="17.991828313326">
        <ele>33.6</ele>
        <time>2018-03-19T10:41:37Z</time>
      </trkpt>
      <trkpt lat="62.639608458299" lon="17.991883047133">
        <ele>33.8</ele>
        <time>2018-03-19T10:41:38Z</time>
      </trkpt>
      <trkpt lat="62.639598651476" lon="17.991927303565">
        <ele>34</ele>
        <time>2018-03-19T10:41:39Z</time>
      </trkpt>
      <trkpt lat="62.639594628164" lon="17.991977259689">
        <ele>34</ele>
        <time>2018-03-19T10:41:40Z</time>
      </trkpt>
      <trkpt lat="62.63958574335" lon="17.992020342655">
        <ele>34.2</ele>
        <time>2018-03-19T10:41:41Z</time>
      </trkpt>
      <trkpt lat="62.639575601251" lon="17.992070382598">
        <ele>34.2</ele>
        <time>2018-03-19T10:41:42Z</time>
      </trkpt>
      <trkpt lat="62.63956981774" lon="17.992106592406">
        <ele>34.4</ele>
        <time>2018-03-19T10:41:43Z</time>
      </trkpt>
      <trkpt lat="62.639562022573" lon="17.99216576862">
        <ele>34.4</ele>
        <time>2018-03-19T10:41:44Z</time>
      </trkpt>
      <trkpt lat="62.639553724492" lon="17.992206923749">
        <ele>34.2</ele>
        <time>2018-03-19T10:41:45Z</time>
      </trkpt>
      <trkpt lat="62.639537631244" lon="17.992254197665">
        <ele>34.2</ele>
        <time>2018-03-19T10:41:46Z</time>
      </trkpt>
      <trkpt lat="62.63953042281" lon="17.992290826568">
        <ele>34.4</ele>
        <time>2018-03-19T10:41:47Z</time>
      </trkpt>
      <trkpt lat="62.639512737001" lon="17.992350673334">
        <ele>34.4</ele>
        <time>2018-03-19T10:41:48Z</time>
      </trkpt>
      <trkpt lat="62.63951365901" lon="17.992397444336">
        <ele>34.4</ele>
        <time>2018-03-19T10:41:49Z</time>
      </trkpt>
      <trkpt lat="62.639500164151" lon="17.992457291102">
        <ele>34.6</ele>
        <time>2018-03-19T10:41:50Z</time>
      </trkpt>
      <trkpt lat="62.639502259626" lon="17.992490483426">
        <ele>34.8</ele>
        <time>2018-03-19T10:41:51Z</time>
      </trkpt>
      <trkpt lat="62.639489435319" lon="17.992543708491">
        <ele>34.8</ele>
        <time>2018-03-19T10:41:52Z</time>
      </trkpt>
      <trkpt lat="62.639497314305" lon="17.99260414199">
        <ele>35</ele>
        <time>2018-03-19T10:41:53Z</time>
      </trkpt>
      <trkpt lat="62.63948851331" lon="17.992658791978">
        <ele>35</ele>
        <time>2018-03-19T10:41:54Z</time>
      </trkpt>
      <trkpt lat="62.639492368984" lon="17.992724170798">
        <ele>35.2</ele>
        <time>2018-03-19T10:41:55Z</time>
      </trkpt>
      <trkpt lat="62.639498906866" lon="17.992775300388">
        <ele>35.2</ele>
        <time>2018-03-19T10:41:56Z</time>
      </trkpt>
      <trkpt lat="62.639497398124" lon="17.992844451063">
        <ele>35.2</ele>
        <time>2018-03-19T10:41:57Z</time>
      </trkpt>
      <trkpt lat="62.639513491372" lon="17.99289247935">
        <ele>35.2</ele>
        <time>2018-03-19T10:41:58Z</time>
      </trkpt>
      <trkpt lat="62.639508462232" lon="17.99296288731">
        <ele>35</ele>
        <time>2018-03-19T10:41:59Z</time>
      </trkpt>
      <trkpt lat="62.639507121128" lon="17.992996666367">
        <ele>34.8</ele>
        <time>2018-03-19T10:42:00Z</time>
      </trkpt>
      <trkpt lat="62.639495973201" lon="17.993056010219">
        <ele>35</ele>
        <time>2018-03-19T10:42:01Z</time>
      </trkpt>
      <trkpt lat="62.639507037309" lon="17.993097752081">
        <ele>35</ele>
        <time>2018-03-19T10:42:02Z</time>
      </trkpt>
      <trkpt lat="62.639497649581" lon="17.993152234431">
        <ele>35.2</ele>
        <time>2018-03-19T10:42:03Z</time>
      </trkpt>
      <trkpt lat="62.639502511083" lon="17.993206046229">
        <ele>35.4</ele>
        <time>2018-03-19T10:42:04Z</time>
      </trkpt>
      <trkpt lat="62.639492117527" lon="17.993254745068">
        <ele>35.6</ele>
        <time>2018-03-19T10:42:05Z</time>
      </trkpt>
      <trkpt lat="62.639483987084" lon="17.993316100576">
        <ele>35.6</ele>
        <time>2018-03-19T10:42:06Z</time>
      </trkpt>
      <trkpt lat="62.639479628496" lon="17.99336102756">
        <ele>35.6</ele>
        <time>2018-03-19T10:42:07Z</time>
      </trkpt>
      <trkpt lat="62.639461104497" lon="17.993429088588">
        <ele>35.6</ele>
        <time>2018-03-19T10:42:08Z</time>
      </trkpt>
      <trkpt lat="62.639451130036" lon="17.993486420784">
        <ele>35.6</ele>
        <time>2018-03-19T10:42:09Z</time>
      </trkpt>
      <trkpt lat="62.639434952969" lon="17.993543920618">
        <ele>35.6</ele>
        <time>2018-03-19T10:42:10Z</time>
      </trkpt>
      <trkpt lat="62.639426151974" lon="17.993605024669">
        <ele>35.8</ele>
        <time>2018-03-19T10:42:11Z</time>
      </trkpt>
      <trkpt lat="62.63940720888" lon="17.993654729336">
        <ele>35.8</ele>
        <time>2018-03-19T10:42:12Z</time>
      </trkpt>
      <trkpt lat="62.63938541594" lon="17.993712480627">
        <ele>35.8</ele>
        <time>2018-03-19T10:42:13Z</time>
      </trkpt>
      <trkpt lat="62.639365718475" lon="17.993756820878">
        <ele>36</ele>
        <time>2018-03-19T10:42:14Z</time>
      </trkpt>
      <trkpt lat="62.639344847544" lon="17.993796467265">
        <ele>35.8</ele>
        <time>2018-03-19T10:42:15Z</time>
      </trkpt>
      <trkpt lat="62.639321462043" lon="17.993831084512">
        <ele>35.8</ele>
        <time>2018-03-19T10:42:16Z</time>
      </trkpt>
      <trkpt lat="62.639308218641" lon="17.993873245469">
        <ele>35.6</ele>
        <time>2018-03-19T10:42:17Z</time>
      </trkpt>
      <trkpt lat="62.639281648018" lon="17.993919094462">
        <ele>35.6</ele>
        <time>2018-03-19T10:42:18Z</time>
      </trkpt>
      <trkpt lat="62.639264968037" lon="17.993957567383">
        <ele>35.6</ele>
        <time>2018-03-19T10:42:19Z</time>
      </trkpt>
      <trkpt lat="62.639251221721" lon="17.994004925118">
        <ele>35.6</ele>
        <time>2018-03-19T10:42:20Z</time>
      </trkpt>
      <trkpt lat="62.639234625559" lon="17.994053456319">
        <ele>35.8</ele>
        <time>2018-03-19T10:42:21Z</time>
      </trkpt>
      <trkpt lat="62.639218113216" lon="17.994095533457">
        <ele>36</ele>
        <time>2018-03-19T10:42:22Z</time>
      </trkpt>
      <trkpt lat="62.639207132927" lon="17.994137359138">
        <ele>36</ele>
        <time>2018-03-19T10:42:23Z</time>
      </trkpt>
      <trkpt lat="62.639190704403" lon="17.994186979986">
        <ele>36.2</ele>
        <time>2018-03-19T10:42:24Z</time>
      </trkpt>
      <trkpt lat="62.639177461001" lon="17.994236433196">
        <ele>36.4</ele>
        <time>2018-03-19T10:42:25Z</time>
      </trkpt>
      <trkpt lat="62.639159859011" lon="17.994281695456">
        <ele>36.8</ele>
        <time>2018-03-19T10:42:26Z</time>
      </trkpt>
      <trkpt lat="62.639151644749" lon="17.994338189462">
        <ele>37</ele>
        <time>2018-03-19T10:42:27Z</time>
      </trkpt>
      <trkpt lat="62.639136389691" lon="17.994381859161">
        <ele>37.4</ele>
        <time>2018-03-19T10:42:28Z</time>
      </trkpt>
      <trkpt lat="62.63911970971" lon="17.994427037602">
        <ele>37.6</ele>
        <time>2018-03-19T10:42:29Z</time>
      </trkpt>
      <trkpt lat="62.639109567611" lon="17.994468108912">
        <ele>37.8</ele>
        <time>2018-03-19T10:42:30Z</time>
      </trkpt>
      <trkpt lat="62.639090959793" lon="17.994514879914">
        <ele>37.8</ele>
        <time>2018-03-19T10:42:31Z</time>
      </trkpt>
      <trkpt lat="62.639083164626" lon="17.994558130518">
        <ele>38</ele>
        <time>2018-03-19T10:42:32Z</time>
      </trkpt>
      <trkpt lat="62.639058773297" lon="17.994603392778">
        <ele>38</ele>
        <time>2018-03-19T10:42:33Z</time>
      </trkpt>
      <trkpt lat="62.639047206275" lon="17.994652426893">
        <ele>38</ele>
        <time>2018-03-19T10:42:34Z</time>
      </trkpt>
      <trkpt lat="62.639028263181" lon="17.994695845135">
        <ele>38.2</ele>
        <time>2018-03-19T10:42:35Z</time>
      </trkpt>
      <trkpt lat="62.639017366711" lon="17.994743789603">
        <ele>38</ele>
        <time>2018-03-19T10:42:36Z</time>
      </trkpt>
      <trkpt lat="62.638998339798" lon="17.994767342742">
        <ele>38</ele>
        <time>2018-03-19T10:42:37Z</time>
      </trkpt>
      <trkpt lat="62.638986102224" lon="17.994815538667">
        <ele>38</ele>
        <time>2018-03-19T10:42:38Z</time>
      </trkpt>
      <trkpt lat="62.638963051999" lon="17.994842528385">
        <ele>38</ele>
        <time>2018-03-19T10:42:39Z</time>
      </trkpt>
      <trkpt lat="62.638948886588" lon="17.994886784817">
        <ele>38</ele>
        <time>2018-03-19T10:42:40Z</time>
      </trkpt>
      <trkpt lat="62.638928937666" lon="17.994921066788">
        <ele>37.8</ele>
        <time>2018-03-19T10:42:41Z</time>
      </trkpt>
      <trkpt lat="62.638910665124" lon="17.994962473374">
        <ele>37.8</ele>
        <time>2018-03-19T10:42:42Z</time>
      </trkpt>
      <trkpt lat="62.638901361215" lon="17.994997928811">
        <ele>38</ele>
        <time>2018-03-19T10:42:43Z</time>
      </trkpt>
      <trkpt lat="62.638880574103" lon="17.995033970981">
        <ele>38</ele>
        <time>2018-03-19T10:42:44Z</time>
      </trkpt>
      <trkpt lat="62.638867246882" lon="17.995076970128">
        <ele>38</ele>
        <time>2018-03-19T10:42:45Z</time>
      </trkpt>
      <trkpt lat="62.638844280476" lon="17.995104043665">
        <ele>38.2</ele>
        <time>2018-03-19T10:42:46Z</time>
      </trkpt>
      <trkpt lat="62.638830282703" lon="17.995153664513">
        <ele>38.4</ele>
        <time>2018-03-19T10:42:47Z</time>
      </trkpt>
      <trkpt lat="62.638809830867" lon="17.995181408602">
        <ele>38.6</ele>
        <time>2018-03-19T10:42:48Z</time>
      </trkpt>
      <trkpt lat="62.63878946285" lon="17.995220049161">
        <ele>38.8</ele>
        <time>2018-03-19T10:42:49Z</time>
      </trkpt>
      <trkpt lat="62.638760545295" lon="17.99525449877">
        <ele>39</ele>
        <time>2018-03-19T10:42:50Z</time>
      </trkpt>
      <trkpt lat="62.638746379884" lon="17.995305544541">
        <ele>39.2</ele>
        <time>2018-03-19T10:42:51Z</time>
      </trkpt>
      <trkpt lat="62.638721904736" lon="17.995327002205">
        <ele>39.4</ele>
        <time>2018-03-19T10:42:52Z</time>
      </trkpt>
      <trkpt lat="62.638706398221" lon="17.995369414619">
        <ele>39.4</ele>
        <time>2018-03-19T10:42:53Z</time>
      </trkpt>
      <trkpt lat="62.638683599453" lon="17.995401768753">
        <ele>39.6</ele>
        <time>2018-03-19T10:42:54Z</time>
      </trkpt>
      <trkpt lat="62.63866624892" lon="17.995454658542">
        <ele>39.6</ele>
        <time>2018-03-19T10:42:55Z</time>
      </trkpt>
      <trkpt lat="62.638645797084" lon="17.995479049871">
        <ele>39.8</ele>
        <time>2018-03-19T10:42:56Z</time>
      </trkpt>
      <trkpt lat="62.638633391872" lon="17.995525485597">
        <ele>39.6</ele>
        <time>2018-03-19T10:42:57Z</time>
      </trkpt>
      <trkpt lat="62.63861595752" lon="17.995558175007">
        <ele>39.8</ele>
        <time>2018-03-19T10:42:58Z</time>
      </trkpt>
      <trkpt lat="62.638598858444" lon="17.995605868018">
        <ele>39.8</ele>
        <time>2018-03-19T10:42:59Z</time>
      </trkpt>
      <trkpt lat="62.638585447404" lon="17.995634617935">
        <ele>39.8</ele>
        <time>2018-03-19T10:43:00Z</time>
      </trkpt>
      <trkpt lat="62.638563905921" lon="17.995670492467">
        <ele>39.8</ele>
        <time>2018-03-19T10:43:01Z</time>
      </trkpt>
      <trkpt lat="62.638553512365" lon="17.995708211017">
        <ele>39.8</ele>
        <time>2018-03-19T10:43:02Z</time>
      </trkpt>
      <trkpt lat="62.638525684457" lon="17.995753138001">
        <ele>39.8</ele>
        <time>2018-03-19T10:43:03Z</time>
      </trkpt>
      <trkpt lat="62.638514285073" lon="17.995792700569">
        <ele>40.2</ele>
        <time>2018-03-19T10:43:04Z</time>
      </trkpt>
      <trkpt lat="62.638495677255" lon="17.99583536444">
        <ele>40.4</ele>
        <time>2018-03-19T10:43:05Z</time>
      </trkpt>
      <trkpt lat="62.638473716677" lon="17.995877944492">
        <ele>40.8</ele>
        <time>2018-03-19T10:43:06Z</time>
      </trkpt>
      <trkpt lat="62.638457036696" lon="17.995907700237">
        <ele>41</ele>
        <time>2018-03-19T10:43:07Z</time>
      </trkpt>
      <trkpt lat="62.638438931792" lon="17.995935779602">
        <ele>41.2</ele>
        <time>2018-03-19T10:43:08Z</time>
      </trkpt>
      <trkpt lat="62.638424179648" lon="17.995971235039">
        <ele>41.2</ele>
        <time>2018-03-19T10:43:09Z</time>
      </trkpt>
      <trkpt lat="62.6384080864" lon="17.996002750983">
        <ele>41.2</ele>
        <time>2018-03-19T10:43:10Z</time>
      </trkpt>
      <trkpt lat="62.638395345912" lon="17.996021694077">
        <ele>41.2</ele>
        <time>2018-03-19T10:43:11Z</time>
      </trkpt>
      <trkpt lat="62.638375732266" lon="17.996067375432">
        <ele>41.4</ele>
        <time>2018-03-19T10:43:12Z</time>
      </trkpt>
      <trkpt lat="62.638353436412" lon="17.996106435086">
        <ele>41.6</ele>
        <time>2018-03-19T10:43:13Z</time>
      </trkpt>
      <trkpt lat="62.638340695924" lon="17.996150440061">
        <ele>41.6</ele>
        <time>2018-03-19T10:43:15Z</time>
      </trkpt>
      <trkpt lat="62.638320327907" lon="17.996183380928">
        <ele>41.6</ele>
        <time>2018-03-19T10:43:16Z</time>
      </trkpt>
      <trkpt lat="62.638306246315" lon="17.99622260822">
        <ele>41.8</ele>
        <time>2018-03-19T10:43:17Z</time>
      </trkpt>
      <trkpt lat="62.63827984333" lon="17.99626451772">
        <ele>42</ele>
        <time>2018-03-19T10:43:18Z</time>
      </trkpt>
      <trkpt lat="62.638263833901" lon="17.996299637881">
        <ele>41.8</ele>
        <time>2018-03-19T10:43:19Z</time>
      </trkpt>
      <trkpt lat="62.638248411205" lon="17.996328303979">
        <ele>42</ele>
        <time>2018-03-19T10:43:20Z</time>
      </trkpt>
      <trkpt lat="62.638234832527" lon="17.996357892086">
        <ele>42</ele>
        <time>2018-03-19T10:43:21Z</time>
      </trkpt>
      <trkpt lat="62.638221756763" lon="17.996392509333">
        <ele>41.8</ele>
        <time>2018-03-19T10:43:22Z</time>
      </trkpt>
      <trkpt lat="62.63819267157" lon="17.99642125925">
        <ele>41.8</ele>
        <time>2018-03-19T10:43:23Z</time>
      </trkpt>
      <trkpt lat="62.63818261329" lon="17.996466940605">
        <ele>41.8</ele>
        <time>2018-03-19T10:43:24Z</time>
      </trkpt>
      <trkpt lat="62.638152857545" lon="17.996507425182">
        <ele>42</ele>
        <time>2018-03-19T10:43:25Z</time>
      </trkpt>
      <trkpt lat="62.638140117057" lon="17.996545395189">
        <ele>42</ele>
        <time>2018-03-19T10:43:26Z</time>
      </trkpt>
      <trkpt lat="62.638130058777" lon="17.996583449015">
        <ele>42.2</ele>
        <time>2018-03-19T10:43:27Z</time>
      </trkpt>
      <trkpt lat="62.638102063231" lon="17.996610271095">
        <ele>42.2</ele>
        <time>2018-03-19T10:43:28Z</time>
      </trkpt>
      <trkpt lat="62.638094938616" lon="17.996645642713">
        <ele>42.4</ele>
        <time>2018-03-19T10:43:29Z</time>
      </trkpt>
      <trkpt lat="62.638068954726" lon="17.99668277453">
        <ele>42.6</ele>
        <time>2018-03-19T10:43:30Z</time>
      </trkpt>
      <trkpt lat="62.638053867306" lon="17.996713619922">
        <ele>42.6</ele>
        <time>2018-03-19T10:43:31Z</time>
      </trkpt>
      <trkpt lat="62.638038863705" lon="17.996739184717">
        <ele>42.6</ele>
        <time>2018-03-19T10:43:32Z</time>
      </trkpt>
      <trkpt lat="62.638017825136" lon="17.996772209403">
        <ele>42.8</ele>
        <time>2018-03-19T10:43:33Z</time>
      </trkpt>
      <trkpt lat="62.638004497915" lon="17.996797271284">
        <ele>42.8</ele>
        <time>2018-03-19T10:43:34Z</time>
      </trkpt>
      <trkpt lat="62.63798982959" lon="17.996823338993">
        <ele>43.2</ele>
        <time>2018-03-19T10:43:35Z</time>
      </trkpt>
      <trkpt lat="62.637961917863" lon="17.996848568512">
        <ele>43.4</ele>
        <time>2018-03-19T10:43:36Z</time>
      </trkpt>
      <trkpt lat="62.637944483511" lon="17.996875642049">
        <ele>43.6</ele>
        <time>2018-03-19T10:43:37Z</time>
      </trkpt>
      <trkpt lat="62.637918080526" lon="17.996900536292">
        <ele>44</ele>
        <time>2018-03-19T10:43:38Z</time>
      </trkpt>
      <trkpt lat="62.637896036129" lon="17.996928699476">
        <ele>44</ele>
        <time>2018-03-19T10:43:39Z</time>
      </trkpt>
      <trkpt lat="62.637884720564" lon="17.996955437737">
        <ele>44</ele>
        <time>2018-03-19T10:43:40Z</time>
      </trkpt>
      <trkpt lat="62.637862508529" lon="17.996994162115">
        <ele>44</ele>
        <time>2018-03-19T10:43:41Z</time>
      </trkpt>
      <trkpt lat="62.637855216276" lon="17.997038837642">
        <ele>44.2</ele>
        <time>2018-03-19T10:43:42Z</time>
      </trkpt>
      <trkpt lat="62.637829232386" lon="17.997082339703">
        <ele>44.4</ele>
        <time>2018-03-19T10:43:43Z</time>
      </trkpt>
      <trkpt lat="62.63781045693" lon="17.997120896443">
        <ele>44.6</ele>
        <time>2018-03-19T10:43:44Z</time>
      </trkpt>
      <trkpt lat="62.63779117856" lon="17.997156687156">
        <ele>44.8</ele>
        <time>2018-03-19T10:43:45Z</time>
      </trkpt>
      <trkpt lat="62.637767625421" lon="17.997188873652">
        <ele>44.8</ele>
        <time>2018-03-19T10:43:46Z</time>
      </trkpt>
      <trkpt lat="62.637751867449" lon="17.997230196419">
        <ele>44.8</ele>
        <time>2018-03-19T10:43:47Z</time>
      </trkpt>
      <trkpt lat="62.637727979034" lon="17.997271603005">
        <ele>45</ele>
        <time>2018-03-19T10:43:48Z</time>
      </trkpt>
      <trkpt lat="62.637713394528" lon="17.997313428686">
        <ele>45</ele>
        <time>2018-03-19T10:43:49Z</time>
      </trkpt>
      <trkpt lat="62.637701240773" lon="17.997355589643">
        <ele>45.2</ele>
        <time>2018-03-19T10:43:50Z</time>
      </trkpt>
      <trkpt lat="62.637689925208" lon="17.997401773912">
        <ele>45.2</ele>
        <time>2018-03-19T10:43:51Z</time>
      </trkpt>
      <trkpt lat="62.637681291851" lon="17.997449299285">
        <ele>45</ele>
        <time>2018-03-19T10:43:52Z</time>
      </trkpt>
      <trkpt lat="62.637670060105" lon="17.997497411391">
        <ele>45.2</ele>
        <time>2018-03-19T10:43:53Z</time>
      </trkpt>
      <trkpt lat="62.637665282422" lon="17.997554324492">
        <ele>45.2</ele>
        <time>2018-03-19T10:43:54Z</time>
      </trkpt>
      <trkpt lat="62.63764617169" lon="17.9976072981">
        <ele>45.2</ele>
        <time>2018-03-19T10:43:55Z</time>
      </trkpt>
      <trkpt lat="62.637633431202" lon="17.997659768794">
        <ele>45.2</ele>
        <time>2018-03-19T10:43:56Z</time>
      </trkpt>
      <trkpt lat="62.637613230823" lon="17.997714083506">
        <ele>45.4</ele>
        <time>2018-03-19T10:43:57Z</time>
      </trkpt>
      <trkpt lat="62.637617924687" lon="17.997759764861">
        <ele>45.4</ele>
        <time>2018-03-19T10:43:58Z</time>
      </trkpt>
      <trkpt lat="62.637592359892" lon="17.997803686017">
        <ele>45.6</ele>
        <time>2018-03-19T10:43:59Z</time>
      </trkpt>
      <trkpt lat="62.637582133974" lon="17.997854815607">
        <ele>45.4</ele>
        <time>2018-03-19T10:44:00Z</time>
      </trkpt>
      <trkpt lat="62.637564615803" lon="17.997898904401">
        <ele>45.6</ele>
        <time>2018-03-19T10:44:01Z</time>
      </trkpt>
      <trkpt lat="62.637552126772" lon="17.997941484453">
        <ele>45.6</ele>
        <time>2018-03-19T10:44:02Z</time>
      </trkpt>
      <trkpt lat="62.63752882509" lon="17.9979928655">
        <ele>45.8</ele>
        <time>2018-03-19T10:44:03Z</time>
      </trkpt>
      <trkpt lat="62.637516419878" lon="17.998040139416">
        <ele>45.8</ele>
        <time>2018-03-19T10:44:04Z</time>
      </trkpt>
      <trkpt lat="62.637489849255" lon="17.998071822998">
        <ele>45.8</ele>
        <time>2018-03-19T10:44:05Z</time>
      </trkpt>
      <trkpt lat="62.637470319428" lon="17.99811524124">
        <ele>45.8</ele>
        <time>2018-03-19T10:44:06Z</time>
      </trkpt>
      <trkpt lat="62.637446933927" lon="17.998148265926">
        <ele>45.8</ele>
        <time>2018-03-19T10:44:07Z</time>
      </trkpt>
      <trkpt lat="62.637428912842" lon="17.998176093834">
        <ele>45.8</ele>
        <time>2018-03-19T10:44:08Z</time>
      </trkpt>
      <trkpt lat="62.637412568137" lon="17.998209034701">
        <ele>45.8</ele>
        <time>2018-03-19T10:44:09Z</time>
      </trkpt>
      <trkpt lat="62.637387590075" lon="17.998233761306">
        <ele>45.6</ele>
        <time>2018-03-19T10:44:10Z</time>
      </trkpt>
      <trkpt lat="62.637366467687" lon="17.998260834843">
        <ele>45.8</ele>
        <time>2018-03-19T10:44:11Z</time>
      </trkpt>
      <trkpt lat="62.637349536249" lon="17.998285896724">
        <ele>45.8</ele>
        <time>2018-03-19T10:44:12Z</time>
      </trkpt>
      <trkpt lat="62.637330341698" lon="17.998326381301">
        <ele>46.2</ele>
        <time>2018-03-19T10:44:13Z</time>
      </trkpt>
      <trkpt lat="62.637312069156" lon="17.998366865878">
        <ele>46.2</ele>
        <time>2018-03-19T10:44:14Z</time>
      </trkpt>
      <trkpt lat="62.637295137718" lon="17.998413469242">
        <ele>46.6</ele>
        <time>2018-03-19T10:44:15Z</time>
      </trkpt>
      <trkpt lat="62.637285498533" lon="17.998463676823">
        <ele>46.4</ele>
        <time>2018-03-19T10:44:16Z</time>
      </trkpt>
      <trkpt lat="62.637259933738" lon="17.998510112549">
        <ele>46.6</ele>
        <time>2018-03-19T10:44:17Z</time>
      </trkpt>
      <trkpt lat="62.637241409739" lon="17.99856702565">
        <ele>46.6</ele>
        <time>2018-03-19T10:44:18Z</time>
      </trkpt>
      <trkpt lat="62.637222634283" lon="17.998617484688">
        <ele>46.6</ele>
        <time>2018-03-19T10:44:19Z</time>
      </trkpt>
      <trkpt lat="62.63720360737" lon="17.99866844664">
        <ele>46.6</ele>
        <time>2018-03-19T10:44:20Z</time>
      </trkpt>
      <trkpt lat="62.637180808602" lon="17.998718067488">
        <ele>46.6</ele>
        <time>2018-03-19T10:44:21Z</time>
      </trkpt>
      <trkpt lat="62.637154824712" lon="17.998764419395">
        <ele>46.6</ele>
        <time>2018-03-19T10:44:22Z</time>
      </trkpt>
      <trkpt lat="62.637143509147" lon="17.998801299755">
        <ele>46.8</ele>
        <time>2018-03-19T10:44:23Z</time>
      </trkpt>
      <trkpt lat="62.637118698723" lon="17.998857290847">
        <ele>46.8</ele>
        <time>2018-03-19T10:44:24Z</time>
      </trkpt>
      <trkpt lat="62.63709296629" lon="17.998890315533">
        <ele>46.8</ele>
        <time>2018-03-19T10:44:25Z</time>
      </trkpt>
      <trkpt lat="62.637069748427" lon="17.998923172581">
        <ele>47</ele>
        <time>2018-03-19T10:44:26Z</time>
      </trkpt>
      <trkpt lat="62.637046111469" lon="17.998956113448">
        <ele>47</ele>
        <time>2018-03-19T10:44:27Z</time>
      </trkpt>
      <trkpt lat="62.637036304646" lon="17.99900120807">
        <ele>47.2</ele>
        <time>2018-03-19T10:44:28Z</time>
      </trkpt>
      <trkpt lat="62.63701417643" lon="17.999027527236">
        <ele>47.2</ele>
        <time>2018-03-19T10:44:29Z</time>
      </trkpt>
      <trkpt lat="62.636993556956" lon="17.999057869714">
        <ele>47.4</ele>
        <time>2018-03-19T10:44:30Z</time>
      </trkpt>
      <trkpt lat="62.636974278586" lon="17.999085278527">
        <ele>47.4</ele>
        <time>2018-03-19T10:44:31Z</time>
      </trkpt>
      <trkpt lat="62.636953575293" lon="17.999112268245">
        <ele>47.4</ele>
        <time>2018-03-19T10:44:32Z</time>
      </trkpt>
      <trkpt lat="62.636939158425" lon="17.999143029818">
        <ele>47.6</ele>
        <time>2018-03-19T10:44:33Z</time>
      </trkpt>
      <trkpt lat="62.636917030209" lon="17.999169181346">
        <ele>47.6</ele>
        <time>2018-03-19T10:44:34Z</time>
      </trkpt>
      <trkpt lat="62.636904960273" lon="17.999191980114">
        <ele>47.8</ele>
        <time>2018-03-19T10:44:35Z</time>
      </trkpt>
      <trkpt lat="62.636877719098" lon="17.999231291225">
        <ele>48</ele>
        <time>2018-03-19T10:44:36Z</time>
      </trkpt>
      <trkpt lat="62.636857937814" lon="17.99926775249">
        <ele>48.2</ele>
        <time>2018-03-19T10:44:37Z</time>
      </trkpt>
      <trkpt lat="62.636839497634" lon="17.999288204326">
        <ele>48.4</ele>
        <time>2018-03-19T10:44:38Z</time>
      </trkpt>
      <trkpt lat="62.636827595336" lon="17.999311506008">
        <ele>48.4</ele>
        <time>2018-03-19T10:44:39Z</time>
      </trkpt>
      <trkpt lat="62.636821560368" lon="17.999318798261">
        <ele>48.4</ele>
        <time>2018-03-19T10:44:40Z</time>
      </trkpt>
      <trkpt lat="62.636827511517" lon="17.999308488524">
        <ele>48.6</ele>
        <time>2018-03-19T10:44:41Z</time>
      </trkpt>
      <trkpt lat="62.636826924784" lon="17.999309578171">
        <ele>48.6</ele>
        <time>2018-03-19T10:44:42Z</time>
      </trkpt>
      <trkpt lat="62.636827343879" lon="17.999305973954">
        <ele>48.6</ele>
        <time>2018-03-19T10:44:43Z</time>
      </trkpt>
      <trkpt lat="62.636827846793" lon="17.999306057773">
        <ele>48.6</ele>
        <time>2018-03-19T10:44:44Z</time>
      </trkpt>
      <trkpt lat="62.636609917393" lon="17.999617780634">
        <ele>48.6</ele>
        <time>2018-03-19T10:49:53Z</time>
      </trkpt>
      <trkpt lat="62.636597512181" lon="17.999657762297">
        <ele>48.4</ele>
        <time>2018-03-19T10:49:54Z</time>
      </trkpt>
      <trkpt lat="62.63658502315" lon="17.999697324865">
        <ele>48.4</ele>
        <time>2018-03-19T10:49:55Z</time>
      </trkpt>
      <trkpt lat="62.636575048689" lon="17.999736133062">
        <ele>48.4</ele>
        <time>2018-03-19T10:49:56Z</time>
      </trkpt>
      <trkpt lat="62.636566750608" lon="17.999776366182">
        <ele>48.2</ele>
        <time>2018-03-19T10:49:57Z</time>
      </trkpt>
      <trkpt lat="62.636562224382" lon="17.999833614559">
        <ele>48.2</ele>
        <time>2018-03-19T10:49:58Z</time>
      </trkpt>
      <trkpt lat="62.636548897161" lon="17.999878290086">
        <ele>47.8</ele>
        <time>2018-03-19T10:49:59Z</time>
      </trkpt>
      <trkpt lat="62.636538252148" lon="17.999934448816">
        <ele>47.8</ele>
        <time>2018-03-19T10:50:00Z</time>
      </trkpt>
      <trkpt lat="62.636526936583" lon="17.999983650569">
        <ele>47.8</ele>
        <time>2018-03-19T10:50:01Z</time>
      </trkpt>
      <trkpt lat="62.636515118104" lon="18.000029415743">
        <ele>47.6</ele>
        <time>2018-03-19T10:50:02Z</time>
      </trkpt>
      <trkpt lat="62.636503383444" lon="18.000087083215">
        <ele>47.6</ele>
        <time>2018-03-19T10:50:03Z</time>
      </trkpt>
      <trkpt lat="62.636498521942" lon="18.00014282285">
        <ele>47.8</ele>
        <time>2018-03-19T10:50:04Z</time>
      </trkpt>
      <trkpt lat="62.636493492802" lon="18.000195545001">
        <ele>47.6</ele>
        <time>2018-03-19T10:50:05Z</time>
      </trkpt>
      <trkpt lat="62.63647522026" lon="18.000257319604">
        <ele>47.8</ele>
        <time>2018-03-19T10:50:06Z</time>
      </trkpt>
      <trkpt lat="62.63645678008" lon="18.000320938225">
        <ele>47.8</ele>
        <time>2018-03-19T10:50:07Z</time>
      </trkpt>
      <trkpt lat="62.636446302705" lon="18.000371816358">
        <ele>48</ele>
        <time>2018-03-19T10:50:08Z</time>
      </trkpt>
      <trkpt lat="62.636431550561" lon="18.000430657296">
        <ele>48</ele>
        <time>2018-03-19T10:50:09Z</time>
      </trkpt>
      <trkpt lat="62.6364215761" lon="18.000484888189">
        <ele>48.2</ele>
        <time>2018-03-19T10:50:10Z</time>
      </trkpt>
      <trkpt lat="62.636398861151" lon="18.000529815173">
        <ele>48.2</ele>
        <time>2018-03-19T10:50:11Z</time>
      </trkpt>
      <trkpt lat="62.636383522274" lon="18.000580693306">
        <ele>48.2</ele>
        <time>2018-03-19T10:50:12Z</time>
      </trkpt>
      <trkpt lat="62.636371536157" lon="18.000627883403">
        <ele>48.4</ele>
        <time>2018-03-19T10:50:13Z</time>
      </trkpt>
      <trkpt lat="62.636348569751" lon="18.000677085156">
        <ele>48.4</ele>
        <time>2018-03-19T10:50:14Z</time>
      </trkpt>
      <trkpt lat="62.636326944449" lon="18.000732740972">
        <ele>48.4</ele>
        <time>2018-03-19T10:50:15Z</time>
      </trkpt>
      <trkpt lat="62.636309426278" lon="18.000786804227">
        <ele>48.6</ele>
        <time>2018-03-19T10:50:16Z</time>
      </trkpt>
      <trkpt lat="62.636298948903" lon="18.000818487809">
        <ele>48.8</ele>
        <time>2018-03-19T10:50:17Z</time>
      </trkpt>
      <trkpt lat="62.63626651095" lon="18.000860229671">
        <ele>48.8</ele>
        <time>2018-03-19T10:50:18Z</time>
      </trkpt>
      <trkpt lat="62.63625142353" lon="18.000903396456">
        <ele>48.8</ele>
        <time>2018-03-19T10:50:19Z</time>
      </trkpt>
      <trkpt lat="62.636233905359" lon="18.00095335258">
        <ele>48.8</ele>
        <time>2018-03-19T10:50:20Z</time>
      </trkpt>
      <trkpt lat="62.636214626989" lon="18.001010014224">
        <ele>48.6</ele>
        <time>2018-03-19T10:50:21Z</time>
      </trkpt>
      <trkpt lat="62.636199874845" lon="18.001062652556">
        <ele>48.4</ele>
        <time>2018-03-19T10:50:22Z</time>
      </trkpt>
      <trkpt lat="62.63619945575" lon="18.001117134906">
        <ele>48.2</ele>
        <time>2018-03-19T10:50:23Z</time>
      </trkpt>
      <trkpt lat="62.63617682462" lon="18.001176478758">
        <ele>48</ele>
        <time>2018-03-19T10:50:24Z</time>
      </trkpt>
      <trkpt lat="62.63616257539" lon="18.001214784041">
        <ele>48</ele>
        <time>2018-03-19T10:50:25Z</time>
      </trkpt>
      <trkpt lat="62.636139441346" lon="18.001261219767">
        <ele>47.8</ele>
        <time>2018-03-19T10:50:26Z</time>
      </trkpt>
      <trkpt lat="62.636121587899" lon="18.001311678805">
        <ele>48</ele>
        <time>2018-03-19T10:50:27Z</time>
      </trkpt>
      <trkpt lat="62.636092251249" lon="18.001366412612">
        <ele>48</ele>
        <time>2018-03-19T10:50:28Z</time>
      </trkpt>
      <trkpt lat="62.636073224336" lon="18.001412429243">
        <ele>48.4</ele>
        <time>2018-03-19T10:50:29Z</time>
      </trkpt>
      <trkpt lat="62.636052437224" lon="18.001470431991">
        <ele>49</ele>
        <time>2018-03-19T10:50:30Z</time>
      </trkpt>
      <trkpt lat="62.63603433232" lon="18.001526758359">
        <ele>49.4</ele>
        <time>2018-03-19T10:50:31Z</time>
      </trkpt>
      <trkpt lat="62.636023352031" lon="18.001573864637">
        <ele>49.4</ele>
        <time>2018-03-19T10:50:32Z</time>
      </trkpt>
      <trkpt lat="62.635995607942" lon="18.001630191005">
        <ele>49.4</ele>
        <time>2018-03-19T10:50:33Z</time>
      </trkpt>
      <trkpt lat="62.635978005952" lon="18.001680482405">
        <ele>49.2</ele>
        <time>2018-03-19T10:50:34Z</time>
      </trkpt>
      <trkpt lat="62.635949004578" lon="18.001733623651">
        <ele>49</ele>
        <time>2018-03-19T10:50:35Z</time>
      </trkpt>
      <trkpt lat="62.635933665701" lon="18.001786848716">
        <ele>48.8</ele>
        <time>2018-03-19T10:50:36Z</time>
      </trkpt>
      <trkpt lat="62.635931402588" lon="18.001832865347">
        <ele>48.8</ele>
        <time>2018-03-19T10:50:37Z</time>
      </trkpt>
      <trkpt lat="62.635894941323" lon="18.001894891407">
        <ele>48.6</ele>
        <time>2018-03-19T10:50:38Z</time>
      </trkpt>
      <trkpt lat="62.635880440636" lon="18.001944260798">
        <ele>48.6</ele>
        <time>2018-03-19T10:50:39Z</time>
      </trkpt>
      <trkpt lat="62.635876165867" lon="18.001986337936">
        <ele>48.8</ele>
        <time>2018-03-19T10:50:40Z</time>
      </trkpt>
      <trkpt lat="62.635850349615" lon="18.002045849426">
        <ele>48.8</ele>
        <time>2018-03-19T10:50:41Z</time>
      </trkpt>
      <trkpt lat="62.635835262195" lon="18.002092704247">
        <ele>48.8</ele>
        <time>2018-03-19T10:50:42Z</time>
      </trkpt>
      <trkpt lat="62.635811709056" lon="18.002171577926">
        <ele>49</ele>
        <time>2018-03-19T10:50:43Z</time>
      </trkpt>
      <trkpt lat="62.635799052387" lon="18.002227820475">
        <ele>49</ele>
        <time>2018-03-19T10:50:44Z</time>
      </trkpt>
      <trkpt lat="62.635782623863" lon="18.002290684725">
        <ele>48.8</ele>
        <time>2018-03-19T10:50:45Z</time>
      </trkpt>
      <trkpt lat="62.635771727393" lon="18.002354051889">
        <ele>49</ele>
        <time>2018-03-19T10:50:46Z</time>
      </trkpt>
      <trkpt lat="62.635778013818" lon="18.00240342128">
        <ele>48.8</ele>
        <time>2018-03-19T10:50:47Z</time>
      </trkpt>
      <trkpt lat="62.635765105692" lon="18.002503501166">
        <ele>48.8</ele>
        <time>2018-03-19T10:50:48Z</time>
      </trkpt>
      <trkpt lat="62.635756807611" lon="18.002588074537">
        <ele>48.6</ele>
        <time>2018-03-19T10:50:49Z</time>
      </trkpt>
      <trkpt lat="62.635735601404" lon="18.002678599057">
        <ele>48.4</ele>
        <time>2018-03-19T10:50:50Z</time>
      </trkpt>
      <trkpt lat="62.635709701333" lon="18.002766776645">
        <ele>48</ele>
        <time>2018-03-19T10:50:51Z</time>
      </trkpt>
      <trkpt lat="62.635690506782" lon="18.002843219573">
        <ele>47.8</ele>
        <time>2018-03-19T10:50:52Z</time>
      </trkpt>
      <trkpt lat="62.635657649734" lon="18.002935001378">
        <ele>47.4</ele>
        <time>2018-03-19T10:50:53Z</time>
      </trkpt>
      <trkpt lat="62.63564038302" lon="18.003018317464">
        <ele>47</ele>
        <time>2018-03-19T10:50:54Z</time>
      </trkpt>
      <trkpt lat="62.635616997519" lon="18.003103142292">
        <ele>46.8</ele>
        <time>2018-03-19T10:50:55Z</time>
      </trkpt>
      <trkpt lat="62.635597551511" lon="18.003176819193">
        <ele>46.8</ele>
        <time>2018-03-19T10:50:56Z</time>
      </trkpt>
      <trkpt lat="62.635583553738" lon="18.003239851081">
        <ele>46.8</ele>
        <time>2018-03-19T10:50:57Z</time>
      </trkpt>
      <trkpt lat="62.635575926209" lon="18.003309839946">
        <ele>46.8</ele>
        <time>2018-03-19T10:50:58Z</time>
      </trkpt>
      <trkpt lat="62.635552875984" lon="18.003428611469">
        <ele>47</ele>
        <time>2018-03-19T10:50:59Z</time>
      </trkpt>
      <trkpt lat="62.635537118012" lon="18.003520309455">
        <ele>46.8</ele>
        <time>2018-03-19T10:51:00Z</time>
      </trkpt>
      <trkpt lat="62.635517504366" lon="18.003608487043">
        <ele>46.6</ele>
        <time>2018-03-19T10:51:01Z</time>
      </trkpt>
      <trkpt lat="62.635510882665" lon="18.003684929971">
        <ele>46.4</ele>
        <time>2018-03-19T10:51:02Z</time>
      </trkpt>
      <trkpt lat="62.63548447968" lon="18.003780064536">
        <ele>46.2</ele>
        <time>2018-03-19T10:51:03Z</time>
      </trkpt>
      <trkpt lat="62.635471655373" lon="18.003866230468">
        <ele>46</ele>
        <time>2018-03-19T10:51:04Z</time>
      </trkpt>
      <trkpt lat="62.635445671483" lon="18.003950384744">
        <ele>45.8</ele>
        <time>2018-03-19T10:51:05Z</time>
      </trkpt>
      <trkpt lat="62.635427147484" lon="18.00403789178">
        <ele>45.8</ele>
        <time>2018-03-19T10:51:06Z</time>
      </trkpt>
      <trkpt lat="62.63541993905" lon="18.00411919621">
        <ele>45.8</ele>
        <time>2018-03-19T10:51:07Z</time>
      </trkpt>
      <trkpt lat="62.635381047034" lon="18.004202260839">
        <ele>45.6</ele>
        <time>2018-03-19T10:51:08Z</time>
      </trkpt>
      <trkpt lat="62.635356068972" lon="18.004277195025">
        <ele>45.6</ele>
        <time>2018-03-19T10:51:09Z</time>
      </trkpt>
      <trkpt lat="62.635340897733" lon="18.00434802208">
        <ele>45.8</ele>
        <time>2018-03-19T10:51:10Z</time>
      </trkpt>
      <trkpt lat="62.63530426883" lon="18.004409461407">
        <ele>45.8</ele>
        <time>2018-03-19T10:51:11Z</time>
      </trkpt>
      <trkpt lat="62.635285074279" lon="18.004478192987">
        <ele>45.8</ele>
        <time>2018-03-19T10:51:12Z</time>
      </trkpt>
      <trkpt lat="62.635249283566" lon="18.004532842975">
        <ele>45.8</ele>
        <time>2018-03-19T10:51:13Z</time>
      </trkpt>
      <trkpt lat="62.635216342699" lon="18.004585816583">
        <ele>46</ele>
        <time>2018-03-19T10:51:14Z</time>
      </trkpt>
      <trkpt lat="62.635187676601" lon="18.004627809902">
        <ele>45.8</ele>
        <time>2018-03-19T10:51:15Z</time>
      </trkpt>
      <trkpt lat="62.635169571697" lon="18.004665444633">
        <ele>45.8</ele>
        <time>2018-03-19T10:51:16Z</time>
      </trkpt>
      <trkpt lat="62.635128668025" lon="18.004721603363">
        <ele>45.8</ele>
        <time>2018-03-19T10:51:17Z</time>
      </trkpt>
      <trkpt lat="62.635103270868" lon="18.004755466239">
        <ele>45.8</ele>
        <time>2018-03-19T10:51:18Z</time>
      </trkpt>
      <trkpt lat="62.635076364969" lon="18.004797962472">
        <ele>45.6</ele>
        <time>2018-03-19T10:51:19Z</time>
      </trkpt>
      <trkpt lat="62.635052308916" lon="18.004837441221">
        <ele>45.8</ele>
        <time>2018-03-19T10:51:20Z</time>
      </trkpt>
      <trkpt lat="62.635029007234" lon="18.004878763988">
        <ele>45.6</ele>
        <time>2018-03-19T10:51:21Z</time>
      </trkpt>
      <trkpt lat="62.635010650873" lon="18.004922014592">
        <ele>45.8</ele>
        <time>2018-03-19T10:51:22Z</time>
      </trkpt>
      <trkpt lat="62.634987935924" lon="18.004981023168">
        <ele>45.8</ele>
        <time>2018-03-19T10:51:23Z</time>
      </trkpt>
      <trkpt lat="62.634962957862" lon="18.005032571853">
        <ele>45.8</ele>
        <time>2018-03-19T10:51:24Z</time>
      </trkpt>
      <trkpt lat="62.634938147438" lon="18.005084371995">
        <ele>45.8</ele>
        <time>2018-03-19T10:51:25Z</time>
      </trkpt>
      <trkpt lat="62.63491451048" lon="18.005130975359">
        <ele>45.8</ele>
        <time>2018-03-19T10:51:26Z</time>
      </trkpt>
      <trkpt lat="62.634893052816" lon="18.005175567067">
        <ele>45.8</ele>
        <time>2018-03-19T10:51:27Z</time>
      </trkpt>
      <trkpt lat="62.634871176057" lon="18.00523063615">
        <ele>45.8</ele>
        <time>2018-03-19T10:51:28Z</time>
      </trkpt>
      <trkpt lat="62.634843431968" lon="18.00527338384">
        <ele>45.8</ele>
        <time>2018-03-19T10:51:29Z</time>
      </trkpt>
      <trkpt lat="62.634816023155" lon="18.005317640272">
        <ele>45.8</ele>
        <time>2018-03-19T10:51:30Z</time>
      </trkpt>
      <trkpt lat="62.634789955446" lon="18.005351503148">
        <ele>45.8</ele>
        <time>2018-03-19T10:51:31Z</time>
      </trkpt>
      <trkpt lat="62.634763887737" lon="18.005378660504">
        <ele>45.8</ele>
        <time>2018-03-19T10:51:32Z</time>
      </trkpt>
      <trkpt lat="62.634733629078" lon="18.00540917062">
        <ele>45.8</ele>
        <time>2018-03-19T10:51:33Z</time>
      </trkpt>
      <trkpt lat="62.634710746491" lon="18.005438339632">
        <ele>45.8</ele>
        <time>2018-03-19T10:51:34Z</time>
      </trkpt>
      <trkpt lat="62.634678643814" lon="18.00547035849">
        <ele>45.8</ele>
        <time>2018-03-19T10:51:35Z</time>
      </trkpt>
      <trkpt lat="62.63465215701" lon="18.005505059556">
        <ele>45.8</ele>
        <time>2018-03-19T10:51:36Z</time>
      </trkpt>
      <trkpt lat="62.634625251111" lon="18.005536994595">
        <ele>46</ele>
        <time>2018-03-19T10:51:37Z</time>
      </trkpt>
      <trkpt lat="62.634602368524" lon="18.005574126412">
        <ele>45.8</ele>
        <time>2018-03-19T10:51:38Z</time>
      </trkpt>
      <trkpt lat="62.634578899204" lon="18.005606899641">
        <ele>46</ele>
        <time>2018-03-19T10:51:39Z</time>
      </trkpt>
      <trkpt lat="62.634560291386" lon="18.005647970951">
        <ele>46</ele>
        <time>2018-03-19T10:51:40Z</time>
      </trkpt>
      <trkpt lat="62.634540342464" lon="18.005689042261">
        <ele>46</ele>
        <time>2018-03-19T10:51:41Z</time>
      </trkpt>
      <trkpt lat="62.634519639171" lon="18.005730365028">
        <ele>46</ele>
        <time>2018-03-19T10:51:42Z</time>
      </trkpt>
      <trkpt lat="62.634498432964" lon="18.0057712687">
        <ele>46</ele>
        <time>2018-03-19T10:51:43Z</time>
      </trkpt>
      <trkpt lat="62.63447194616" lon="18.005809154888">
        <ele>46</ele>
        <time>2018-03-19T10:51:44Z</time>
      </trkpt>
      <trkpt lat="62.634447554831" lon="18.005849639465">
        <ele>46</ele>
        <time>2018-03-19T10:51:45Z</time>
      </trkpt>
      <trkpt lat="62.634430455755" lon="18.00588777711">
        <ele>46.2</ele>
        <time>2018-03-19T10:51:46Z</time>
      </trkpt>
      <trkpt lat="62.634409584824" lon="18.005936811225">
        <ele>46.4</ele>
        <time>2018-03-19T10:51:47Z</time>
      </trkpt>
      <trkpt lat="62.634391982834" lon="18.005976289974">
        <ele>46.4</ele>
        <time>2018-03-19T10:51:48Z</time>
      </trkpt>
      <trkpt lat="62.63437220155" lon="18.006016271637">
        <ele>46.4</ele>
        <time>2018-03-19T10:51:49Z</time>
      </trkpt>
      <trkpt lat="62.634353929008" lon="18.006063713191">
        <ele>46.4</ele>
        <time>2018-03-19T10:51:50Z</time>
      </trkpt>
      <trkpt lat="62.634334734457" lon="18.006110987107">
        <ele>46.6</ele>
        <time>2018-03-19T10:51:51Z</time>
      </trkpt>
      <trkpt lat="62.634317383924" lon="18.006154992082">
        <ele>46.6</ele>
        <time>2018-03-19T10:51:52Z</time>
      </trkpt>
      <trkpt lat="62.634299865753" lon="18.006203355645">
        <ele>46.6</ele>
        <time>2018-03-19T10:51:53Z</time>
      </trkpt>
      <trkpt lat="62.634277318442" lon="18.006253311769">
        <ele>46.6</ele>
        <time>2018-03-19T10:51:54Z</time>
      </trkpt>
      <trkpt lat="62.634260973737" lon="18.006296059459">
        <ele>46.6</ele>
        <time>2018-03-19T10:51:55Z</time>
      </trkpt>
      <trkpt lat="62.634241024815" lon="18.006338136597">
        <ele>46.4</ele>
        <time>2018-03-19T10:51:56Z</time>
      </trkpt>
      <trkpt lat="62.634220740617" lon="18.006382979762">
        <ele>46.4</ele>
        <time>2018-03-19T10:51:57Z</time>
      </trkpt>
      <trkpt lat="62.634201126971" lon="18.006422626149">
        <ele>46.2</ele>
        <time>2018-03-19T10:51:58Z</time>
      </trkpt>
      <trkpt lat="62.634180172221" lon="18.006467720771">
        <ele>46.4</ele>
        <time>2018-03-19T10:51:59Z</time>
      </trkpt>
      <trkpt lat="62.634162989326" lon="18.006507450977">
        <ele>46.4</ele>
        <time>2018-03-19T10:52:00Z</time>
      </trkpt>
      <trkpt lat="62.634141615481" lon="18.006553383789">
        <ele>46.2</ele>
        <time>2018-03-19T10:52:01Z</time>
      </trkpt>
      <trkpt lat="62.634130886649" lon="18.006588336312">
        <ele>46.4</ele>
        <time>2018-03-19T10:52:02Z</time>
      </trkpt>
      <trkpt lat="62.634111440641" lon="18.006633263296">
        <ele>46.4</ele>
        <time>2018-03-19T10:52:03Z</time>
      </trkpt>
      <trkpt lat="62.634093587194" lon="18.006675759529">
        <ele>46.4</ele>
        <time>2018-03-19T10:52:04Z</time>
      </trkpt>
      <trkpt lat="62.63407799686" lon="18.006719177771">
        <ele>46.6</ele>
        <time>2018-03-19T10:52:05Z</time>
      </trkpt>
      <trkpt lat="62.634060981603" lon="18.00677206756">
        <ele>46.6</ele>
        <time>2018-03-19T10:52:06Z</time>
      </trkpt>
      <trkpt lat="62.634051007142" lon="18.006812803594">
        <ele>46.6</ele>
        <time>2018-03-19T10:52:07Z</time>
      </trkpt>
      <trkpt lat="62.63403357279" lon="18.00686259208">
        <ele>46.6</ele>
        <time>2018-03-19T10:52:08Z</time>
      </trkpt>
      <trkpt lat="62.634018653008" lon="18.00691791262">
        <ele>46.6</ele>
        <time>2018-03-19T10:52:09Z</time>
      </trkpt>
      <trkpt lat="62.634002643579" lon="18.006975663911">
        <ele>46.6</ele>
        <time>2018-03-19T10:52:10Z</time>
      </trkpt>
      <trkpt lat="62.633984622494" lon="18.007032074098">
        <ele>46.4</ele>
        <time>2018-03-19T10:52:11Z</time>
      </trkpt>
      <trkpt lat="62.633964086839" lon="18.007085047706">
        <ele>46.4</ele>
        <time>2018-03-19T10:52:12Z</time>
      </trkpt>
      <trkpt lat="62.63394304827" lon="18.007146570852">
        <ele>46.2</ele>
        <time>2018-03-19T10:52:13Z</time>
      </trkpt>
      <trkpt lat="62.633924691909" lon="18.007201723754">
        <ele>46.4</ele>
        <time>2018-03-19T10:52:14Z</time>
      </trkpt>
      <trkpt lat="62.633902982788" lon="18.007258972131">
        <ele>46.4</ele>
        <time>2018-03-19T10:52:15Z</time>
      </trkpt>
      <trkpt lat="62.633882111857" lon="18.007315298499">
        <ele>46.4</ele>
        <time>2018-03-19T10:52:16Z</time>
      </trkpt>
      <trkpt lat="62.633856798519" lon="18.007362069501">
        <ele>46.4</ele>
        <time>2018-03-19T10:52:17Z</time>
      </trkpt>
      <trkpt lat="62.633826958955" lon="18.007401967345">
        <ele>46.4</ele>
        <time>2018-03-19T10:52:18Z</time>
      </trkpt>
      <trkpt lat="62.633798376676" lon="18.007429711434">
        <ele>46.4</ele>
        <time>2018-03-19T10:52:19Z</time>
      </trkpt>
      <trkpt lat="62.633765938723" lon="18.007445050311">
        <ele>46.4</ele>
        <time>2018-03-19T10:52:20Z</time>
      </trkpt>
      <trkpt lat="62.6337309862" lon="18.007446559053">
        <ele>46.6</ele>
        <time>2018-03-19T10:52:21Z</time>
      </trkpt>
      <trkpt lat="62.633701901007" lon="18.007441446094">
        <ele>46.6</ele>
        <time>2018-03-19T10:52:22Z</time>
      </trkpt>
      <trkpt lat="62.633669463054" lon="18.007421580991">
        <ele>46.6</ele>
        <time>2018-03-19T10:52:23Z</time>
      </trkpt>
      <trkpt lat="62.63364046168" lon="18.007404984829">
        <ele>46.6</ele>
        <time>2018-03-19T10:52:24Z</time>
      </trkpt>
      <trkpt lat="62.633618165826" lon="18.00739065178">
        <ele>46.6</ele>
        <time>2018-03-19T10:52:25Z</time>
      </trkpt>
      <trkpt lat="62.633597211076" lon="18.007374055618">
        <ele>46.8</ele>
        <time>2018-03-19T10:52:26Z</time>
      </trkpt>
      <trkpt lat="62.633574831403" lon="18.007358465284">
        <ele>47</ele>
        <time>2018-03-19T10:52:27Z</time>
      </trkpt>
      <trkpt lat="62.633555301576" lon="18.007347401176">
        <ele>47.2</ele>
        <time>2018-03-19T10:52:28Z</time>
      </trkpt>
      <trkpt lat="62.633534933559" lon="18.007332649032">
        <ele>47.4</ele>
        <time>2018-03-19T10:52:29Z</time>
      </trkpt>
      <trkpt lat="62.63351221861" lon="18.007317226336">
        <ele>47.6</ele>
        <time>2018-03-19T10:52:30Z</time>
      </trkpt>
      <trkpt lat="62.633491431498" lon="18.007307000418">
        <ele>48</ele>
        <time>2018-03-19T10:52:31Z</time>
      </trkpt>
      <trkpt lat="62.633469806196" lon="18.007288644057">
        <ele>48</ele>
        <time>2018-03-19T10:52:32Z</time>
      </trkpt>
      <trkpt lat="62.633444409039" lon="18.00726576147">
        <ele>48.2</ele>
        <time>2018-03-19T10:52:33Z</time>
      </trkpt>
      <trkpt lat="62.633424041022" lon="18.007240867227">
        <ele>48.2</ele>
        <time>2018-03-19T10:52:34Z</time>
      </trkpt>
      <trkpt lat="62.633400487883" lon="18.007213206957">
        <ele>48.2</ele>
        <time>2018-03-19T10:52:35Z</time>
      </trkpt>
      <trkpt lat="62.633381963884" lon="18.00718278066">
        <ele>48.2</ele>
        <time>2018-03-19T10:52:36Z</time>
      </trkpt>
      <trkpt lat="62.63336385898" lon="18.007151935268">
        <ele>48</ele>
        <time>2018-03-19T10:52:37Z</time>
      </trkpt>
      <trkpt lat="62.633344245334" lon="18.007122514799">
        <ele>48</ele>
        <time>2018-03-19T10:52:38Z</time>
      </trkpt>
      <trkpt lat="62.633322703851" lon="18.007081527308">
        <ele>48</ele>
        <time>2018-03-19T10:52:39Z</time>
      </trkpt>
      <trkpt lat="62.633303174024" lon="18.007038109066">
        <ele>48</ele>
        <time>2018-03-19T10:52:40Z</time>
      </trkpt>
      <trkpt lat="62.633288338061" lon="18.00698832058">
        <ele>48.2</ele>
        <time>2018-03-19T10:52:41Z</time>
      </trkpt>
      <trkpt lat="62.633275932849" lon="18.006938364456">
        <ele>48.2</ele>
        <time>2018-03-19T10:52:42Z</time>
      </trkpt>
      <trkpt lat="62.633264030551" lon="18.00689109054">
        <ele>48.2</ele>
        <time>2018-03-19T10:52:43Z</time>
      </trkpt>
      <trkpt lat="62.633257660307" lon="18.006837949294">
        <ele>48.4</ele>
        <time>2018-03-19T10:52:44Z</time>
      </trkpt>
      <trkpt lat="62.633251960615" lon="18.006784472772">
        <ele>48.4</ele>
        <time>2018-03-19T10:52:45Z</time>
      </trkpt>
      <trkpt lat="62.633247602027" lon="18.006737617951">
        <ele>48.6</ele>
        <time>2018-03-19T10:52:46Z</time>
      </trkpt>
      <trkpt lat="62.633245925647" lon="18.006686069266">
        <ele>48.6</ele>
        <time>2018-03-19T10:52:47Z</time>
      </trkpt>
      <trkpt lat="62.633244836" lon="18.006633347115">
        <ele>49</ele>
        <time>2018-03-19T10:52:48Z</time>
      </trkpt>
      <trkpt lat="62.633240561231" lon="18.006588671588">
        <ele>49.2</ele>
        <time>2018-03-19T10:52:49Z</time>
      </trkpt>
      <trkpt lat="62.633240477412" lon="18.00654575626">
        <ele>49.6</ele>
        <time>2018-03-19T10:52:50Z</time>
      </trkpt>
      <trkpt lat="62.633236705557" lon="18.00650552314">
        <ele>49.8</ele>
        <time>2018-03-19T10:52:51Z</time>
      </trkpt>
      <trkpt lat="62.633233185159" lon="18.006463110726">
        <ele>50</ele>
        <time>2018-03-19T10:52:52Z</time>
      </trkpt>
      <trkpt lat="62.633232430788" lon="18.006409382747">
        <ele>50.2</ele>
        <time>2018-03-19T10:52:53Z</time>
      </trkpt>
      <trkpt lat="62.633230419132" lon="18.006362779383">
        <ele>50.4</ele>
        <time>2018-03-19T10:52:54Z</time>
      </trkpt>
      <trkpt lat="62.633231005865" lon="18.00631776858">
        <ele>50.4</ele>
        <time>2018-03-19T10:52:55Z</time>
      </trkpt>
      <trkpt lat="62.6332280722" lon="18.006272338682">
        <ele>50.6</ele>
        <time>2018-03-19T10:52:56Z</time>
      </trkpt>
      <trkpt lat="62.63322639582" lon="18.006231267372">
        <ele>50.8</ele>
        <time>2018-03-19T10:52:57Z</time>
      </trkpt>
      <trkpt lat="62.633227317829" lon="18.006194387012">
        <ele>50.8</ele>
        <time>2018-03-19T10:52:58Z</time>
      </trkpt>
      <trkpt lat="62.633227736924" lon="18.006159099213">
        <ele>50.8</ele>
        <time>2018-03-19T10:52:59Z</time>
      </trkpt>
      <trkpt lat="62.633225892906" lon="18.006123057043">
        <ele>50.8</ele>
        <time>2018-03-19T10:53:00Z</time>
      </trkpt>
      <trkpt lat="62.633226982553" lon="18.006083578294">
        <ele>51</ele>
        <time>2018-03-19T10:53:01Z</time>
      </trkpt>
      <trkpt lat="62.633226982553" lon="18.006046614115">
        <ele>51.2</ele>
        <time>2018-03-19T10:53:02Z</time>
      </trkpt>
      <trkpt lat="62.633228407476" lon="18.006001603312">
        <ele>51.2</ele>
        <time>2018-03-19T10:53:03Z</time>
      </trkpt>
      <trkpt lat="62.633227820743" lon="18.005966902246">
        <ele>51.2</ele>
        <time>2018-03-19T10:53:04Z</time>
      </trkpt>
      <trkpt lat="62.633229413304" lon="18.00593806851">
        <ele>51.4</ele>
        <time>2018-03-19T10:53:05Z</time>
      </trkpt>
      <trkpt lat="62.633230083856" lon="18.005914012457">
        <ele>51.4</ele>
        <time>2018-03-19T10:53:06Z</time>
      </trkpt>
      <trkpt lat="62.633228323657" lon="18.005895237001">
        <ele>51.6</ele>
        <time>2018-03-19T10:53:07Z</time>
      </trkpt>
      <trkpt lat="62.633226479639" lon="18.005876126269">
        <ele>51.6</ele>
        <time>2018-03-19T10:53:08Z</time>
      </trkpt>
      <trkpt lat="62.633226731096" lon="18.005860535935">
        <ele>51.8</ele>
        <time>2018-03-19T10:53:09Z</time>
      </trkpt>
      <trkpt lat="62.633228407476" lon="18.005836982796">
        <ele>52</ele>
        <time>2018-03-19T10:53:10Z</time>
      </trkpt>
      <trkpt lat="62.633229580942" lon="18.005817536788">
        <ele>52.2</ele>
        <time>2018-03-19T10:53:11Z</time>
      </trkpt>
      <trkpt lat="62.633226731096" lon="18.005797420228">
        <ele>52.6</ele>
        <time>2018-03-19T10:53:12Z</time>
      </trkpt>
      <trkpt lat="62.63322639582" lon="18.005779399143">
        <ele>53</ele>
        <time>2018-03-19T10:53:13Z</time>
      </trkpt>
      <trkpt lat="62.633227066372" lon="18.005765149913">
        <ele>53.2</ele>
        <time>2018-03-19T10:53:14Z</time>
      </trkpt>
      <trkpt lat="62.633227820743" lon="18.005744614258">
        <ele>53.4</ele>
        <time>2018-03-19T10:53:15Z</time>
      </trkpt>
      <trkpt lat="62.633227820743" lon="18.005722988956">
        <ele>53.8</ele>
        <time>2018-03-19T10:53:16Z</time>
      </trkpt>
      <trkpt lat="62.633225976725" lon="18.005702872396">
        <ele>54</ele>
        <time>2018-03-19T10:53:17Z</time>
      </trkpt>
      <trkpt lat="62.633225809087" lon="18.005682839655">
        <ele>54.2</ele>
        <time>2018-03-19T10:53:18Z</time>
      </trkpt>
      <trkpt lat="62.633227485467" lon="18.005669596253">
        <ele>54.6</ele>
        <time>2018-03-19T10:53:19Z</time>
      </trkpt>
      <trkpt lat="62.633227736924" lon="18.005652161901">
        <ele>54.6</ele>
        <time>2018-03-19T10:53:20Z</time>
      </trkpt>
      <trkpt lat="62.633227820743" lon="18.005621316509">
        <ele>55</ele>
        <time>2018-03-19T10:53:21Z</time>
      </trkpt>
      <trkpt lat="62.633227653105" lon="18.005602121958">
        <ele>55.2</ele>
        <time>2018-03-19T10:53:22Z</time>
      </trkpt>
      <trkpt lat="62.633226312001" lon="18.005584017054">
        <ele>55.4</ele>
        <time>2018-03-19T10:53:23Z</time>
      </trkpt>
      <trkpt lat="62.633228742752" lon="18.005578736457">
        <ele>55.4</ele>
        <time>2018-03-19T10:53:24Z</time>
      </trkpt>
      <trkpt lat="62.633227569286" lon="18.005556775879">
        <ele>55.4</ele>
        <time>2018-03-19T10:53:25Z</time>
      </trkpt>
      <trkpt lat="62.633228575114" lon="18.005533474197">
        <ele>55.6</ele>
        <time>2018-03-19T10:53:26Z</time>
      </trkpt>
      <trkpt lat="62.633227820743" lon="18.005513357637">
        <ele>56</ele>
        <time>2018-03-19T10:53:27Z</time>
      </trkpt>
      <trkpt lat="62.633225976725" lon="18.005496510018">
        <ele>56</ele>
        <time>2018-03-19T10:53:28Z</time>
      </trkpt>
      <trkpt lat="62.633226228182" lon="18.005484523901">
        <ele>56.2</ele>
        <time>2018-03-19T10:53:29Z</time>
      </trkpt>
      <trkpt lat="62.633226982553" lon="18.005466418997">
        <ele>56.4</ele>
        <time>2018-03-19T10:53:30Z</time>
      </trkpt>
      <trkpt lat="62.633227150191" lon="18.005444877514">
        <ele>56.6</ele>
        <time>2018-03-19T10:53:31Z</time>
      </trkpt>
      <trkpt lat="62.633225641449" lon="18.005427107886">
        <ele>56.8</ele>
        <time>2018-03-19T10:53:32Z</time>
      </trkpt>
      <trkpt lat="62.633225138535" lon="18.005422749298">
        <ele>56.8</ele>
        <time>2018-03-19T10:53:33Z</time>
      </trkpt>
      <trkpt lat="62.633225725268" lon="18.005404728213">
        <ele>57.2</ele>
        <time>2018-03-19T10:53:34Z</time>
      </trkpt>
      <trkpt lat="62.633226228182" lon="18.005383102911">
        <ele>57.6</ele>
        <time>2018-03-19T10:53:35Z</time>
      </trkpt>
      <trkpt lat="62.633224467983" lon="18.00536139379">
        <ele>57.8</ele>
        <time>2018-03-19T10:53:36Z</time>
      </trkpt>
      <trkpt lat="62.633222959241" lon="18.00534462999">
        <ele>58.2</ele>
        <time>2018-03-19T10:53:37Z</time>
      </trkpt>
      <trkpt lat="62.633221450499" lon="18.005327363276">
        <ele>58.4</ele>
        <time>2018-03-19T10:53:38Z</time>
      </trkpt>
      <trkpt lat="62.633220947585" lon="18.005308252544">
        <ele>58.6</ele>
        <time>2018-03-19T10:53:39Z</time>
      </trkpt>
      <trkpt lat="62.633220947585" lon="18.005287046337">
        <ele>58.6</ele>
        <time>2018-03-19T10:53:40Z</time>
      </trkpt>
      <trkpt lat="62.633220947585" lon="18.00526584013">
        <ele>58.6</ele>
        <time>2018-03-19T10:53:41Z</time>
      </trkpt>
      <trkpt lat="62.633220696128" lon="18.005257709687">
        <ele>58.8</ele>
        <time>2018-03-19T10:53:42Z</time>
      </trkpt>
      <trkpt lat="62.633214577341" lon="18.005217476567">
        <ele>58.8</ele>
        <time>2018-03-19T10:53:43Z</time>
      </trkpt>
      <trkpt lat="62.633214828798" lon="18.005202724423">
        <ele>59</ele>
        <time>2018-03-19T10:53:44Z</time>
      </trkpt>
      <trkpt lat="62.633215583169" lon="18.005184703338">
        <ele>59.2</ele>
        <time>2018-03-19T10:53:45Z</time>
      </trkpt>
      <trkpt lat="62.633214493522" lon="18.005160898742">
        <ele>59.4</ele>
        <time>2018-03-19T10:53:46Z</time>
      </trkpt>
      <trkpt lat="62.633212230409" lon="18.005137764698">
        <ele>59.4</ele>
        <time>2018-03-19T10:53:47Z</time>
      </trkpt>
      <trkpt lat="62.633209715839" lon="18.005113457188">
        <ele>59.6</ele>
        <time>2018-03-19T10:53:48Z</time>
      </trkpt>
      <trkpt lat="62.633209045287" lon="18.005094514094">
        <ele>59.8</ele>
        <time>2018-03-19T10:53:49Z</time>
      </trkpt>
      <trkpt lat="62.63320963202" lon="18.005079007579">
        <ele>59.8</ele>
        <time>2018-03-19T10:53:50Z</time>
      </trkpt>
      <trkpt lat="62.633208877649" lon="18.005057885191">
        <ele>60</ele>
        <time>2018-03-19T10:53:51Z</time>
      </trkpt>
      <trkpt lat="62.63320795564" lon="18.005036511346">
        <ele>60.2</ele>
        <time>2018-03-19T10:53:52Z</time>
      </trkpt>
      <trkpt lat="62.633205608708" lon="18.005011617103">
        <ele>60.8</ele>
        <time>2018-03-19T10:53:53Z</time>
      </trkpt>
      <trkpt lat="62.6332029265" lon="18.004995272398">
        <ele>61.2</ele>
        <time>2018-03-19T10:53:54Z</time>
      </trkpt>
      <trkpt lat="62.633202172129" lon="18.004989572706">
        <ele>61.6</ele>
        <time>2018-03-19T10:53:55Z</time>
      </trkpt>
      <trkpt lat="62.633198651731" lon="18.004970629612">
        <ele>62</ele>
        <time>2018-03-19T10:53:56Z</time>
      </trkpt>
      <trkpt lat="62.633193035858" lon="18.004948836672">
        <ele>62.2</ele>
        <time>2018-03-19T10:53:57Z</time>
      </trkpt>
      <trkpt lat="62.633187336166" lon="18.004927295189">
        <ele>62.6</ele>
        <time>2018-03-19T10:53:58Z</time>
      </trkpt>
      <trkpt lat="62.633180798284" lon="18.004909860837">
        <ele>62.8</ele>
        <time>2018-03-19T10:53:59Z</time>
      </trkpt>
      <trkpt lat="62.633172919298" lon="18.004896365978">
        <ele>63</ele>
        <time>2018-03-19T10:54:00Z</time>
      </trkpt>
      <trkpt lat="62.633165291769" lon="18.004884798956">
        <ele>63</ele>
        <time>2018-03-19T10:54:01Z</time>
      </trkpt>
      <trkpt lat="62.633159759715" lon="18.004873064296">
        <ele>63</ele>
        <time>2018-03-19T10:54:02Z</time>
      </trkpt>
      <trkpt lat="62.633152132186" lon="18.004860575265">
        <ele>63</ele>
        <time>2018-03-19T10:54:03Z</time>
      </trkpt>
      <trkpt lat="62.633143917924" lon="18.004849343519">
        <ele>63</ele>
        <time>2018-03-19T10:54:04Z</time>
      </trkpt>
      <trkpt lat="62.633131931807" lon="18.004838866144">
        <ele>63.2</ele>
        <time>2018-03-19T10:54:05Z</time>
      </trkpt>
      <trkpt lat="62.633122963174" lon="18.004837273583">
        <ele>63.2</ele>
        <time>2018-03-19T10:54:06Z</time>
      </trkpt>
      <trkpt lat="62.633115670921" lon="18.004836519212">
        <ele>63.4</ele>
        <time>2018-03-19T10:54:07Z</time>
      </trkpt>
      <trkpt lat="62.633097146922" lon="18.00484506875">
        <ele>63.4</ele>
        <time>2018-03-19T10:54:08Z</time>
      </trkpt>
      <trkpt lat="62.63307971257" lon="18.004847750958">
        <ele>63.6</ele>
        <time>2018-03-19T10:54:09Z</time>
      </trkpt>
      <trkpt lat="62.633063619322" lon="18.004845404026">
        <ele>64</ele>
        <time>2018-03-19T10:54:10Z</time>
      </trkpt>
      <trkpt lat="62.633047274617" lon="18.004844649655">
        <ele>64</ele>
        <time>2018-03-19T10:54:11Z</time>
      </trkpt>
      <trkpt lat="62.633031265188" lon="18.004854037383">
        <ele>64.2</ele>
        <time>2018-03-19T10:54:12Z</time>
      </trkpt>
      <trkpt lat="62.633010897171" lon="18.004868705708">
        <ele>64.6</ele>
        <time>2018-03-19T10:54:13Z</time>
      </trkpt>
      <trkpt lat="62.632988517498" lon="18.004894019046">
        <ele>64.8</ele>
        <time>2018-03-19T10:54:14Z</time>
      </trkpt>
      <trkpt lat="62.632971837517" lon="18.004926205542">
        <ele>65.2</ele>
        <time>2018-03-19T10:54:15Z</time>
      </trkpt>
      <trkpt lat="62.632955157536" lon="18.004958308219">
        <ele>65.4</ele>
        <time>2018-03-19T10:54:16Z</time>
      </trkpt>
      <trkpt lat="62.632937639365" lon="18.004991165267">
        <ele>65.6</ele>
        <time>2018-03-19T10:54:17Z</time>
      </trkpt>
      <trkpt lat="62.632922300488" lon="18.005023938496">
        <ele>65.6</ele>
        <time>2018-03-19T10:54:18Z</time>
      </trkpt>
      <trkpt lat="62.632905788145" lon="18.005058723381">
        <ele>65.4</ele>
        <time>2018-03-19T10:54:19Z</time>
      </trkpt>
      <trkpt lat="62.632889862535" lon="18.00509820213">
        <ele>65.6</ele>
        <time>2018-03-19T10:54:20Z</time>
      </trkpt>
      <trkpt lat="62.632877122047" lon="18.005146314236">
        <ele>65.6</ele>
        <time>2018-03-19T10:54:21Z</time>
      </trkpt>
      <trkpt lat="62.632862537541" lon="18.005192498505">
        <ele>65.8</ele>
        <time>2018-03-19T10:54:22Z</time>
      </trkpt>
      <trkpt lat="62.632843845904" lon="18.005244298647">
        <ele>65.8</ele>
        <time>2018-03-19T10:54:23Z</time>
      </trkpt>
      <trkpt lat="62.632824232258" lon="18.00528930945">
        <ele>65.8</ele>
        <time>2018-03-19T10:54:24Z</time>
      </trkpt>
      <trkpt lat="62.632798332187" lon="18.005326105991">
        <ele>65.4</ele>
        <time>2018-03-19T10:54:25Z</time>
      </trkpt>
      <trkpt lat="62.632766983881" lon="18.005348150388">
        <ele>65.4</ele>
        <time>2018-03-19T10:54:26Z</time>
      </trkpt>
      <trkpt lat="62.632739910344" lon="18.00536558474">
        <ele>65.2</ele>
        <time>2018-03-19T10:54:27Z</time>
      </trkpt>
      <trkpt lat="62.632714848463" lon="18.005380588341">
        <ele>65.2</ele>
        <time>2018-03-19T10:54:28Z</time>
      </trkpt>
      <trkpt lat="62.632691043867" lon="18.005392658277">
        <ele>65.2</ele>
        <time>2018-03-19T10:54:29Z</time>
      </trkpt>
      <trkpt lat="62.632672100773" lon="18.00538989225">
        <ele>65.2</ele>
        <time>2018-03-19T10:54:30Z</time>
      </trkpt>
      <trkpt lat="62.63265307386" lon="18.005390981897">
        <ele>65.2</ele>
        <time>2018-03-19T10:54:31Z</time>
      </trkpt>
      <trkpt lat="62.632635136594" lon="18.00539492139">
        <ele>65.2</ele>
        <time>2018-03-19T10:54:32Z</time>
      </trkpt>
      <trkpt lat="62.632612505464" lon="18.005395256666">
        <ele>65.4</ele>
        <time>2018-03-19T10:54:33Z</time>
      </trkpt>
      <trkpt lat="62.6325910478" lon="18.005401459272">
        <ele>65.8</ele>
        <time>2018-03-19T10:54:34Z</time>
      </trkpt>
      <trkpt lat="62.632566405014" lon="18.005405650222">
        <ele>66</ele>
        <time>2018-03-19T10:54:35Z</time>
      </trkpt>
      <trkpt lat="62.632543606246" lon="18.00540665605">
        <ele>66.2</ele>
        <time>2018-03-19T10:54:36Z</time>
      </trkpt>
      <trkpt lat="62.632524746971" lon="18.005403973842">
        <ele>66.8</ele>
        <time>2018-03-19T10:54:37Z</time>
      </trkpt>
      <trkpt lat="62.632502618755" lon="18.005394250838">
        <ele>67.2</ele>
        <time>2018-03-19T10:54:38Z</time>
      </trkpt>
      <trkpt lat="62.63247537758" lon="18.005379331056">
        <ele>67.6</ele>
        <time>2018-03-19T10:54:39Z</time>
      </trkpt>
      <trkpt lat="62.632448220224" lon="18.005376648848">
        <ele>67.8</ele>
        <time>2018-03-19T10:54:40Z</time>
      </trkpt>
      <trkpt lat="62.632426930198" lon="18.005376648848">
        <ele>67.8</ele>
        <time>2018-03-19T10:54:41Z</time>
      </trkpt>
      <trkpt lat="62.632408490018" lon="18.005377403219">
        <ele>67.8</ele>
        <time>2018-03-19T10:54:42Z</time>
      </trkpt>
      <trkpt lat="62.632387199992" lon="18.005380253065">
        <ele>67.8</ele>
        <time>2018-03-19T10:54:43Z</time>
      </trkpt>
      <trkpt lat="62.632367753984" lon="18.005390898078">
        <ele>67.8</ele>
        <time>2018-03-19T10:54:44Z</time>
      </trkpt>
      <trkpt lat="62.632348978528" lon="18.005401291634">
        <ele>67.6</ele>
        <time>2018-03-19T10:54:45Z</time>
      </trkpt>
      <trkpt lat="62.632335232212" lon="18.005416881968">
        <ele>67.6</ele>
        <time>2018-03-19T10:54:46Z</time>
      </trkpt>
      <trkpt lat="62.632316540575" lon="18.005426604972">
        <ele>67.8</ele>
        <time>2018-03-19T10:54:47Z</time>
      </trkpt>
      <trkpt lat="62.63229516673" lon="18.005436244157">
        <ele>67.8</ele>
        <time>2018-03-19T10:54:48Z</time>
      </trkpt>
      <trkpt lat="62.632274798713" lon="18.005447392084">
        <ele>68</ele>
        <time>2018-03-19T10:54:49Z</time>
      </trkpt>
      <trkpt lat="62.632251413212" lon="18.005460384029">
        <ele>68</ele>
        <time>2018-03-19T10:54:50Z</time>
      </trkpt>
      <trkpt lat="62.632231631928" lon="18.005478656571">
        <ele>68.2</ele>
        <time>2018-03-19T10:54:51Z</time>
      </trkpt>
      <trkpt lat="62.632210844816" lon="18.005486870833">
        <ele>68.2</ele>
        <time>2018-03-19T10:54:52Z</time>
      </trkpt>
      <trkpt lat="62.632187626953" lon="18.005501874434">
        <ele>68.2</ele>
        <time>2018-03-19T10:54:53Z</time>
      </trkpt>
      <trkpt lat="62.632165331099" lon="18.005506149203">
        <ele>68.2</ele>
        <time>2018-03-19T10:54:54Z</time>
      </trkpt>
      <trkpt lat="62.632146890919" lon="18.005512100352">
        <ele>68.4</ele>
        <time>2018-03-19T10:54:55Z</time>
      </trkpt>
      <trkpt lat="62.632124762703" lon="18.005515536931">
        <ele>68.4</ele>
        <time>2018-03-19T10:54:56Z</time>
      </trkpt>
      <trkpt lat="62.632102131573" lon="18.005522074813">
        <ele>68.4</ele>
        <time>2018-03-19T10:54:57Z</time>
      </trkpt>
      <trkpt lat="62.632079584262" lon="18.005529786161">
        <ele>68.6</ele>
        <time>2018-03-19T10:54:58Z</time>
      </trkpt>
      <trkpt lat="62.632054019467" lon="18.005535904948">
        <ele>68.8</ele>
        <time>2018-03-19T10:54:59Z</time>
      </trkpt>
      <trkpt lat="62.632033399993" lon="18.005545627952">
        <ele>68.8</ele>
        <time>2018-03-19T10:55:00Z</time>
      </trkpt>
      <trkpt lat="62.632008673388" lon="18.005556775879">
        <ele>69</ele>
        <time>2018-03-19T10:55:01Z</time>
      </trkpt>
      <trkpt lat="62.631987215724" lon="18.005566163607">
        <ele>69</ele>
        <time>2018-03-19T10:55:02Z</time>
      </trkpt>
      <trkpt lat="62.631962489119" lon="18.005572533851">
        <ele>69</ele>
        <time>2018-03-19T10:55:03Z</time>
      </trkpt>
      <trkpt lat="62.631940277084" lon="18.00558519052">
        <ele>69</ele>
        <time>2018-03-19T10:55:04Z</time>
      </trkpt>
      <trkpt lat="62.631912449176" lon="18.005593488601">
        <ele>69</ele>
        <time>2018-03-19T10:55:05Z</time>
      </trkpt>
      <trkpt lat="62.631890404779" lon="18.005598769198">
        <ele>69</ele>
        <time>2018-03-19T10:55:06Z</time>
      </trkpt>
      <trkpt lat="62.63186601345" lon="18.00559692518">
        <ele>68.8</ele>
        <time>2018-03-19T10:55:07Z</time>
      </trkpt>
      <trkpt lat="62.631839694284" lon="18.005585441977">
        <ele>68.8</ele>
        <time>2018-03-19T10:55:08Z</time>
      </trkpt>
      <trkpt lat="62.631816895516" lon="18.005566582702">
        <ele>68.8</ele>
        <time>2018-03-19T10:55:09Z</time>
      </trkpt>
      <trkpt lat="62.631797114232" lon="18.005545544133">
        <ele>68.8</ele>
        <time>2018-03-19T10:55:10Z</time>
      </trkpt>
      <trkpt lat="62.631776830034" lon="18.005532552188">
        <ele>68.8</ele>
        <time>2018-03-19T10:55:11Z</time>
      </trkpt>
      <trkpt lat="62.631755623827" lon="18.005513525275">
        <ele>68.8</ele>
        <time>2018-03-19T10:55:12Z</time>
      </trkpt>
      <trkpt lat="62.631732657421" lon="18.005480919684">
        <ele>68.8</ele>
        <time>2018-03-19T10:55:13Z</time>
      </trkpt>
      <trkpt lat="62.631711870309" lon="18.005444961333">
        <ele>68.8</ele>
        <time>2018-03-19T10:55:14Z</time>
      </trkpt>
      <trkpt lat="62.631688400989" lon="18.005404225299">
        <ele>68.6</ele>
        <time>2018-03-19T10:55:15Z</time>
      </trkpt>
      <trkpt lat="62.631672223922" lon="18.005354604451">
        <ele>68.4</ele>
        <time>2018-03-19T10:55:16Z</time>
      </trkpt>
      <trkpt lat="62.631657639416" lon="18.005312946408">
        <ele>68.4</ele>
        <time>2018-03-19T10:55:17Z</time>
      </trkpt>
      <trkpt lat="62.631640707978" lon="18.005269360528">
        <ele>68.6</ele>
        <time>2018-03-19T10:55:18Z</time>
      </trkpt>
      <trkpt lat="62.631620675237" lon="18.005224685001">
        <ele>68.6</ele>
        <time>2018-03-19T10:55:19Z</time>
      </trkpt>
      <trkpt lat="62.631604833446" lon="18.005176908171">
        <ele>69</ele>
        <time>2018-03-19T10:55:20Z</time>
      </trkpt>
      <trkpt lat="62.631585555076" lon="18.005127203504">
        <ele>69.2</ele>
        <time>2018-03-19T10:55:21Z</time>
      </trkpt>
      <trkpt lat="62.631570467656" lon="18.005095603741">
        <ele>69.4</ele>
        <time>2018-03-19T10:55:22Z</time>
      </trkpt>
      <trkpt lat="62.631550686372" lon="18.005063081969">
        <ele>69.4</ele>
        <time>2018-03-19T10:55:23Z</time>
      </trkpt>
      <trkpt lat="62.631531240364" lon="18.005034918785">
        <ele>69.6</ele>
        <time>2018-03-19T10:55:24Z</time>
      </trkpt>
      <trkpt lat="62.631512381089" lon="18.00501438313">
        <ele>69.8</ele>
        <time>2018-03-19T10:55:25Z</time>
      </trkpt>
      <trkpt lat="62.631491258701" lon="18.004991752">
        <ele>70.2</ele>
        <time>2018-03-19T10:55:26Z</time>
      </trkpt>
      <trkpt lat="62.631472231788" lon="18.004970629612">
        <ele>70.4</ele>
        <time>2018-03-19T10:55:27Z</time>
      </trkpt>
      <trkpt lat="62.631452953418" lon="18.004937521107">
        <ele>70.6</ele>
        <time>2018-03-19T10:55:28Z</time>
      </trkpt>
      <trkpt lat="62.631431579573" lon="18.004903574412">
        <ele>70.8</ele>
        <time>2018-03-19T10:55:29Z</time>
      </trkpt>
      <trkpt lat="62.631409954271" lon="18.004870465907">
        <ele>71</ele>
        <time>2018-03-19T10:55:30Z</time>
      </trkpt>
      <trkpt lat="62.631385898218" lon="18.004846242216">
        <ele>71</ele>
        <time>2018-03-19T10:55:31Z</time>
      </trkpt>
      <trkpt lat="62.631366284572" lon="18.004826293294">
        <ele>71</ele>
        <time>2018-03-19T10:55:32Z</time>
      </trkpt>
      <trkpt lat="62.631341809424" lon="18.004807434019">
        <ele>71.2</ele>
        <time>2018-03-19T10:55:33Z</time>
      </trkpt>
      <trkpt lat="62.631317921009" lon="18.004795196445">
        <ele>71.2</ele>
        <time>2018-03-19T10:55:34Z</time>
      </trkpt>
      <trkpt lat="62.631291601843" lon="18.004784635251">
        <ele>71.2</ele>
        <time>2018-03-19T10:55:35Z</time>
      </trkpt>
      <trkpt lat="62.63126922217" lon="18.004777929731">
        <ele>71.2</ele>
        <time>2018-03-19T10:55:36Z</time>
      </trkpt>
      <trkpt lat="62.631249692343" lon="18.004760327741">
        <ele>71.4</ele>
        <time>2018-03-19T10:55:37Z</time>
      </trkpt>
      <trkpt lat="62.631230581611" lon="18.004741049371">
        <ele>71.4</ele>
        <time>2018-03-19T10:55:38Z</time>
      </trkpt>
      <trkpt lat="62.631209626861" lon="18.004722273915">
        <ele>71.4</ele>
        <time>2018-03-19T10:55:39Z</time>
      </trkpt>
      <trkpt lat="62.631190013215" lon="18.004704336649">
        <ele>71.6</ele>
        <time>2018-03-19T10:55:40Z</time>
      </trkpt>
      <trkpt lat="62.631162939678" lon="18.004681370243">
        <ele>71.6</ele>
        <time>2018-03-19T10:55:41Z</time>
      </trkpt>
      <trkpt lat="62.631140224729" lon="18.004662259511">
        <ele>71.6</ele>
        <time>2018-03-19T10:55:42Z</time>
      </trkpt>
      <trkpt lat="62.631118515608" lon="18.00464306496">
        <ele>71.8</ele>
        <time>2018-03-19T10:55:43Z</time>
      </trkpt>
      <trkpt lat="62.631100410704" lon="18.004626887893">
        <ele>71.8</ele>
        <time>2018-03-19T10:55:44Z</time>
      </trkpt>
      <trkpt lat="62.631081551429" lon="18.004607693342">
        <ele>71.8</ele>
        <time>2018-03-19T10:55:45Z</time>
      </trkpt>
      <trkpt lat="62.631063530344" lon="18.004586654773">
        <ele>71.8</ele>
        <time>2018-03-19T10:55:46Z</time>
      </trkpt>
      <trkpt lat="62.63104123449" lon="18.004566454394">
        <ele>72</ele>
        <time>2018-03-19T10:55:47Z</time>
      </trkpt>
      <trkpt lat="62.631020531197" lon="18.004547427481">
        <ele>72.2</ele>
        <time>2018-03-19T10:55:48Z</time>
      </trkpt>
      <trkpt lat="62.630999576447" lon="18.004524377256">
        <ele>72.2</ele>
        <time>2018-03-19T10:55:49Z</time>
      </trkpt>
      <trkpt lat="62.630980633353" lon="18.004502332859">
        <ele>72.4</ele>
        <time>2018-03-19T10:55:50Z</time>
      </trkpt>
      <trkpt lat="62.630962696087" lon="18.004473918218">
        <ele>72.6</ele>
        <time>2018-03-19T10:55:51Z</time>
      </trkpt>
      <trkpt lat="62.630942244251" lon="18.004441731722">
        <ele>72.6</ele>
        <time>2018-03-19T10:55:52Z</time>
      </trkpt>
      <trkpt lat="62.630919780759" lon="18.004408874674">
        <ele>72.8</ele>
        <time>2018-03-19T10:55:53Z</time>
      </trkpt>
      <trkpt lat="62.630897149629" lon="18.004372832504">
        <ele>73</ele>
        <time>2018-03-19T10:55:54Z</time>
      </trkpt>
      <trkpt lat="62.630879380001" lon="18.004338382895">
        <ele>73</ele>
        <time>2018-03-19T10:55:55Z</time>
      </trkpt>
      <trkpt lat="62.630860017812" lon="18.004298149775">
        <ele>73.2</ele>
        <time>2018-03-19T10:55:56Z</time>
      </trkpt>
      <trkpt lat="62.630846690591" lon="18.004255150628">
        <ele>73.2</ele>
        <time>2018-03-19T10:55:57Z</time>
      </trkpt>
      <trkpt lat="62.630835626483" lon="18.004215923336">
        <ele>73.4</ele>
        <time>2018-03-19T10:55:58Z</time>
      </trkpt>
      <trkpt lat="62.63082581966" lon="18.004178623881">
        <ele>73.4</ele>
        <time>2018-03-19T10:55:59Z</time>
      </trkpt>
      <trkpt lat="62.630817186303" lon="18.004137720209">
        <ele>73.6</ele>
        <time>2018-03-19T10:56:00Z</time>
      </trkpt>
      <trkpt lat="62.63080486491" lon="18.004096648899">
        <ele>73.6</ele>
        <time>2018-03-19T10:56:01Z</time>
      </trkpt>
      <trkpt lat="62.630794052259" lon="18.004054487942">
        <ele>73.8</ele>
        <time>2018-03-19T10:56:02Z</time>
      </trkpt>
      <trkpt lat="62.630781814685" lon="18.004014590098">
        <ele>74.2</ele>
        <time>2018-03-19T10:56:03Z</time>
      </trkpt>
      <trkpt lat="62.630773097509" lon="18.003976200996">
        <ele>74.4</ele>
        <time>2018-03-19T10:56:04Z</time>
      </trkpt>
      <trkpt lat="62.630761111392" lon="18.003929178537">
        <ele>74.6</ele>
        <time>2018-03-19T10:56:05Z</time>
      </trkpt>
      <trkpt lat="62.630753483863" lon="18.003876875481">
        <ele>74.6</ele>
        <time>2018-03-19T10:56:06Z</time>
      </trkpt>
      <trkpt lat="62.630749041456" lon="18.003829433927">
        <ele>74.6</ele>
        <time>2018-03-19T10:56:07Z</time>
      </trkpt>
      <trkpt lat="62.6307470298" lon="18.00377470012">
        <ele>74.6</ele>
        <time>2018-03-19T10:56:08Z</time>
      </trkpt>
      <trkpt lat="62.630751723664" lon="18.003725079272">
        <ele>74.8</ele>
        <time>2018-03-19T10:56:09Z</time>
      </trkpt>
      <trkpt lat="62.630754908786" lon="18.003679397917">
        <ele>74.8</ele>
        <time>2018-03-19T10:56:10Z</time>
      </trkpt>
      <trkpt lat="62.630758848279" lon="18.003634554752">
        <ele>75</ele>
        <time>2018-03-19T10:56:11Z</time>
      </trkpt>
      <trkpt lat="62.630759183555" lon="18.003588873397">
        <ele>75.2</ele>
        <time>2018-03-19T10:56:12Z</time>
      </trkpt>
      <trkpt lat="62.630766643446" lon="18.00354335968">
        <ele>75.4</ele>
        <time>2018-03-19T10:56:13Z</time>
      </trkpt>
      <trkpt lat="62.630769074197" lon="18.003503210379">
        <ele>75.6</ele>
        <time>2018-03-19T10:56:14Z</time>
      </trkpt>
      <trkpt lat="62.630774773889" lon="18.003461300879">
        <ele>75.8</ele>
        <time>2018-03-19T10:56:15Z</time>
      </trkpt>
      <trkpt lat="62.630780641219" lon="18.003414362239">
        <ele>76</ele>
        <time>2018-03-19T10:56:16Z</time>
      </trkpt>
      <trkpt lat="62.630784329255" lon="18.003364992848">
        <ele>76.2</ele>
        <time>2018-03-19T10:56:17Z</time>
      </trkpt>
      <trkpt lat="62.630786089454" lon="18.003311432507">
        <ele>76.2</ele>
        <time>2018-03-19T10:56:18Z</time>
      </trkpt>
      <trkpt lat="62.630789106938" lon="18.003260554374">
        <ele>76.2</ele>
        <time>2018-03-19T10:56:19Z</time>
      </trkpt>
      <trkpt lat="62.630794890449" lon="18.003211184983">
        <ele>76.2</ele>
        <time>2018-03-19T10:56:20Z</time>
      </trkpt>
      <trkpt lat="62.630797488838" lon="18.003165252171">
        <ele>76.4</ele>
        <time>2018-03-19T10:56:21Z</time>
      </trkpt>
      <trkpt lat="62.630797656476" lon="18.003124097042">
        <ele>76.4</ele>
        <time>2018-03-19T10:56:22Z</time>
      </trkpt>
      <trkpt lat="62.630797237381" lon="18.003080092067">
        <ele>76.4</ele>
        <time>2018-03-19T10:56:23Z</time>
      </trkpt>
      <trkpt lat="62.630794890449" lon="18.003039020757">
        <ele>76.6</ele>
        <time>2018-03-19T10:56:24Z</time>
      </trkpt>
      <trkpt lat="62.630794890449" lon="18.002992752669">
        <ele>76.8</ele>
        <time>2018-03-19T10:56:25Z</time>
      </trkpt>
      <trkpt lat="62.630789945128" lon="18.00294908297">
        <ele>77.2</ele>
        <time>2018-03-19T10:56:26Z</time>
      </trkpt>
      <trkpt lat="62.630786005635" lon="18.002899797398">
        <ele>77.4</ele>
        <time>2018-03-19T10:56:27Z</time>
      </trkpt>
      <trkpt lat="62.630781479409" lon="18.002847829618">
        <ele>77.6</ele>
        <time>2018-03-19T10:56:28Z</time>
      </trkpt>
      <trkpt lat="62.630780892676" lon="18.002799298417">
        <ele>77.8</ele>
        <time>2018-03-19T10:56:29Z</time>
      </trkpt>
      <trkpt lat="62.630779467753" lon="18.002744061696">
        <ele>78</ele>
        <time>2018-03-19T10:56:30Z</time>
      </trkpt>
      <trkpt lat="62.630772929871" lon="18.002695781952">
        <ele>78</ele>
        <time>2018-03-19T10:56:31Z</time>
      </trkpt>
      <trkpt lat="62.630770080025" lon="18.002642053973">
        <ele>78.2</ele>
        <time>2018-03-19T10:56:32Z</time>
      </trkpt>
      <trkpt lat="62.63076211722" lon="18.002594109505">
        <ele>78.2</ele>
        <time>2018-03-19T10:56:33Z</time>
      </trkpt>
      <trkpt lat="62.63075792627" lon="18.002547506141">
        <ele>78.2</ele>
        <time>2018-03-19T10:56:34Z</time>
      </trkpt>
      <trkpt lat="62.630749460551" lon="18.002499310216">
        <ele>78.2</ele>
        <time>2018-03-19T10:56:35Z</time>
      </trkpt>
      <trkpt lat="62.630745269601" lon="18.002454886146">
        <ele>78.4</ele>
        <time>2018-03-19T10:56:36Z</time>
      </trkpt>
      <trkpt lat="62.630743257945" lon="18.002411635542">
        <ele>78.4</ele>
        <time>2018-03-19T10:56:37Z</time>
      </trkpt>
      <trkpt lat="62.630740994832" lon="18.002363523436">
        <ele>78.4</ele>
        <time>2018-03-19T10:56:38Z</time>
      </trkpt>
      <trkpt lat="62.630735965692" lon="18.002318680271">
        <ele>78.4</ele>
        <time>2018-03-19T10:56:39Z</time>
      </trkpt>
      <trkpt lat="62.630729846905" lon="18.00227936916">
        <ele>78.6</ele>
        <time>2018-03-19T10:56:40Z</time>
      </trkpt>
      <trkpt lat="62.630724985403" lon="18.00223745966">
        <ele>78.6</ele>
        <time>2018-03-19T10:56:41Z</time>
      </trkpt>
      <trkpt lat="62.63071769315" lon="18.002199908748">
        <ele>78.8</ele>
        <time>2018-03-19T10:56:42Z</time>
      </trkpt>
      <trkpt lat="62.630714843304" lon="18.002145677855">
        <ele>78.8</ele>
        <time>2018-03-19T10:56:43Z</time>
      </trkpt>
      <trkpt lat="62.630713837476" lon="18.002087675107">
        <ele>78.8</ele>
        <time>2018-03-19T10:56:44Z</time>
      </trkpt>
      <trkpt lat="62.630711993458" lon="18.002025816685">
        <ele>79.2</ele>
        <time>2018-03-19T10:56:45Z</time>
      </trkpt>
      <trkpt lat="62.630706880499" lon="18.001965131729">
        <ele>79.4</ele>
        <time>2018-03-19T10:56:46Z</time>
      </trkpt>
      <trkpt lat="62.630701096988" lon="18.001910481741">
        <ele>79.4</ele>
        <time>2018-03-19T10:56:47Z</time>
      </trkpt>
      <trkpt lat="62.630700342617" lon="18.001847198396">
        <ele>79.4</ele>
        <time>2018-03-19T10:56:48Z</time>
      </trkpt>
      <trkpt lat="62.630694978201" lon="18.001793638055">
        <ele>79.6</ele>
        <time>2018-03-19T10:56:49Z</time>
      </trkpt>
      <trkpt lat="62.630692798907" lon="18.001736641135">
        <ele>79.4</ele>
        <time>2018-03-19T10:56:50Z</time>
      </trkpt>
      <trkpt lat="62.630688775595" lon="18.001683499889">
        <ele>79.4</ele>
        <time>2018-03-19T10:56:51Z</time>
      </trkpt>
      <trkpt lat="62.630686177206" lon="18.001634549593">
        <ele>79.4</ele>
        <time>2018-03-19T10:56:52Z</time>
      </trkpt>
      <trkpt lat="62.630684836102" lon="18.001570511877">
        <ele>79.4</ele>
        <time>2018-03-19T10:56:53Z</time>
      </trkpt>
      <trkpt lat="62.630679052591" lon="18.001516448622">
        <ele>79.4</ele>
        <time>2018-03-19T10:56:54Z</time>
      </trkpt>
      <trkpt lat="62.63067829822" lon="18.001456685675">
        <ele>79.6</ele>
        <time>2018-03-19T10:56:55Z</time>
      </trkpt>
      <trkpt lat="62.630677376211" lon="18.001401448954">
        <ele>79.8</ele>
        <time>2018-03-19T10:56:56Z</time>
      </trkpt>
      <trkpt lat="62.630671760338" lon="18.001356019056">
        <ele>79.8</ele>
        <time>2018-03-19T10:56:57Z</time>
      </trkpt>
      <trkpt lat="62.63066991632" lon="18.001307320217">
        <ele>79.8</ele>
        <time>2018-03-19T10:56:58Z</time>
      </trkpt>
      <trkpt lat="62.630662288791" lon="18.001267338554">
        <ele>79.8</ele>
        <time>2018-03-19T10:56:59Z</time>
      </trkpt>
      <trkpt lat="62.630656002366" lon="18.001214700222">
        <ele>79.8</ele>
        <time>2018-03-19T10:57:00Z</time>
      </trkpt>
      <trkpt lat="62.630645441172" lon="18.001165330831">
        <ele>79.8</ele>
        <time>2018-03-19T10:57:01Z</time>
      </trkpt>
      <trkpt lat="62.630637562186" lon="18.001116212897">
        <ele>79.8</ele>
        <time>2018-03-19T10:57:02Z</time>
      </trkpt>
      <trkpt lat="62.63063219777" lon="18.001062401099">
        <ele>79.8</ele>
        <time>2018-03-19T10:57:03Z</time>
      </trkpt>
      <trkpt lat="62.630628425915" lon="18.001012696432">
        <ele>79.8</ele>
        <time>2018-03-19T10:57:04Z</time>
      </trkpt>
      <trkpt lat="62.630621720395" lon="18.000958716996">
        <ele>80</ele>
        <time>2018-03-19T10:57:05Z</time>
      </trkpt>
      <trkpt lat="62.630610153373" lon="18.000915214935">
        <ele>80.2</ele>
        <time>2018-03-19T10:57:06Z</time>
      </trkpt>
      <trkpt lat="62.63060034655" lon="18.000872718702">
        <ele>80.6</ele>
        <time>2018-03-19T10:57:07Z</time>
      </trkpt>
      <trkpt lat="62.630590036813" lon="18.000819661275">
        <ele>80.6</ele>
        <time>2018-03-19T10:57:08Z</time>
      </trkpt>
      <trkpt lat="62.630581571094" lon="18.000772135902">
        <ele>80.8</ele>
        <time>2018-03-19T10:57:09Z</time>
      </trkpt>
      <trkpt lat="62.630573859746" lon="18.00071782119">
        <ele>80.8</ele>
        <time>2018-03-19T10:57:10Z</time>
      </trkpt>
      <trkpt lat="62.630566902769" lon="18.000675827871">
        <ele>81</ele>
        <time>2018-03-19T10:57:11Z</time>
      </trkpt>
      <trkpt lat="62.630558185593" lon="18.000630733249">
        <ele>80.8</ele>
        <time>2018-03-19T10:57:12Z</time>
      </trkpt>
      <trkpt lat="62.630549049322" lon="18.000583543152">
        <ele>80.8</ele>
        <time>2018-03-19T10:57:13Z</time>
      </trkpt>
      <trkpt lat="62.630537901395" lon="18.000535682503">
        <ele>80.8</ele>
        <time>2018-03-19T10:57:14Z</time>
      </trkpt>
      <trkpt lat="62.630526753468" lon="18.000481703067">
        <ele>80.6</ele>
        <time>2018-03-19T10:57:15Z</time>
      </trkpt>
      <trkpt lat="62.630513342428" lon="18.000437111359">
        <ele>80.6</ele>
        <time>2018-03-19T10:57:16Z</time>
      </trkpt>
      <trkpt lat="62.630502110682" lon="18.000384305389">
        <ele>80.8</ele>
        <time>2018-03-19T10:57:17Z</time>
      </trkpt>
      <trkpt lat="62.630490292203" lon="18.000330158315">
        <ele>80.8</ele>
        <time>2018-03-19T10:57:18Z</time>
      </trkpt>
      <trkpt lat="62.630478725181" lon="18.00027609506">
        <ele>80.8</ele>
        <time>2018-03-19T10:57:19Z</time>
      </trkpt>
      <trkpt lat="62.630470594738" lon="18.000222199443">
        <ele>80.8</ele>
        <time>2018-03-19T10:57:20Z</time>
      </trkpt>
      <trkpt lat="62.630462380476" lon="18.000174003518">
        <ele>80.8</ele>
        <time>2018-03-19T10:57:21Z</time>
      </trkpt>
      <trkpt lat="62.630456764603" lon="18.00012857362">
        <ele>80.8</ele>
        <time>2018-03-19T10:57:22Z</time>
      </trkpt>
      <trkpt lat="62.630444694667" lon="18.000078868953">
        <ele>81</ele>
        <time>2018-03-19T10:57:23Z</time>
      </trkpt>
      <trkpt lat="62.630432792369" lon="18.000025224793">
        <ele>81</ele>
        <time>2018-03-19T10:57:24Z</time>
      </trkpt>
      <trkpt lat="62.63041510656" lon="17.999981974189">
        <ele>81</ele>
        <time>2018-03-19T10:57:25Z</time>
      </trkpt>
      <trkpt lat="62.630401779339" lon="17.999936376653">
        <ele>81.2</ele>
        <time>2018-03-19T10:57:26Z</time>
      </trkpt>
      <trkpt lat="62.630389206489" lon="17.999890611479">
        <ele>81.6</ele>
        <time>2018-03-19T10:57:27Z</time>
      </trkpt>
      <trkpt lat="62.63037403525" lon="17.999854150214">
        <ele>81.6</ele>
        <time>2018-03-19T10:57:28Z</time>
      </trkpt>
      <trkpt lat="62.630358277278" lon="17.999823975374">
        <ele>81.6</ele>
        <time>2018-03-19T10:57:29Z</time>
      </trkpt>
      <trkpt lat="62.630347967541" lon="17.999758764192">
        <ele>81.8</ele>
        <time>2018-03-19T10:57:30Z</time>
      </trkpt>
      <trkpt lat="62.630334221225" lon="17.999717357606">
        <ele>81.8</ele>
        <time>2018-03-19T10:57:31Z</time>
      </trkpt>
      <trkpt lat="62.630321899832" lon="17.999667820577">
        <ele>81.8</ele>
        <time>2018-03-19T10:57:32Z</time>
      </trkpt>
      <trkpt lat="62.630307650602" lon="17.999618702643">
        <ele>82.2</ele>
        <time>2018-03-19T10:57:33Z</time>
      </trkpt>
      <trkpt lat="62.630294491019" lon="17.999564974664">
        <ele>82.4</ele>
        <time>2018-03-19T10:57:34Z</time>
      </trkpt>
      <trkpt lat="62.630277140486" lon="17.999521388784">
        <ele>82.4</ele>
        <time>2018-03-19T10:57:35Z</time>
      </trkpt>
      <trkpt lat="62.630264148541" lon="17.999467325529">
        <ele>82.6</ele>
        <time>2018-03-19T10:57:36Z</time>
      </trkpt>
      <trkpt lat="62.630249899311" lon="17.999421727993">
        <ele>82.8</ele>
        <time>2018-03-19T10:57:37Z</time>
      </trkpt>
      <trkpt lat="62.6302441158" lon="17.999357019725">
        <ele>82.8</ele>
        <time>2018-03-19T10:57:38Z</time>
      </trkpt>
      <trkpt lat="62.630236236814" lon="17.99930211828">
        <ele>83</ele>
        <time>2018-03-19T10:57:39Z</time>
      </trkpt>
      <trkpt lat="62.63022986657" lon="17.999246294826">
        <ele>83</ele>
        <time>2018-03-19T10:57:40Z</time>
      </trkpt>
      <trkpt lat="62.630221652308" lon="17.999189549363">
        <ele>83.2</ele>
        <time>2018-03-19T10:57:41Z</time>
      </trkpt>
      <trkpt lat="62.630213354227" lon="17.999133474452">
        <ele>83.2</ele>
        <time>2018-03-19T10:57:42Z</time>
      </trkpt>
      <trkpt lat="62.630206732526" lon="17.999076309894">
        <ele>83.2</ele>
        <time>2018-03-19T10:57:43Z</time>
      </trkpt>
      <trkpt lat="62.630197428617" lon="17.999023587743">
        <ele>83.2</ele>
        <time>2018-03-19T10:57:44Z</time>
      </trkpt>
      <trkpt lat="62.630190220183" lon="17.998962483692">
        <ele>83.2</ele>
        <time>2018-03-19T10:57:45Z</time>
      </trkpt>
      <trkpt lat="62.630182508835" lon="17.998901379641">
        <ele>83.4</ele>
        <time>2018-03-19T10:57:46Z</time>
      </trkpt>
      <trkpt lat="62.630175803315" lon="17.998839185943">
        <ele>83.4</ele>
        <time>2018-03-19T10:57:47Z</time>
      </trkpt>
      <trkpt lat="62.630172702012" lon="17.998768945621">
        <ele>83.6</ele>
        <time>2018-03-19T10:57:48Z</time>
      </trkpt>
      <trkpt lat="62.630167421415" lon="17.998695184901">
        <ele>83.8</ele>
        <time>2018-03-19T10:57:49Z</time>
      </trkpt>
      <trkpt lat="62.630166331768" lon="17.998630476633">
        <ele>84</ele>
        <time>2018-03-19T10:57:50Z</time>
      </trkpt>
      <trkpt lat="62.630164068655" lon="17.998565097813">
        <ele>84</ele>
        <time>2018-03-19T10:57:51Z</time>
      </trkpt>
      <trkpt lat="62.630163314284" lon="17.998510447825">
        <ele>84.2</ele>
        <time>2018-03-19T10:57:52Z</time>
      </trkpt>
      <trkpt lat="62.630164320112" lon="17.998441800064">
        <ele>84.4</ele>
        <time>2018-03-19T10:57:53Z</time>
      </trkpt>
      <trkpt lat="62.630165242121" lon="17.998376169787">
        <ele>84.4</ele>
        <time>2018-03-19T10:57:54Z</time>
      </trkpt>
      <trkpt lat="62.630168008148" lon="17.998307019112">
        <ele>84.4</ele>
        <time>2018-03-19T10:57:55Z</time>
      </trkpt>
      <trkpt lat="62.630171863822" lon="17.998233006935">
        <ele>84.6</ele>
        <time>2018-03-19T10:57:56Z</time>
      </trkpt>
      <trkpt lat="62.630174294573" lon="17.998170729418">
        <ele>84.6</ele>
        <time>2018-03-19T10:57:57Z</time>
      </trkpt>
      <trkpt lat="62.63018208974" lon="17.998105350598">
        <ele>84.4</ele>
        <time>2018-03-19T10:57:58Z</time>
      </trkpt>
      <trkpt lat="62.630189381993" lon="17.998044665642">
        <ele>84.4</ele>
        <time>2018-03-19T10:57:59Z</time>
      </trkpt>
      <trkpt lat="62.630196841884" lon="17.99798783636">
        <ele>84.2</ele>
        <time>2018-03-19T10:58:00Z</time>
      </trkpt>
      <trkpt lat="62.630204469413" lon="17.997928743965">
        <ele>84.4</ele>
        <time>2018-03-19T10:58:01Z</time>
      </trkpt>
      <trkpt lat="62.630210001467" lon="17.997875015986">
        <ele>84.4</ele>
        <time>2018-03-19T10:58:02Z</time>
      </trkpt>
      <trkpt lat="62.630216790806" lon="17.997815253039">
        <ele>84.4</ele>
        <time>2018-03-19T10:58:03Z</time>
      </trkpt>
      <trkpt lat="62.630223747783" lon="17.997758591395">
        <ele>84.6</ele>
        <time>2018-03-19T10:58:04Z</time>
      </trkpt>
      <trkpt lat="62.630233638425" lon="17.997637389121">
        <ele>84.8</ele>
        <time>2018-03-19T10:58:06Z</time>
      </trkpt>
      <trkpt lat="62.630247300922" lon="17.997584583151">
        <ele>84.8</ele>
        <time>2018-03-19T10:58:07Z</time>
      </trkpt>
      <trkpt lat="62.630256940107" lon="17.997523143824">
        <ele>85</ele>
        <time>2018-03-19T10:58:08Z</time>
      </trkpt>
      <trkpt lat="62.63027093788" lon="17.997468326198">
        <ele>84.8</ele>
        <time>2018-03-19T10:58:09Z</time>
      </trkpt>
      <trkpt lat="62.630286612033" lon="17.997415184952">
        <ele>84.8</ele>
        <time>2018-03-19T10:58:10Z</time>
      </trkpt>
      <trkpt lat="62.630298933426" lon="17.997351231055">
        <ele>84.8</ele>
        <time>2018-03-19T10:58:11Z</time>
      </trkpt>
      <trkpt lat="62.630315445769" lon="17.997292641574">
        <ele>85</ele>
        <time>2018-03-19T10:58:12Z</time>
      </trkpt>
      <trkpt lat="62.630341178202" lon="17.997242266355">
        <ele>85</ele>
        <time>2018-03-19T10:58:13Z</time>
      </trkpt>
      <trkpt lat="62.630360540391" lon="17.997200859769">
        <ele>84.8</ele>
        <time>2018-03-19T10:58:14Z</time>
      </trkpt>
      <trkpt lat="62.630380489313" lon="17.99715216093">
        <ele>84.8</ele>
        <time>2018-03-19T10:58:15Z</time>
      </trkpt>
      <trkpt lat="62.630392810706" lon="17.997105306109">
        <ele>85</ele>
        <time>2018-03-19T10:58:16Z</time>
      </trkpt>
      <trkpt lat="62.630409155411" lon="17.99705828365">
        <ele>85</ele>
        <time>2018-03-19T10:58:17Z</time>
      </trkpt>
      <trkpt lat="62.630424494288" lon="17.99700799225">
        <ele>85.4</ele>
        <time>2018-03-19T10:58:18Z</time>
      </trkpt>
      <trkpt lat="62.630439497889" lon="17.996956778841">
        <ele>85.8</ele>
        <time>2018-03-19T10:58:19Z</time>
      </trkpt>
      <trkpt lat="62.630459195354" lon="17.996904391966">
        <ele>85.8</ele>
        <time>2018-03-19T10:58:20Z</time>
      </trkpt>
      <trkpt lat="62.630478306086" lon="17.996854268204">
        <ele>85.8</ele>
        <time>2018-03-19T10:58:21Z</time>
      </trkpt>
      <trkpt lat="62.630492639135" lon="17.996801378415">
        <ele>85.8</ele>
        <time>2018-03-19T10:58:22Z</time>
      </trkpt>
      <trkpt lat="62.630513845342" lon="17.99674228602">
        <ele>85.4</ele>
        <time>2018-03-19T10:58:23Z</time>
      </trkpt>
      <trkpt lat="62.63053329135" lon="17.996681768702">
        <ele>85.2</ele>
        <time>2018-03-19T10:58:24Z</time>
      </trkpt>
      <trkpt lat="62.630551312435" lon="17.996632902225">
        <ele>85</ele>
        <time>2018-03-19T10:58:25Z</time>
      </trkpt>
      <trkpt lat="62.630567824778" lon="17.996587556146">
        <ele>85</ele>
        <time>2018-03-19T10:58:26Z</time>
      </trkpt>
      <trkpt lat="62.630581654913" lon="17.996548580311">
        <ele>84.6</ele>
        <time>2018-03-19T10:58:27Z</time>
      </trkpt>
      <trkpt lat="62.630593389573" lon="17.9964925054">
        <ele>84.6</ele>
        <time>2018-03-19T10:58:28Z</time>
      </trkpt>
      <trkpt lat="62.630609063726" lon="17.996439364154">
        <ele>84.4</ele>
        <time>2018-03-19T10:58:29Z</time>
      </trkpt>
      <trkpt lat="62.630627084811" lon="17.996384965623">
        <ele>84.6</ele>
        <time>2018-03-19T10:58:30Z</time>
      </trkpt>
      <trkpt lat="62.630635047616" lon="17.996321849916">
        <ele>84.6</ele>
        <time>2018-03-19T10:58:31Z</time>
      </trkpt>
      <trkpt lat="62.630647201371" lon="17.996262589883">
        <ele>84.6</ele>
        <time>2018-03-19T10:58:32Z</time>
      </trkpt>
      <trkpt lat="62.630668910492" lon="17.996204419497">
        <ele>84.6</ele>
        <time>2018-03-19T10:58:33Z</time>
      </trkpt>
      <trkpt lat="62.630693888554" lon="17.996151697346">
        <ele>84.8</ele>
        <time>2018-03-19T10:58:34Z</time>
      </trkpt>
      <trkpt lat="62.630705539395" lon="17.99609268877">
        <ele>84.8</ele>
        <time>2018-03-19T10:58:35Z</time>
      </trkpt>
      <trkpt lat="62.630725655955" lon="17.996038541696">
        <ele>85</ele>
        <time>2018-03-19T10:58:36Z</time>
      </trkpt>
      <trkpt lat="62.630748622361" lon="17.996001074603">
        <ele>85.2</ele>
        <time>2018-03-19T10:58:37Z</time>
      </trkpt>
      <trkpt lat="62.630780473581" lon="17.995965870623">
        <ele>85.4</ele>
        <time>2018-03-19T10:58:38Z</time>
      </trkpt>
      <trkpt lat="62.630807044204" lon="17.995934857593">
        <ele>85.4</ele>
        <time>2018-03-19T10:58:39Z</time>
      </trkpt>
      <trkpt lat="62.630832692818" lon="17.995905688581">
        <ele>85.6</ele>
        <time>2018-03-19T10:58:40Z</time>
      </trkpt>
      <trkpt lat="62.630855743043" lon="17.995873166809">
        <ele>85.6</ele>
        <time>2018-03-19T10:58:41Z</time>
      </trkpt>
      <trkpt lat="62.630876865431" lon="17.995848188747">
        <ele>85.6</ele>
        <time>2018-03-19T10:58:42Z</time>
      </trkpt>
      <trkpt lat="62.630901172941" lon="17.995820025563">
        <ele>85.6</ele>
        <time>2018-03-19T10:58:43Z</time>
      </trkpt>
      <trkpt lat="62.630919277845" lon="17.995785240678">
        <ele>85.6</ele>
        <time>2018-03-19T10:58:44Z</time>
      </trkpt>
      <trkpt lat="62.630944926459" lon="17.99575322182">
        <ele>85.6</ele>
        <time>2018-03-19T10:58:45Z</time>
      </trkpt>
      <trkpt lat="62.630969233969" lon="17.995728159939">
        <ele>85.6</ele>
        <time>2018-03-19T10:58:46Z</time>
      </trkpt>
      <trkpt lat="62.630996558963" lon="17.995699912936">
        <ele>85.4</ele>
        <time>2018-03-19T10:58:47Z</time>
      </trkpt>
      <trkpt lat="62.631024973604" lon="17.995669654277">
        <ele>85.4</ele>
        <time>2018-03-19T10:58:48Z</time>
      </trkpt>
      <trkpt lat="62.631063278887" lon="17.995646352595">
        <ele>85.4</ele>
        <time>2018-03-19T10:58:49Z</time>
      </trkpt>
      <trkpt lat="62.631092280261" lon="17.995624894931">
        <ele>85.4</ele>
        <time>2018-03-19T10:58:50Z</time>
      </trkpt>
      <trkpt lat="62.631112145364" lon="17.995583572164">
        <ele>85.2</ele>
        <time>2018-03-19T10:58:51Z</time>
      </trkpt>
      <trkpt lat="62.631129412078" lon="17.99554618889">
        <ele>85.2</ele>
        <time>2018-03-19T10:58:52Z</time>
      </trkpt>
      <trkpt lat="62.631152127027" lon="17.995513331842">
        <ele>85.2</ele>
        <time>2018-03-19T10:58:53Z</time>
      </trkpt>
      <trkpt lat="62.631170399569" lon="17.995477289672">
        <ele>85.2</ele>
        <time>2018-03-19T10:58:54Z</time>
      </trkpt>
      <trkpt lat="62.631193030699" lon="17.995445857547">
        <ele>85</ele>
        <time>2018-03-19T10:58:55Z</time>
      </trkpt>
      <trkpt lat="62.631217338209" lon="17.995409480101">
        <ele>85.2</ele>
        <time>2018-03-19T10:58:56Z</time>
      </trkpt>
      <trkpt lat="62.631244327927" lon="17.99536513985">
        <ele>85.2</ele>
        <time>2018-03-19T10:58:57Z</time>
      </trkpt>
      <trkpt lat="62.631264947401" lon="17.995321805427">
        <ele>85.2</ele>
        <time>2018-03-19T10:58:58Z</time>
      </trkpt>
      <trkpt lat="62.631285734513" lon="17.995276878443">
        <ele>85.4</ele>
        <time>2018-03-19T10:58:59Z</time>
      </trkpt>
      <trkpt lat="62.631302246856" lon="17.995236561504">
        <ele>85.8</ele>
        <time>2018-03-19T10:59:00Z</time>
      </trkpt>
      <trkpt lat="62.631323201606" lon="17.995188952312">
        <ele>86</ele>
        <time>2018-03-19T10:59:01Z</time>
      </trkpt>
      <trkpt lat="62.631336193551" lon="17.995147797183">
        <ele>86.2</ele>
        <time>2018-03-19T10:59:02Z</time>
      </trkpt>
      <trkpt lat="62.631355471921" lon="17.995101864371">
        <ele>86.2</ele>
        <time>2018-03-19T10:59:03Z</time>
      </trkpt>
      <trkpt lat="62.631375253205" lon="17.995061631251">
        <ele>86.2</ele>
        <time>2018-03-19T10:59:04Z</time>
      </trkpt>
      <trkpt lat="62.631395621222" lon="17.995014608792">
        <ele>86.4</ele>
        <time>2018-03-19T10:59:05Z</time>
      </trkpt>
      <trkpt lat="62.631409032262" lon="17.994955432578">
        <ele>86.4</ele>
        <time>2018-03-19T10:59:06Z</time>
      </trkpt>
      <trkpt lat="62.631421521293" lon="17.9948999444">
        <ele>86.4</ele>
        <time>2018-03-19T10:59:07Z</time>
      </trkpt>
      <trkpt lat="62.631433675048" lon="17.994830961363">
        <ele>86.6</ele>
        <time>2018-03-19T10:59:08Z</time>
      </trkpt>
      <trkpt lat="62.631439207102" lon="17.994762565059">
        <ele>86.6</ele>
        <time>2018-03-19T10:59:09Z</time>
      </trkpt>
      <trkpt lat="62.631449349201" lon="17.994694001117">
        <ele>86.6</ele>
        <time>2018-03-19T10:59:10Z</time>
      </trkpt>
      <trkpt lat="62.631460580947" lon="17.994621497682">
        <ele>86.8</ele>
        <time>2018-03-19T10:59:11Z</time>
      </trkpt>
      <trkpt lat="62.631466448277" lon="17.994570116635">
        <ele>86.8</ele>
        <time>2018-03-19T10:59:12Z</time>
      </trkpt>
      <trkpt lat="62.63147038777" lon="17.994508844946">
        <ele>86.8</ele>
        <time>2018-03-19T10:59:13Z</time>
      </trkpt>
      <trkpt lat="62.631471561236" lon="17.994437850253">
        <ele>86.6</ele>
        <time>2018-03-19T10:59:14Z</time>
      </trkpt>
      <trkpt lat="62.631466615915" lon="17.994374147813">
        <ele>86.4</ele>
        <time>2018-03-19T10:59:15Z</time>
      </trkpt>
      <trkpt lat="62.63145697673" lon="17.994300387093">
        <ele>86.4</ele>
        <time>2018-03-19T10:59:16Z</time>
      </trkpt>
      <trkpt lat="62.631453037237" lon="17.994239618318">
        <ele>86.2</ele>
        <time>2018-03-19T10:59:17Z</time>
      </trkpt>
      <trkpt lat="62.631443146595" lon="17.994171473471">
        <ele>86</ele>
        <time>2018-03-19T10:59:18Z</time>
      </trkpt>
      <trkpt lat="62.631429735555" lon="17.994118499863">
        <ele>85.8</ele>
        <time>2018-03-19T10:59:19Z</time>
      </trkpt>
      <trkpt lat="62.631419090542" lon="17.994058988373">
        <ele>85.4</ele>
        <time>2018-03-19T10:59:20Z</time>
      </trkpt>
      <trkpt lat="62.631410541004" lon="17.994003835471">
        <ele>85.2</ele>
        <time>2018-03-19T10:59:21Z</time>
      </trkpt>
      <trkpt lat="62.631405176588" lon="17.993958070297">
        <ele>85</ele>
        <time>2018-03-19T10:59:22Z</time>
      </trkpt>
      <trkpt lat="62.631399225439" lon="17.993894032581">
        <ele>85</ele>
        <time>2018-03-19T10:59:23Z</time>
      </trkpt>
      <trkpt lat="62.631392017005" lon="17.993835024005">
        <ele>84.8</ele>
        <time>2018-03-19T10:59:24Z</time>
      </trkpt>
      <trkpt lat="62.631387993693" lon="17.993779787284">
        <ele>84.8</ele>
        <time>2018-03-19T10:59:25Z</time>
      </trkpt>
      <trkpt lat="62.631382964553" lon="17.993710217514">
        <ele>84.8</ele>
        <time>2018-03-19T10:59:26Z</time>
      </trkpt>
      <trkpt lat="62.63137986325" lon="17.993646682712">
        <ele>84.8</ele>
        <time>2018-03-19T10:59:27Z</time>
      </trkpt>
      <trkpt lat="62.631382964553" lon="17.993578034951">
        <ele>84.8</ele>
        <time>2018-03-19T10:59:28Z</time>
      </trkpt>
      <trkpt lat="62.631390340625" lon="17.993502262575">
        <ele>84.8</ele>
        <time>2018-03-19T10:59:29Z</time>
      </trkpt>
      <trkpt lat="62.63139495067" lon="17.993426741656">
        <ele>85</ele>
        <time>2018-03-19T10:59:30Z</time>
      </trkpt>
      <trkpt lat="62.631402578199" lon="17.993344012303">
        <ele>85</ele>
        <time>2018-03-19T10:59:31Z</time>
      </trkpt>
      <trkpt lat="62.631412301203" lon="17.993273269067">
        <ele>85</ele>
        <time>2018-03-19T10:59:32Z</time>
      </trkpt>
      <trkpt lat="62.6314175818" lon="17.993200681813">
        <ele>84.8</ele>
        <time>2018-03-19T10:59:33Z</time>
      </trkpt>
      <trkpt lat="62.631430406107" lon="17.993127759283">
        <ele>84.6</ele>
        <time>2018-03-19T10:59:34Z</time>
      </trkpt>
      <trkpt lat="62.631443398052" lon="17.993057183685">
        <ele>84.2</ele>
        <time>2018-03-19T10:59:35Z</time>
      </trkpt>
      <trkpt lat="62.631453456332" lon="17.992989793209">
        <ele>84.2</ele>
        <time>2018-03-19T10:59:36Z</time>
      </trkpt>
      <trkpt lat="62.631467789381" lon="17.992921480724">
        <ele>83.8</ele>
        <time>2018-03-19T10:59:37Z</time>
      </trkpt>
      <trkpt lat="62.631480278412" lon="17.992858448836">
        <ele>83.6</ele>
        <time>2018-03-19T10:59:38Z</time>
      </trkpt>
      <trkpt lat="62.631490252873" lon="17.992806229599">
        <ele>83.6</ele>
        <time>2018-03-19T10:59:39Z</time>
      </trkpt>
      <trkpt lat="62.631499137687" lon="17.992758620407">
        <ele>83.8</ele>
        <time>2018-03-19T10:59:40Z</time>
      </trkpt>
      <trkpt lat="62.631509447424" lon="17.992714363975">
        <ele>84.2</ele>
        <time>2018-03-19T10:59:41Z</time>
      </trkpt>
      <trkpt lat="62.631522523188" lon="17.992655439218">
        <ele>84.2</ele>
        <time>2018-03-19T10:59:42Z</time>
      </trkpt>
      <trkpt lat="62.631541382463" lon="17.992586959095">
        <ele>84.6</ele>
        <time>2018-03-19T10:59:43Z</time>
      </trkpt>
      <trkpt lat="62.631558146263" lon="17.992530632727">
        <ele>84.6</ele>
        <time>2018-03-19T10:59:44Z</time>
      </trkpt>
      <trkpt lat="62.631591170949" lon="17.992483358811">
        <ele>84.6</ele>
        <time>2018-03-19T10:59:45Z</time>
      </trkpt>
      <trkpt lat="62.631616651925" lon="17.992443377148">
        <ele>84.4</ele>
        <time>2018-03-19T10:59:46Z</time>
      </trkpt>
      <trkpt lat="62.631647664955" lon="17.992420326923">
        <ele>84.2</ele>
        <time>2018-03-19T10:59:47Z</time>
      </trkpt>
      <trkpt lat="62.631685299686" lon="17.992394845947">
        <ele>84</ele>
        <time>2018-03-19T10:59:48Z</time>
      </trkpt>
      <trkpt lat="62.631717318544" lon="17.992371544265">
        <ele>83.8</ele>
        <time>2018-03-19T10:59:49Z</time>
      </trkpt>
      <trkpt lat="62.631749924135" lon="17.992344135452">
        <ele>83.8</ele>
        <time>2018-03-19T10:59:50Z</time>
      </trkpt>
      <trkpt lat="62.631778757871" lon="17.992325946729">
        <ele>84</ele>
        <time>2018-03-19T10:59:51Z</time>
      </trkpt>
      <trkpt lat="62.631807843064" lon="17.992320330856">
        <ele>84.2</ele>
        <time>2018-03-19T10:59:52Z</time>
      </trkpt>
      <trkpt lat="62.631840197198" lon="17.99232083377">
        <ele>84.4</ele>
        <time>2018-03-19T10:59:53Z</time>
      </trkpt>
      <trkpt lat="62.631865845812" lon="17.992309266748">
        <ele>84.6</ele>
        <time>2018-03-19T10:59:54Z</time>
      </trkpt>
      <trkpt lat="62.631891242969" lon="17.99229568807">
        <ele>84.6</ele>
        <time>2018-03-19T10:59:55Z</time>
      </trkpt>
      <trkpt lat="62.631915801936" lon="17.992282109392">
        <ele>84.6</ele>
        <time>2018-03-19T10:59:56Z</time>
      </trkpt>
      <trkpt lat="62.631935247944" lon="17.992265094135">
        <ele>85</ele>
        <time>2018-03-19T10:59:57Z</time>
      </trkpt>
      <trkpt lat="62.631956621789" lon="17.992238774969">
        <ele>85.2</ele>
        <time>2018-03-19T10:59:58Z</time>
      </trkpt>
      <trkpt lat="62.631974307598" lon="17.992208097215">
        <ele>85.2</ele>
        <time>2018-03-19T10:59:59Z</time>
      </trkpt>
      <trkpt lat="62.631999369479" lon="17.992190327587">
        <ele>85.4</ele>
        <time>2018-03-19T11:00:00Z</time>
      </trkpt>
      <trkpt lat="62.632022252066" lon="17.99218001785">
        <ele>85.6</ele>
        <time>2018-03-19T11:00:01Z</time>
      </trkpt>
      <trkpt lat="62.632042787721" lon="17.992160907118">
        <ele>85.8</ele>
        <time>2018-03-19T11:00:02Z</time>
      </trkpt>
      <trkpt lat="62.63205963534" lon="17.992148334268">
        <ele>85.8</ele>
        <time>2018-03-19T11:00:03Z</time>
      </trkpt>
      <trkpt lat="62.632077907882" lon="17.992136515789">
        <ele>86</ele>
        <time>2018-03-19T11:00:04Z</time>
      </trkpt>
      <trkpt lat="62.63210154484" lon="17.992117824152">
        <ele>86.2</ele>
        <time>2018-03-19T11:00:05Z</time>
      </trkpt>
      <trkpt lat="62.632123421599" lon="17.99210290437">
        <ele>86.2</ele>
        <time>2018-03-19T11:00:06Z</time>
      </trkpt>
      <trkpt lat="62.632141610322" lon="17.992091421167">
        <ele>86.4</ele>
        <time>2018-03-19T11:00:07Z</time>
      </trkpt>
      <trkpt lat="62.63216943823" lon="17.992078429222">
        <ele>86.4</ele>
        <time>2018-03-19T11:00:08Z</time>
      </trkpt>
      <trkpt lat="62.632197517595" lon="17.992065940191">
        <ele>86.2</ele>
        <time>2018-03-19T11:00:09Z</time>
      </trkpt>
      <trkpt lat="62.632218137069" lon="17.99204926021">
        <ele>86.2</ele>
        <time>2018-03-19T11:00:10Z</time>
      </trkpt>
      <trkpt lat="62.632246216434" lon="17.992020426474">
        <ele>86.2</ele>
        <time>2018-03-19T11:00:11Z</time>
      </trkpt>
      <trkpt lat="62.632265997718" lon="17.991989329625">
        <ele>86.4</ele>
        <time>2018-03-19T11:00:12Z</time>
      </trkpt>
      <trkpt lat="62.632295837282" lon="17.9919662794">
        <ele>86.4</ele>
        <time>2018-03-19T11:00:13Z</time>
      </trkpt>
      <trkpt lat="62.632326766493" lon="17.991942390985">
        <ele>86.4</ele>
        <time>2018-03-19T11:00:14Z</time>
      </trkpt>
      <trkpt lat="62.632361299921" lon="17.991927387384">
        <ele>86.2</ele>
        <time>2018-03-19T11:00:15Z</time>
      </trkpt>
      <trkpt lat="62.632391390942" lon="17.991920262769">
        <ele>86.2</ele>
        <time>2018-03-19T11:00:16Z</time>
      </trkpt>
      <trkpt lat="62.632423661257" lon="17.991921603873">
        <ele>86.2</ele>
        <time>2018-03-19T11:00:17Z</time>
      </trkpt>
      <trkpt lat="62.632457524133" lon="17.991917412923">
        <ele>86.2</ele>
        <time>2018-03-19T11:00:18Z</time>
      </trkpt>
      <trkpt lat="62.632490884095" lon="17.99191850257">
        <ele>86.2</ele>
        <time>2018-03-19T11:00:19Z</time>
      </trkpt>
      <trkpt lat="62.632519131098" lon="17.991906348815">
        <ele>86</ele>
        <time>2018-03-19T11:00:20Z</time>
      </trkpt>
      <trkpt lat="62.632540421124" lon="17.991879442916">
        <ele>86</ele>
        <time>2018-03-19T11:00:21Z</time>
      </trkpt>
      <trkpt lat="62.63255500563" lon="17.991850441542">
        <ele>86</ele>
        <time>2018-03-19T11:00:22Z</time>
      </trkpt>
      <trkpt lat="62.632568249032" lon="17.991807190938">
        <ele>86.2</ele>
        <time>2018-03-19T11:00:23Z</time>
      </trkpt>
      <trkpt lat="62.632573529629" lon="17.991748182362">
        <ele>86.4</ele>
        <time>2018-03-19T11:00:24Z</time>
      </trkpt>
      <trkpt lat="62.632578642588" lon="17.991696466039">
        <ele>86.6</ele>
        <time>2018-03-19T11:00:25Z</time>
      </trkpt>
      <trkpt lat="62.632589706696" lon="17.991642151327">
        <ele>86.6</ele>
        <time>2018-03-19T11:00:26Z</time>
      </trkpt>
      <trkpt lat="62.632613762749" lon="17.991606109157">
        <ele>86.4</ele>
        <time>2018-03-19T11:00:27Z</time>
      </trkpt>
      <trkpt lat="62.632636393879" lon="17.991568558245">
        <ele>86.4</ele>
        <time>2018-03-19T11:00:28Z</time>
      </trkpt>
      <trkpt lat="62.632655923706" lon="17.991533605722">
        <ele>86.2</ele>
        <time>2018-03-19T11:00:29Z</time>
      </trkpt>
      <trkpt lat="62.632677297551" lon="17.991482140856">
        <ele>86</ele>
        <time>2018-03-19T11:00:30Z</time>
      </trkpt>
      <trkpt lat="62.632703532898" lon="17.991439309347">
        <ele>85.8</ele>
        <time>2018-03-19T11:00:31Z</time>
      </trkpt>
      <trkpt lat="62.632730354978" lon="17.991402428987">
        <ele>85.8</ele>
        <time>2018-03-19T11:00:32Z</time>
      </trkpt>
      <trkpt lat="62.632757679972" lon="17.991363285514">
        <ele>85.8</ele>
        <time>2018-03-19T11:00:33Z</time>
      </trkpt>
      <trkpt lat="62.632779808188" lon="17.991317268883">
        <ele>85.8</ele>
        <time>2018-03-19T11:00:34Z</time>
      </trkpt>
      <trkpt lat="62.632797745454" lon="17.991262870352">
        <ele>85.8</ele>
        <time>2018-03-19T11:00:35Z</time>
      </trkpt>
      <trkpt lat="62.632813419607" lon="17.991210818753">
        <ele>85.8</ele>
        <time>2018-03-19T11:00:36Z</time>
      </trkpt>
      <trkpt lat="62.632828087932" lon="17.991167651968">
        <ele>85.8</ele>
        <time>2018-03-19T11:00:37Z</time>
      </trkpt>
      <trkpt lat="62.632843510628" lon="17.991123144079">
        <ele>85.8</ele>
        <time>2018-03-19T11:00:38Z</time>
      </trkpt>
      <trkpt lat="62.632855664383" lon="17.991079642018">
        <ele>85.6</ele>
        <time>2018-03-19T11:00:39Z</time>
      </trkpt>
      <trkpt lat="62.632872931097" lon="17.991038570708">
        <ele>85.8</ele>
        <time>2018-03-19T11:00:40Z</time>
      </trkpt>
      <trkpt lat="62.632889275802" lon="17.990983836901">
        <ele>85.8</ele>
        <time>2018-03-19T11:00:41Z</time>
      </trkpt>
      <trkpt lat="62.632905620507" lon="17.990939245193">
        <ele>85.8</ele>
        <time>2018-03-19T11:00:42Z</time>
      </trkpt>
      <trkpt lat="62.632918109538" lon="17.990881242445">
        <ele>85.8</ele>
        <time>2018-03-19T11:00:43Z</time>
      </trkpt>
      <trkpt lat="62.632929844198" lon="17.990826089543">
        <ele>85.8</ele>
        <time>2018-03-19T11:00:44Z</time>
      </trkpt>
      <trkpt lat="62.632945937446" lon="17.990772193926">
        <ele>85.8</ele>
        <time>2018-03-19T11:00:45Z</time>
      </trkpt>
      <trkpt lat="62.632964126169" lon="17.990726680209">
        <ele>85.8</ele>
        <time>2018-03-19T11:00:46Z</time>
      </trkpt>
      <trkpt lat="62.632985332376" lon="17.990676472628">
        <ele>85.8</ele>
        <time>2018-03-19T11:00:47Z</time>
      </trkpt>
      <trkpt lat="62.633005616574" lon="17.990630036902">
        <ele>85.8</ele>
        <time>2018-03-19T11:00:48Z</time>
      </trkpt>
      <trkpt lat="62.633027325695" lon="17.990585109918">
        <ele>85.8</ele>
        <time>2018-03-19T11:00:49Z</time>
      </trkpt>
      <trkpt lat="62.633050711196" lon="17.990542529866">
        <ele>86</ele>
        <time>2018-03-19T11:00:50Z</time>
      </trkpt>
      <trkpt lat="62.63307635981" lon="17.99049693233">
        <ele>86</ele>
        <time>2018-03-19T11:00:51Z</time>
      </trkpt>
      <trkpt lat="62.633106199374" lon="17.990464913472">
        <ele>86</ele>
        <time>2018-03-19T11:00:52Z</time>
      </trkpt>
      <trkpt lat="62.633137631499" lon="17.990432475519">
        <ele>86</ele>
        <time>2018-03-19T11:00:53Z</time>
      </trkpt>
      <trkpt lat="62.633170572366" lon="17.990400624299">
        <ele>86</ele>
        <time>2018-03-19T11:00:54Z</time>
      </trkpt>
      <trkpt lat="62.633196640075" lon="17.990382854671">
        <ele>86</ele>
        <time>2018-03-19T11:00:55Z</time>
      </trkpt>
      <trkpt lat="62.633232095512" lon="17.990357038419">
        <ele>85.8</ele>
        <time>2018-03-19T11:00:56Z</time>
      </trkpt>
      <trkpt lat="62.633261432162" lon="17.990341699542">
        <ele>85.8</ele>
        <time>2018-03-19T11:00:57Z</time>
      </trkpt>
      <trkpt lat="62.633283728016" lon="17.990326947398">
        <ele>85.8</ele>
        <time>2018-03-19T11:00:58Z</time>
      </trkpt>
      <trkpt lat="62.633300491816" lon="17.990304903001">
        <ele>85.8</ele>
        <time>2018-03-19T11:00:59Z</time>
      </trkpt>
      <trkpt lat="62.633324547869" lon="17.990280595491">
        <ele>85.6</ele>
        <time>2018-03-19T11:01:00Z</time>
      </trkpt>
      <trkpt lat="62.633349442112" lon="17.990250253013">
        <ele>85.6</ele>
        <time>2018-03-19T11:01:01Z</time>
      </trkpt>
      <trkpt lat="62.633376096554" lon="17.990222341286">
        <ele>85.8</ele>
        <time>2018-03-19T11:01:02Z</time>
      </trkpt>
      <trkpt lat="62.63339822477" lon="17.9901893166">
        <ele>85.8</ele>
        <time>2018-03-19T11:01:03Z</time>
      </trkpt>
      <trkpt lat="62.633416078217" lon="17.990158471208">
        <ele>86</ele>
        <time>2018-03-19T11:01:04Z</time>
      </trkpt>
      <trkpt lat="62.633443570849" lon="17.990120501201">
        <ele>86</ele>
        <time>2018-03-19T11:01:05Z</time>
      </trkpt>
      <trkpt lat="62.633471231119" lon="17.990082112099">
        <ele>86.2</ele>
        <time>2018-03-19T11:01:06Z</time>
      </trkpt>
      <trkpt lat="62.633494197525" lon="17.990045734653">
        <ele>86.4</ele>
        <time>2018-03-19T11:01:07Z</time>
      </trkpt>
      <trkpt lat="62.633523617994" lon="17.989999131289">
        <ele>86.2</ele>
        <time>2018-03-19T11:01:08Z</time>
      </trkpt>
      <trkpt lat="62.633547925504" lon="17.989946409138">
        <ele>86.2</ele>
        <time>2018-03-19T11:01:09Z</time>
      </trkpt>
      <trkpt lat="62.63356921553" lon="17.989895447186">
        <ele>86.2</ele>
        <time>2018-03-19T11:01:10Z</time>
      </trkpt>
      <trkpt lat="62.633593187764" lon="17.989832918212">
        <ele>86</ele>
        <time>2018-03-19T11:01:11Z</time>
      </trkpt>
      <trkpt lat="62.633613974876" lon="17.989775669835">
        <ele>85.8</ele>
        <time>2018-03-19T11:01:12Z</time>
      </trkpt>
      <trkpt lat="62.633637611834" lon="17.989724540245">
        <ele>85.6</ele>
        <time>2018-03-19T11:01:13Z</time>
      </trkpt>
      <trkpt lat="62.633659572412" lon="17.989660167253">
        <ele>85.4</ele>
        <time>2018-03-19T11:01:14Z</time>
      </trkpt>
      <trkpt lat="62.633681030076" lon="17.989622364884">
        <ele>85.4</ele>
        <time>2018-03-19T11:01:15Z</time>
      </trkpt>
      <trkpt lat="62.633706427233" lon="17.989574588054">
        <ele>85.2</ele>
        <time>2018-03-19T11:01:16Z</time>
      </trkpt>
      <trkpt lat="62.633730567105" lon="17.989524883387">
        <ele>85.2</ele>
        <time>2018-03-19T11:01:17Z</time>
      </trkpt>
      <trkpt lat="62.633753365873" lon="17.989485320819">
        <ele>85</ele>
        <time>2018-03-19T11:01:18Z</time>
      </trkpt>
      <trkpt lat="62.633785300912" lon="17.989450955029">
        <ele>85</ele>
        <time>2018-03-19T11:01:19Z</time>
      </trkpt>
      <trkpt lat="62.633811368621" lon="17.989420947827">
        <ele>84.8</ele>
        <time>2018-03-19T11:01:20Z</time>
      </trkpt>
      <trkpt lat="62.633843806574" lon="17.989394041928">
        <ele>84.8</ele>
        <time>2018-03-19T11:01:21Z</time>
      </trkpt>
      <trkpt lat="62.633876915079" lon="17.98936118488">
        <ele>84.6</ele>
        <time>2018-03-19T11:01:22Z</time>
      </trkpt>
      <trkpt lat="62.633904407711" lon="17.989324053063">
        <ele>84.6</ele>
        <time>2018-03-19T11:01:23Z</time>
      </trkpt>
      <trkpt lat="62.63393801913" lon="17.9892924533">
        <ele>84.6</ele>
        <time>2018-03-19T11:01:24Z</time>
      </trkpt>
      <trkpt lat="62.633968110151" lon="17.989254148017">
        <ele>84.6</ele>
        <time>2018-03-19T11:01:25Z</time>
      </trkpt>
      <trkpt lat="62.634005996339" lon="17.989197654011">
        <ele>84.4</ele>
        <time>2018-03-19T11:01:26Z</time>
      </trkpt>
      <trkpt lat="62.634034997713" lon="17.989155744511">
        <ele>84</ele>
        <time>2018-03-19T11:01:27Z</time>
      </trkpt>
      <trkpt lat="62.634060897784" lon="17.989114086468">
        <ele>84</ele>
        <time>2018-03-19T11:01:28Z</time>
      </trkpt>
      <trkpt lat="62.634098867791" lon="17.989068069837">
        <ele>84</ele>
        <time>2018-03-19T11:01:29Z</time>
      </trkpt>
      <trkpt lat="62.634140274377" lon="17.989015347686">
        <ele>83.8</ele>
        <time>2018-03-19T11:01:30Z</time>
      </trkpt>
      <trkpt lat="62.634173634339" lon="17.988961284431">
        <ele>83.4</ele>
        <time>2018-03-19T11:01:31Z</time>
      </trkpt>
      <trkpt lat="62.634209927966" lon="17.988923984976">
        <ele>83.2</ele>
        <time>2018-03-19T11:01:32Z</time>
      </trkpt>
      <trkpt lat="62.634242701195" lon="17.988872017196">
        <ele>83.2</ele>
        <time>2018-03-19T11:01:33Z</time>
      </trkpt>
      <trkpt lat="62.634264242678" lon="17.988816612837">
        <ele>83</ele>
        <time>2018-03-19T11:01:34Z</time>
      </trkpt>
      <trkpt lat="62.634282263763" lon="17.988760035012">
        <ele>82.8</ele>
        <time>2018-03-19T11:01:35Z</time>
      </trkpt>
      <trkpt lat="62.634308750567" lon="17.988704965929">
        <ele>82.8</ele>
        <time>2018-03-19T11:01:36Z</time>
      </trkpt>
      <trkpt lat="62.634336913751" lon="17.988660038945">
        <ele>83</ele>
        <time>2018-03-19T11:01:37Z</time>
      </trkpt>
      <trkpt lat="62.634371866274" lon="17.988609496088">
        <ele>83</ele>
        <time>2018-03-19T11:01:38Z</time>
      </trkpt>
      <trkpt lat="62.634401119105" lon="17.988569262968">
        <ele>83</ele>
        <time>2018-03-19T11:01:39Z</time>
      </trkpt>
      <trkpt lat="62.634428192642" lon="17.988530119495">
        <ele>83</ele>
        <time>2018-03-19T11:01:40Z</time>
      </trkpt>
      <trkpt lat="62.634461804061" lon="17.988498184456">
        <ele>82.8</ele>
        <time>2018-03-19T11:01:41Z</time>
      </trkpt>
      <trkpt lat="62.634491140711" lon="17.98848192357">
        <ele>82.6</ele>
        <time>2018-03-19T11:01:42Z</time>
      </trkpt>
      <trkpt lat="62.63454319231" lon="17.988457699879">
        <ele>82</ele>
        <time>2018-03-19T11:01:43Z</time>
      </trkpt>
      <trkpt lat="62.634595830642" lon="17.988438505328">
        <ele>81.4</ele>
        <time>2018-03-19T11:01:44Z</time>
      </trkpt>
      <trkpt lat="62.634639248884" lon="17.988419729872">
        <ele>80.8</ele>
        <time>2018-03-19T11:01:45Z</time>
      </trkpt>
      <trkpt lat="62.634676548339" lon="17.988386872824">
        <ele>80.4</ele>
        <time>2018-03-19T11:01:46Z</time>
      </trkpt>
      <trkpt lat="62.63471418307" lon="17.988360218382">
        <ele>80</ele>
        <time>2018-03-19T11:01:47Z</time>
      </trkpt>
      <trkpt lat="62.634752404534" lon="17.98832769661">
        <ele>79.8</ele>
        <time>2018-03-19T11:01:48Z</time>
      </trkpt>
      <trkpt lat="62.634795738957" lon="17.988304981661">
        <ele>79.8</ele>
        <time>2018-03-19T11:01:49Z</time>
      </trkpt>
      <trkpt lat="62.63483572062" lon="17.988284781282">
        <ele>80</ele>
        <time>2018-03-19T11:01:50Z</time>
      </trkpt>
      <trkpt lat="62.634868242392" lon="17.988252762424">
        <ele>80</ele>
        <time>2018-03-19T11:01:51Z</time>
      </trkpt>
      <trkpt lat="62.6348960703" lon="17.988213786589">
        <ele>80.2</ele>
        <time>2018-03-19T11:01:52Z</time>
      </trkpt>
      <trkpt lat="62.634925490769" lon="17.988147066665">
        <ele>80.6</ele>
        <time>2018-03-19T11:01:53Z</time>
      </trkpt>
      <trkpt lat="62.634946864614" lon="17.988067522434">
        <ele>80.6</ele>
        <time>2018-03-19T11:01:54Z</time>
      </trkpt>
      <trkpt lat="62.634965053337" lon="17.988001305424">
        <ele>80.4</ele>
        <time>2018-03-19T11:01:55Z</time>
      </trkpt>
      <trkpt lat="62.634981984775" lon="17.98791698351">
        <ele>80.4</ele>
        <time>2018-03-19T11:01:56Z</time>
      </trkpt>
      <trkpt lat="62.634993970892" lon="17.987856466192">
        <ele>80.2</ele>
        <time>2018-03-19T11:01:57Z</time>
      </trkpt>
      <trkpt lat="62.635005454095" lon="17.987783795119">
        <ele>79.8</ele>
        <time>2018-03-19T11:01:58Z</time>
      </trkpt>
      <trkpt lat="62.635014506547" lon="17.987712800426">
        <ele>79.6</ele>
        <time>2018-03-19T11:01:59Z</time>
      </trkpt>
      <trkpt lat="62.635021631162" lon="17.987649517081">
        <ele>79.2</ele>
        <time>2018-03-19T11:02:00Z</time>
      </trkpt>
      <trkpt lat="62.63502263699" lon="17.987595872921">
        <ele>79</ele>
        <time>2018-03-19T11:02:01Z</time>
      </trkpt>
      <trkpt lat="62.635014422728" lon="17.987564524615">
        <ele>78.8</ele>
        <time>2018-03-19T11:02:02Z</time>
      </trkpt>
      <trkpt lat="62.634995563453" lon="17.987552454679">
        <ele>78.8</ele>
        <time>2018-03-19T11:02:03Z</time>
      </trkpt>
      <trkpt lat="62.634981398042" lon="17.987574582895">
        <ele>78.8</ele>
        <time>2018-03-19T11:02:04Z</time>
      </trkpt>
      <trkpt lat="62.634971758857" lon="17.987611127979">
        <ele>78.8</ele>
        <time>2018-03-19T11:02:05Z</time>
      </trkpt>
      <trkpt lat="62.634962706405" lon="17.987655803506">
        <ele>78.8</ele>
        <time>2018-03-19T11:02:06Z</time>
      </trkpt>
      <trkpt lat="62.634946864614" lon="17.987693019142">
        <ele>78.6</ele>
        <time>2018-03-19T11:02:07Z</time>
      </trkpt>
      <trkpt lat="62.634931190461" lon="17.987750351338">
        <ele>78.6</ele>
        <time>2018-03-19T11:02:08Z</time>
      </trkpt>
      <trkpt lat="62.634916354498" lon="17.987784717128">
        <ele>78.6</ele>
        <time>2018-03-19T11:02:09Z</time>
      </trkpt>
      <trkpt lat="62.634905541847" lon="17.987821178393">
        <ele>78.4</ele>
        <time>2018-03-19T11:02:10Z</time>
      </trkpt>
      <trkpt lat="62.634888778047" lon="17.987854789812">
        <ele>78.4</ele>
        <time>2018-03-19T11:02:11Z</time>
      </trkpt>
      <trkpt lat="62.634870756962" lon="17.987880689883">
        <ele>78.6</ele>
        <time>2018-03-19T11:02:12Z</time>
      </trkpt>
      <trkpt lat="62.634858184112" lon="17.987907009049">
        <ele>78.6</ele>
        <time>2018-03-19T11:02:13Z</time>
      </trkpt>
      <trkpt lat="62.634845192167" lon="17.987935172233">
        <ele>78.8</ele>
        <time>2018-03-19T11:02:14Z</time>
      </trkpt>
      <trkpt lat="62.634829182738" lon="17.987976075905">
        <ele>79.2</ele>
        <time>2018-03-19T11:02:15Z</time>
      </trkpt>
      <trkpt lat="62.634808647083" lon="17.98800331708">
        <ele>79.2</ele>
        <time>2018-03-19T11:02:16Z</time>
      </trkpt>
      <trkpt lat="62.634791212731" lon="17.988023852735">
        <ele>79.4</ele>
        <time>2018-03-19T11:02:17Z</time>
      </trkpt>
      <trkpt lat="62.634770174162" lon="17.988039945983">
        <ele>79.8</ele>
        <time>2018-03-19T11:02:18Z</time>
      </trkpt>
      <trkpt lat="62.634748967955" lon="17.988057715611">
        <ele>79.8</ele>
        <time>2018-03-19T11:02:19Z</time>
      </trkpt>
      <trkpt lat="62.634722732608" lon="17.988070456099">
        <ele>79.8</ele>
        <time>2018-03-19T11:02:20Z</time>
      </trkpt>
      <trkpt lat="62.634700436754" lon="17.988076826343">
        <ele>80</ele>
        <time>2018-03-19T11:02:21Z</time>
      </trkpt>
      <trkpt lat="62.634676715977" lon="17.988087555175">
        <ele>80.2</ele>
        <time>2018-03-19T11:02:22Z</time>
      </trkpt>
      <trkpt lat="62.634650229173" lon="17.988099792749">
        <ele>80.2</ele>
        <time>2018-03-19T11:02:23Z</time>
      </trkpt>
      <trkpt lat="62.634630531708" lon="17.988104989527">
        <ele>80.4</ele>
        <time>2018-03-19T11:02:24Z</time>
      </trkpt>
      <trkpt lat="62.634612426804" lon="17.988110270124">
        <ele>80.6</ele>
        <time>2018-03-19T11:02:25Z</time>
      </trkpt>
      <trkpt lat="62.634588286932" lon="17.988110856857">
        <ele>80.6</ele>
        <time>2018-03-19T11:02:26Z</time>
      </trkpt>
      <trkpt lat="62.634567164544" lon="17.988119322576">
        <ele>80.8</ele>
        <time>2018-03-19T11:02:27Z</time>
      </trkpt>
      <trkpt lat="62.634539336636" lon="17.988128794123">
        <ele>80.8</ele>
        <time>2018-03-19T11:02:28Z</time>
      </trkpt>
      <trkpt lat="62.634518298067" lon="17.988133739444">
        <ele>81</ele>
        <time>2018-03-19T11:02:29Z</time>
      </trkpt>
      <trkpt lat="62.634495331661" lon="17.988139020041">
        <ele>81</ele>
        <time>2018-03-19T11:02:30Z</time>
      </trkpt>
      <trkpt lat="62.634471778522" lon="17.988148659226">
        <ele>81</ele>
        <time>2018-03-19T11:02:31Z</time>
      </trkpt>
      <trkpt lat="62.634454427989" lon="17.988161651171">
        <ele>81.2</ele>
        <time>2018-03-19T11:02:32Z</time>
      </trkpt>
      <trkpt lat="62.634431293945" lon="17.988173218193">
        <ele>81.4</ele>
        <time>2018-03-19T11:02:33Z</time>
      </trkpt>
      <trkpt lat="62.634413859593" lon="17.988179001704">
        <ele>81.4</ele>
        <time>2018-03-19T11:02:34Z</time>
      </trkpt>
      <trkpt lat="62.634390557911" lon="17.988190820183">
        <ele>81.6</ele>
        <time>2018-03-19T11:02:35Z</time>
      </trkpt>
      <trkpt lat="62.634360885985" lon="17.98819274802">
        <ele>81.6</ele>
        <time>2018-03-19T11:02:36Z</time>
      </trkpt>
      <trkpt lat="62.634340517968" lon="17.988203309214">
        <ele>81.8</ele>
        <time>2018-03-19T11:02:37Z</time>
      </trkpt>
      <trkpt lat="62.634304391979" lon="17.988203057757">
        <ele>81.8</ele>
        <time>2018-03-19T11:02:38Z</time>
      </trkpt>
      <trkpt lat="62.634280755021" lon="17.988218899548">
        <ele>81.8</ele>
        <time>2018-03-19T11:02:39Z</time>
      </trkpt>
      <trkpt lat="62.634255525502" lon="17.98822543743">
        <ele>82</ele>
        <time>2018-03-19T11:02:40Z</time>
      </trkpt>
      <trkpt lat="62.634214370373" lon="17.988215546788">
        <ele>82</ele>
        <time>2018-03-19T11:02:41Z</time>
      </trkpt>
      <trkpt lat="62.634186542465" lon="17.988213116037">
        <ele>82</ele>
        <time>2018-03-19T11:02:42Z</time>
      </trkpt>
      <trkpt lat="62.634152763408" lon="17.988202471024">
        <ele>82</ele>
        <time>2018-03-19T11:02:43Z</time>
      </trkpt>
      <trkpt lat="62.634116469781" lon="17.988187802699">
        <ele>82.2</ele>
        <time>2018-03-19T11:02:44Z</time>
      </trkpt>
      <trkpt lat="62.634085289113" lon="17.988169697795">
        <ele>82.2</ele>
        <time>2018-03-19T11:02:45Z</time>
      </trkpt>
      <trkpt lat="62.634055114273" lon="17.988147988674">
        <ele>82.4</ele>
        <time>2018-03-19T11:02:46Z</time>
      </trkpt>
      <trkpt lat="62.634024520338" lon="17.988126698648">
        <ele>82.4</ele>
        <time>2018-03-19T11:02:47Z</time>
      </trkpt>
      <trkpt lat="62.633992166204" lon="17.988110270124">
        <ele>82.4</ele>
        <time>2018-03-19T11:02:48Z</time>
      </trkpt>
      <trkpt lat="62.633960482622" lon="17.988092416677">
        <ele>82.6</ele>
        <time>2018-03-19T11:02:49Z</time>
      </trkpt>
      <trkpt lat="62.633925111004" lon="17.98807121047">
        <ele>82.8</ele>
        <time>2018-03-19T11:02:50Z</time>
      </trkpt>
      <trkpt lat="62.633899294752" lon="17.988051596824">
        <ele>82.8</ele>
        <time>2018-03-19T11:02:51Z</time>
      </trkpt>
      <trkpt lat="62.633882447133" lon="17.988030893531">
        <ele>82.8</ele>
        <time>2018-03-19T11:02:52Z</time>
      </trkpt>
      <trkpt lat="62.633841543461" lon="17.988019410328">
        <ele>83</ele>
        <time>2018-03-19T11:02:53Z</time>
      </trkpt>
      <trkpt lat="62.633807848223" lon="17.987999377587">
        <ele>83</ele>
        <time>2018-03-19T11:02:54Z</time>
      </trkpt>
      <trkpt lat="62.633778260116" lon="17.987983535796">
        <ele>83.2</ele>
        <time>2018-03-19T11:02:55Z</time>
      </trkpt>
      <trkpt lat="62.633745403068" lon="17.9879597312">
        <ele>83.2</ele>
        <time>2018-03-19T11:02:56Z</time>
      </trkpt>
      <trkpt lat="62.633717910436" lon="17.98793374731">
        <ele>83.4</ele>
        <time>2018-03-19T11:02:57Z</time>
      </trkpt>
      <trkpt lat="62.633686645949" lon="17.987900638805">
        <ele>83.6</ele>
        <time>2018-03-19T11:02:58Z</time>
      </trkpt>
      <trkpt lat="62.633648759761" lon="17.98787675039">
        <ele>83.6</ele>
        <time>2018-03-19T11:02:59Z</time>
      </trkpt>
      <trkpt lat="62.633617914369" lon="17.987855460364">
        <ele>83.6</ele>
        <time>2018-03-19T11:03:00Z</time>
      </trkpt>
      <trkpt lat="62.633592181936" lon="17.987829979388">
        <ele>83.8</ele>
        <time>2018-03-19T11:03:01Z</time>
      </trkpt>
      <trkpt lat="62.633566784779" lon="17.987806090973">
        <ele>83.8</ele>
        <time>2018-03-19T11:03:02Z</time>
      </trkpt>
      <trkpt lat="62.633537699586" lon="17.987770551717">
        <ele>83.8</ele>
        <time>2018-03-19T11:03:03Z</time>
      </trkpt>
      <trkpt lat="62.633511799515" lon="17.987760744894">
        <ele>84.2</ele>
        <time>2018-03-19T11:03:04Z</time>
      </trkpt>
      <trkpt lat="62.633482295227" lon="17.987734509547">
        <ele>84.4</ele>
        <time>2018-03-19T11:03:05Z</time>
      </trkpt>
      <trkpt lat="62.633458658269" lon="17.987701317223">
        <ele>84.6</ele>
        <time>2018-03-19T11:03:06Z</time>
      </trkpt>
      <trkpt lat="62.633437368243" lon="17.987667286709">
        <ele>84.8</ele>
        <time>2018-03-19T11:03:07Z</time>
      </trkpt>
      <trkpt lat="62.633413647466" lon="17.987624622838">
        <ele>84.8</ele>
        <time>2018-03-19T11:03:08Z</time>
      </trkpt>
      <trkpt lat="62.633392776535" lon="17.987595537645">
        <ele>84.8</ele>
        <time>2018-03-19T11:03:09Z</time>
      </trkpt>
      <trkpt lat="62.633374587812" lon="17.987566536271">
        <ele>84.8</ele>
        <time>2018-03-19T11:03:10Z</time>
      </trkpt>
      <trkpt lat="62.633353130148" lon="17.987523453305">
        <ele>85</ele>
        <time>2018-03-19T11:03:11Z</time>
      </trkpt>
      <trkpt lat="62.633343490963" lon="17.987482968728">
        <ele>85</ele>
        <time>2018-03-19T11:03:12Z</time>
      </trkpt>
      <trkpt lat="62.633331085751" lon="17.987429911301">
        <ele>85.2</ele>
        <time>2018-03-19T11:03:13Z</time>
      </trkpt>
      <trkpt lat="62.6333118912" lon="17.987378194978">
        <ele>85.4</ele>
        <time>2018-03-19T11:03:14Z</time>
      </trkpt>
      <trkpt lat="62.633292948106" lon="17.987330418148">
        <ele>85.6</ele>
        <time>2018-03-19T11:03:15Z</time>
      </trkpt>
      <trkpt lat="62.633261935076" lon="17.987269481735">
        <ele>86</ele>
        <time>2018-03-19T11:03:16Z</time>
      </trkpt>
      <trkpt lat="62.633237124652" lon="17.987202258897">
        <ele>86.2</ele>
        <time>2018-03-19T11:03:17Z</time>
      </trkpt>
      <trkpt lat="62.633206865993" lon="17.987093713292">
        <ele>86.2</ele>
        <time>2018-03-19T11:03:18Z</time>
      </trkpt>
      <trkpt lat="62.633185911243" lon="17.986985251506">
        <ele>85.4</ele>
        <time>2018-03-19T11:03:19Z</time>
      </trkpt>
      <trkpt lat="62.633171578194" lon="17.986890871312">
        <ele>84.6</ele>
        <time>2018-03-19T11:03:20Z</time>
      </trkpt>
      <trkpt lat="62.63315934062" lon="17.98679548529">
        <ele>83.6</ele>
        <time>2018-03-19T11:03:21Z</time>
      </trkpt>
      <trkpt lat="62.6331526351" lon="17.986717030706">
        <ele>82.6</ele>
        <time>2018-03-19T11:03:22Z</time>
      </trkpt>
      <trkpt lat="62.633147438322" lon="17.986615358259">
        <ele>82</ele>
        <time>2018-03-19T11:03:23Z</time>
      </trkpt>
      <trkpt lat="62.63314341501" lon="17.986529108508">
        <ele>81.6</ele>
        <time>2018-03-19T11:03:24Z</time>
      </trkpt>
      <trkpt lat="62.633144923752" lon="17.986454425779">
        <ele>81.8</ele>
        <time>2018-03-19T11:03:25Z</time>
      </trkpt>
      <trkpt lat="62.633141235716" lon="17.986372786073">
        <ele>82</ele>
        <time>2018-03-19T11:03:26Z</time>
      </trkpt>
      <trkpt lat="62.633130255427" lon="17.98629760043">
        <ele>82.2</ele>
        <time>2018-03-19T11:03:27Z</time>
      </trkpt>
      <trkpt lat="62.633128998142" lon="17.986184612418">
        <ele>82.4</ele>
        <time>2018-03-19T11:03:28Z</time>
      </trkpt>
      <trkpt lat="62.633125896839" lon="17.986071959682">
        <ele>82.6</ele>
        <time>2018-03-19T11:03:29Z</time>
      </trkpt>
      <trkpt lat="62.633119526595" lon="17.985971795977">
        <ele>82.4</ele>
        <time>2018-03-19T11:03:30Z</time>
      </trkpt>
      <trkpt lat="62.633115670921" lon="17.9858558743">
        <ele>82</ele>
        <time>2018-03-19T11:03:31Z</time>
      </trkpt>
      <trkpt lat="62.633116509111" lon="17.985773983137">
        <ele>81.8</ele>
        <time>2018-03-19T11:03:32Z</time>
      </trkpt>
      <trkpt lat="62.63311994569" lon="17.985670885767">
        <ele>81.6</ele>
        <time>2018-03-19T11:03:33Z</time>
      </trkpt>
      <trkpt lat="62.633119442776" lon="17.985587318224">
        <ele>81.4</ele>
        <time>2018-03-19T11:03:34Z</time>
      </trkpt>
      <trkpt lat="62.633109384496" lon="17.985488663261">
        <ele>81.2</ele>
        <time>2018-03-19T11:03:35Z</time>
      </trkpt>
      <trkpt lat="62.633110306505" lon="17.985378189819">
        <ele>81.2</ele>
        <time>2018-03-19T11:03:36Z</time>
      </trkpt>
      <trkpt lat="62.633115335645" lon="17.985237457718">
        <ele>81</ele>
        <time>2018-03-19T11:03:37Z</time>
      </trkpt>
      <trkpt lat="62.6331274894" lon="17.985094294866">
        <ele>80.8</ele>
        <time>2018-03-19T11:03:38Z</time>
      </trkpt>
      <trkpt lat="62.633148947064" lon="17.984969739832">
        <ele>80</ele>
        <time>2018-03-19T11:03:39Z</time>
      </trkpt>
      <trkpt lat="62.633175769144" lon="17.984867732109">
        <ele>79</ele>
        <time>2018-03-19T11:03:40Z</time>
      </trkpt>
      <trkpt lat="62.633204686699" lon="17.984741416876">
        <ele>78</ele>
        <time>2018-03-19T11:03:41Z</time>
      </trkpt>
      <trkpt lat="62.633225389992" lon="17.984643097189">
        <ele>77.2</ele>
        <time>2018-03-19T11:03:42Z</time>
      </trkpt>
      <trkpt lat="62.633251038606" lon="17.984532037014">
        <ele>76.4</ele>
        <time>2018-03-19T11:03:43Z</time>
      </trkpt>
      <trkpt lat="62.633276603401" lon="17.984441093399">
        <ele>76.4</ele>
        <time>2018-03-19T11:03:44Z</time>
      </trkpt>
      <trkpt lat="62.633294875943" lon="17.984340259142">
        <ele>76.4</ele>
        <time>2018-03-19T11:03:45Z</time>
      </trkpt>
      <trkpt lat="62.633304179852" lon="17.984257194513">
        <ele>76.6</ele>
        <time>2018-03-19T11:03:46Z</time>
      </trkpt>
      <trkpt lat="62.633313651399" lon="17.98417781792">
        <ele>76.8</ele>
        <time>2018-03-19T11:03:47Z</time>
      </trkpt>
      <trkpt lat="62.633317171797" lon="17.984081342251">
        <ele>77.2</ele>
        <time>2018-03-19T11:03:48Z</time>
      </trkpt>
      <trkpt lat="62.633320105462" lon="17.983997271794">
        <ele>77.4</ele>
        <time>2018-03-19T11:03:49Z</time>
      </trkpt>
      <trkpt lat="62.633326643344" lon="17.983915129174">
        <ele>77.8</ele>
        <time>2018-03-19T11:03:50Z</time>
      </trkpt>
      <trkpt lat="62.633324044955" lon="17.983836339314">
        <ele>78</ele>
        <time>2018-03-19T11:03:51Z</time>
      </trkpt>
      <trkpt lat="62.633325888973" lon="17.983766518087">
        <ele>78</ele>
        <time>2018-03-19T11:03:52Z</time>
      </trkpt>
      <trkpt lat="62.633336617805" lon="17.983681106526">
        <ele>78</ele>
        <time>2018-03-19T11:03:53Z</time>
      </trkpt>
      <trkpt lat="62.633345837895" lon="17.983609776557">
        <ele>78</ele>
        <time>2018-03-19T11:03:54Z</time>
      </trkpt>
      <trkpt lat="62.633362350238" lon="17.983551773809">
        <ele>78</ele>
        <time>2018-03-19T11:03:55Z</time>
      </trkpt>
      <trkpt lat="62.633377940572" lon="17.983485389161">
        <ele>78</ele>
        <time>2018-03-19T11:03:56Z</time>
      </trkpt>
      <trkpt lat="62.63339487201" lon="17.983421686721">
        <ele>78</ele>
        <time>2018-03-19T11:03:57Z</time>
      </trkpt>
      <trkpt lat="62.633413898923" lon="17.983354212426">
        <ele>78.2</ele>
        <time>2018-03-19T11:03:58Z</time>
      </trkpt>
      <trkpt lat="62.63343342875" lon="17.983282714819">
        <ele>78.2</ele>
        <time>2018-03-19T11:03:59Z</time>
      </trkpt>
      <trkpt lat="62.633447091247" lon="17.983215911076">
        <ele>78.2</ele>
        <time>2018-03-19T11:04:00Z</time>
      </trkpt>
      <trkpt lat="62.633463771228" lon="17.983156818681">
        <ele>78.2</ele>
        <time>2018-03-19T11:04:01Z</time>
      </trkpt>
      <trkpt lat="62.633476846992" lon="17.983108538937">
        <ele>78.2</ele>
        <time>2018-03-19T11:04:02Z</time>
      </trkpt>
      <trkpt lat="62.633490677127" lon="17.98305129056">
        <ele>78.2</ele>
        <time>2018-03-19T11:04:03Z</time>
      </trkpt>
      <trkpt lat="62.633498053199" lon="17.983001082979">
        <ele>78</ele>
        <time>2018-03-19T11:04:04Z</time>
      </trkpt>
      <trkpt lat="62.633508446755" lon="17.982948277009">
        <ele>78.2</ele>
        <time>2018-03-19T11:04:05Z</time>
      </trkpt>
      <trkpt lat="62.633526216383" lon="17.982884155474">
        <ele>78.2</ele>
        <time>2018-03-19T11:04:06Z</time>
      </trkpt>
      <trkpt lat="62.633538873052" lon="17.982816010627">
        <ele>78.2</ele>
        <time>2018-03-19T11:04:07Z</time>
      </trkpt>
      <trkpt lat="62.633551278264" lon="17.982743255735">
        <ele>78.4</ele>
        <time>2018-03-19T11:04:08Z</time>
      </trkpt>
      <trkpt lat="62.633566198046" lon="17.982673099232">
        <ele>78.4</ele>
        <time>2018-03-19T11:04:09Z</time>
      </trkpt>
      <trkpt lat="62.63357005372" lon="17.98260034434">
        <ele>78.4</ele>
        <time>2018-03-19T11:04:10Z</time>
      </trkpt>
      <trkpt lat="62.633578351801" lon="17.982518369358">
        <ele>78.4</ele>
        <time>2018-03-19T11:04:11Z</time>
      </trkpt>
      <trkpt lat="62.633585895511" lon="17.982451062701">
        <ele>78.4</ele>
        <time>2018-03-19T11:04:12Z</time>
      </trkpt>
      <trkpt lat="62.63359603761" lon="17.982376631429">
        <ele>78.4</ele>
        <time>2018-03-19T11:04:13Z</time>
      </trkpt>
      <trkpt lat="62.633610370659" lon="17.982297506293">
        <ele>78.4</ele>
        <time>2018-03-19T11:04:14Z</time>
      </trkpt>
      <trkpt lat="62.633616405627" lon="17.982219470804">
        <ele>78.4</ele>
        <time>2018-03-19T11:04:15Z</time>
      </trkpt>
      <trkpt lat="62.633626380088" lon="17.982149481939">
        <ele>78.4</ele>
        <time>2018-03-19T11:04:16Z</time>
      </trkpt>
      <trkpt lat="62.633638282386" lon="17.982086617689">
        <ele>78.4</ele>
        <time>2018-03-19T11:04:17Z</time>
      </trkpt>
      <trkpt lat="62.633649597951" lon="17.982010090942">
        <ele>78.4</ele>
        <time>2018-03-19T11:04:18Z</time>
      </trkpt>
      <trkpt lat="62.633657644575" lon="17.981939766801">
        <ele>78.4</ele>
        <time>2018-03-19T11:04:19Z</time>
      </trkpt>
      <trkpt lat="62.633658734222" lon="17.981880255311">
        <ele>78.4</ele>
        <time>2018-03-19T11:04:20Z</time>
      </trkpt>
      <trkpt lat="62.633661835525" lon="17.981830718282">
        <ele>78.6</ele>
        <time>2018-03-19T11:04:21Z</time>
      </trkpt>
      <trkpt lat="62.633667702855" lon="17.981771039154">
        <ele>78.8</ele>
        <time>2018-03-19T11:04:22Z</time>
      </trkpt>
      <trkpt lat="62.633671977624" lon="17.981695602054">
        <ele>78.8</ele>
        <time>2018-03-19T11:04:23Z</time>
      </trkpt>
      <trkpt lat="62.633673067271" lon="17.981637766944">
        <ele>79</ele>
        <time>2018-03-19T11:04:24Z</time>
      </trkpt>
      <trkpt lat="62.633676336212" lon="17.981561156378">
        <ele>79</ele>
        <time>2018-03-19T11:04:25Z</time>
      </trkpt>
      <trkpt lat="62.633691507451" lon="17.981498627404">
        <ele>79</ele>
        <time>2018-03-19T11:04:26Z</time>
      </trkpt>
      <trkpt lat="62.633702320102" lon="17.981447581633">
        <ele>79.2</ele>
        <time>2018-03-19T11:04:27Z</time>
      </trkpt>
      <trkpt lat="62.633712378382" lon="17.981399720984">
        <ele>79</ele>
        <time>2018-03-19T11:04:28Z</time>
      </trkpt>
      <trkpt lat="62.633720005911" lon="17.98131372269">
        <ele>79.2</ele>
        <time>2018-03-19T11:04:29Z</time>
      </trkpt>
      <trkpt lat="62.633736434435" lon="17.981239878151">
        <ele>79.2</ele>
        <time>2018-03-19T11:04:30Z</time>
      </trkpt>
      <trkpt lat="62.633753365873" lon="17.981170140743">
        <ele>79.2</ele>
        <time>2018-03-19T11:04:31Z</time>
      </trkpt>
      <trkpt lat="62.633778846849" lon="17.981125884311">
        <ele>79.2</ele>
        <time>2018-03-19T11:04:32Z</time>
      </trkpt>
      <trkpt lat="62.633811117164" lon="17.981073916531">
        <ele>79.2</ele>
        <time>2018-03-19T11:04:33Z</time>
      </trkpt>
      <trkpt lat="62.633833999751" lon="17.981030582108">
        <ele>79.2</ele>
        <time>2018-03-19T11:04:34Z</time>
      </trkpt>
      <trkpt lat="62.633852020836" lon="17.980968136953">
        <ele>79.4</ele>
        <time>2018-03-19T11:04:35Z</time>
      </trkpt>
      <trkpt lat="62.633869203731" lon="17.980914157517">
        <ele>79.4</ele>
        <time>2018-03-19T11:04:36Z</time>
      </trkpt>
      <trkpt lat="62.633884961703" lon="17.980869733447">
        <ele>79.6</ele>
        <time>2018-03-19T11:04:37Z</time>
      </trkpt>
      <trkpt lat="62.633898875657" lon="17.98080242679">
        <ele>79.8</ele>
        <time>2018-03-19T11:04:38Z</time>
      </trkpt>
      <trkpt lat="62.633920165683" lon="17.980737215608">
        <ele>80</ele>
        <time>2018-03-19T11:04:39Z</time>
      </trkpt>
      <trkpt lat="62.633939946967" lon="17.980677787937">
        <ele>80</ele>
        <time>2018-03-19T11:04:40Z</time>
      </trkpt>
      <trkpt lat="62.633957884233" lon="17.980617102981">
        <ele>80.2</ele>
        <time>2018-03-19T11:04:41Z</time>
      </trkpt>
      <trkpt lat="62.633974648033" lon="17.980562285355">
        <ele>80.2</ele>
        <time>2018-03-19T11:04:42Z</time>
      </trkpt>
      <trkpt lat="62.633994932231" lon="17.980496990354">
        <ele>80.4</ele>
        <time>2018-03-19T11:04:43Z</time>
      </trkpt>
      <trkpt lat="62.634012282764" lon="17.980443010918">
        <ele>80.4</ele>
        <time>2018-03-19T11:04:44Z</time>
      </trkpt>
      <trkpt lat="62.634032315505" lon="17.980390372586">
        <ele>80.4</ele>
        <time>2018-03-19T11:04:45Z</time>
      </trkpt>
      <trkpt lat="62.634055701006" lon="17.980352570217">
        <ele>80.6</ele>
        <time>2018-03-19T11:04:46Z</time>
      </trkpt>
      <trkpt lat="62.634076152842" lon="17.980314516391">
        <ele>80.6</ele>
        <time>2018-03-19T11:04:47Z</time>
      </trkpt>
      <trkpt lat="62.634102974922" lon="17.980257351833">
        <ele>80.8</ele>
        <time>2018-03-19T11:04:48Z</time>
      </trkpt>
      <trkpt lat="62.634120576912" lon="17.980213095401">
        <ele>81</ele>
        <time>2018-03-19T11:04:49Z</time>
      </trkpt>
      <trkpt lat="62.634144800603" lon="17.980170599168">
        <ele>81</ele>
        <time>2018-03-19T11:04:50Z</time>
      </trkpt>
      <trkpt lat="62.634165839172" lon="17.980131455695">
        <ele>81</ele>
        <time>2018-03-19T11:04:51Z</time>
      </trkpt>
      <trkpt lat="62.634185201361" lon="17.980093401869">
        <ele>81</ele>
        <time>2018-03-19T11:04:52Z</time>
      </trkpt>
      <trkpt lat="62.634208503043" lon="17.980045876496">
        <ele>80.8</ele>
        <time>2018-03-19T11:04:53Z</time>
      </trkpt>
      <trkpt lat="62.634227529956" lon="17.980000195141">
        <ele>80.8</ele>
        <time>2018-03-19T11:04:54Z</time>
      </trkpt>
      <trkpt lat="62.634247981792" lon="17.979942695307">
        <ele>80.8</ele>
        <time>2018-03-19T11:04:55Z</time>
      </trkpt>
      <trkpt lat="62.634266170515" lon="17.979889721699">
        <ele>80.8</ele>
        <time>2018-03-19T11:04:56Z</time>
      </trkpt>
      <trkpt lat="62.634282766677" lon="17.979835071711">
        <ele>80.8</ele>
        <time>2018-03-19T11:04:57Z</time>
      </trkpt>
      <trkpt lat="62.634294333699" lon="17.979777571877">
        <ele>80.6</ele>
        <time>2018-03-19T11:04:58Z</time>
      </trkpt>
      <trkpt lat="62.634309421119" lon="17.979717306016">
        <ele>80.6</ele>
        <time>2018-03-19T11:04:59Z</time>
      </trkpt>
      <trkpt lat="62.634322077788" lon="17.979648825893">
        <ele>80.6</ele>
        <time>2018-03-19T11:05:00Z</time>
      </trkpt>
      <trkpt lat="62.634333225715" lon="17.979593086258">
        <ele>80.6</ele>
        <time>2018-03-19T11:05:01Z</time>
      </trkpt>
      <trkpt lat="62.634345547108" lon="17.97954514179">
        <ele>80.6</ele>
        <time>2018-03-19T11:05:02Z</time>
      </trkpt>
      <trkpt lat="62.634354515741" lon="17.979480265884">
        <ele>80.4</ele>
        <time>2018-03-19T11:05:03Z</time>
      </trkpt>
      <trkpt lat="62.634365328392" lon="17.979432405235">
        <ele>80.4</ele>
        <time>2018-03-19T11:05:04Z</time>
      </trkpt>
      <trkpt lat="62.634368513514" lon="17.9793766656">
        <ele>80.4</ele>
        <time>2018-03-19T11:05:05Z</time>
      </trkpt>
      <trkpt lat="62.634377817423" lon="17.979330481331">
        <ele>80</ele>
        <time>2018-03-19T11:05:06Z</time>
      </trkpt>
      <trkpt lat="62.634387791884" lon="17.979284883795">
        <ele>79.8</ele>
        <time>2018-03-19T11:05:07Z</time>
      </trkpt>
      <trkpt lat="62.634397431069" lon="17.979227970694">
        <ele>79.8</ele>
        <time>2018-03-19T11:05:08Z</time>
      </trkpt>
      <trkpt lat="62.634410339195" lon="17.979166866643">
        <ele>79.8</ele>
        <time>2018-03-19T11:05:09Z</time>
      </trkpt>
      <trkpt lat="62.634418302" lon="17.979114563587">
        <ele>80</ele>
        <time>2018-03-19T11:05:10Z</time>
      </trkpt>
      <trkpt lat="62.634431126307" lon="17.979050358233">
        <ele>80.4</ele>
        <time>2018-03-19T11:05:11Z</time>
      </trkpt>
      <trkpt lat="62.63443758037" lon="17.978992858399">
        <ele>80.4</ele>
        <time>2018-03-19T11:05:12Z</time>
      </trkpt>
      <trkpt lat="62.63445015322" lon="17.978928736864">
        <ele>80.4</ele>
        <time>2018-03-19T11:05:13Z</time>
      </trkpt>
      <trkpt lat="62.634456439645" lon="17.978861681664">
        <ele>80.4</ele>
        <time>2018-03-19T11:05:14Z</time>
      </trkpt>
      <trkpt lat="62.634466749382" lon="17.978800493794">
        <ele>80.2</ele>
        <time>2018-03-19T11:05:15Z</time>
      </trkpt>
      <trkpt lat="62.634475801834" lon="17.978739976476">
        <ele>80.2</ele>
        <time>2018-03-19T11:05:16Z</time>
      </trkpt>
      <trkpt lat="62.634490218702" lon="17.978678537149">
        <ele>80.2</ele>
        <time>2018-03-19T11:05:17Z</time>
      </trkpt>
      <trkpt lat="62.634504551751" lon="17.978598657642">
        <ele>80.2</ele>
        <time>2018-03-19T11:05:18Z</time>
      </trkpt>
      <trkpt lat="62.634519974447" lon="17.978526405664">
        <ele>80.2</ele>
        <time>2018-03-19T11:05:19Z</time>
      </trkpt>
      <trkpt lat="62.63453481041" lon="17.978449208365">
        <ele>80.4</ele>
        <time>2018-03-19T11:05:20Z</time>
      </trkpt>
      <trkpt lat="62.634544617233" lon="17.978379303319">
        <ele>80.6</ele>
        <time>2018-03-19T11:05:21Z</time>
      </trkpt>
      <trkpt lat="62.634555681341" lon="17.97830881154">
        <ele>80.6</ele>
        <time>2018-03-19T11:05:22Z</time>
      </trkpt>
      <trkpt lat="62.634564482336" lon="17.97821577245">
        <ele>80.8</ele>
        <time>2018-03-19T11:05:23Z</time>
      </trkpt>
      <trkpt lat="62.634576636091" lon="17.978123487731">
        <ele>80.6</ele>
        <time>2018-03-19T11:05:24Z</time>
      </trkpt>
      <trkpt lat="62.634580491765" lon="17.978045368423">
        <ele>80.4</ele>
        <time>2018-03-19T11:05:25Z</time>
      </trkpt>
      <trkpt lat="62.634593986624" lon="17.977966243287">
        <ele>80.4</ele>
        <time>2018-03-19T11:05:26Z</time>
      </trkpt>
      <trkpt lat="62.63460521837" lon="17.97789474568">
        <ele>80.2</ele>
        <time>2018-03-19T11:05:27Z</time>
      </trkpt>
      <trkpt lat="62.634616031021" lon="17.977831462335">
        <ele>79.6</ele>
        <time>2018-03-19T11:05:28Z</time>
      </trkpt>
      <trkpt lat="62.634625670206" lon="17.977745966955">
        <ele>79.2</ele>
        <time>2018-03-19T11:05:29Z</time>
      </trkpt>
      <trkpt lat="62.634633381554" lon="17.977675307538">
        <ele>79</ele>
        <time>2018-03-19T11:05:30Z</time>
      </trkpt>
      <trkpt lat="62.634646792594" lon="17.977598361696">
        <ele>78.6</ele>
        <time>2018-03-19T11:05:31Z</time>
      </trkpt>
      <trkpt lat="62.634654084847" lon="17.977545723364">
        <ele>78.4</ele>
        <time>2018-03-19T11:05:32Z</time>
      </trkpt>
      <trkpt lat="62.634669088448" lon="17.977460227984">
        <ele>78.2</ele>
        <time>2018-03-19T11:05:33Z</time>
      </trkpt>
      <trkpt lat="62.634681074565" lon="17.977408260204">
        <ele>78</ele>
        <time>2018-03-19T11:05:34Z</time>
      </trkpt>
      <trkpt lat="62.634697000175" lon="17.977338774253">
        <ele>78</ele>
        <time>2018-03-19T11:05:35Z</time>
      </trkpt>
      <trkpt lat="62.634705382075" lon="17.97728202879">
        <ele>78</ele>
        <time>2018-03-19T11:05:36Z</time>
      </trkpt>
      <trkpt lat="62.634715188898" lon="17.977231234476">
        <ele>78</ele>
        <time>2018-03-19T11:05:37Z</time>
      </trkpt>
      <trkpt lat="62.634729773404" lon="17.977161413249">
        <ele>78.4</ele>
        <time>2018-03-19T11:05:38Z</time>
      </trkpt>
      <trkpt lat="62.634745363738" lon="17.977094693325">
        <ele>78.4</ele>
        <time>2018-03-19T11:05:39Z</time>
      </trkpt>
      <trkpt lat="62.634759529149" lon="17.977031242342">
        <ele>78.4</ele>
        <time>2018-03-19T11:05:40Z</time>
      </trkpt>
      <trkpt lat="62.634774784207" lon="17.976960582925">
        <ele>78.6</ele>
        <time>2018-03-19T11:05:41Z</time>
      </trkpt>
      <trkpt lat="62.634785513039" lon="17.97689478501">
        <ele>78.8</ele>
        <time>2018-03-19T11:05:42Z</time>
      </trkpt>
      <trkpt lat="62.634792889111" lon="17.976816498064">
        <ele>78.6</ele>
        <time>2018-03-19T11:05:43Z</time>
      </trkpt>
      <trkpt lat="62.63479800207" lon="17.976738797851">
        <ele>78.4</ele>
        <time>2018-03-19T11:05:44Z</time>
      </trkpt>
      <trkpt lat="62.634805629599" lon="17.976675598325">
        <ele>78.2</ele>
        <time>2018-03-19T11:05:45Z</time>
      </trkpt>
      <trkpt lat="62.634817112802" lon="17.976608543125">
        <ele>78.4</ele>
        <time>2018-03-19T11:05:46Z</time>
      </trkpt>
      <trkpt lat="62.634825997616" lon="17.976544002495">
        <ele>78.4</ele>
        <time>2018-03-19T11:05:47Z</time>
      </trkpt>
      <trkpt lat="62.634840917398" lon="17.97646227897">
        <ele>78.6</ele>
        <time>2018-03-19T11:05:48Z</time>
      </trkpt>
      <trkpt lat="62.634853154972" lon="17.976398492711">
        <ele>78.6</ele>
        <time>2018-03-19T11:05:49Z</time>
      </trkpt>
      <trkpt lat="62.634869583496" lon="17.976326743647">
        <ele>78.8</ele>
        <time>2018-03-19T11:05:50Z</time>
      </trkpt>
      <trkpt lat="62.634888107495" lon="17.976249462529">
        <ele>78.8</ele>
        <time>2018-03-19T11:05:51Z</time>
      </trkpt>
      <trkpt lat="62.634904787476" lon="17.976174360705">
        <ele>78.8</ele>
        <time>2018-03-19T11:05:52Z</time>
      </trkpt>
      <trkpt lat="62.63492792152" lon="17.976109233342">
        <ele>78.6</ele>
        <time>2018-03-19T11:05:53Z</time>
      </trkpt>
      <trkpt lat="62.634947786623" lon="17.97603899302">
        <ele>78.2</ele>
        <time>2018-03-19T11:05:54Z</time>
      </trkpt>
      <trkpt lat="62.634970082477" lon="17.975960538436">
        <ele>78</ele>
        <time>2018-03-19T11:05:55Z</time>
      </trkpt>
      <trkpt lat="62.63498659482" lon="17.975883592594">
        <ele>77.8</ele>
        <time>2018-03-19T11:05:56Z</time>
      </trkpt>
      <trkpt lat="62.635002771887" lon="17.975806311476">
        <ele>77.6</ele>
        <time>2018-03-19T11:05:57Z</time>
      </trkpt>
      <trkpt lat="62.635019535687" lon="17.975722408657">
        <ele>77.6</ele>
        <time>2018-03-19T11:05:58Z</time>
      </trkpt>
      <trkpt lat="62.635034706926" lon="17.975658287122">
        <ele>77.4</ele>
        <time>2018-03-19T11:05:59Z</time>
      </trkpt>
      <trkpt lat="62.635046525405" lon="17.975572372647">
        <ele>77.2</ele>
        <time>2018-03-19T11:06:00Z</time>
      </trkpt>
      <trkpt lat="62.635055494038" lon="17.975504982171">
        <ele>77</ele>
        <time>2018-03-19T11:06:01Z</time>
      </trkpt>
      <trkpt lat="62.635062451015" lon="17.975443710482">
        <ele>77</ele>
        <time>2018-03-19T11:06:02Z</time>
      </trkpt>
      <trkpt lat="62.635068234526" lon="17.975361567862">
        <ele>76.8</ele>
        <time>2018-03-19T11:06:03Z</time>
      </trkpt>
      <trkpt lat="62.635075694417" lon="17.975281939812">
        <ele>76.8</ele>
        <time>2018-03-19T11:06:04Z</time>
      </trkpt>
      <trkpt lat="62.63507795753" lon="17.975197953174">
        <ele>76.2</ele>
        <time>2018-03-19T11:06:05Z</time>
      </trkpt>
      <trkpt lat="62.635068485983" lon="17.975114050355">
        <ele>76.2</ele>
        <time>2018-03-19T11:06:06Z</time>
      </trkpt>
      <trkpt lat="62.635059601169" lon="17.9750348414">
        <ele>75.8</ele>
        <time>2018-03-19T11:06:07Z</time>
      </trkpt>
      <trkpt lat="62.635050381079" lon="17.97495437516">
        <ele>75.6</ele>
        <time>2018-03-19T11:06:08Z</time>
      </trkpt>
      <trkpt lat="62.635034623107" lon="17.974869801789">
        <ele>75.8</ele>
        <time>2018-03-19T11:06:09Z</time>
      </trkpt>
      <trkpt lat="62.635018697497" lon="17.974789503187">
        <ele>75.8</ele>
        <time>2018-03-19T11:06:10Z</time>
      </trkpt>
      <trkpt lat="62.634997323652" lon="17.974723537634">
        <ele>75.6</ele>
        <time>2018-03-19T11:06:11Z</time>
      </trkpt>
      <trkpt lat="62.634978380558" lon="17.974641227376">
        <ele>75.6</ele>
        <time>2018-03-19T11:06:12Z</time>
      </trkpt>
      <trkpt lat="62.634954575962" lon="17.974564449172">
        <ele>75.4</ele>
        <time>2018-03-19T11:06:13Z</time>
      </trkpt>
      <trkpt lat="62.634932866841" lon="17.974491778099">
        <ele>75.2</ele>
        <time>2018-03-19T11:06:14Z</time>
      </trkpt>
      <trkpt lat="62.634921635095" lon="17.974432098971">
        <ele>75</ele>
        <time>2018-03-19T11:06:15Z</time>
      </trkpt>
      <trkpt lat="62.634912247367" lon="17.974364959952">
        <ele>74.6</ele>
        <time>2018-03-19T11:06:16Z</time>
      </trkpt>
      <trkpt lat="62.634896573214" lon="17.974299078218">
        <ele>74.4</ele>
        <time>2018-03-19T11:06:17Z</time>
      </trkpt>
      <trkpt lat="62.634881988708" lon="17.974217187055">
        <ele>74.4</ele>
        <time>2018-03-19T11:06:18Z</time>
      </trkpt>
      <trkpt lat="62.634874193541" lon="17.974139822118">
        <ele>74</ele>
        <time>2018-03-19T11:06:19Z</time>
      </trkpt>
      <trkpt lat="62.634860363406" lon="17.9740709229">
        <ele>74</ele>
        <time>2018-03-19T11:06:20Z</time>
      </trkpt>
      <trkpt lat="62.63484242614" lon="17.9739954858">
        <ele>73.8</ele>
        <time>2018-03-19T11:06:21Z</time>
      </trkpt>
      <trkpt lat="62.634821136114" lon="17.973940668174">
        <ele>73.8</ele>
        <time>2018-03-19T11:06:22Z</time>
      </trkpt>
      <trkpt lat="62.634809485273" lon="17.973864560522">
        <ele>73.8</ele>
        <time>2018-03-19T11:06:23Z</time>
      </trkpt>
      <trkpt lat="62.634787273238" lon="17.973806222498">
        <ele>73.8</ele>
        <time>2018-03-19T11:06:24Z</time>
      </trkpt>
      <trkpt lat="62.634777131139" lon="17.973737742375">
        <ele>73.6</ele>
        <time>2018-03-19T11:06:25Z</time>
      </trkpt>
      <trkpt lat="62.634766486126" lon="17.973685858414">
        <ele>73.6</ele>
        <time>2018-03-19T11:06:26Z</time>
      </trkpt>
      <trkpt lat="62.634758104226" lon="17.973617378291">
        <ele>73.4</ele>
        <time>2018-03-19T11:06:27Z</time>
      </trkpt>
      <trkpt lat="62.634746285747" lon="17.973551580376">
        <ele>73.2</ele>
        <time>2018-03-19T11:06:28Z</time>
      </trkpt>
      <trkpt lat="62.634736730381" lon="17.97347245524">
        <ele>73.4</ele>
        <time>2018-03-19T11:06:29Z</time>
      </trkpt>
      <trkpt lat="62.634726169187" lon="17.973397269597">
        <ele>73.4</ele>
        <time>2018-03-19T11:06:30Z</time>
      </trkpt>
      <trkpt lat="62.634721307685" lon="17.97332661018">
        <ele>73.4</ele>
        <time>2018-03-19T11:06:31Z</time>
      </trkpt>
      <trkpt lat="62.634722816427" lon="17.97325620222">
        <ele>73.4</ele>
        <time>2018-03-19T11:06:32Z</time>
      </trkpt>
      <trkpt lat="62.634722397332" lon="17.97317070684">
        <ele>73.4</ele>
        <time>2018-03-19T11:06:33Z</time>
      </trkpt>
      <trkpt lat="62.634729773404" lon="17.97308940241">
        <ele>73</ele>
        <time>2018-03-19T11:06:34Z</time>
      </trkpt>
      <trkpt lat="62.634740669874" lon="17.972999967537">
        <ele>73</ele>
        <time>2018-03-19T11:06:35Z</time>
      </trkpt>
      <trkpt lat="62.634756260208" lon="17.97292511717">
        <ele>73</ele>
        <time>2018-03-19T11:06:36Z</time>
      </trkpt>
      <trkpt lat="62.634770844714" lon="17.972850937355">
        <ele>73</ele>
        <time>2018-03-19T11:06:37Z</time>
      </trkpt>
      <trkpt lat="62.634786854143" lon="17.972773237142">
        <ele>73</ele>
        <time>2018-03-19T11:06:38Z</time>
      </trkpt>
      <trkpt lat="62.634811496929" lon="17.972703751191">
        <ele>73</ele>
        <time>2018-03-19T11:06:39Z</time>
      </trkpt>
      <trkpt lat="62.634829098919" lon="17.972641389855">
        <ele>72.8</ele>
        <time>2018-03-19T11:06:40Z</time>
      </trkpt>
      <trkpt lat="62.634846114176" lon="17.972572490637">
        <ele>72.6</ele>
        <time>2018-03-19T11:06:41Z</time>
      </trkpt>
      <trkpt lat="62.634866566012" lon="17.972502837048">
        <ele>72.4</ele>
        <time>2018-03-19T11:06:42Z</time>
      </trkpt>
      <trkpt lat="62.634891627893" lon="17.972432429088">
        <ele>72.4</ele>
        <time>2018-03-19T11:06:43Z</time>
      </trkpt>
      <trkpt lat="62.634918282335" lon="17.972362943137">
        <ele>72.2</ele>
        <time>2018-03-19T11:06:44Z</time>
      </trkpt>
      <trkpt lat="62.634939404723" lon="17.972294295376">
        <ele>72.2</ele>
        <time>2018-03-19T11:06:45Z</time>
      </trkpt>
      <trkpt lat="62.634962119672" lon="17.97222858128">
        <ele>72</ele>
        <time>2018-03-19T11:06:46Z</time>
      </trkpt>
      <trkpt lat="62.634978380558" lon="17.972168483057">
        <ele>71.6</ele>
        <time>2018-03-19T11:06:47Z</time>
      </trkpt>
      <trkpt lat="62.635003442439" lon="17.972084580238">
        <ele>71.4</ele>
        <time>2018-03-19T11:06:48Z</time>
      </trkpt>
      <trkpt lat="62.635026241207" lon="17.971989278035">
        <ele>71.2</ele>
        <time>2018-03-19T11:06:49Z</time>
      </trkpt>
      <trkpt lat="62.635051638364" lon="17.971895233117">
        <ele>71</ele>
        <time>2018-03-19T11:06:50Z</time>
      </trkpt>
      <trkpt lat="62.635069407992" lon="17.971785346408">
        <ele>70.8</ele>
        <time>2018-03-19T11:06:51Z</time>
      </trkpt>
      <trkpt lat="62.63508298667" lon="17.97168878692">
        <ele>70.4</ele>
        <time>2018-03-19T11:06:52Z</time>
      </trkpt>
      <trkpt lat="62.635097403538" lon="17.971574709261">
        <ele>69.8</ele>
        <time>2018-03-19T11:06:53Z</time>
      </trkpt>
      <trkpt lat="62.635107545637" lon="17.971470689882">
        <ele>69.4</ele>
        <time>2018-03-19T11:06:54Z</time>
      </trkpt>
      <trkpt lat="62.635117101003" lon="17.971378740439">
        <ele>68.8</ele>
        <time>2018-03-19T11:06:55Z</time>
      </trkpt>
      <trkpt lat="62.635126069636" lon="17.971276565078">
        <ele>68.4</ele>
        <time>2018-03-19T11:06:56Z</time>
      </trkpt>
      <trkpt lat="62.635133948622" lon="17.971176485192">
        <ele>68</ele>
        <time>2018-03-19T11:06:57Z</time>
      </trkpt>
      <trkpt lat="62.635143001074" lon="17.971074728926">
        <ele>67.6</ele>
        <time>2018-03-19T11:06:58Z</time>
      </trkpt>
      <trkpt lat="62.635152640259" lon="17.970969536081">
        <ele>67</ele>
        <time>2018-03-19T11:06:59Z</time>
      </trkpt>
      <trkpt lat="62.635163285272" lon="17.970865851978">
        <ele>66.8</ele>
        <time>2018-03-19T11:07:00Z</time>
      </trkpt>
      <trkpt lat="62.63517351119" lon="17.970765436816">
        <ele>66.4</ele>
        <time>2018-03-19T11:07:01Z</time>
      </trkpt>
      <trkpt lat="62.635182898918" lon="17.970678181237">
        <ele>66</ele>
        <time>2018-03-19T11:07:02Z</time>
      </trkpt>
      <trkpt lat="62.635194046845" lon="17.970567540157">
        <ele>65.8</ele>
        <time>2018-03-19T11:07:03Z</time>
      </trkpt>
      <trkpt lat="62.635204356582" lon="17.970478775836">
        <ele>66</ele>
        <time>2018-03-19T11:07:04Z</time>
      </trkpt>
      <trkpt lat="62.635213576672" lon="17.970386155841">
        <ele>65.6</ele>
        <time>2018-03-19T11:07:05Z</time>
      </trkpt>
      <trkpt lat="62.635223048219" lon="17.970298564986">
        <ele>65.6</ele>
        <time>2018-03-19T11:07:06Z</time>
      </trkpt>
      <trkpt lat="62.63523386087" lon="17.970217344375">
        <ele>65.6</ele>
        <time>2018-03-19T11:07:07Z</time>
      </trkpt>
      <trkpt lat="62.635246014625" lon="17.970121036344">
        <ele>65.6</ele>
        <time>2018-03-19T11:07:08Z</time>
      </trkpt>
      <trkpt lat="62.63526403571" lon="17.970026153236">
        <ele>65.4</ele>
        <time>2018-03-19T11:07:09Z</time>
      </trkpt>
      <trkpt lat="62.63528247589" lon="17.969939065295">
        <ele>65.2</ele>
        <time>2018-03-19T11:07:10Z</time>
      </trkpt>
      <trkpt lat="62.635304939382" lon="17.969843260178">
        <ele>65</ele>
        <time>2018-03-19T11:07:11Z</time>
      </trkpt>
      <trkpt lat="62.635326145589" lon="17.969757680979">
        <ele>65</ele>
        <time>2018-03-19T11:07:12Z</time>
      </trkpt>
      <trkpt lat="62.635350536918" lon="17.969665312441">
        <ele>64.4</ele>
        <time>2018-03-19T11:07:13Z</time>
      </trkpt>
      <trkpt lat="62.63537300041" lon="17.969577805405">
        <ele>63.8</ele>
        <time>2018-03-19T11:07:14Z</time>
      </trkpt>
      <trkpt lat="62.635393452246" lon="17.969492310025">
        <ele>63</ele>
        <time>2018-03-19T11:07:15Z</time>
      </trkpt>
      <trkpt lat="62.635414658453" lon="17.9694105865">
        <ele>62.6</ele>
        <time>2018-03-19T11:07:16Z</time>
      </trkpt>
      <trkpt lat="62.635438295411" lon="17.969328192423">
        <ele>62.2</ele>
        <time>2018-03-19T11:07:17Z</time>
      </trkpt>
      <trkpt lat="62.635466290957" lon="17.969236075342">
        <ele>62.2</ele>
        <time>2018-03-19T11:07:18Z</time>
      </trkpt>
      <trkpt lat="62.635488586811" lon="17.969139683492">
        <ele>61.8</ele>
        <time>2018-03-19T11:07:19Z</time>
      </trkpt>
      <trkpt lat="62.635511720855" lon="17.969043040185">
        <ele>61.2</ele>
        <time>2018-03-19T11:07:20Z</time>
      </trkpt>
      <trkpt lat="62.635536196003" lon="17.968948576172">
        <ele>61</ele>
        <time>2018-03-19T11:07:21Z</time>
      </trkpt>
      <trkpt lat="62.63556159316" lon="17.968872133244">
        <ele>61</ele>
        <time>2018-03-19T11:07:22Z</time>
      </trkpt>
      <trkpt lat="62.635593695837" lon="17.968787895149">
        <ele>60.4</ele>
        <time>2018-03-19T11:07:23Z</time>
      </trkpt>
      <trkpt lat="62.635623954496" lon="17.968709608203">
        <ele>59.8</ele>
        <time>2018-03-19T11:07:24Z</time>
      </trkpt>
      <trkpt lat="62.635653542603" lon="17.968643558831">
        <ele>59.6</ele>
        <time>2018-03-19T11:07:25Z</time>
      </trkpt>
      <trkpt lat="62.635682208701" lon="17.968579353477">
        <ele>58.8</ele>
        <time>2018-03-19T11:07:26Z</time>
      </trkpt>
      <trkpt lat="62.635712215903" lon="17.968522691833">
        <ele>58</ele>
        <time>2018-03-19T11:07:27Z</time>
      </trkpt>
      <trkpt lat="62.635740882001" lon="17.96846929913">
        <ele>57.6</ele>
        <time>2018-03-19T11:07:28Z</time>
      </trkpt>
      <trkpt lat="62.635775918343" lon="17.968425880888">
        <ele>57.4</ele>
        <time>2018-03-19T11:07:29Z</time>
      </trkpt>
      <trkpt lat="62.635816738196" lon="17.968395706048">
        <ele>57.6</ele>
        <time>2018-03-19T11:07:30Z</time>
      </trkpt>
      <trkpt lat="62.635852612728" lon="17.968368297235">
        <ele>57</ele>
        <time>2018-03-19T11:07:31Z</time>
      </trkpt>
      <trkpt lat="62.635885302138" lon="17.968366117941">
        <ele>57</ele>
        <time>2018-03-19T11:07:32Z</time>
      </trkpt>
      <trkpt lat="62.635922517774" lon="17.968368883968">
        <ele>57</ele>
        <time>2018-03-19T11:07:33Z</time>
      </trkpt>
      <trkpt lat="62.635946070913" lon="17.968365698846">
        <ele>57.2</ele>
        <time>2018-03-19T11:07:34Z</time>
      </trkpt>
      <trkpt lat="62.635963840541" lon="17.968361507896">
        <ele>56</ele>
        <time>2018-03-19T11:07:35Z</time>
      </trkpt>
    </trkseg>
  </trk>
</gpx>